# Wetter Temperatur Luftdruck Luftfeuchtigkeit Sichtweite Windgeschwindigkeit Windrichtung Zeit
1 Clear 14 1026 54 10000 2.1 60 09:36 08.04.2020
2 Clear 12 1026 66 10000 3.6 50 09:18 08.04.2020
3 Clear 11 1026 62 10000 3.1 40 08:42 08.04.2020
4 Clear 10 1026 71 10000 2.6 50 08:22 08.04.2020
5 Clear 9 1026 76 10000 3.6 50 07:44 08.04.2020
6 Clear 9 1026 76 10000 3.6 50 07:25 08.04.2020
7 Clear 9 1026 71 10000 3.6 50 06:56 08.04.2020
8 Clear 9 1026 66 10000 4.6 50 05:56 08.04.2020
9 Clear 10 1026 66 10000 4.1 50 04:19 08.04.2020
10 Clear 11 1027 66 10000 4.1 50 02:49 08.04.2020
11 Clear 11 1027 66 10000 4.1 50 02:20 08.04.2020
12 Clear 12 1027 66 10000 3.1 50 01:45 08.04.2020
13 Clear 12 1027 66 10000 3.1 50 01:23 08.04.2020
14 Clouds 12 1027 41 10000 4.1 40 00:41 08.04.2020
15 Clear 13 1028 54 10000 3.1 50 00:21 08.04.2020
16 Clouds 13 1027 41 10000 3.6 50 23:39 07.04.2020
17 Clear 13 1028 54 10000 2.1 40 23:21 07.04.2020
18 Clear 14 1028 51 10000 2.6 50 22:57 07.04.2020
19 Clouds 14 1027 41 10000 3.6 60 22:39 07.04.2020
20 Clear 14 1028 51 10000 2.6 50 22:19 07.04.2020
21 Clear 14 1027 54 10000 3.1 40 21:56 07.04.2020
22 Clouds 15 1027 39 10000 3.1 70 21:38 07.04.2020
23 Clear 15 1027 54 10000 3.1 40 21:20 07.04.2020
24 Clear 16 1027 45 10000 4.1 40 20:57 07.04.2020
25 Clear 17 1027 45 10000 4.1 40 20:38 07.04.2020
26 Clear 18 1027 45 10000 4.1 40 20:20 07.04.2020
27 Clear 19 1027 34 10000 3.1 60 19:57 07.04.2020
28 Clear 20 1027 34 10000 3.1 60 19:36 07.04.2020
29 Rain 20 1027 35 10000 4.1 60 19:18 07.04.2020
30 Clouds 21 1027 35 10000 4.1 80 18:56 07.04.2020
31 Rain 21 1027 33 10000 5.1 60 18:38 07.04.2020
32 Clouds 21 1027 35 10000 4.1 80 18:19 07.04.2020
33 Clouds 21 1028 37 10000 3.1 40 17:44 07.04.2020
34 Clouds 21 1028 37 10000 3.1 40 17:21 07.04.2020
35 Clear 22 1028 35 10000 2.1 50 16:47 07.04.2020
36 Clear 22 1028 35 10000 2.1 50 16:47 07.04.2020
37 Clear 21 1028 35 10000 2.1 50 16:28 07.04.2020
38 Clear 21 1028 35 10000 2.1 50 15:58 07.04.2020
39 Clear 21 1029 32 10000 3.1 70 15:40 07.04.2020
40 Rain 21 1028 33 10000 3.1 0 15:22 07.04.2020
41 Rain 21 1029 35 10000 3.1 60 14:41 07.04.2020
42 Clear 20 1029 37 10000 3.1 90 14:22 07.04.2020
43 Clear 20 1030 48 10000 3.1 50 13:57 07.04.2020
44 Rain 19 1029 45 10000 4.1 50 13:39 07.04.2020
45 Clear 20 1030 48 10000 3.1 50 13:18 07.04.2020
46 Clear 19 1030 55 10000 4.6 50 12:55 07.04.2020
47 Clear 19 1030 55 10000 4.6 50 12:37 07.04.2020
48 Clear 17 1030 55 10000 4.6 50 12:18 07.04.2020
49 Clear 16 1030 58 10000 6.2 40 11:44 07.04.2020
50 Clear 16 1030 58 10000 6.2 40 11:26 07.04.2020
51 Clear 15 1030 71 10000 4.1 60 10:59 07.04.2020
52 Clouds 15 1030 62 10000 5.7 50 10:39 07.04.2020
53 Clear 14 1030 71 10000 4.1 60 10:19 07.04.2020
54 Clear 13 1030 76 10000 2.1 70 09:46 07.04.2020
55 Clear 11 1030 76 10000 2.1 70 09:20 07.04.2020
56 Clear 10 1029 87 10000 2.6 60 08:59 07.04.2020
57 Clouds 9 1029 62 10000 3.6 60 08:39 07.04.2020
58 Clear 9 1029 87 10000 2.6 60 08:19 07.04.2020
59 Clear 8 1029 76 10000 1.5 50 07:44 07.04.2020
60 Clear 8 1029 76 10000 1.5 50 07:26 07.04.2020
61 Clear 8 1028 75 10000 1.58 55 06:52 07.04.2020
62 Clear 8 1028 75 10000 1.12 43 06:25 07.04.2020
63 Clear 8 1028 66 10000 2.1 10 05:50 07.04.2020
64 Clear 8 1028 66 10000 2.1 10 05:24 07.04.2020
65 Clouds 9 1027 66 10000 3.6 20 03:36 07.04.2020
66 Clouds 9 1028 53 10000 2.1 50 03:18 07.04.2020
67 Clear 9 1027 62 10000 5.1 360 02:36 07.04.2020
68 Clear 9 1026 53 10000 0.81 319 01:38 07.04.2020
69 Clear 10 1026 53 10000 0.81 319 01:20 07.04.2020
70 Clouds 10 1026 79 10000 2.1 300 00:25 07.04.2020
71 Clear 11 1026 50 10000 3.6 300 23:42 06.04.2020
72 Clouds 11 1025 35 10000 2.1 300 23:21 06.04.2020
73 Clear 11 1025 35 10000 0.98 275 22:54 06.04.2020
74 Clear 11 1025 35 10000 0.98 275 22:36 06.04.2020
75 Clear 12 1025 35 10000 0.98 275 22:18 06.04.2020
76 Clear 13 1024 30 10000 2.1 220 21:43 06.04.2020
77 Clear 13 1024 30 10000 2.1 220 21:20 06.04.2020
78 Clear 14 1023 29 10000 2.6 230 20:58 06.04.2020
79 Clear 14 1023 29 10000 2.6 230 20:58 06.04.2020
80 Clear 15 1024 36 10000 3.1 240 20:40 06.04.2020
81 Clear 16 1023 29 10000 2.6 230 20:21 06.04.2020
82 Clear 17 1023 25 10000 4.6 190 19:58 06.04.2020
83 Clear 18 1023 68 10000 4.6 250 19:39 06.04.2020
84 Clear 19 1023 25 10000 4.6 190 19:20 06.04.2020
85 Clear 19 1022 24 10000 5.7 220 18:45 06.04.2020
86 Clear 19 1022 24 10000 5.7 220 18:24 06.04.2020
87 Clear 19 1022 44 10000 4.6 190 17:59 06.04.2020
88 Clear 19 1022 44 10000 6.2 200 17:41 06.04.2020
89 Clear 19 1022 44 10000 4.6 190 17:19 06.04.2020
90 Clear 20 1022 44 10000 6.2 170 16:49 06.04.2020
91 Clear 20 1022 44 10000 6.2 170 16:49 06.04.2020
92 Clear 19 1022 24 10000 7.2 190 16:31 06.04.2020
93 Clear 19 1022 44 10000 6.7 180 15:40 06.04.2020
94 Clear 19 1022 44 10000 6.7 180 15:40 06.04.2020
95 Clear 18 1022 42 10000 6.2 200 13:45 06.04.2020
96 Clear 17 1022 42 10000 6.2 200 13:24 06.04.2020
97 Clear 17 1022 36 10000 5.1 200 12:54 06.04.2020
98 Clear 17 1022 36 10000 5.1 200 12:54 06.04.2020
99 Clear 17 1022 36 10000 5.1 200 12:54 06.04.2020
100 Clear 17 1022 36 10000 5.1 200 12:54 06.04.2020
101 Clear 17 1022 36 10000 5.1 200 12:54 06.04.2020
102 Clear 17 1022 36 10000 5.1 200 12:21 06.04.2020
103 Clear 15 1022 38 10000 4.1 190 11:54 06.04.2020
104 Clear 15 1022 38 10000 4.1 190 11:54 06.04.2020
105 Clear 15 1022 38 10000 4.1 190 11:54 06.04.2020
106 Clear 15 1022 38 10000 4.1 190 11:54 06.04.2020
107 Clear 15 1022 38 10000 4.1 190 11:54 06.04.2020
108 Clear 15 1022 41 10000 4.1 200 11:31 06.04.2020
109 Clear 15 1022 41 10000 4.1 200 11:31 06.04.2020
110 Clear 15 1022 41 10000 4.1 200 11:31 06.04.2020
111 Clear 15 1022 41 10000 4.1 200 11:31 06.04.2020
112 Clear 15 1022 41 10000 4.1 200 11:31 06.04.2020
113 Clear 13 1021 43 10000 3.1 190 10:50 06.04.2020
114 Clear 13 1021 43 10000 3.1 190 10:50 06.04.2020
115 Clear 13 1021 43 10000 3.1 190 10:50 06.04.2020
116 Clear 13 1021 43 10000 3.1 190 10:50 06.04.2020
117 Clear 13 1021 43 10000 3.1 190 10:50 06.04.2020
118 Clear 13 1021 43 10000 3.1 190 10:21 06.04.2020
119 Clear 11 1021 53 10000 1.5 180 09:47 06.04.2020
120 Clear 11 1021 53 10000 1.5 180 09:47 06.04.2020
121 Clear 11 1021 53 10000 1.5 180 09:47 06.04.2020
122 Clear 11 1021 53 10000 1.5 180 09:47 06.04.2020
123 Clear 11 1021 53 10000 1.5 180 09:47 06.04.2020
124 Clear 10 1021 53 10000 1.5 180 09:20 06.04.2020
125 Clear 8 1020 77 10000 1.5 100 08:54 06.04.2020
126 Clear 7 1020 57 10000 4.1 180 08:30 06.04.2020
127 Clear 6 1019 56 10000 1.63 159 07:35 06.04.2020
128 Clear 6 1019 56 10000 1.63 159 07:35 06.04.2020
129 Clear 6 1019 60 10000 1.5 70 06:42 06.04.2020
130 Clear 6 1019 60 10000 1.5 70 06:23 06.04.2020
131 Clear 7 1018 45 10000 2.1 60 04:20 06.04.2020
132 Clear 7 1018 76 10000 2.1 160 02:58 06.04.2020
133 Clear 7 1019 43 10000 2.1 50 02:36 06.04.2020
134 Clear 8 1019 43 10000 2.1 50 01:26 06.04.2020
135 Clear 8 1019 43 10000 3.1 70 00:41 06.04.2020
136 Clear 9 1019 43 10000 3.1 70 00:23 06.04.2020
137 Clear 9 1019 40 10000 3.1 60 23:44 05.04.2020
138 Clear 10 1019 40 10000 3.1 60 23:25 05.04.2020
139 Clear 10 1019 40 10000 3.1 60 23:25 05.04.2020
140 Clear 10 1019 37 10000 2.6 70 22:55 05.04.2020
141 Clear 11 1019 37 10000 2.6 70 22:37 05.04.2020
142 Clear 11 1019 37 10000 2.6 70 22:18 05.04.2020
143 Clear 12 1019 37 10000 2.1 80 21:46 05.04.2020
144 Clear 12 1019 37 10000 2.1 80 21:25 05.04.2020
145 Clear 13 1019 33 10000 3.1 80 20:47 05.04.2020
146 Clear 15 1019 33 10000 3.1 80 20:20 05.04.2020
147 Clear 15 1019 33 10000 3.1 80 20:20 05.04.2020
148 Clear 15 1019 33 10000 3.1 80 20:19 05.04.2020
149 Clear 15 1019 33 10000 3.1 80 20:19 05.04.2020
150 Clear 15 1019 33 10000 3.1 80 20:19 05.04.2020
151 Clear 16 1019 29 10000 4.1 70 19:38 05.04.2020
152 Clear 17 1019 29 10000 4.1 70 19:20 05.04.2020
153 Clear 18 1019 27 10000 5.1 90 18:44 05.04.2020
154 Clear 18 1019 27 10000 5.1 90 18:44 05.04.2020
155 Clear 18 1019 27 10000 5.1 90 18:44 05.04.2020
156 Clear 18 1019 27 10000 5.1 90 18:44 05.04.2020
157 Clear 18 1019 27 10000 5.1 90 18:44 05.04.2020
158 Clear 18 1019 42 10000 5.1 80 17:57 05.04.2020
159 Clear 18 1019 42 10000 5.1 80 17:39 05.04.2020
160 Clear 18 1019 42 10000 5.1 80 17:39 05.04.2020
161 Clear 18 1019 42 10000 5.1 80 17:20 05.04.2020
162 Clear 18 1019 42 10000 5.1 80 17:20 05.04.2020
163 Clear 18 1019 42 10000 5.1 80 17:20 05.04.2020
164 Clear 18 1019 42 10000 5.1 80 17:20 05.04.2020
165 Clear 18 1019 42 10000 5.1 80 17:20 05.04.2020
166 Clear 18 1020 27 10000 3.6 90 16:20 05.04.2020
167 Clear 18 1020 27 10000 3.6 150 15:52 05.04.2020
168 Clear 18 1020 27 10000 3.6 150 15:33 05.04.2020
169 Clear 17 1021 31 10000 2.6 140 14:50 05.04.2020
170 Clear 17 1020 33 10000 5.1 140 14:26 05.04.2020
171 Clear 17 1022 31 10000 3.6 70 13:44 05.04.2020
172 Clear 16 1022 41 10000 3.6 80 12:54 05.04.2020
173 Clear 16 1022 41 10000 3.6 80 12:54 05.04.2020
174 Clear 16 1022 41 10000 3.6 80 12:54 05.04.2020
175 Clear 16 1022 41 10000 3.6 80 12:54 05.04.2020
176 Clear 16 1022 41 10000 3.6 80 12:54 05.04.2020
177 Clear 13 1023 48 10000 5.1 70 11:43 05.04.2020
178 Clear 13 1023 48 10000 5.1 70 11:21 05.04.2020
179 Clear 13 1023 48 10000 5.1 70 11:21 05.04.2020
180 Clear 12 1022 46 10000 4.1 120 10:59 05.04.2020
181 Clear 12 1023 50 10000 3.6 70 10:40 05.04.2020
182 Clear 12 1023 50 10000 3.6 70 10:40 05.04.2020
183 Clear 12 1023 50 10000 3.6 70 10:18 05.04.2020
184 Clear 10 1023 48 10000 3.6 50 09:43 05.04.2020
185 Clear 9 1023 48 10000 3.6 50 09:24 05.04.2020
186 Clear 9 1023 48 10000 3.6 50 09:24 05.04.2020
187 Clear 9 1023 52 10000 3.6 50 09:24 05.04.2020
188 Clear 9 1023 48 10000 3.6 50 09:24 05.04.2020
189 Clear 9 1023 48 10000 3.6 50 09:24 05.04.2020
190 Clear 4 1022 69 10000 3.1 50 07:42 05.04.2020
191 Clear 5 1022 60 10000 4.1 50 04:40 05.04.2020
192 Clear 5 1022 60 10000 3.1 60 03:33 05.04.2020
193 Clear 5 1023 56 10000 4.1 50 02:52 05.04.2020
194 Clear 5 1023 52 10000 3.6 50 01:48 05.04.2020
195 Clear 6 1022 52 10000 4.1 60 01:30 05.04.2020
196 Clear 6 1023 49 10000 3.6 60 00:46 05.04.2020
197 Clear 6 1023 49 10000 3.6 60 00:22 05.04.2020
198 Clear 6 1023 49 10000 3.1 60 23:56 04.04.2020
199 Clear 6 1023 49 10000 3.1 60 23:38 04.04.2020
200 Clear 7 1023 49 10000 3.1 60 23:19 04.04.2020
201 Clear 7 1023 49 10000 2.6 60 22:55 04.04.2020
202 Clear 7 1023 49 10000 2.6 60 22:37 04.04.2020
203 Clear 7 1023 49 10000 2.6 60 22:19 04.04.2020
204 Clear 8 1023 42 10000 2.1 60 21:54 04.04.2020
205 Clear 8 1023 42 10000 2.1 60 21:36 04.04.2020
206 Clear 9 1023 42 10000 2.1 60 21:18 04.04.2020
207 Clear 9 1022 40 10000 2.6 80 20:42 04.04.2020
208 Clear 10 1022 40 10000 2.6 80 20:23 04.04.2020
209 Clear 12 1022 64 10000 2.1 70 19:58 04.04.2020
210 Clear 12 1022 35 10000 3.6 50 19:37 04.04.2020
211 Clear 13 1022 35 10000 3.6 50 19:19 04.04.2020
212 Clear 13 1022 32 10000 3.1 70 18:57 04.04.2020
213 Clear 13 1022 32 10000 3.1 70 18:38 04.04.2020
214 Clear 14 1022 32 10000 3.1 70 18:19 04.04.2020
215 Clear 14 1022 35 10000 2.6 130 17:56 04.04.2020
216 Clear 14 1022 35 10000 2.6 130 17:38 04.04.2020
217 Clear 14 1022 35 10000 2.6 130 17:18 04.04.2020
218 Clear 14 1023 35 10000 3.1 100 16:42 04.04.2020
219 Clear 14 1023 35 10000 3.1 100 16:23 04.04.2020
220 Clear 14 1022 35 10000 2.6 60 15:57 04.04.2020
221 Clear 14 1023 37 10000 2.38 105 15:38 04.04.2020
222 Clear 13 1023 37 10000 1.47 115 15:19 04.04.2020
223 Clear 13 1023 37 10000 1.47 115 15:19 04.04.2020
224 Clear 13 1023 40 10000 3.6 40 14:44 04.04.2020
225 Clear 12 1023 40 10000 3.6 40 14:23 04.04.2020
226 Clouds 12 1023 43 10000 3.6 40 13:58 04.04.2020
227 Clear 12 1024 43 10000 3.6 60 13:40 04.04.2020
228 Clear 12 1024 43 10000 3.6 60 13:20 04.04.2020
229 Clear 12 1024 42 10000 2.1 70 12:57 04.04.2020
230 Clear 11 1024 42 10000 2.1 70 12:39 04.04.2020
231 Clear 10 1024 42 10000 2.1 70 12:19 04.04.2020
232 Clear 9 1024 52 10000 3.1 70 11:41 04.04.2020
233 Clear 9 1024 52 10000 3.1 70 11:23 04.04.2020
234 Clear 8 1024 52 10000 3.6 50 10:58 04.04.2020
235 Clear 8 1024 60 10000 2.1 60 10:40 04.04.2020
236 Clear 7 1024 60 10000 2.1 60 10:22 04.04.2020
237 Clouds 6 1024 69 10000 2.1 103 09:56 04.04.2020
238 Clouds 5 1024 69 10000 2.1 103 09:38 04.04.2020
239 Clouds 4 1024 69 10000 0.93 55 09:20 04.04.2020
240 Clouds 3 1023 69 10000 0.93 55 08:43 04.04.2020
241 Clear 2 1023 74 10000 2.6 280 08:23 04.04.2020
242 Clouds 1 1022 76 10000 3.1 70 07:57 04.04.2020
243 Clouds 0 1022 76 10000 3.1 70 07:38 04.04.2020
244 Clouds 0 1022 76 10000 2.1 50 07:20 04.04.2020
245 Clouds 0 1022 86 10000 2.6 50 06:38 04.04.2020
246 Clouds 0 1022 86 10000 1.06 29 05:52 04.04.2020
247 Clouds 0 1022 86 10000 1.06 29 05:52 04.04.2020
248 Clouds 1 1021 69 10000 3.1 60 05:32 04.04.2020
249 Clear 1 1021 82 10000 1.06 29 04:34 04.04.2020
250 Clear 1 1021 82 10000 1.06 29 03:57 04.04.2020
251 Clear 1 1021 82 10000 1.06 29 03:36 04.04.2020
252 Clear 1 1021 64 10000 1.5 320 02:46 04.04.2020
253 Clear 1 1021 64 10000 1.5 320 02:25 04.04.2020
254 Clear 2 1021 64 10000 0.96 344 01:46 04.04.2020
255 Clear 2 1021 64 10000 0.96 344 01:20 04.04.2020
256 Clear 3 1020 64 10000 1.5 330 00:43 04.04.2020
257 Clear 2 1020 64 10000 1.5 330 00:23 04.04.2020
258 Clear 3 1020 56 10000 1.43 342 23:38 03.04.2020
259 Clear 3 1020 56 10000 1.43 342 23:19 03.04.2020
260 Clear 4 1019 60 10000 1.43 342 22:55 03.04.2020
261 Clear 4 1019 60 10000 1.43 342 22:36 03.04.2020
262 Clear 4 1019 60 10000 1.43 342 22:18 03.04.2020
263 Clouds 5 1019 52 10000 2.1 270 21:42 03.04.2020
264 Clouds 6 1019 52 10000 2.1 270 21:22 03.04.2020
265 Clouds 6 1019 52 10000 2.1 280 20:56 03.04.2020
266 Clouds 7 1019 52 10000 2.1 280 20:36 03.04.2020
267 Clear 8 1018 48 10000 4.1 300 20:18 03.04.2020
268 Clear 8 1018 48 10000 4.1 300 20:18 03.04.2020
269 Clouds 8 1018 49 10000 4.1 290 19:56 03.04.2020
270 Clouds 9 1018 49 10000 4.1 290 19:37 03.04.2020
271 Clouds 9 1018 45 10000 4.1 290 19:19 03.04.2020
272 Clouds 9 1017 45 10000 4.6 270 18:58 03.04.2020
273 Clouds 9 1017 45 10000 4.6 270 18:40 03.04.2020
274 Clouds 10 1017 45 10000 4.6 270 18:22 03.04.2020
275 Clouds 10 1017 46 10000 5.7 290 17:43 03.04.2020
276 Clouds 10 1017 46 10000 5.7 290 17:21 03.04.2020
277 Clouds 10 1017 53 10000 4.6 280 16:58 03.04.2020
278 Clouds 10 1017 46 10000 5.1 260 16:40 03.04.2020
279 Clouds 10 1017 46 10000 5.1 260 16:21 03.04.2020
280 Clouds 10 1017 55 10000 4.6 270 15:58 03.04.2020
281 Clouds 10 1017 55 10000 4.6 270 15:38 03.04.2020
282 Clouds 10 1017 51 10000 4.6 270 15:19 03.04.2020
283 Clouds 10 1017 46 10000 5.1 260 14:55 03.04.2020
284 Clouds 10 1017 46 10000 5.1 260 14:55 03.04.2020
285 Clouds 10 1017 62 10000 4.1 240 14:37 03.04.2020
286 Clouds 10 1016 57 10000 4.1 230 14:18 03.04.2020
287 Clouds 10 1016 57 10000 4.1 230 13:42 03.04.2020
288 Clouds 9 1016 57 10000 4.1 230 13:24 03.04.2020
289 Clouds 9 1016 65 10000 2.6 220 12:44 03.04.2020
290 Clouds 9 1016 65 10000 2.6 220 12:20 03.04.2020
291 Clouds 8 1016 81 10000 3.6 240 11:57 03.04.2020
292 Clouds 8 1016 81 10000 3.6 240 11:39 03.04.2020
293 Clouds 8 1016 81 10000 3.6 240 11:21 03.04.2020
294 Clouds 7 1016 81 10000 3.6 250 10:59 03.04.2020
295 Clouds 7 1015 80 10000 2.6 200 10:39 03.04.2020
296 Clouds 6 1015 80 10000 2.6 200 10:20 03.04.2020
297 Clouds 6 1016 80 10000 4.1 260 09:59 03.04.2020
298 Clouds 5 1015 80 10000 2.1 250 09:40 03.04.2020
299 Clouds 5 1015 80 10000 2.1 250 09:22 03.04.2020
300 Clouds 4 1014 82 10000 2.6 250 08:57 03.04.2020
301 Clouds 4 1014 82 10000 2.6 250 08:38 03.04.2020
302 Clouds 3 1014 82 10000 2.6 250 08:20 03.04.2020
303 Clouds 3 1014 82 10000 3.1 250 07:48 03.04.2020
304 Clouds 3 1014 80 10000 3.6 270 07:29 03.04.2020
305 Clouds 3 1013 82 10000 2.6 250 06:49 03.04.2020
306 Clouds 3 1013 74 10000 2.6 240 06:24 03.04.2020
307 Clouds 2 1013 74 10000 3.1 240 05:40 03.04.2020
308 Clouds 1 1013 74 10000 3.1 260 03:45 03.04.2020
309 Clear 1 1013 74 10000 2.6 260 02:56 03.04.2020
310 Clouds 1 1013 69 10000 3.6 280 02:28 03.04.2020
311 Clear 2 1013 74 10000 2.6 260 01:23 03.04.2020
312 Clear 2 1013 69 10000 2.6 220 00:40 03.04.2020
313 Clear 2 1013 69 10000 2.6 220 00:20 03.04.2020
314 Clear 3 1013 64 10000 2.1 250 23:42 02.04.2020
315 Clear 3 1013 64 10000 2.1 250 23:42 02.04.2020
316 Clear 3 1013 64 10000 2.1 250 23:23 02.04.2020
317 Clear 4 1013 60 10000 2.6 320 22:59 02.04.2020
318 Clear 4 1013 60 10000 2.6 270 22:41 02.04.2020
319 Clear 5 1013 60 10000 2.6 270 22:20 02.04.2020
320 Clear 5 1012 52 10000 2.1 270 21:55 02.04.2020
321 Clear 5 1012 52 10000 2.1 270 21:36 02.04.2020
322 Clear 6 1012 52 10000 2.1 270 21:18 02.04.2020
323 Clear 6 1012 52 10000 4.1 290 20:42 02.04.2020
324 Clear 7 1012 52 10000 4.1 290 20:23 02.04.2020
325 Clear 8 1011 49 10000 5.1 290 19:55 02.04.2020
326 Clear 9 1011 49 10000 5.1 290 19:37 02.04.2020
327 Clear 9 1011 49 10000 5.1 290 19:19 02.04.2020
328 Clear 10 1011 37 10000 5.1 290 18:42 02.04.2020
329 Clear 11 1011 37 10000 5.1 290 18:21 02.04.2020
330 Clear 11 1011 32 10000 2.1 200 17:59 02.04.2020
331 Clear 11 1011 32 10000 2.1 200 17:59 02.04.2020
332 Clear 12 1011 32 10000 2.1 200 17:40 02.04.2020
333 Clear 12 1011 32 10000 2.1 200 17:22 02.04.2020
334 Clear 12 1011 32 10000 5.7 270 16:57 02.04.2020
335 Clear 12 1011 32 10000 3.6 210 16:39 02.04.2020
336 Clear 11 1011 32 10000 3.6 210 16:21 02.04.2020
337 Clear 12 1012 32 10000 2.6 230 15:56 02.04.2020
338 Clear 12 1012 32 10000 2.6 230 15:38 02.04.2020
339 Clear 12 1012 32 10000 2.6 230 15:38 02.04.2020
340 Clear 12 1012 32 10000 2.6 230 15:18 02.04.2020
341 Clear 11 1013 34 10000 2.6 240 14:55 02.04.2020
342 Clear 11 1013 34 10000 2.6 240 14:37 02.04.2020
343 Clear 11 1013 34 10000 2.6 240 14:18 02.04.2020
344 Clear 11 1013 34 10000 1.5 230 13:54 02.04.2020
345 Clear 11 1013 34 10000 1.5 230 13:36 02.04.2020
346 Clear 10 1013 34 10000 1.5 230 13:18 02.04.2020
347 Clear 10 1013 39 10000 3.03 262 12:41 02.04.2020
348 Clear 9 1013 39 10000 0.93 224 12:19 02.04.2020
349 Clear 8 1014 48 10000 0.93 224 11:57 02.04.2020
350 Clear 8 1014 48 10000 0.93 224 11:39 02.04.2020
351 Clear 8 1014 48 10000 0.93 224 11:20 02.04.2020
352 Clear 7 1014 52 10000 0.93 224 10:56 02.04.2020
353 Clear 6 1014 52 10000 0.93 224 10:37 02.04.2020
354 Clear 6 1014 52 10000 0.93 224 10:19 02.04.2020
355 Clear 6 1014 52 10000 0.93 224 10:19 02.04.2020
356 Clear 5 1014 48 10000 2.6 40 09:58 02.04.2020
357 Clear 4 1014 69 10000 0.93 224 09:39 02.04.2020
358 Clear 2 1014 69 10000 1.14 23 09:20 02.04.2020
359 Clear 0 1014 74 10000 1.14 23 08:47 02.04.2020
360 Clear -1 1014 59 10000 2.1 70 08:27 02.04.2020
361 Clear -1 1014 74 10000 1.14 23 07:54 02.04.2020
362 Clear -2 1014 74 10000 1.14 23 07:36 02.04.2020
363 Clear -2 1014 74 10000 1.14 23 07:18 02.04.2020
364 Clear -2 1014 74 10000 1.14 23 06:23 02.04.2020
365 Clear -1 1014 84 10000 1.56 18 05:46 02.04.2020
366 Clear -1 1014 84 10000 1.56 18 05:46 02.04.2020
367 Clear -1 1015 55 10000 1.56 18 04:50 02.04.2020
368 Clear 0 1015 78 10000 1.45 17 02:19 02.04.2020
369 Clear 1 1016 55 10000 1.45 17 00:59 02.04.2020
370 Clear 1 1016 55 10000 1.45 17 00:41 02.04.2020
371 Clear 2 1016 55 10000 1.38 39 00:19 02.04.2020
372 Clear 2 1016 48 10000 2.1 10 23:39 01.04.2020
373 Clear 3 1016 48 10000 2.1 10 23:19 01.04.2020
374 Clear 3 1016 44 10000 2.6 10 22:56 01.04.2020
375 Clear 3 1016 44 10000 2.6 10 22:38 01.04.2020
376 Clear 4 1016 44 10000 2.6 10 22:19 01.04.2020
377 Clear 4 1016 44 10000 2.6 40 21:41 01.04.2020
378 Clear 5 1016 44 10000 2.6 40 21:19 01.04.2020
379 Clear 5 1016 44 10000 2.6 40 21:19 01.04.2020
380 Clear 5 1016 33 10000 1 80 20:56 01.04.2020
381 Clear 6 1016 31 10000 1.15 50 20:38 01.04.2020
382 Clear 7 1016 31 10000 1.15 50 20:20 01.04.2020
383 Clear 9 1016 31 10000 1.5 90 19:58 01.04.2020
384 Clear 9 1016 27 10000 1.15 50 19:39 01.04.2020
385 Clear 10 1016 27 10000 1.15 50 19:19 01.04.2020
386 Clear 10 1016 27 10000 1.15 50 19:19 01.04.2020
387 Clear 10 1016 29 10000 1.15 50 18:42 01.04.2020
388 Clear 11 1016 29 10000 1.15 50 18:24 01.04.2020
389 Clear 11 1017 27 10000 0.41 69 17:58 01.04.2020
390 Clear 11 1017 27 10000 0.41 69 17:38 01.04.2020
391 Clear 11 1017 27 10000 0.41 69 17:19 01.04.2020
392 Clear 11 1017 27 10000 2.6 20 16:58 01.04.2020
393 Clear 11 1018 27 10000 3.1 120 16:39 01.04.2020
394 Clear 11 1018 27 10000 3.1 120 16:21 01.04.2020
395 Clear 11 1018 31 10000 3.1 90 15:57 01.04.2020
396 Clear 11 1018 31 10000 3.1 90 15:57 01.04.2020
397 Clear 11 1018 31 10000 3.1 90 15:38 01.04.2020
398 Clear 10 1018 31 10000 3.1 90 15:18 01.04.2020
399 Clear 10 1019 33 10000 2.6 90 14:55 01.04.2020
400 Clear 10 1019 33 10000 2.6 90 14:37 01.04.2020
401 Clear 9 1019 33 10000 2.6 90 14:19 01.04.2020
402 Clear 9 1020 33 10000 1.72 89 13:56 01.04.2020
403 Clear 9 1020 33 10000 1.72 89 13:37 01.04.2020
404 Clear 8 1020 33 10000 1.72 89 13:18 01.04.2020
405 Clear 8 1021 38 10000 1.72 89 12:42 01.04.2020
406 Clear 7 1021 38 10000 1.72 89 12:24 01.04.2020
407 Clear 6 1021 35 10000 4.1 30 11:59 01.04.2020
408 Clear 6 1022 38 10000 1.5 80 11:40 01.04.2020
409 Clear 6 1022 38 10000 1.5 80 11:21 01.04.2020
410 Clear 6 1022 51 10000 2.15 77 10:56 01.04.2020
411 Clear 5 1022 51 10000 2.15 77 10:37 01.04.2020
412 Clear 4 1022 51 10000 2.15 77 10:18 01.04.2020
413 Clear 3 1022 47 10000 3.1 60 09:40 01.04.2020
414 Clear 1 1022 53 10000 1.99 71 09:22 01.04.2020
415 Clear 0 1022 51 10000 3.6 50 08:59 01.04.2020
416 Clear -1 1022 63 10000 1.42 42 08:40 01.04.2020
417 Clear -2 1022 63 10000 1.42 42 08:18 01.04.2020
418 Clear -3 1022 68 10000 1.42 42 07:42 01.04.2020
419 Clear -3 1022 68 10000 1.42 42 07:20 01.04.2020
420 Clear -3 1022 63 10000 1.42 42 06:47 01.04.2020
421 Clear -3 1022 63 10000 1.42 42 06:23 01.04.2020
422 Clear -3 1023 58 10000 1.58 50 05:56 01.04.2020
423 Clear -2 1023 58 10000 1.58 50 04:30 01.04.2020
424 Clear -2 1024 58 10000 1.58 50 03:30 01.04.2020
425 Clear -1 1024 63 10000 2.6 20 02:49 01.04.2020
426 Clear -1 1024 85 10000 2.1 40 01:57 01.04.2020
427 Clear 0 1024 85 10000 2.1 40 01:38 01.04.2020
428 Clear 0 1024 85 10000 2.1 40 01:18 01.04.2020
429 Clear 0 1025 50 10000 2.01 62 00:46 01.04.2020
430 Clear 1 1025 50 10000 2.01 62 00:21 01.04.2020
431 Clear 1 1025 51 10000 1.5 40 23:48 31.03.2020
432 Clear 1 1025 51 10000 1.5 40 23:27 31.03.2020
433 Clear 2 1025 47 10000 3.1 70 22:58 31.03.2020
434 Clear 2 1025 47 10000 3.1 70 22:37 31.03.2020
435 Clear 3 1025 44 10000 3.1 60 22:19 31.03.2020
436 Clear 3 1025 51 10000 1.5 40 21:57 31.03.2020
437 Clear 3 1025 51 10000 1.5 40 21:39 31.03.2020
438 Clear 4 1025 51 10000 1.5 40 21:20 31.03.2020
439 Clear 4 1025 38 10000 3.6 50 20:55 31.03.2020
440 Clear 5 1025 41 10000 2.1 60 20:36 31.03.2020
441 Clear 5 1025 41 10000 2.1 60 20:36 31.03.2020
442 Clear 6 1025 41 10000 2.1 60 20:18 31.03.2020
443 Clear 7 1025 33 10000 4.6 50 19:42 31.03.2020
444 Clear 7 1025 33 10000 4.6 50 19:24 31.03.2020
445 Clear 8 1025 33 10000 4.1 70 18:59 31.03.2020
446 Clear 8 1025 33 10000 4.1 70 18:59 31.03.2020
447 Clear 8 1025 33 10000 4.1 70 18:41 31.03.2020
448 Clear 9 1025 33 10000 4.1 70 18:19 31.03.2020
449 Clear 9 1026 31 10000 6.2 20 17:55 31.03.2020
450 Clear 9 1026 31 10000 6.2 20 17:37 31.03.2020
451 Clear 9 1026 31 10000 6.2 20 17:19 31.03.2020
452 Clear 9 1026 36 10000 5.1 360 16:41 31.03.2020
453 Clear 9 1026 36 10000 5.1 360 16:20 31.03.2020
454 Clouds 9 1025 36 10000 5.1 70 15:58 31.03.2020
455 Clear 9 1026 36 10000 5.1 360 15:40 31.03.2020
456 Clear 9 1026 36 10000 5.1 360 15:22 31.03.2020
457 Clouds 8 1026 39 10000 4.1 70 14:58 31.03.2020
458 Clouds 8 1026 39 10000 4.1 70 14:58 31.03.2020
459 Clear 8 1026 33 10000 5.7 20 14:40 31.03.2020
460 Clouds 8 1027 42 10000 3.1 50 14:21 31.03.2020
461 Clouds 7 1027 48 10000 4.1 40 13:43 31.03.2020
462 Clouds 7 1027 48 10000 4.1 40 13:20 31.03.2020
463 Clouds 7 1027 45 10000 6.2 70 12:59 31.03.2020
464 Clouds 6 1027 45 10000 6.2 70 12:40 31.03.2020
465 Clouds 6 1027 56 10000 6.7 50 12:19 31.03.2020
466 Clouds 6 1027 56 10000 6.7 50 12:19 31.03.2020
467 Clouds 6 1027 69 10000 5.1 40 11:55 31.03.2020
468 Clouds 5 1027 69 10000 5.1 40 11:36 31.03.2020
469 Clouds 5 1027 69 10000 4.6 50 11:18 31.03.2020
470 Clouds 5 1027 62 10000 5.7 60 10:54 31.03.2020
471 Clouds 5 1027 62 10000 5.7 60 10:36 31.03.2020
472 Clouds 4 1027 62 10000 5.7 60 10:18 31.03.2020
473 Clouds 4 1027 62 10000 4.6 60 09:42 31.03.2020
474 Clouds 3 1027 62 10000 5.1 50 09:24 31.03.2020
475 Clouds 2 1026 83 10000 4.1 50 08:57 31.03.2020
476 Clouds 2 1026 83 10000 4.1 50 08:39 31.03.2020
477 Clouds 1 1026 83 10000 3.6 50 08:19 31.03.2020
478 Clouds 1 1026 83 10000 3.1 40 07:56 31.03.2020
479 Clouds 1 1026 83 10000 3.1 40 07:38 31.03.2020
480 Clouds 1 1026 83 10000 3.1 40 07:19 31.03.2020
481 Clouds 1 1025 83 10000 2.6 30 06:51 31.03.2020
482 Clouds 1 1025 80 10000 4.6 50 06:30 31.03.2020
483 Clouds 0 1025 82 10000 2.6 20 05:40 31.03.2020
484 Clouds 0 1025 86 10000 2.6 340 03:43 31.03.2020
485 Clouds 0 1025 74 10000 2.14 24 02:26 31.03.2020
486 Clouds 0 1025 69 10000 2.1 340 01:46 31.03.2020
487 Clouds 1 1025 59 10000 2.14 24 00:52 31.03.2020
488 Clouds 1 1025 59 10000 2.14 24 00:25 31.03.2020
489 Clear 1 1025 59 10000 3.6 30 23:59 30.03.2020
490 Clouds 1 1025 59 10000 1.5 330 23:38 30.03.2020
491 Clouds 1 1025 59 10000 2.1 330 23:19 30.03.2020
492 Clear 1 1025 59 10000 2.02 12 22:56 30.03.2020
493 Clear 1 1025 59 10000 2.02 12 22:37 30.03.2020
494 Clear 2 1025 59 10000 2.02 12 22:18 30.03.2020
495 -273 0 0 0 0 0 21:55 30.03.2020
496 Clear 2 1025 55 10000 1.5 340 21:37 30.03.2020
497 Clear 3 1025 55 10000 1.5 340 21:18 30.03.2020
498 Clear 4 1025 51 10000 3.1 350 20:42 30.03.2020
499 Clear 4 1025 51 10000 3.1 350 20:24 30.03.2020
500 Clear 5 1025 48 10000 6.2 20 19:59 30.03.2020
501 Clear 6 1025 48 10000 4.1 340 19:40 30.03.2020
502 Clear 6 1025 48 10000 4.1 340 19:22 30.03.2020
503 Clear 7 1025 39 10000 5.7 10 18:57 30.03.2020
504 Clear 7 1025 39 10000 5.7 10 18:39 30.03.2020
505 Clear 7 1025 39 10000 5.7 10 18:20 30.03.2020
506 Clear 7 1025 33 10000 4.1 350 17:57 30.03.2020
507 Clear 8 1025 33 10000 4.1 350 17:38 30.03.2020
508 Clear 8 1025 33 10000 4.1 350 17:19 30.03.2020
509 Clear 8 1025 30 10000 5.7 20 16:56 30.03.2020
510 Clear 8 1025 30 10000 5.7 20 16:37 30.03.2020
511 Clear 8 1025 30 10000 5.7 20 16:19 30.03.2020
512 Clear 8 1026 28 10000 3.1 20 15:54 30.03.2020
513 Clear 7 1026 28 10000 3.1 20 15:36 30.03.2020
514 Clear 7 1026 28 10000 3.1 20 15:18 30.03.2020
515 Clear 6 1027 25 10000 3.1 50 14:54 30.03.2020
516 Clear 6 1027 25 10000 3.1 50 14:36 30.03.2020
517 Clear 6 1027 25 10000 3.1 50 14:18 30.03.2020
518 Clear 5 1027 25 10000 4.1 40 13:43 30.03.2020
519 Clear 5 1027 25 10000 4.1 40 13:21 30.03.2020
520 Clear 5 1027 27 10000 5.1 60 12:58 30.03.2020
521 Clear 4 1027 27 10000 5.1 60 12:40 30.03.2020
522 Clear 3 1028 34 10000 5.1 50 12:19 30.03.2020
523 Clear 3 1028 37 10000 6.7 60 11:57 30.03.2020
524 Clear 3 1028 37 10000 6.7 60 11:38 30.03.2020
525 Clear 2 1028 37 10000 4.6 30 11:20 30.03.2020
526 Clear 2 1029 43 10000 4.1 40 10:40 30.03.2020
527 Clear 1 1029 43 10000 4.1 40 10:22 30.03.2020
528 Clear 0 1028 60 10000 6.7 60 09:57 30.03.2020
529 Clear 0 1028 50 10000 4.6 40 09:38 30.03.2020
530 Clear -1 1028 50 10000 4.6 40 09:19 30.03.2020
531 Clear -2 1028 58 10000 4.6 30 08:42 30.03.2020
532 Clear -2 1028 58 10000 4.6 30 08:23 30.03.2020
533 Clear -2 1028 53 10000 3.1 30 07:50 30.03.2020
534 Clear -3 1027 54 10000 5.7 50 07:31 30.03.2020
535 Clear -3 1028 63 10000 6.7 40 06:57 30.03.2020
536 Clear -2 1028 63 10000 6.7 40 06:33 30.03.2020
537 Clear -2 1028 58 10000 5.7 20 05:55 30.03.2020
538 Clear -2 1028 58 10000 5.7 20 05:34 30.03.2020
539 Clear -1 1027 63 10000 8.2 30 04:26 30.03.2020
540 Clear -1 1028 63 10000 4.6 20 03:45 30.03.2020
541 Clear 0 1029 63 10000 4.6 30 02:43 30.03.2020
542 Clouds 0 1029 88 10000 6.2 20 01:52 30.03.2020
543 Clouds 1 1028 74 10000 7.2 30 00:56 30.03.2020
544 Clouds 1 1028 74 10000 7.2 30 00:25 30.03.2020
545 Clouds 1 1028 74 10000 7.2 30 00:25 30.03.2020
546 Clouds 2 1028 80 10000 5.1 10 23:55 29.03.2020
547 Clouds 2 1028 80 10000 5.1 10 23:36 29.03.2020
548 Clouds 2 1028 74 10000 6.2 10 23:18 29.03.2020
549 Clouds 2 1028 80 10000 7.2 20 22:39 29.03.2020
550 Clouds 2 1028 80 10000 7.2 20 22:39 29.03.2020
551 Clouds 2 1027 80 10000 5.1 10 22:20 29.03.2020
552 Clouds 2 1027 74 10000 8.7 30 21:59 29.03.2020
553 Rain 2 1027 80 10000 5.1 10 21:37 29.03.2020
554 Clouds 2 1027 86 10000 6.2 10 21:19 29.03.2020
555 Rain 2 1027 86 10000 5.1 10 20:55 29.03.2020
556 Rain 2 1027 86 10000 5.1 10 20:37 29.03.2020
557 Snow 2 1026 86 10000 5.1 10 20:18 29.03.2020
558 Snow 2 1026 86 10000 5.1 10 20:18 29.03.2020
559 Clouds 2 1025 74 10000 7.2 10 19:55 29.03.2020
560 Clouds 3 1025 74 10000 8.2 360 19:37 29.03.2020
561 Clouds 3 1025 74 10000 8.2 360 19:19 29.03.2020
562 Clouds 3 1025 74 10000 7.7 10 18:55 29.03.2020
563 Clouds 3 1024 69 10000 6.2 360 18:37 29.03.2020
564 Clouds 4 1024 69 10000 6.2 360 18:18 29.03.2020
565 Clouds 4 1024 69 10000 7.2 10 17:55 29.03.2020
566 Clouds 4 1024 69 10000 7.2 10 17:36 29.03.2020
567 Clouds 4 1024 69 10000 5.7 340 17:18 29.03.2020
568 Clouds 4 1024 69 10000 6.7 10 16:55 29.03.2020
569 Clouds 4 1024 69 10000 6.7 10 16:36 29.03.2020
570 Snow 4 1024 74 10000 6.7 10 16:18 29.03.2020
571 Clouds 5 1024 60 10000 7.2 350 15:41 29.03.2020
572 Rain 4 1024 64 10000 7.2 350 15:23 29.03.2020
573 Rain 4 1024 64 10000 7.2 350 15:23 29.03.2020
574 Clouds 5 1023 48 10000 7.7 30 14:57 29.03.2020
575 Clouds 5 1024 60 10000 7.2 10 14:39 29.03.2020
576 Clouds 5 1023 51 10000 7.2 10 14:20 29.03.2020
577 Clouds 5 1023 48 10000 5.7 10 13:57 29.03.2020
578 Clouds 5 1023 48 10000 5.7 10 13:39 29.03.2020
579 Clouds 5 1023 55 10000 7.2 10 13:19 29.03.2020
580 Clouds 5 1023 60 10000 5.7 360 12:55 29.03.2020
581 Clouds 5 1023 64 10000 7.2 10 12:37 29.03.2020
582 Clouds 4 1023 64 10000 7.2 10 12:18 29.03.2020
583 Clouds 4 1023 56 10000 7.2 340 11:55 29.03.2020
584 Clouds 5 1023 56 10000 7.2 340 11:36 29.03.2020
585 Clouds 4 1023 55 10000 6.7 20 11:18 29.03.2020
586 Clouds 4 1023 60 10000 6.2 10 10:38 29.03.2020
587 Clouds 4 1023 60 10000 6.2 10 10:19 29.03.2020
588 Clouds 3 1023 64 10000 6.2 360 09:41 29.03.2020
589 Clouds 3 1023 64 10000 6.2 360 09:41 29.03.2020
590 Clouds 2 1023 69 10000 4.1 360 09:20 29.03.2020
591 Clouds 2 1022 74 10000 3.6 10 08:54 29.03.2020
592 Clouds 2 1022 74 10000 3.6 10 08:36 29.03.2020
593 Clouds 1 1022 74 10000 3.6 10 08:18 29.03.2020
594 Clouds 1 1022 74 10000 3.6 360 07:42 29.03.2020
595 Clouds 2 1022 69 10000 2.1 360 07:21 29.03.2020
596 Clouds 3 1022 64 10000 5.7 20 05:50 29.03.2020
597 Clouds 3 1022 64 10000 4.1 10 04:29 29.03.2020
598 Clouds 4 1023 64 10000 6.7 360 03:31 29.03.2020
599 Clouds 5 1022 67 10000 6.2 350 01:51 29.03.2020
600 Clouds 5 1022 67 10000 6.2 350 01:23 29.03.2020
601 Clouds 5 1022 75 10000 4.6 350 00:58 29.03.2020
602 Clouds 5 1022 75 10000 4.6 350 00:33 29.03.2020
603 Clouds 6 1022 70 10000 5.1 350 23:57 28.03.2020
604 Clouds 6 1022 70 10000 5.1 350 23:39 28.03.2020
605 Clear 7 1022 70 10000 3.1 360 23:20 28.03.2020
606 Clear 7 1021 66 10000 4.6 360 22:41 28.03.2020
607 Clear 7 1021 66 10000 4.6 360 22:22 28.03.2020
608 Clear 8 1021 52 10000 3.6 360 21:56 28.03.2020
609 Clear 8 1021 52 10000 3.6 360 21:38 28.03.2020
610 Clear 9 1021 52 10000 3.6 360 21:19 28.03.2020
611 Clear 9 1020 45 10000 6.2 360 20:55 28.03.2020
612 Clear 9 1020 45 10000 6.2 360 20:37 28.03.2020
613 Clear 10 1020 45 10000 6.2 360 20:18 28.03.2020
614 Clear 10 1019 43 10000 5.7 360 19:55 28.03.2020
615 Clear 11 1019 43 10000 5.7 360 19:36 28.03.2020
616 Clear 11 1019 43 10000 5.7 360 19:18 28.03.2020
617 Clear 13 1018 37 10000 6.7 340 18:39 28.03.2020
618 Clear 14 1018 37 10000 6.7 340 18:20 28.03.2020
619 Clear 15 1018 41 10000 7.7 340 17:42 28.03.2020
620 Clear 16 1018 41 10000 7.7 340 17:22 28.03.2020
621 Clear 16 1018 38 10000 5.7 340 16:59 28.03.2020
622 Clear 16 1018 38 10000 5.7 340 16:39 28.03.2020
623 Clear 17 1018 38 10000 5.7 340 16:18 28.03.2020
624 Clear 17 1018 33 10000 5.7 50 15:55 28.03.2020
625 Clear 17 1018 33 10000 5.7 50 15:37 28.03.2020
626 Clear 17 1018 33 10000 5.7 40 15:18 28.03.2020
627 Clear 17 1018 33 10000 5.7 50 14:41 28.03.2020
628 Clear 17 1018 33 10000 5.1 50 14:21 28.03.2020
629 Clear 16 1019 38 10000 3.1 40 13:43 28.03.2020
630 Clouds 16 1018 36 10000 6.7 50 13:24 28.03.2020
631 Clear 16 1019 41 10000 5.1 50 12:57 28.03.2020
632 Clear 16 1019 41 10000 5.1 50 12:37 28.03.2020
633 Clear 16 1019 41 10000 5.1 50 12:18 28.03.2020
634 Clear 15 1019 44 10000 4.6 50 11:41 28.03.2020
635 Clear 14 1019 44 10000 4.6 50 11:21 28.03.2020
636 Clear 13 1019 46 10000 4.1 40 10:40 28.03.2020
637 Clear 12 1019 46 10000 4.1 40 10:22 28.03.2020
638 Clouds 11 1019 50 10000 4.6 50 09:59 28.03.2020
639 Clear 11 1019 53 10000 3.6 60 09:39 28.03.2020
640 Clear 10 1019 53 10000 3.6 60 09:20 28.03.2020
641 Clear 8 1018 61 10000 3.6 60 08:42 28.03.2020
642 Clear 7 1018 61 10000 3.6 60 08:23 28.03.2020
643 Clear 5 1018 84 10000 1.5 40 07:52 28.03.2020
644 Clear 5 1018 84 10000 1.5 40 07:34 28.03.2020
645 Clear 6 1018 84 10000 2.6 50 06:45 28.03.2020
646 Clear 5 1018 84 10000 2.6 50 06:20 28.03.2020
647 Clear 6 1018 84 10000 2.6 40 05:26 28.03.2020
648 Clear 6 1017 84 10000 3.1 40 04:53 28.03.2020
649 Clear 6 1017 84 10000 3.1 40 04:35 28.03.2020
650 Clear 6 1018 84 10000 4.1 40 02:50 28.03.2020
651 Clear 6 1017 84 10000 3.1 40 01:47 28.03.2020
652 Clear 5 1017 81 10000 3.1 40 01:23 28.03.2020
653 Clear 5 1017 81 10000 2.6 30 00:49 28.03.2020
654 Clear 5 1017 81 10000 2.6 30 00:25 28.03.2020
655 Clear 5 1017 81 10000 2.52 39 23:44 27.03.2020
656 Clear 6 1017 81 10000 2.52 39 23:26 27.03.2020
657 Clear 6 1017 78 10000 2.6 20 22:57 27.03.2020
658 Clear 6 1017 78 10000 2.6 20 22:39 27.03.2020
659 Clear 7 1017 78 10000 2.6 20 22:20 27.03.2020
660 Clouds 7 1017 78 10000 4.1 40 21:58 27.03.2020
661 Clear 7 1017 78 10000 2.6 30 21:40 27.03.2020
662 Clear 7 1017 78 10000 2.6 30 21:22 27.03.2020
663 Clear 8 1017 78 10000 4.1 30 20:57 27.03.2020
664 Clear 8 1017 78 10000 4.1 30 20:39 27.03.2020
665 Clear 9 1017 69 10000 4.1 30 20:19 27.03.2020
666 Clear 9 1017 69 10000 4.1 30 20:19 27.03.2020
667 Clear 9 1016 69 10000 4.6 30 19:55 27.03.2020
668 Clear 10 1016 69 10000 4.6 30 19:36 27.03.2020
669 Clear 11 1016 69 10000 4.6 30 19:18 27.03.2020
670 Clear 12 1016 69 10000 4.6 30 18:42 27.03.2020
671 Clear 13 1016 69 10000 4.6 30 18:23 27.03.2020
672 Clear 13 1016 69 10000 5.1 50 17:54 27.03.2020
673 Clear 13 1016 69 10000 5.1 50 17:36 27.03.2020
674 Clear 14 1016 51 10000 5.1 50 17:18 27.03.2020
675 Clear 14 1016 51 10000 5.1 50 16:43 27.03.2020
676 Clear 14 1016 51 10000 5.1 50 16:24 27.03.2020
677 Clear 14 1015 51 10000 6.2 60 15:44 27.03.2020
678 Clear 14 1015 51 0 4.16 60 15:26 27.03.2020
679 Clear 14 1015 51 0 4.16 60 14:56 27.03.2020
680 Clear 14 1015 51 0 4.16 60 14:37 27.03.2020
681 Clouds 12 1017 51 0 4.44 72 14:18 27.03.2020
682 Clouds 12 1017 51 0 4.44 72 13:43 27.03.2020
683 Clear 12 1017 50 0 4.37 70 13:22 27.03.2020
684 Clear 12 1017 50 0 4.37 70 12:59 27.03.2020
685 Clear 12 1017 50 0 4.37 70 12:41 27.03.2020
686 Clear 12 1017 50 0 4.37 70 12:19 27.03.2020
687 Clear 12 1017 50 0 4.37 70 11:43 27.03.2020
688 Clear 12 1017 50 0 4.37 70 11:25 27.03.2020
689 Clear 8 1018 58 0 3.93 65 10:57 27.03.2020
690 Clear 8 1018 58 0 3.93 65 10:39 27.03.2020
691 Clear 8 1018 58 0 3.93 65 10:20 27.03.2020
692 Clear 8 1018 58 0 3.93 65 09:58 27.03.2020
693 Clear 8 1018 58 0 3.93 65 09:39 27.03.2020
694 Clear 8 1018 58 0 3.93 65 09:21 27.03.2020
695 Clear 8 1018 58 0 3.93 65 08:58 27.03.2020
696 Clear 8 1018 58 0 3.93 65 08:39 27.03.2020
697 Clouds 8 1018 58 0 3.89 67 08:21 27.03.2020
698 Clear 1 1018 84 0 2.96 25 07:53 27.03.2020
699 Clear 1 1018 84 0 2.96 25 07:28 27.03.2020
700 Clear 1 1018 84 0 2.96 25 06:59 27.03.2020
701 Clear 1 1018 84 0 2.96 25 06:37 27.03.2020
702 Clear 1 1018 84 0 2.96 25 05:44 27.03.2020
703 Clear 1 1018 84 0 3.05 27 02:52 27.03.2020
704 Clouds 3 1018 76 0 3.68 45 01:54 27.03.2020
705 Clouds 3 1018 75 0 4.07 39 00:58 27.03.2020
706 Clouds 3 1018 75 0 4.07 39 00:38 27.03.2020
707 Clouds 3 1018 75 0 4.07 39 00:18 27.03.2020
708 Clouds 3 1018 75 0 4.07 39 23:37 26.03.2020
709 Clouds 3 1019 72 0 3.82 38 23:18 26.03.2020
710 Clouds 3 1019 72 0 3.82 38 22:56 26.03.2020
711 Clouds 3 1019 72 0 3.82 38 22:36 26.03.2020
712 Clouds 3 1019 72 0 3.82 38 22:18 26.03.2020
713 Clouds 3 1019 72 0 3.82 38 21:40 26.03.2020
714 Clouds 3 1019 72 0 3.82 38 21:21 26.03.2020
715 Clouds 3 1019 72 0 3.82 38 21:21 26.03.2020
716 Clouds 3 1019 72 0 3.82 38 20:58 26.03.2020
717 Clouds 3 1019 72 0 3.82 38 20:39 26.03.2020
718 Clouds 3 1019 72 0 3.82 38 20:21 26.03.2020
719 Clouds 3 1019 72 0 3.82 38 20:21 26.03.2020
720 Clouds 5 1018 65 0 3.18 37 19:58 26.03.2020
721 Clouds 5 1018 65 0 3.18 37 19:58 26.03.2020
722 Clouds 5 1018 65 0 3.18 37 19:39 26.03.2020
723 Clouds 5 1018 65 0 3.18 37 19:20 26.03.2020
724 Clouds 5 1018 65 0 3.18 37 18:58 26.03.2020
725 Clouds 5 1018 65 0 3.18 37 18:40 26.03.2020
726 Clouds 5 1018 65 0 3.18 37 18:21 26.03.2020
727 Clouds 5 1018 65 0 3.18 37 17:44 26.03.2020
728 Clear 9 1018 48 0 5.04 70 17:20 26.03.2020
729 Clear 9 1018 48 0 5.04 70 16:57 26.03.2020
730 Clear 9 1018 48 0 5.04 70 16:38 26.03.2020
731 Clear 9 1018 48 0 5.04 70 16:18 26.03.2020
732 Clear 9 1018 48 0 5.04 70 15:54 26.03.2020
733 Clear 9 1018 48 0 5.04 70 15:36 26.03.2020
734 Clear 9 1018 48 0 5.04 70 15:18 26.03.2020
735 Clear 9 1018 48 0 5.04 70 14:42 26.03.2020
736 Clear 9 1018 48 0 5.04 70 14:24 26.03.2020
737 Clear 8 1019 50 0 6.05 80 13:55 26.03.2020
738 Clear 8 1019 50 0 6.05 80 13:37 26.03.2020
739 Clear 8 1019 50 0 6.05 80 13:19 26.03.2020
740 Clear 8 1019 50 0 6.06 80 12:38 26.03.2020
741 -273 0 0 0 0 0 12:20 26.03.2020
742 -273 0 0 0 0 0 12:20 26.03.2020
743 Clear 8 1019 50 0 6.06 80 11:46 26.03.2020
744 Clear 8 1019 50 0 6.06 80 11:23 26.03.2020
745 Clear 4 1020 61 0 6.32 77 10:59 26.03.2020
746 Clear 4 1020 61 0 6.32 77 10:41 26.03.2020
747 Clear 4 1020 61 0 6.32 77 10:20 26.03.2020
748 Clear 4 1020 61 0 6.32 77 09:45 26.03.2020
749 Clear 4 1020 61 0 6.32 77 09:21 26.03.2020
750 Clear 4 1020 61 0 6.32 77 08:57 26.03.2020
751 Clear 4 1020 61 0 6.32 77 08:39 26.03.2020
752 -273 0 0 0 0 0 08:20 26.03.2020
753 Clear -1 1020 86 0 4.77 57 07:46 26.03.2020
754 Clear -1 1020 86 0 4.77 57 07:24 26.03.2020
755 Clear -1 1020 86 0 4.77 57 06:59 26.03.2020
756 Clear -1 1020 86 0 4.77 57 06:32 26.03.2020
757 Clear -1 1020 86 0 4.77 57 05:47 26.03.2020
758 Clear -1 1020 84 0 4.35 54 03:46 26.03.2020
759 Clear -1 1020 84 0 4.35 54 02:58 26.03.2020
760 Clear 0 1021 80 0 4.09 56 01:51 26.03.2020
761 Clear 0 1021 80 0 4.09 56 01:18 26.03.2020
762 Clear 0 1021 79 0 4.58 54 00:32 26.03.2020
763 Clear 0 1021 79 0 4.58 54 23:44 25.03.2020
764 Clear 0 1021 79 0 4.58 54 23:24 25.03.2020
765 Clear 1 1022 72 0 4.29 64 22:54 25.03.2020
766 Clear 1 1022 72 0 4.29 64 22:36 25.03.2020
767 Clear 1 1022 72 0 4.29 64 22:18 25.03.2020
768 Clear 1 1022 72 0 4.29 64 21:42 25.03.2020
769 Clear 1 1022 72 0 4.29 64 21:23 25.03.2020
770 Clear 1 1022 72 0 4.29 64 20:58 25.03.2020
771 Clear 1 1022 72 0 4.29 64 20:38 25.03.2020
772 Clear 4 1021 64 0 3.9 65 20:19 25.03.2020
773 Clear 4 1021 64 0 3.87 60 19:55 25.03.2020
774 Clear 4 1021 64 0 3.8 62 19:37 25.03.2020
775 Clear 4 1021 64 0 3.87 60 19:18 25.03.2020
776 Clear 4 1021 64 0 3.8 62 18:43 25.03.2020
777 Clear 4 1021 64 0 3.8 62 18:25 25.03.2020
778 Clear 4 1021 64 0 3.8 62 17:58 25.03.2020
779 Clear 4 1021 64 0 3.8 62 17:40 25.03.2020
780 Clear 4 1021 64 0 3.8 62 17:21 25.03.2020
781 Clear 9 1022 44 0 6.25 69 16:56 25.03.2020
782 Clear 9 1022 44 0 6.25 69 16:38 25.03.2020
783 Clear 9 1022 44 0 6.25 69 16:20 25.03.2020
784 Clear 9 1022 44 0 6.25 69 15:42 25.03.2020
785 Clear 9 1022 44 0 6.25 69 15:21 25.03.2020
786 Clear 9 1022 45 0 6.29 71 14:57 25.03.2020
787 Clear 9 1022 45 0 6.29 71 14:57 25.03.2020
788 Clear 9 1022 44 0 6.25 69 14:39 25.03.2020
789 Clear 8 1024 45 0 5.56 77 14:20 25.03.2020
790 Clear 8 1024 45 0 5.56 77 13:44 25.03.2020
791 Clear 8 1024 45 0 5.56 77 13:24 25.03.2020
792 Clear 8 1023 46 0 5.63 76 12:40 25.03.2020
793 Clear 8 1023 46 0 5.63 76 12:21 25.03.2020
794 Clear 8 1023 46 0 5.63 76 11:59 25.03.2020
795 Clear 8 1023 46 0 5.63 76 11:41 25.03.2020
796 Clear 8 1023 46 0 5.63 76 11:21 25.03.2020
797 Clear 8 1023 46 0 5.63 76 11:21 25.03.2020
798 Clear 4 1026 57 0 5.45 84 10:58 25.03.2020
799 Clear 4 1026 57 0 5.45 84 10:40 25.03.2020
800 Clear 4 1026 57 0 5.45 84 10:40 25.03.2020
801 Clear 4 1026 57 0 5.45 84 10:19 25.03.2020
802 Clear 4 1026 57 0 5.45 84 09:58 25.03.2020
803 Clear 4 1026 57 0 5.45 84 09:39 25.03.2020
804 Clear 4 1026 57 0 5.45 84 09:21 25.03.2020
805 Clear 4 1026 57 0 5.45 84 08:43 25.03.2020
806 Clear 4 1026 57 0 5.45 84 08:25 25.03.2020
807 Clear -2 1027 85 0 3.45 66 07:58 25.03.2020
808 Clear -2 1027 85 0 3.45 66 07:38 25.03.2020
809 Clear -2 1027 85 0 3.45 66 07:18 25.03.2020
810 Clear -2 1027 85 0 3.45 66 06:43 25.03.2020
811 Clear -2 1027 85 0 3.45 66 06:25 25.03.2020
812 Clear -2 1027 85 0 3.45 66 05:47 25.03.2020
813 Clear -1 1027 83 0 3.83 76 04:46 25.03.2020
814 Clear -1 1027 83 0 3.83 76 03:58 25.03.2020
815 Clear -1 1027 83 0 3.83 76 03:34 25.03.2020
816 Clear 0 1028 77 0 3.93 80 01:41 25.03.2020
817 Clear 0 1028 76 0 4.08 78 00:51 25.03.2020
818 Clear 0 1028 76 0 4.08 78 00:32 25.03.2020
819 Clear 0 1028 76 0 4.08 78 23:59 24.03.2020
820 Clear 0 1028 76 0 4.08 78 23:40 24.03.2020
821 Clear 0 1028 76 0 4.08 78 23:21 24.03.2020
822 Clear 1 1029 73 0 4.24 77 22:55 24.03.2020
823 Clear 1 1029 73 0 4.24 77 22:36 24.03.2020
824 Clear 1 1029 73 0 4.24 77 22:18 24.03.2020
825 Clear 1 1029 73 0 4.24 77 21:54 24.03.2020
826 Clear 1 1029 73 0 4.24 77 21:36 24.03.2020
827 Clear 1 1029 73 0 4.24 77 21:18 24.03.2020
828 Clear 1 1029 73 0 4.24 77 20:41 24.03.2020
829 Clear 1 1029 73 0 4.24 77 20:23 24.03.2020
830 Clear 3 1028 66 0 3.97 70 19:54 24.03.2020
831 Clear 3 1028 66 0 3.97 70 19:36 24.03.2020
832 Clear 3 1028 66 0 3.97 70 19:18 24.03.2020
833 Clear 3 1028 66 0 3.97 70 18:54 24.03.2020
834 Clear 3 1028 66 0 3.97 70 18:36 24.03.2020
835 Clear 3 1028 66 0 3.97 70 18:18 24.03.2020
836 Clear 3 1028 66 0 3.97 70 17:41 24.03.2020
837 Clear 3 1028 66 0 3.97 70 17:22 24.03.2020
838 Clear 3 1028 66 0 3.97 70 17:22 24.03.2020
839 Clear 8 1027 26 10000 5.7 80 16:57 24.03.2020
840 Clear 8 1027 26 10000 5.7 80 16:39 24.03.2020
841 Clear 8 1027 26 10000 5.7 60 16:20 24.03.2020
842 Clear 8 1027 26 10000 5.7 60 16:20 24.03.2020
843 Clear 8 1027 27 10000 4.1 100 15:57 24.03.2020
844 Clear 8 1027 24 10000 4.1 80 15:37 24.03.2020
845 Clear 8 1028 26 10000 5.7 70 15:19 24.03.2020
846 Clear 8 1028 26 10000 6.2 110 14:42 24.03.2020
847 Clear 7 1030 47 0 6.16 99 14:19 24.03.2020
848 Clear 7 1030 47 0 6.16 99 13:44 24.03.2020
849 Clear 7 1030 47 0 6.06 98 13:24 24.03.2020
850 Clear 7 1030 47 0 6.06 98 12:57 24.03.2020
851 Clear 7 1030 47 0 6.06 98 12:37 24.03.2020
852 Clear 7 1030 47 0 6.06 98 12:19 24.03.2020
853 Clear 7 1030 47 0 6.06 98 11:40 24.03.2020
854 Clear 4 1030 27 10000 6.7 80 11:20 24.03.2020
855 Clear 4 1029 32 10000 5.1 70 10:54 24.03.2020
856 Clear 4 1029 32 10000 5.1 70 10:36 24.03.2020
857 Clear 3 1030 34 10000 5.7 70 10:18 24.03.2020
858 Clear 3 1029 37 10000 5.1 90 09:42 24.03.2020
859 Clear 3 1030 36 10000 5.7 110 09:24 24.03.2020
860 Clear 2 1029 40 10000 4.6 90 08:40 24.03.2020
861 Clear 0 1029 54 10000 5.1 110 08:21 24.03.2020
862 Clear 0 1029 54 10000 5.1 110 08:21 24.03.2020
863 Clear -1 1029 54 10000 4.1 100 07:51 24.03.2020
864 Clear -1 1029 50 10000 4.1 110 07:25 24.03.2020
865 Clear -1 1029 50 10000 4.1 110 07:25 24.03.2020
866 Clear -1 1029 53 10000 5.1 110 06:59 24.03.2020
867 Clear -2 1029 50 10000 4.6 70 06:33 24.03.2020
868 Clear -1 1029 50 10000 4.1 110 05:30 24.03.2020
869 Clear -1 1029 53 10000 5.1 100 04:49 24.03.2020
870 Clear 0 1030 53 10000 3.6 60 03:19 24.03.2020
871 Clear 0 1029 37 10000 4.6 100 01:59 24.03.2020
872 Clear 1 1029 40 10000 6.2 100 00:52 24.03.2020
873 Clear 1 1029 48 10000 4.6 110 00:26 24.03.2020
874 Clear 1 1029 40 10000 5.7 100 23:55 23.03.2020
875 Clear 1 1029 48 10000 5.7 110 23:36 23.03.2020
876 Clear 1 1030 40 10000 4.6 70 23:18 23.03.2020
877 Clear 2 1029 37 10000 4.1 80 22:42 23.03.2020
878 Clear 2 1030 40 10000 5.7 110 22:22 23.03.2020
879 Clear 2 1030 40 10000 5.7 110 22:22 23.03.2020
880 Clear 2 1029 40 10000 4.6 110 21:54 23.03.2020
881 Clear 2 1029 34 10000 4.6 90 21:36 23.03.2020
882 Clear 3 1030 32 10000 3.6 70 21:18 23.03.2020
883 Clear 3 1029 29 10000 5.1 90 20:42 23.03.2020
884 Clear 3 1030 34 10000 4.1 100 20:24 23.03.2020
885 Clear 4 1030 34 10000 4.1 100 19:55 23.03.2020
886 Clear 4 1029 27 10000 5.7 80 19:37 23.03.2020
887 Clear 5 1030 27 10000 5.1 60 19:19 23.03.2020
888 Clear 5 1029 26 10000 4.1 80 18:43 23.03.2020
889 Clear 6 1029 26 10000 4.6 70 18:25 23.03.2020
890 Clear 7 1029 32 10000 4.6 100 17:59 23.03.2020
891 Clear 7 1028 20 10000 5.7 90 17:41 23.03.2020
892 Clear 7 1029 24 10000 5.7 100 17:19 23.03.2020
893 Clear 8 1028 20 10000 6.2 90 16:44 23.03.2020
894 Clear 8 1029 30 10000 5.1 110 16:25 23.03.2020
895 Clear 8 1028 22 10000 6.7 110 15:58 23.03.2020
896 Clear 8 1028 24 10000 6.2 110 15:39 23.03.2020
897 Clear 8 1029 24 10000 6.7 90 15:18 23.03.2020
898 Clear 8 1029 22 10000 7.7 120 14:37 23.03.2020
899 Clear 7 1030 26 10000 5.7 100 14:19 23.03.2020
900 Clear 7 1030 32 10000 5.7 100 13:57 23.03.2020
901 Clear 7 1029 24 10000 6.7 120 13:38 23.03.2020
902 Clear 7 1029 24 10000 6.7 120 13:38 23.03.2020
903 Clear 7 1030 27 10000 5.7 90 13:20 23.03.2020
904 Clear 6 1029 26 10000 6.2 100 12:43 23.03.2020
905 Clear 6 1030 32 10000 6.2 80 12:25 23.03.2020
906 Clear 5 1029 27 10000 7.2 100 11:57 23.03.2020
907 Clear 5 1029 27 10000 7.2 100 11:38 23.03.2020
908 Clear 5 1029 27 10000 7.2 100 11:38 23.03.2020
909 Clear 4 1030 37 10000 5.7 80 11:19 23.03.2020
910 Clear 3 1029 37 10000 5.7 90 10:56 23.03.2020
911 Clear 3 1029 37 10000 5.7 90 10:37 23.03.2020
912 Clear 3 1030 40 10000 6.2 70 10:19 23.03.2020
913 Clear 2 1029 43 10000 6.2 80 09:44 23.03.2020
914 Clear 1 1030 34 10000 9.8 80 09:21 23.03.2020
915 Clear 0 1030 50 10000 6.7 100 08:56 23.03.2020
916 Clear 0 1029 34 10000 5.1 80 08:36 23.03.2020
917 Clear -1 1030 50 10000 8.7 70 08:18 23.03.2020
918 Clear -1 1029 46 10000 5.1 80 07:42 23.03.2020
919 Clear -2 1030 54 10000 7.2 70 07:21 23.03.2020
920 Clear -2 1028 54 10000 5.1 80 06:49 23.03.2020
921 Clear -2 1030 54 10000 8.2 80 05:51 23.03.2020
922 Clear -1 1028 50 10000 6.2 80 04:58 23.03.2020
923 Clear 0 1029 54 10000 6.2 100 03:28 23.03.2020
924 Clear 1 1028 47 10000 6.7 90 01:51 23.03.2020
925 Clear 1 1029 54 10000 5.7 100 01:32 23.03.2020
926 Clear 1 1028 43 10000 6.7 90 00:36 23.03.2020
927 Clear 2 1028 40 10000 7.2 90 23:47 22.03.2020
928 Clear 2 1029 56 10000 5.1 110 23:26 22.03.2020
929 Clear 3 1028 44 10000 7.2 80 22:45 22.03.2020
930 Clear 3 1029 40 10000 6.2 70 22:26 22.03.2020
931 Clear 3 1029 47 10000 4.6 100 21:56 22.03.2020
932 Clear 4 1027 40 10000 5.7 80 21:37 22.03.2020
933 Clear 4 1028 38 10000 5.7 70 21:19 22.03.2020
934 Clear 4 1028 43 10000 7.2 100 20:54 22.03.2020
935 Clear 4 1027 38 10000 6.2 80 20:36 22.03.2020
936 Clear 4 1028 35 10000 4.1 70 20:18 22.03.2020
937 Clear 4 1028 44 10000 5.1 100 19:54 22.03.2020
938 Clear 5 1027 35 10000 6.7 80 19:36 22.03.2020
939 Clear 5 1027 32 10000 5.1 70 19:18 22.03.2020
940 Clear 6 1026 35 10000 6.2 80 18:41 22.03.2020
941 Clear 7 1027 28 10000 6.7 80 18:22 22.03.2020
942 Clear 7 1027 28 10000 6.7 80 18:22 22.03.2020
943 Clear 7 1027 35 10000 4.1 90 17:59 22.03.2020
944 Clear 7 1025 31 10000 5.7 80 17:39 22.03.2020
945 Clear 8 1026 28 10000 7.7 70 17:21 22.03.2020
946 Clear 8 1026 33 10000 4.6 90 16:59 22.03.2020
947 Clear 8 1025 29 10000 6.7 70 16:41 22.03.2020
948 Clear 8 1026 33 10000 4.6 80 16:22 22.03.2020
949 Clear 8 1025 26 10000 7.2 80 15:59 22.03.2020
950 Clear 8 1025 27 10000 6.2 80 15:39 22.03.2020
951 Clear 8 1025 29 10000 7.2 90 14:47 22.03.2020
952 Clear 8 1026 26 10000 9.8 60 14:20 22.03.2020
953 Clear 8 1025 31 10000 6.7 90 13:58 22.03.2020
954 Clear 8 1025 31 10000 6.7 90 13:58 22.03.2020
955 Clear 8 1025 33 10000 7.2 70 13:40 22.03.2020
956 Clear 8 1026 30 10000 7.2 70 13:19 22.03.2020
957 Clear 7 1025 39 10000 6.7 60 12:44 22.03.2020
958 Clear 7 1026 38 10000 9.3 70 12:23 22.03.2020
959 Clear 6 1026 44 10000 6.7 80 11:58 22.03.2020
960 Clear 5 1025 44 10000 8.7 50 11:39 22.03.2020
961 Clear 5 1026 41 10000 9.3 60 11:21 22.03.2020
962 Clear 4 1025 51 10000 8.2 60 10:54 22.03.2020
963 Clear 4 1025 51 10000 8.2 60 10:36 22.03.2020
964 Clear 4 1026 51 10000 7.7 70 10:18 22.03.2020
965 Clear 2 1024 59 10000 8.7 60 09:41 22.03.2020
966 Clear 2 1026 55 10000 8.2 60 09:19 22.03.2020
967 Clear 1 1024 59 10000 8.7 50 08:43 22.03.2020
968 Clear 1 1025 63 10000 7.7 90 08:24 22.03.2020
969 Clouds 0 1023 73 10000 7.2 50 07:51 22.03.2020
970 Clouds 0 1025 68 10000 7.2 100 07:26 22.03.2020
971 Clouds -1 1023 68 10000 7.7 60 06:35 22.03.2020
972 Clouds 0 1024 68 10000 7.2 100 05:35 22.03.2020
973 Clouds 1 1022 69 10000 6.7 70 03:46 22.03.2020
974 Clouds 1 1022 74 10000 7.7 70 01:28 22.03.2020
975 Clouds 2 1022 69 10000 7.2 70 00:48 22.03.2020
976 Clouds 2 1023 69 10000 7.7 90 00:29 22.03.2020
977 Clouds 2 1024 59 10000 6.7 50 23:44 21.03.2020
978 Clear 2 1023 64 10000 8.2 40 23:21 21.03.2020
979 Clouds 2 1023 69 10000 5.1 80 22:58 21.03.2020
980 Clouds 2 1022 64 10000 7.2 70 22:37 21.03.2020
981 Clear 3 1024 64 10000 6.2 50 22:18 21.03.2020
982 Clouds 3 1023 64 10000 5.1 80 21:56 21.03.2020
983 Clouds 3 1022 69 10000 6.2 80 21:37 21.03.2020
984 Clear 3 1023 59 10000 5.7 50 21:18 21.03.2020
985 Clouds 3 1022 64 10000 6.7 70 20:42 21.03.2020
986 Clouds 4 1023 55 10000 7.7 60 20:20 21.03.2020
987 Clouds 4 1023 64 10000 5.7 90 19:54 21.03.2020
988 Clouds 4 1023 60 10000 5.7 60 19:36 21.03.2020
989 Clouds 4 1022 60 10000 6.2 60 19:18 21.03.2020
990 Clouds 5 1022 56 10000 7.2 60 18:40 21.03.2020
991 Clouds 5 1022 60 10000 5.7 50 18:20 21.03.2020
992 Clouds 5 1022 74 10000 4.6 80 17:58 21.03.2020
993 Rain 5 1021 75 10000 7.2 70 17:39 21.03.2020
994 Clouds 5 1022 65 10000 7.2 60 17:21 21.03.2020
995 Rain 6 1021 80 10000 7.2 70 16:42 21.03.2020
996 Clouds 6 1022 65 10000 8.2 50 16:23 21.03.2020
997 Rain 6 1021 80 10000 8.2 60 15:58 21.03.2020
998 Clouds 5 1021 80 10000 8.2 50 15:40 21.03.2020
999 Clouds 6 1022 81 10000 8.7 50 15:21 21.03.2020
1000 Rain 5 1021 86 10000 6.7 70 14:56 21.03.2020
1001 Rain 6 1021 80 10000 8.2 60 14:37 21.03.2020
1002 Clouds 5 1022 75 10000 9.3 50 14:19 21.03.2020
1003 Rain 5 1021 80 10000 8.2 70 13:57 21.03.2020
1004 Clouds 5 1021 75 10000 6.2 80 13:39 21.03.2020
1005 Clouds 5 1022 86 10000 9.3 50 13:20 21.03.2020
1006 Clouds 5 1022 93 10000 7.7 60 12:55 21.03.2020
1007 Clouds 5 1022 93 10000 7.7 60 12:36 21.03.2020
1008 Rain 5 1022 93 10000 7.2 50 12:18 21.03.2020
1009 Rain 5 1022 86 10000 7.7 50 11:55 21.03.2020
1010 Rain 4 1022 86 10000 6.7 60 11:37 21.03.2020
1011 Rain 4 1022 93 10000 7.2 60 11:18 21.03.2020
1012 Clouds 4 1022 93 10000 7.7 50 10:55 21.03.2020
1013 Clouds 4 1022 93 10000 7.7 50 10:37 21.03.2020
1014 Clouds 3 1022 93 10000 8.7 50 10:18 21.03.2020
1015 Rain 3 1022 86 10000 7.7 60 09:40 21.03.2020
1016 Rain 3 1022 100 10000 7.7 50 09:21 21.03.2020
1017 Snow 2 1022 100 8000 4.1 70 08:58 21.03.2020
1018 Clouds 2 1022 100 10000 8.2 50 08:39 21.03.2020
1019 Rain 2 1022 100 8000 4.1 80 08:21 21.03.2020
1020 Rain 2 1021 90 1200 7.7 40 07:39 21.03.2020
1021 Rain 2 1022 100 10000 6.7 40 07:20 21.03.2020
1022 Rain 2 1022 100 10000 6.7 40 06:45 21.03.2020
1023 Rain 2 1022 90 3000 5.7 60 06:26 21.03.2020
1024 Clouds 2 1022 100 10000 7.2 40 05:41 21.03.2020
1025 Rain 3 1021 100 4300 9.3 50 04:42 21.03.2020
1026 Rain 5 1022 93 10000 7.7 50 02:40 21.03.2020
1027 Rain 5 1022 100 10000 7.2 40 02:18 21.03.2020
1028 Rain 6 1021 87 10000 8.2 40 01:31 21.03.2020
1029 Rain 6 1022 93 10000 7.7 50 00:47 21.03.2020
1030 Clouds 6 1022 93 10000 6.7 40 00:25 21.03.2020
1031 Clouds 7 1021 87 10000 7.2 30 23:49 20.03.2020
1032 Clouds 7 1022 93 10000 3.1 60 23:26 20.03.2020
1033 Clouds 7 1022 87 10000 2.6 60 22:57 20.03.2020
1034 Clouds 8 1022 87 8000 6.7 30 22:39 20.03.2020
1035 Clouds 8 1022 87 10000 3.6 10 22:20 20.03.2020
1036 Clouds 8 1022 93 10000 6.2 40 21:55 20.03.2020
1037 Clouds 8 1022 81 8000 7.2 30 21:37 20.03.2020
1038 Clouds 8 1022 87 10000 5.1 20 21:18 20.03.2020
1039 Clouds 8 1022 93 9000 5.7 20 20:56 20.03.2020
1040 Clouds 8 1021 81 10000 8.2 30 20:38 20.03.2020
1041 Clouds 8 1022 87 10000 4.6 20 20:18 20.03.2020
1042 Clouds 9 1022 87 10000 4.1 360 19:44 20.03.2020
1043 Clear 10 1022 81 10000 4.1 350 19:19 20.03.2020
1044 Clouds 10 1021 87 9000 5.7 360 18:55 20.03.2020
1045 Rain 11 1020 71 9000 7.2 40 18:37 20.03.2020
1046 Clear 12 1021 81 10000 5.1 360 18:19 20.03.2020
1047 Rain 13 1020 62 8000 6.2 30 17:39 20.03.2020
1048 Clouds 14 1021 66 10000 4.6 10 17:21 20.03.2020
1049 Clouds 14 1020 58 10000 7.2 40 16:58 20.03.2020
1050 Clouds 14 1020 58 10000 7.2 40 16:58 20.03.2020
1051 Clouds 14 1020 58 10000 7.2 40 16:40 20.03.2020
1052 Clouds 15 1021 66 10000 4.1 20 16:19 20.03.2020
1053 Clouds 15 1020 48 10000 5.7 30 15:42 20.03.2020
1054 Clouds 15 1021 71 10000 4.6 10 15:22 20.03.2020
1055 Clouds 15 1021 71 10000 5.1 10 14:56 20.03.2020
1056 Clouds 15 1021 45 10000 3.6 70 14:37 20.03.2020
1057 Clouds 16 1021 62 10000 3.6 30 14:19 20.03.2020
1058 Clouds 15 1021 54 10000 2.6 80 13:45 20.03.2020
1059 Clouds 16 1022 55 10000 2.6 50 13:19 20.03.2020
1060 Clouds 16 1022 58 10000 4.1 50 12:54 20.03.2020
1061 Clouds 16 1022 58 10000 4.1 50 12:36 20.03.2020
1062 Clear 15 1022 54 10000 5.1 40 12:18 20.03.2020
1063 Clouds 15 1022 62 10000 3.6 60 11:39 20.03.2020
1064 Clear 13 1022 58 10000 5.7 50 11:20 20.03.2020
1065 Clear 13 1022 62 10000 4.6 50 10:54 20.03.2020
1066 Clear 13 1022 62 10000 4.6 50 10:36 20.03.2020
1067 Clear 12 1022 66 10000 2.6 60 10:18 20.03.2020
1068 Clear 11 1022 66 10000 5.7 50 09:43 20.03.2020
1069 Clear 10 1022 81 10000 1.38 38 09:20 20.03.2020
1070 Clear 8 1022 71 10000 4.6 40 08:43 20.03.2020
1071 Clouds 8 1022 81 10000 2.6 10 08:23 20.03.2020
1072 Clouds 7 1022 76 10000 5.1 40 07:57 20.03.2020
1073 Clouds 7 1022 76 10000 5.7 40 07:38 20.03.2020
1074 Clouds 6 1022 81 10000 2.28 14 07:19 20.03.2020
1075 Clouds 6 1021 87 10000 1 0 06:42 20.03.2020
1076 Clouds 7 1021 81 10000 0.5 0 05:57 20.03.2020
1077 Clouds 7 1021 75 10000 1.5 90 04:27 20.03.2020
1078 Clouds 8 1022 76 10000 4.1 40 02:50 20.03.2020
1079 Clouds 8 1022 76 10000 4.6 40 01:50 20.03.2020
1080 Clouds 8 1022 76 10000 4.6 40 00:38 20.03.2020
1081 Clouds 8 1023 71 10000 3.1 20 23:59 19.03.2020
1082 Clouds 8 1022 71 10000 4.6 40 23:40 19.03.2020
1083 Clear 9 1023 71 10000 2.6 40 23:19 19.03.2020
1084 Clouds 9 1023 62 10000 2.1 20 22:40 19.03.2020
1085 Clear 9 1023 76 10000 1.5 40 22:22 19.03.2020
1086 Clouds 9 1023 66 10000 2.1 10 21:58 19.03.2020
1087 Clouds 9 1023 66 10000 2.1 310 21:38 19.03.2020
1088 Clouds 10 1023 71 10000 2.1 30 21:19 19.03.2020
1089 Clouds 10 1023 61 10000 1.5 310 20:44 19.03.2020
1090 Clouds 10 1023 66 10000 1.5 80 20:25 19.03.2020
1091 Clouds 11 1023 71 10000 2.1 80 19:59 19.03.2020
1092 Clouds 11 1022 54 10000 1.69 26 19:39 19.03.2020
1093 Clouds 12 1022 58 10000 2.6 30 19:21 19.03.2020
1094 Clouds 13 1022 62 10000 1.5 50 18:59 19.03.2020
1095 Clouds 13 1022 50 10000 1.69 26 18:41 19.03.2020
1096 Clouds 14 1022 58 10000 2.6 40 18:22 19.03.2020
1097 Clouds 15 1022 44 10000 1.5 210 17:56 19.03.2020
1098 Clouds 15 1023 62 10000 3.1 50 17:37 19.03.2020
1099 Clouds 15 1022 54 10000 2.6 60 17:18 19.03.2020
1100 Clouds 15 1023 47 10000 2.1 210 16:43 19.03.2020
1101 Clouds 16 1023 51 10000 1.5 60 16:22 19.03.2020
1102 Clouds 16 1023 48 10000 2.1 90 15:44 19.03.2020
1103 Clouds 16 1023 54 10000 1.5 0 15:25 19.03.2020
1104 Clouds 16 1023 54 10000 2.6 40 14:55 19.03.2020
1105 Clouds 16 1023 51 10000 2.6 160 14:37 19.03.2020
1106 Clouds 16 1024 48 10000 2.1 90 14:18 19.03.2020
1107 Clouds 15 1024 58 10000 2.1 110 13:39 19.03.2020
1108 Clouds 16 1024 48 10000 1.5 140 13:19 19.03.2020
1109 Clouds 15 1025 51 10000 2.6 40 12:44 19.03.2020
1110 Clear 15 1025 47 10000 2.1 80 12:24 19.03.2020
1111 Clouds 15 1025 54 10000 2.1 0 11:59 19.03.2020
1112 Clouds 15 1025 54 10000 2.1 0 11:41 19.03.2020
1113 Clear 14 1025 62 10000 1.39 189 11:23 19.03.2020
1114 Clear 13 1025 62 10000 2.6 40 10:56 19.03.2020
1115 Clear 13 1025 62 10000 2.6 40 10:36 19.03.2020
1116 Clear 12 1025 71 10000 0.5 50 10:18 19.03.2020
1117 Clear 10 1025 71 10000 2.1 70 09:42 19.03.2020
1118 Clouds 9 1025 76 10000 0.5 0 09:24 19.03.2020
1119 Clear 8 1025 71 10000 3.1 50 08:48 19.03.2020
1120 Clouds 7 1025 76 10000 0.5 0 08:23 19.03.2020
1121 Clear 6 1025 75 10000 2.6 50 07:59 19.03.2020
1122 Clear 6 1025 75 10000 2.1 40 07:38 19.03.2020
1123 Clear 6 1025 100 10000 0.85 40 07:19 19.03.2020
1124 Clear 5 1025 100 10000 0.85 40 06:27 19.03.2020
1125 Clouds 5 1025 100 10000 0.85 40 05:25 19.03.2020
1126 Clear 6 1025 75 10000 1 60 04:50 19.03.2020
1127 Clouds 5 1025 86 10000 0.53 43 04:21 19.03.2020
1128 Clear 6 1025 70 10000 1.5 270 01:58 19.03.2020
1129 Clouds 6 1025 66 10000 2.1 250 00:53 19.03.2020
1130 Clear 6 1025 87 10000 0.44 39 00:20 19.03.2020
1131 Clear 6 1026 75 10000 2.1 280 23:44 18.03.2020
1132 Clear 7 1026 81 10000 0.44 39 23:26 18.03.2020
1133 Clear 7 1026 70 10000 2.1 240 22:43 18.03.2020
1134 Clear 7 1026 66 10000 2.6 240 22:23 18.03.2020
1135 Clear 8 1026 70 10000 1.5 240 21:59 18.03.2020
1136 Clear 8 1026 66 10000 1.5 210 21:40 18.03.2020
1137 Clear 8 1026 66 10000 0.27 292 21:21 18.03.2020
1138 Clear 8 1026 66 10000 0.27 292 21:21 18.03.2020
1139 Clear 8 1026 66 10000 3.1 230 20:57 18.03.2020
1140 Clear 8 1026 66 10000 0.5 0 20:38 18.03.2020
1141 Clear 9 1026 62 10000 2.1 220 20:19 18.03.2020
1142 Clouds 10 1026 62 10000 2.1 240 19:45 18.03.2020
1143 Clear 10 1026 66 10000 1.5 200 19:21 18.03.2020
1144 Clouds 11 1026 66 10000 1.5 230 18:59 18.03.2020
1145 Clouds 12 1026 54 10000 2.1 290 18:40 18.03.2020
1146 Clear 13 1026 58 10000 2.6 210 18:19 18.03.2020
1147 Clouds 14 1026 50 10000 3.1 250 17:57 18.03.2020
1148 Clouds 14 1026 50 10000 3.1 250 17:39 18.03.2020
1149 Clouds 14 1026 54 10000 3.1 230 17:20 18.03.2020
1150 Clouds 14 1027 50 10000 4.6 250 16:54 18.03.2020
1151 Clouds 15 1027 50 10000 4.6 250 16:36 18.03.2020
1152 Clouds 14 1026 50 10000 5.1 210 16:18 18.03.2020
1153 Clouds 14 1027 50 10000 4.6 260 15:44 18.03.2020
1154 Clouds 14 1027 58 10000 4.6 220 15:20 18.03.2020
1155 Clouds 14 1028 54 10000 4.1 250 14:45 18.03.2020
1156 Clouds 14 1028 62 10000 3.1 250 14:21 18.03.2020
1157 Clouds 14 1028 71 10000 3.1 290 13:56 18.03.2020
1158 Clouds 14 1028 71 10000 1.5 240 13:36 18.03.2020
1159 Clouds 13 1028 76 10000 2.6 250 13:18 18.03.2020
1160 Clouds 13 1029 76 8000 1.5 0 12:41 18.03.2020
1161 Clouds 12 1029 87 10000 2.1 230 12:19 18.03.2020
1162 Clouds 12 1029 81 6000 2.1 230 11:39 18.03.2020
1163 Clouds 11 1029 93 10000 1.5 230 11:21 18.03.2020
1164 Mist 11 1029 87 5000 2.6 250 10:58 18.03.2020
1165 Mist 10 1029 87 5000 2.6 250 10:39 18.03.2020
1166 Clouds 9 1029 93 10000 1.07 221 10:20 18.03.2020
1167 Clouds 9 1029 81 10000 3.6 280 09:56 18.03.2020
1168 Mist 9 1029 87 5000 2.1 240 09:38 18.03.2020
1169 Clouds 8 1029 100 10000 1.07 221 09:20 18.03.2020
1170 Clouds 7 1029 100 10000 1.07 221 08:39 18.03.2020
1171 Clear 6 1029 100 10000 1.07 221 08:21 18.03.2020
1172 Clear 5 1029 100 10000 0.55 163 07:49 18.03.2020
1173 Mist 5 1029 100 6000 0.55 163 07:31 18.03.2020
1174 Clear 5 1029 100 8000 2.1 270 06:50 18.03.2020
1175 Clear 5 1029 93 10000 2.1 280 06:31 18.03.2020
1176 Clear 5 1028 87 10000 3.1 240 05:36 18.03.2020
1177 Clear 5 1028 81 10000 3.1 240 04:29 18.03.2020
1178 Clear 5 1029 87 10000 1.5 220 02:51 18.03.2020
1179 Clear 5 1029 87 10000 1.5 240 02:32 18.03.2020
1180 Clear 6 1029 87 10000 0.19 121 01:31 18.03.2020
1181 Clouds 6 1030 76 10000 2.6 260 00:42 18.03.2020
1182 Clear 7 1030 81 10000 0.19 121 00:20 18.03.2020
1183 Clouds 7 1030 76 10000 2.6 240 23:40 17.03.2020
1184 Clear 7 1030 76 10000 1.5 270 23:19 17.03.2020
1185 Clear 7 1030 81 10000 2.6 270 22:42 17.03.2020
1186 Clear 7 1030 81 10000 2.1 230 22:24 17.03.2020
1187 Clear 8 1030 76 10000 2.6 260 21:43 17.03.2020
1188 Clear 8 1030 76 10000 3.1 230 21:23 17.03.2020
1189 Clear 9 1030 71 10000 3.1 240 20:57 17.03.2020
1190 Clear 9 1030 71 10000 3.1 240 20:37 17.03.2020
1191 Clear 9 1029 71 10000 2.1 210 20:19 17.03.2020
1192 Clouds 10 1030 66 10000 2.6 250 19:41 17.03.2020
1193 Clear 11 1029 66 10000 2.1 220 19:19 17.03.2020
1194 Clear 12 1031 71 10000 2.1 250 18:57 17.03.2020
1195 Clouds 12 1029 62 10000 3.1 240 18:39 17.03.2020
1196 Clear 13 1029 62 10000 3.1 210 18:21 17.03.2020
1197 Clouds 14 1029 58 10000 3.6 240 17:56 17.03.2020
1198 Clouds 14 1029 58 10000 3.6 240 17:38 17.03.2020
1199 Clear 14 1029 51 10000 1.5 240 17:18 17.03.2020
1200 Clouds 15 1029 54 10000 3.1 230 16:42 17.03.2020
1201 Clear 15 1029 51 10000 3.6 230 16:19 17.03.2020
1202 Clear 15 1029 51 10000 3.6 230 16:19 17.03.2020
1203 Clouds 15 1030 54 10000 4.1 240 15:45 17.03.2020
1204 Clear 15 1029 51 10000 4.6 260 15:23 17.03.2020
1205 Clouds 14 1030 58 10000 4.6 260 14:47 17.03.2020
1206 Clouds 14 1029 62 10000 2.1 290 14:27 17.03.2020
1207 Clouds 14 1030 66 10000 3.6 280 13:58 17.03.2020
1208 Clouds 14 1030 58 10000 4.1 280 13:40 17.03.2020
1209 Clouds 13 1030 58 10000 1.5 210 13:22 17.03.2020
1210 Clouds 13 1030 71 10000 3.1 230 12:47 17.03.2020
1211 Clear 14 1030 66 10000 3.1 210 12:25 17.03.2020
1212 Clouds 13 1031 76 8000 2.6 220 11:57 17.03.2020
1213 Clouds 12 1031 76 8000 2.6 220 11:39 17.03.2020
1214 Clouds 11 1030 71 10000 2.1 250 11:20 17.03.2020
1215 Clouds 11 1030 71 10000 2.1 240 10:54 17.03.2020
1216 Clouds 11 1030 71 10000 2.1 240 10:36 17.03.2020
1217 Clouds 10 1030 76 10000 3.1 270 10:18 17.03.2020
1218 Mist 9 1030 87 3000 2.6 300 09:45 17.03.2020
1219 Mist 9 1030 87 3000 2.6 300 09:45 17.03.2020
1220 Mist 9 1029 87 9000 2.6 280 09:20 17.03.2020
1221 Mist 9 1029 93 3500 2.6 280 08:58 17.03.2020
1222 Mist 9 1029 93 3500 2.6 280 08:58 17.03.2020
1223 Mist 8 1029 93 8000 2.6 290 08:40 17.03.2020
1224 Mist 8 1029 93 6000 3.1 280 08:18 17.03.2020
1225 Mist 8 1029 93 2000 2.6 240 07:49 17.03.2020
1226 Mist 7 1028 100 6000 3.1 260 07:20 17.03.2020
1227 Mist 7 1028 100 6000 0.91 285 06:49 17.03.2020
1228 Clouds 7 1027 100 10000 0.91 285 06:25 17.03.2020
1229 Clouds 7 1027 100 10000 2.1 240 05:26 17.03.2020
1230 Clouds 8 1026 87 8000 2.6 300 03:31 17.03.2020
1231 Clouds 8 1026 87 10000 3.1 300 02:31 17.03.2020
1232 Clouds 8 1026 87 10000 2.6 260 01:38 17.03.2020
1233 Clouds 9 1025 81 10000 2.6 260 00:53 17.03.2020
1234 Clouds 9 1025 81 10000 1.55 205 00:18 17.03.2020
1235 Clouds 9 1025 76 10000 2.1 280 23:38 16.03.2020
1236 Clouds 10 1025 76 10000 2.1 240 23:19 16.03.2020
1237 Clouds 10 1025 76 10000 3.1 280 22:38 16.03.2020
1238 Clouds 10 1024 71 10000 1.18 258 22:20 16.03.2020
1239 Clouds 11 1024 71 10000 4.1 270 21:45 16.03.2020
1240 Clouds 11 1024 66 10000 2.6 250 21:27 16.03.2020
1241 Clouds 11 1023 71 10000 3.1 220 20:59 16.03.2020
1242 Clouds 11 1023 66 10000 4.1 250 20:40 16.03.2020
1243 Clear 11 1023 71 10000 2.1 220 20:21 16.03.2020
1244 Clouds 11 1023 62 10000 4.1 240 19:46 16.03.2020
1245 Clouds 11 1022 62 10000 2.6 240 19:25 16.03.2020
1246 Clouds 13 1022 62 10000 2.1 230 18:59 16.03.2020
1247 Clouds 13 1022 58 10000 3.1 250 18:39 16.03.2020
1248 Clouds 14 1022 58 10000 1.5 210 18:20 16.03.2020
1249 Clouds 15 1022 54 10000 2.1 250 17:46 16.03.2020
1250 Clear 15 1021 54 10000 2.1 210 17:26 16.03.2020
1251 Clouds 15 1021 54 10000 2.6 260 16:58 16.03.2020
1252 Clouds 15 1021 54 10000 4.1 240 16:40 16.03.2020
1253 Clear 15 1021 51 10000 1.5 230 16:21 16.03.2020
1254 Clouds 15 1020 55 10000 3.1 200 15:43 16.03.2020
1255 Clouds 15 1020 58 10000 3.1 300 15:24 16.03.2020
1256 Clouds 15 1020 58 10000 3.1 160 14:48 16.03.2020
1257 Clouds 15 1020 58 10000 3.1 280 14:23 16.03.2020
1258 Clouds 15 1020 58 10000 4.1 200 13:51 16.03.2020
1259 Clouds 15 1020 58 10000 4.1 200 13:29 16.03.2020
1260 Clouds 14 1019 62 10000 2.1 310 12:58 16.03.2020
1261 Clouds 14 1020 62 10000 3.1 180 12:40 16.03.2020
1262 Clear 14 1019 58 10000 2.9 227 12:20 16.03.2020
1263 Clouds 13 1019 66 10000 2.6 190 11:45 16.03.2020
1264 Clear 13 1019 66 10000 2.9 227 11:26 16.03.2020
1265 Clouds 11 1019 71 10000 3.1 170 10:47 16.03.2020
1266 Clouds 11 1018 66 10000 2.1 280 10:25 16.03.2020
1267 Clouds 10 1019 71 10000 2.1 160 09:59 16.03.2020
1268 Clouds 9 1018 76 10000 1.5 160 09:40 16.03.2020
1269 Clear 8 1018 75 10000 1.5 210 09:20 16.03.2020
1270 Clouds 6 1018 75 10000 3.1 160 08:43 16.03.2020
1271 Clouds 5 1017 86 10000 3.6 160 08:23 16.03.2020
1272 Clear 3 1017 86 10000 2.1 190 07:44 16.03.2020
1273 Clear 4 1016 93 10000 1.98 152 07:21 16.03.2020
1274 Clear 3 1016 87 10000 1.5 180 06:46 16.03.2020
1275 Clear 3 1016 86 10000 1.98 152 06:23 16.03.2020
1276 Clear 4 1015 75 10000 1.5 190 04:53 16.03.2020
1277 Clear 4 1014 70 10000 2.6 160 02:40 16.03.2020
1278 Clouds 5 1013 61 10000 2.6 170 00:49 16.03.2020
1279 Clouds 5 1013 61 10000 2.6 170 00:30 16.03.2020
1280 Clouds 6 1013 61 10000 1.5 170 23:42 15.03.2020
1281 Clear 6 1013 65 10000 2.35 146 23:20 15.03.2020
1282 Clouds 7 1013 65 10000 2.1 140 22:42 15.03.2020
1283 Clouds 7 1013 86 10000 6.2 150 22:22 15.03.2020
1284 Clouds 7 1013 86 10000 4.6 140 21:56 15.03.2020
1285 Clouds 7 1013 61 10000 1 0 21:37 15.03.2020
1286 Clear 7 1013 61 10000 2.35 146 21:18 15.03.2020
1287 Clouds 8 1013 53 10000 2.1 150 20:42 15.03.2020
1288 Clear 8 1013 53 10000 1.5 130 20:20 15.03.2020
1289 Clouds 9 1013 78 10000 2.6 150 19:58 15.03.2020
1290 Clouds 9 1013 50 10000 3.1 150 19:38 15.03.2020
1291 Clear 10 1013 53 10000 2.28 158 19:19 15.03.2020
1292 Clouds 10 1013 57 10000 4.1 170 18:55 15.03.2020
1293 Clouds 11 1013 50 10000 4.1 160 18:37 15.03.2020
1294 Clear 12 1013 53 10000 2.6 180 18:19 15.03.2020
1295 Clouds 13 1013 47 10000 5.1 160 17:41 15.03.2020
1296 Clouds 13 1013 47 10000 5.1 160 17:41 15.03.2020
1297 Clear 13 1013 47 10000 4.6 190 17:21 15.03.2020
1298 Clouds 13 1013 50 10000 5.1 170 16:58 15.03.2020
1299 Clouds 13 1013 47 10000 6.2 170 16:39 15.03.2020
1300 Clear 13 1014 50 10000 5.7 180 16:21 15.03.2020
1301 Clouds 13 1014 54 10000 5.7 170 15:46 15.03.2020
1302 Clouds 13 1014 54 10000 5.7 170 15:28 15.03.2020
1303 Clouds 13 1014 50 10000 5.7 180 14:58 15.03.2020
1304 Clouds 13 1014 58 10000 4.6 170 14:38 15.03.2020
1305 Clouds 12 1015 58 10000 5.1 210 14:19 15.03.2020
1306 Clouds 12 1015 53 10000 5.7 190 13:55 15.03.2020
1307 Clouds 12 1015 66 10000 4.6 170 13:37 15.03.2020
1308 Clear 12 1015 62 10000 6.2 190 13:18 15.03.2020
1309 Clear 12 1015 62 10000 6.2 190 13:18 15.03.2020
1310 Clouds 11 1016 66 10000 5.7 190 12:40 15.03.2020
1311 Clouds 11 1016 71 10000 4.6 180 12:21 15.03.2020
1312 Clouds 10 1017 70 10000 4.1 170 11:44 15.03.2020
1313 Clouds 10 1017 70 10000 4.1 190 11:25 15.03.2020
1314 Clouds 8 1016 61 10000 6.7 160 10:59 15.03.2020
1315 Clouds 8 1017 75 10000 3.1 170 10:40 15.03.2020
1316 Clouds 7 1017 65 10000 6.2 150 10:21 15.03.2020
1317 Clouds 7 1017 75 10000 3.6 170 09:59 15.03.2020
1318 Clouds 7 1017 80 10000 4.6 160 09:38 15.03.2020
1319 Clouds 6 1017 65 10000 1.5 100 09:19 15.03.2020
1320 Clouds 5 1017 75 10000 4.1 170 08:41 15.03.2020
1321 Clouds 5 1017 75 10000 2.24 138 08:19 15.03.2020
1322 Clouds 5 1017 75 10000 4.1 180 07:49 15.03.2020
1323 Clouds 4 1017 87 10000 1.5 100 07:22 15.03.2020
1324 Clouds 4 1017 75 10000 2.6 190 06:44 15.03.2020
1325 Clouds 4 1017 75 10000 3.1 180 05:49 15.03.2020
1326 Clouds 5 1018 84 10000 2.6 140 04:57 15.03.2020
1327 Clouds 5 1018 75 10000 3.6 170 04:39 15.03.2020
1328 Clouds 4 1018 75 10000 1.5 150 04:20 15.03.2020
1329 Clouds 5 1018 84 10000 5.7 140 03:24 15.03.2020
1330 Clouds 5 1019 70 10000 3.1 170 02:28 15.03.2020
1331 Clouds 5 1019 80 10000 2.19 142 01:19 15.03.2020
1332 Clouds 5 1019 75 10000 2.6 160 00:42 15.03.2020
1333 Clouds 5 1020 80 10000 1.5 90 00:19 15.03.2020
1334 Clouds 6 1020 75 10000 2.6 180 23:41 14.03.2020
1335 Clouds 5 1020 75 10000 1.98 163 23:20 14.03.2020
1336 Clouds 5 1020 80 10000 4.1 140 22:57 14.03.2020
1337 Clouds 5 1020 75 10000 3.1 160 22:38 14.03.2020
1338 Clouds 5 1020 75 10000 1.98 163 22:20 14.03.2020
1339 Clouds 5 1020 90 10000 4.1 170 21:56 14.03.2020
1340 Clouds 5 1020 75 10000 2.6 150 21:36 14.03.2020
1341 Clouds 6 1020 75 10000 1.5 130 21:18 14.03.2020
1342 Clouds 6 1020 80 10000 3.1 170 20:58 14.03.2020
1343 Rain 6 1021 70 10000 1.5 140 20:39 14.03.2020
1344 Clear 6 1021 70 10000 1.5 150 20:18 14.03.2020
1345 Rain 6 1020 75 10000 2.6 180 19:42 14.03.2020
1346 Clouds 6 1020 80 10000 3.1 160 19:24 14.03.2020
1347 Clouds 7 1020 70 10000 3.1 170 18:41 14.03.2020
1348 Clouds 7 1020 65 10000 3.1 190 18:23 14.03.2020
1349 Clouds 8 1020 65 10000 3.6 190 17:56 14.03.2020
1350 Clouds 8 1020 70 10000 4.6 150 17:38 14.03.2020
1351 Clouds 8 1020 61 10000 5.1 190 17:20 14.03.2020
1352 Clouds 8 1020 65 10000 3.6 190 16:40 14.03.2020
1353 Clouds 8 1020 61 10000 3.6 190 16:22 14.03.2020
1354 Clouds 8 1020 75 10000 2.1 150 15:56 14.03.2020
1355 Clouds 8 1020 61 10000 3.6 190 15:26 14.03.2020
1356 Rain 8 1020 61 10000 3.1 130 14:58 14.03.2020
1357 Clouds 8 1020 70 10000 4.1 180 14:36 14.03.2020
1358 Clouds 8 1020 65 10000 4.6 220 14:18 14.03.2020
1359 Clouds 8 1020 61 10000 4.6 200 13:42 14.03.2020
1360 Clouds 8 1021 65 10000 3.1 190 13:23 14.03.2020
1361 Clouds 7 1021 75 10000 2.6 170 12:55 14.03.2020
1362 Clouds 7 1021 75 10000 2.6 170 12:37 14.03.2020
1363 Clouds 7 1021 70 10000 4.1 200 12:19 14.03.2020
1364 Clouds 7 1021 81 10000 3.07 218 11:40 14.03.2020
1365 Clouds 6 1021 81 10000 1.65 171 11:20 14.03.2020
1366 Clouds 5 1021 86 10000 1.65 171 10:46 14.03.2020
1367 Clouds 5 1021 93 10000 1.65 171 10:27 14.03.2020
1368 Clouds 4 1020 93 10000 3.6 140 09:58 14.03.2020
1369 Clouds 4 1021 86 10000 2.1 120 09:40 14.03.2020
1370 Clouds 4 1021 93 10000 1.65 171 09:20 14.03.2020
1371 Clouds 3 1021 86 10000 0.5 0 08:46 14.03.2020
1372 Clouds 3 1020 100 10000 3.1 140 08:26 14.03.2020
1373 Clouds 2 1020 86 10000 0.5 0 07:40 14.03.2020
1374 Clear 2 1020 93 10000 1.02 123 07:21 14.03.2020
1375 Clouds 1 1020 86 10000 0.5 0 06:45 14.03.2020
1376 Clouds 1 1020 86 10000 0.5 0 06:45 14.03.2020
1377 Clouds 1 1020 93 10000 1.02 123 06:26 14.03.2020
1378 Mist 1 1020 92 3200 1.01 137 04:53 14.03.2020
1379 Clouds 1 1020 93 10000 1.5 200 03:34 14.03.2020
1380 Clouds 1 1020 93 10000 1.5 200 03:34 14.03.2020
1381 Clouds 1 1021 86 10000 0.5 240 02:48 14.03.2020
1382 Mist 1 1021 92 6000 0.57 84 01:46 14.03.2020
1383 Clouds 2 1020 86 10000 2.1 0 00:34 14.03.2020
1384 Clouds 2 1021 80 10000 1 0 23:42 13.03.2020
1385 Clouds 2 1021 93 10000 2.1 250 23:23 13.03.2020
1386 Clouds 3 1021 86 10000 3.1 330 22:45 13.03.2020
1387 Clouds 3 1020 93 10000 4.1 260 22:22 13.03.2020
1388 Clouds 4 1021 80 10000 3.6 340 21:41 13.03.2020
1389 Clouds 4 1021 93 10000 2.1 250 21:19 13.03.2020
1390 Clouds 4 1021 75 10000 1.5 20 20:43 13.03.2020
1391 Clouds 5 1020 86 10000 4.6 250 20:23 13.03.2020
1392 Clouds 5 1020 86 10000 3.1 250 19:59 13.03.2020
1393 Clouds 5 1021 93 10000 2.6 250 19:40 13.03.2020
1394 Clouds 6 1020 86 10000 5.1 210 19:22 13.03.2020
1395 Rain 6 1020 70 10000 4.6 260 18:44 13.03.2020
1396 Rain 6 1020 86 10000 4.6 210 18:25 13.03.2020
1397 Rain 7 1020 93 10000 5.7 230 17:43 13.03.2020
1398 Rain 8 1020 70 10000 7.2 220 17:22 13.03.2020
1399 Clouds 8 1019 75 10000 6.2 260 16:59 13.03.2020
1400 Clouds 8 1020 75 10000 5.7 260 16:39 13.03.2020
1401 Clouds 8 1020 75 10000 4.1 230 16:21 13.03.2020
1402 Clouds 8 1019 86 10000 5.1 260 15:54 13.03.2020
1403 Clouds 8 1020 70 10000 4.1 230 15:36 13.03.2020
1404 Clouds 7 1020 81 10000 4.1 240 15:18 13.03.2020
1405 Clouds 7 1020 80 10000 4.6 250 14:40 13.03.2020
1406 Rain 7 1019 75 10000 7.7 270 14:22 13.03.2020
1407 Clouds 7 1020 70 10000 7.2 220 13:55 13.03.2020
1408 Clouds 7 1020 70 10000 7.2 220 13:37 13.03.2020
1409 Clouds 7 1020 65 10000 8.7 230 13:18 13.03.2020
1410 Clouds 6 1020 70 10000 6.7 230 12:40 13.03.2020
1411 Rain 6 1020 81 10000 5.1 230 12:21 13.03.2020
1412 Rain 6 1020 75 10000 8.2 220 11:57 13.03.2020
1413 Clouds 6 1018 80 10000 8.7 260 11:37 13.03.2020
1414 Clouds 6 1019 80 10000 6.7 220 11:19 13.03.2020
1415 Clouds 5 1019 75 10000 8.2 240 10:47 13.03.2020
1416 Clouds 5 1018 82 10000 7.7 260 10:26 13.03.2020
1417 Clouds 5 1018 82 10000 7.2 260 09:57 13.03.2020
1418 Clouds 5 1018 75 10000 8.7 220 09:38 13.03.2020
1419 Clouds 4 1018 80 10000 7.2 230 09:20 13.03.2020
1420 Clouds 4 1019 80 10000 6.7 240 08:44 13.03.2020
1421 Clouds 4 1017 80 10000 7.7 230 08:22 13.03.2020
1422 Clouds 4 1018 86 10000 7.2 250 07:47 13.03.2020
1423 Clouds 3 1016 85 10000 7.2 240 07:28 13.03.2020
1424 Rain 3 1017 86 10000 5.1 230 06:47 13.03.2020
1425 Clouds 3 1015 85 10000 7.7 250 06:28 13.03.2020
1426 Clouds 3 1017 85 10000 7.2 250 05:53 13.03.2020
1427 Clouds 3 1016 88 10000 5.7 230 05:20 13.03.2020
1428 Clouds 3 1017 88 10000 6.7 260 04:37 13.03.2020
1429 Clouds 3 1016 88 10000 6.2 250 03:37 13.03.2020
1430 Clouds 3 1016 85 10000 6.2 250 01:46 13.03.2020
1431 Clouds 4 1015 74 10000 4.6 230 01:19 13.03.2020
1432 Clouds 4 1016 84 10000 6.2 250 00:53 13.03.2020
1433 Clouds 5 1015 69 10000 5.1 230 00:24 13.03.2020
1434 Clouds 5 1016 84 10000 7.2 260 23:50 12.03.2020
1435 Clouds 5 1015 84 10000 6.7 240 23:27 12.03.2020
1436 Clouds 5 1014 86 10000 7.7 250 22:56 12.03.2020
1437 Clouds 6 1014 86 10000 7.7 250 22:38 12.03.2020
1438 Rain 6 1014 75 10000 6.7 230 22:20 12.03.2020
1439 Clouds 6 1014 75 10000 3.6 220 21:44 12.03.2020
1440 Rain 6 1013 80 10000 4.6 250 21:26 12.03.2020
1441 Rain 6 1013 80 10000 5.7 250 20:57 12.03.2020
1442 Rain 6 1015 86 10000 4.1 220 20:38 12.03.2020
1443 Clear 6 1014 80 10000 4.6 220 20:19 12.03.2020
1444 Rain 6 1014 81 10000 4.1 240 19:40 12.03.2020
1445 Clear 6 1014 75 10000 5.1 220 19:20 12.03.2020
1446 Clouds 7 1014 81 10000 6.7 250 18:44 12.03.2020
1447 Clear 7 1013 65 10000 5.7 230 18:24 12.03.2020
1448 Clouds 8 1013 65 10000 5.1 220 17:57 12.03.2020
1449 Clouds 8 1012 70 10000 6.2 250 17:38 12.03.2020
1450 Clouds 8 1013 61 10000 6.7 220 17:20 12.03.2020
1451 Rain 8 1014 87 10000 5.1 270 16:55 12.03.2020
1452 Rain 8 1014 87 10000 5.1 270 16:37 12.03.2020
1453 Clouds 9 1013 65 10000 6.2 220 16:18 12.03.2020
1454 Clouds 8 1013 70 10000 7.7 230 15:45 12.03.2020
1455 Clouds 8 1012 70 10000 7.2 270 15:26 12.03.2020
1456 Clouds 9 1014 70 10000 6.7 260 14:41 12.03.2020
1457 Clouds 9 1013 65 10000 8.2 270 14:23 12.03.2020
1458 Clouds 9 1013 61 10000 9.8 270 13:57 12.03.2020
1459 Clouds 9 1014 57 10000 6.7 230 13:36 12.03.2020
1460 Clouds 9 1014 57 10000 7.2 250 13:18 12.03.2020
1461 Clouds 8 1014 73 10000 8.2 230 12:41 12.03.2020
1462 Clouds 9 1014 57 10000 7.2 240 12:22 12.03.2020
1463 Clouds 9 1014 70 10000 6.7 260 11:57 12.03.2020
1464 Clouds 9 1014 75 10000 5.7 270 11:38 12.03.2020
1465 Clouds 9 1014 75 10000 6.7 250 11:20 12.03.2020
1466 Clouds 9 1012 87 10000 9.3 270 10:59 12.03.2020
1467 Clouds 9 1013 81 10000 8.7 260 10:40 12.03.2020
1468 Rain 9 1012 87 10000 10.3 270 10:22 12.03.2020
1469 Rain 9 1013 93 10000 6.7 230 09:47 12.03.2020
1470 Rain 9 1011 87 10000 10.8 270 09:28 12.03.2020
1471 Rain 9 1012 87 10000 9.3 260 08:46 12.03.2020
1472 Rain 9 1011 100 6000 8.2 260 08:21 12.03.2020
1473 Rain 9 1012 87 2000 9.3 250 07:59 12.03.2020
1474 Drizzle 9 1011 87 10000 7.2 220 07:41 12.03.2020
1475 Rain 9 1010 100 10000 8.2 210 07:21 12.03.2020
1476 Rain 9 1010 100 10000 8.2 210 07:21 12.03.2020
1477 Rain 10 1011 81 10000 8.7 220 05:57 12.03.2020
1478 Clouds 10 1011 81 10000 8.7 220 05:27 12.03.2020
1479 Rain 11 1013 76 10000 8.2 240 02:47 12.03.2020
1480 Rain 11 1013 87 10000 8.2 240 01:39 12.03.2020
1481 Clouds 11 1012 81 10000 8.2 220 01:20 12.03.2020
1482 Rain 11 1013 81 10000 7.2 220 00:41 12.03.2020
1483 Clouds 11 1013 81 10000 8.7 220 23:56 11.03.2020
1484 Clear 11 1013 81 10000 8.7 210 23:27 11.03.2020
1485 Clouds 12 1014 81 10000 6.2 220 22:58 11.03.2020
1486 Clouds 12 1014 81 10000 6.2 220 22:39 11.03.2020
1487 Clouds 12 1014 87 10000 8.2 220 22:21 11.03.2020
1488 Clouds 12 1014 81 10000 7.7 240 21:56 11.03.2020
1489 Clouds 12 1015 81 10000 6.7 220 21:37 11.03.2020
1490 Clouds 12 1014 87 10000 9.8 220 21:19 11.03.2020
1491 Clouds 12 1014 87 10000 6.7 230 20:55 11.03.2020
1492 Clouds 12 1015 81 10000 6.7 220 20:36 11.03.2020
1493 Clouds 12 1015 93 10000 6.2 220 20:18 11.03.2020
1494 Clouds 12 1016 81 10000 5.7 220 19:42 11.03.2020
1495 Rain 12 1015 87 10000 5.7 240 19:24 11.03.2020
1496 Drizzle 12 1015 87 8000 6.2 240 18:57 11.03.2020
1497 Rain 12 1015 100 5000 5.1 220 18:37 11.03.2020
1498 Rain 12 1015 100 10000 4.6 220 18:18 11.03.2020
1499 Clouds 12 1015 100 10000 5.1 220 17:55 11.03.2020
1500 Clouds 12 1016 82 10000 6.2 220 17:37 11.03.2020
1501 Rain 12 1015 93 10000 5.7 230 17:18 11.03.2020
1502 Rain 13 1015 87 10000 7.2 220 16:43 11.03.2020
1503 Rain 13 1015 87 10000 6.2 230 16:19 11.03.2020
1504 Rain 13 1015 87 10000 7.7 240 15:43 11.03.2020
1505 Rain 13 1015 87 10000 8.2 230 15:23 11.03.2020
1506 Clouds 13 1015 87 10000 7.7 260 14:54 11.03.2020
1507 Clouds 13 1016 82 10000 6.7 230 14:36 11.03.2020
1508 Clouds 13 1016 82 10000 6.7 230 14:36 11.03.2020
1509 Clouds 12 1015 81 10000 7.2 230 14:18 11.03.2020
1510 Drizzle 12 1016 87 10000 6.7 230 13:41 11.03.2020
1511 Clouds 12 1015 93 10000 8.7 260 13:22 11.03.2020
1512 Drizzle 12 1015 93 9000 8.2 260 12:56 11.03.2020
1513 Clouds 12 1016 87 10000 6.7 230 12:38 11.03.2020
1514 Clouds 12 1015 87 10000 8.7 220 12:19 11.03.2020
1515 Clouds 11 1016 93 8000 8.2 240 11:41 11.03.2020
1516 Clouds 11 1015 87 10000 7.2 220 11:21 11.03.2020
1517 Clouds 11 1016 93 10000 7.2 240 10:49 11.03.2020
1518 Clouds 11 1014 93 10000 6.2 230 10:21 11.03.2020
1519 Drizzle 11 1016 87 4000 9.3 250 10:00 11.03.2020
1520 Rain 11 1014 93 10000 7.7 220 09:41 11.03.2020
1521 Rain 11 1014 93 10000 7.7 230 09:22 11.03.2020
1522 Rain 11 1014 93 10000 7.7 230 09:22 11.03.2020
1523 Clouds 11 1015 87 10000 7.7 240 08:44 11.03.2020
1524 Clouds 11 1015 87 10000 7.7 240 08:44 11.03.2020
1525 Clouds 11 1013 87 10000 10.8 260 08:26 11.03.2020
1526 Drizzle 11 1013 87 10000 9.3 220 07:48 11.03.2020
1527 Clouds 11 1013 87 10000 8.2 230 07:22 11.03.2020
1528 Clouds 11 1013 87 10000 8.7 220 06:53 11.03.2020
1529 Clouds 11 1013 87 10000 8.7 220 06:35 11.03.2020
1530 Clouds 11 1012 93 10000 9.8 220 05:33 11.03.2020
1531 Rain 11 1012 100 10000 7.2 220 03:39 11.03.2020
1532 Rain 11 1011 93 6000 10.3 260 01:57 11.03.2020
1533 Rain 11 1011 93 6000 9.3 260 01:25 11.03.2020
1534 Rain 11 1011 100 10000 7.2 230 00:45 11.03.2020
1535 Rain 11 1011 100 10000 6.2 230 23:56 10.03.2020
1536 Rain 11 1011 100 10000 6.2 230 23:55 10.03.2020
1537 Rain 11 1011 100 10000 6.2 230 23:55 10.03.2020
1538 Rain 11 1011 100 10000 6.2 230 23:55 10.03.2020
1539 Drizzle 11 1013 100 4000 7.7 240 23:37 10.03.2020
1540 Clouds 11 1011 100 10000 7.2 240 23:18 10.03.2020
1541 Rain 11 1011 100 10000 7.2 230 22:38 10.03.2020
1542 Clouds 11 1011 100 10000 7.7 230 22:19 10.03.2020
1543 Drizzle 11 1010 100 4000 10.8 260 21:56 10.03.2020
1544 Drizzle 11 1012 100 5000 8.7 250 21:38 10.03.2020
1545 Rain 11 1010 100 10000 7.7 230 21:19 10.03.2020
1546 Drizzle 11 1009 100 4000 10.3 260 20:57 10.03.2020
1547 Drizzle 11 1011 93 4500 8.7 240 20:38 10.03.2020
1548 Rain 11 1010 100 10000 7.2 220 20:18 10.03.2020
1549 Drizzle 11 1009 100 4000 10.3 250 19:56 10.03.2020
1550 Drizzle 11 1011 93 3000 7.7 240 19:37 10.03.2020
1551 Rain 11 1009 100 10000 7.2 220 19:18 10.03.2020
1552 Rain 11 1009 100 6000 6.7 220 18:44 10.03.2020
1553 Rain 11 1009 100 6000 6.7 220 18:25 10.03.2020
1554 Rain 11 1009 100 6000 6.7 220 17:57 10.03.2020
1555 Drizzle 11 1010 100 4000 7.2 230 17:38 10.03.2020
1556 Rain 10 1009 100 9000 7.7 230 17:20 10.03.2020
1557 Drizzle 10 1009 100 10000 7.7 220 16:39 10.03.2020
1558 Drizzle 10 1009 100 10000 7.7 220 16:19 10.03.2020
1559 Mist 10 1008 93 4000 8.2 250 15:56 10.03.2020
1560 Drizzle 10 1010 100 6000 8.2 240 15:37 10.03.2020
1561 Drizzle 10 1010 100 6000 8.2 240 15:37 10.03.2020
1562 Rain 10 1008 100 10000 6.7 220 15:19 10.03.2020
1563 Rain 10 1008 100 9000 6.2 220 14:41 10.03.2020
1564 Rain 10 1009 100 9000 7.7 210 14:20 10.03.2020
1565 Drizzle 9 1010 100 5000 6.2 230 13:58 10.03.2020
1566 Drizzle 9 1008 93 3500 7.2 240 13:38 10.03.2020
1567 Rain 9 1009 100 9000 5.7 220 13:20 10.03.2020
1568 Drizzle 8 1008 93 5000 7.2 230 12:42 10.03.2020
1569 Rain 8 1009 100 10000 6.2 220 12:19 10.03.2020
1570 Rain 8 1009 93 8000 10.3 250 11:58 10.03.2020
1571 Rain 8 1010 93 3000 6.7 220 11:40 10.03.2020
1572 Rain 8 1010 93 3000 6.7 220 11:40 10.03.2020
1573 Rain 8 1009 100 10000 6.7 210 11:22 10.03.2020
1574 Rain 7 1010 93 7000 6.2 220 10:43 10.03.2020
1575 Rain 7 1008 93 5000 9.8 250 10:23 10.03.2020
1576 Rain 6 1010 100 8000 6.7 220 09:58 10.03.2020
1577 Drizzle 6 1010 100 5000 6.2 220 09:40 10.03.2020
1578 Rain 6 1009 100 10000 5.1 210 09:19 10.03.2020
1579 Rain 6 1009 100 10000 5.1 210 09:19 10.03.2020
1580 Rain 6 1012 93 10000 7.2 220 08:51 10.03.2020
1581 Rain 5 1010 100 10000 6.7 220 08:32 10.03.2020
1582 Rain 5 1009 100 10000 7.2 220 07:51 10.03.2020
1583 Rain 5 1010 93 5000 7.2 210 07:32 10.03.2020
1584 Rain 5 1011 100 9000 6.7 220 06:48 10.03.2020
1585 Rain 5 1008 93 9000 9.8 220 06:30 10.03.2020
1586 Rain 4 1011 93 10000 7.2 210 05:42 10.03.2020
1587 Rain 4 1012 93 9000 7.7 220 04:49 10.03.2020
1588 Rain 4 1012 93 10000 10.8 210 04:20 10.03.2020
1589 Rain 5 1013 86 10000 7.2 190 02:41 10.03.2020
1590 Clouds 5 1015 86 10000 6.2 220 01:30 10.03.2020
1591 Clouds 4 1016 93 10000 4.1 210 00:47 10.03.2020
1592 Clouds 4 1015 93 10000 5.7 210 00:27 10.03.2020
1593 Clouds 4 1016 93 10000 4.1 200 23:41 09.03.2020
1594 Clear 4 1016 86 10000 4.1 200 23:22 09.03.2020
1595 Clouds 4 1017 93 10000 3.6 200 22:56 09.03.2020
1596 Clouds 4 1017 93 10000 3.6 200 22:37 09.03.2020
1597 Clouds 4 1017 86 10000 3.6 210 22:18 09.03.2020
1598 Clouds 4 1017 86 10000 3.1 200 21:42 09.03.2020
1599 Clouds 4 1017 86 10000 2.1 200 21:22 09.03.2020
1600 Clouds 4 1016 86 10000 3.6 240 20:58 09.03.2020
1601 Clouds 4 1017 86 10000 2.6 200 20:40 09.03.2020
1602 Clouds 4 1017 80 10000 3.1 220 20:20 09.03.2020
1603 Clouds 4 1017 81 10000 4.1 250 19:45 09.03.2020
1604 Clouds 5 1016 80 10000 3.1 230 19:26 09.03.2020
1605 Clouds 5 1016 70 10000 2.6 250 18:59 09.03.2020
1606 Clouds 5 1016 70 10000 2.6 250 18:40 09.03.2020
1607 Clouds 6 1016 70 10000 3.1 240 18:20 09.03.2020
1608 Rain 7 1015 70 10000 4.1 280 17:58 09.03.2020
1609 Rain 7 1016 70 10000 5.7 240 17:39 09.03.2020
1610 Rain 7 1015 75 10000 4.6 240 17:20 09.03.2020
1611 Rain 8 1015 65 10000 6.2 260 16:59 09.03.2020
1612 Clouds 7 1015 87 10000 3.6 260 16:41 09.03.2020
1613 Clouds 7 1014 70 9000 3.1 280 16:22 09.03.2020
1614 Rain 8 1016 86 10000 7.2 270 15:58 09.03.2020
1615 Rain 7 1016 86 10000 7.2 270 15:39 09.03.2020
1616 Clouds 8 1015 61 10000 5.1 240 15:21 09.03.2020
1617 Clouds 8 1015 75 10000 7.2 250 14:58 09.03.2020
1618 Clouds 8 1015 74 10000 6.7 270 14:38 09.03.2020
1619 Clouds 8 1014 75 10000 4.6 250 14:19 09.03.2020
1620 Clouds 8 1014 65 10000 5.1 240 13:58 09.03.2020
1621 Clouds 8 1015 61 10000 6.2 260 13:39 09.03.2020
1622 Clouds 7 1014 61 10000 4.6 250 13:20 09.03.2020
1623 Clouds 7 1014 75 10000 4.6 250 12:44 09.03.2020
1624 Rain 7 1014 75 10000 4.1 240 12:24 09.03.2020
1625 Clouds 7 1014 81 10000 4.6 220 11:58 09.03.2020
1626 Rain 6 1014 81 10000 6.2 270 11:40 09.03.2020
1627 Rain 6 1014 81 10000 6.2 270 11:20 09.03.2020
1628 Clouds 6 1014 75 10000 5.7 230 10:55 09.03.2020
1629 Clouds 6 1013 81 10000 5.1 230 10:37 09.03.2020
1630 Clouds 6 1013 81 10000 5.1 230 10:18 09.03.2020
1631 Clouds 6 1013 86 10000 5.7 230 09:42 09.03.2020
1632 Clouds 5 1013 93 10000 5.1 220 09:24 09.03.2020
1633 Rain 5 1012 93 10000 4.1 210 08:46 09.03.2020
1634 Clouds 5 1012 93 10000 3.1 220 08:28 09.03.2020
1635 Clouds 5 1012 93 10000 4.1 210 07:57 09.03.2020
1636 Clouds 5 1011 93 10000 3.6 220 07:37 09.03.2020
1637 Clouds 5 1011 93 10000 3.6 220 07:18 09.03.2020
1638 Clouds 5 1011 100 10000 4.1 220 06:39 09.03.2020
1639 Clouds 5 1011 100 10000 3.1 230 06:21 09.03.2020
1640 Clouds 5 1011 93 10000 5.1 250 05:42 09.03.2020
1641 Clouds 5 1010 100 10000 2.6 240 04:59 09.03.2020
1642 Rain 5 1011 93 10000 4.6 260 04:39 09.03.2020
1643 Clouds 5 1010 100 10000 2.1 240 04:20 09.03.2020
1644 Clouds 5 1010 100 10000 3.6 220 02:53 09.03.2020
1645 Rain 6 1010 100 10000 3.6 220 00:44 09.03.2020
1646 Clouds 6 1010 93 10000 3.1 220 00:25 09.03.2020
1647 Rain 6 1010 93 10000 2.6 240 23:59 08.03.2020
1648 Rain 6 1010 93 10000 3.6 240 23:39 08.03.2020
1649 Rain 6 1010 100 10000 3.1 230 23:20 08.03.2020
1650 Rain 6 1010 100 10000 5.7 240 22:42 08.03.2020
1651 Rain 7 1010 100 10000 6.2 190 22:22 08.03.2020
1652 Rain 7 1010 100 10000 7.2 190 21:59 08.03.2020
1653 Rain 7 1010 100 10000 7.2 190 21:41 08.03.2020
1654 Clouds 7 1011 100 10000 7.2 190 21:23 08.03.2020
1655 Rain 7 1011 93 3000 4.6 210 20:58 08.03.2020
1656 Rain 7 1010 93 1800 8.2 210 20:38 08.03.2020
1657 Rain 7 1011 100 10000 6.2 190 20:20 08.03.2020
1658 Rain 7 1011 100 10000 6.7 190 19:40 08.03.2020
1659 Rain 7 1012 93 3500 4.6 200 19:20 08.03.2020
1660 Rain 7 1012 93 3500 4.6 200 18:58 08.03.2020
1661 Rain 7 1012 93 8000 4.6 190 18:39 08.03.2020
1662 Rain 8 1012 93 10000 5.7 190 18:20 08.03.2020
1663 Rain 8 1011 81 10000 5.7 230 17:41 08.03.2020
1664 Rain 8 1012 81 10000 6.2 210 17:22 08.03.2020
1665 Rain 8 1012 81 10000 6.2 210 16:59 08.03.2020
1666 Clouds 8 1012 76 10000 5.7 220 16:41 08.03.2020
1667 Rain 9 1012 70 10000 7.2 210 16:22 08.03.2020
1668 Clouds 9 1013 76 10000 5.7 220 15:55 08.03.2020
1669 Rain 9 1013 70 10000 5.1 210 15:37 08.03.2020
1670 Rain 9 1013 70 10000 5.1 210 15:18 08.03.2020
1671 Clouds 9 1014 66 10000 6.2 210 14:40 08.03.2020
1672 Clouds 9 1014 66 10000 6.2 210 14:21 08.03.2020
1673 Clouds 9 1014 66 10000 6.7 220 13:56 08.03.2020
1674 Clouds 10 1014 66 10000 6.7 220 13:37 08.03.2020
1675 Clouds 9 1015 70 10000 8.2 190 13:18 08.03.2020
1676 Clouds 9 1016 75 10000 6.2 210 12:38 08.03.2020
1677 Clouds 9 1015 75 10000 8.2 200 12:19 08.03.2020
1678 Clouds 9 1016 75 10000 6.7 200 11:44 08.03.2020
1679 Clouds 8 1016 75 10000 6.7 200 11:25 08.03.2020
1680 Clouds 7 1017 81 10000 5.7 200 10:59 08.03.2020
1681 Clouds 7 1017 81 10000 5.7 200 10:59 08.03.2020
1682 Clouds 7 1017 81 10000 5.7 200 10:41 08.03.2020
1683 Clouds 7 1017 81 10000 5.7 200 10:22 08.03.2020
1684 Clouds 6 1018 81 10000 5.7 210 09:40 08.03.2020
1685 Clouds 6 1018 81 10000 5.7 210 09:22 08.03.2020
1686 Clouds 6 1017 86 10000 6.7 220 08:50 08.03.2020
1687 Clouds 6 1017 80 10000 4.6 210 08:27 08.03.2020
1688 Clouds 5 1016 86 10000 6.2 210 07:56 08.03.2020
1689 Clouds 5 1017 80 10000 4.6 190 07:37 08.03.2020
1690 Clouds 5 1017 75 10000 5.1 190 07:18 08.03.2020
1691 Clouds 5 1017 80 10000 4.6 190 06:40 08.03.2020
1692 Clouds 5 1017 75 10000 4.1 200 06:22 08.03.2020
1693 Clouds 5 1019 80 10000 4.1 200 05:19 08.03.2020
1694 Clouds 4 1018 80 10000 5.1 230 03:51 08.03.2020
1695 Clouds 5 1018 80 10000 5.7 240 02:28 08.03.2020
1696 Clouds 5 1019 80 10000 4.1 230 01:23 08.03.2020
1697 Clouds 5 1019 80 10000 4.1 230 01:23 08.03.2020
1698 Clouds 5 1019 80 10000 4.1 230 01:23 08.03.2020
1699 Clouds 5 1019 80 10000 4.1 230 01:23 08.03.2020
1700 Clouds 5 1020 80 10000 4.1 210 00:44 08.03.2020
1701 Clouds 5 1020 80 10000 4.1 210 00:25 08.03.2020
1702 Clouds 5 1020 75 10000 4.6 210 23:44 07.03.2020
1703 Clouds 5 1021 75 10000 3.6 210 23:23 07.03.2020
1704 Clouds 5 1020 69 10000 4.6 240 22:41 07.03.2020
1705 Clouds 5 1021 85 10000 3.1 210 22:22 07.03.2020
1706 Clouds 5 1021 80 10000 3.6 210 21:49 07.03.2020
1707 Clouds 5 1021 85 10000 3.6 210 21:26 07.03.2020
1708 Clouds 5 1021 75 10000 3.1 200 20:57 07.03.2020
1709 Clouds 5 1020 69 10000 3.6 220 20:38 07.03.2020
1710 Clouds 5 1021 81 10000 3.6 220 20:19 07.03.2020
1711 Clouds 5 1021 80 10000 3.1 220 19:41 07.03.2020
1712 Clouds 5 1020 65 10000 2.6 220 19:22 07.03.2020
1713 Clouds 6 1020 65 10000 3.6 210 18:46 07.03.2020
1714 Clouds 6 1020 80 10000 3.6 210 18:27 07.03.2020
1715 Clouds 7 1020 52 10000 5.7 260 17:59 07.03.2020
1716 Clouds 7 1020 52 10000 5.7 260 17:40 07.03.2020
1717 Clouds 7 1019 56 10000 3.6 220 17:19 07.03.2020
1718 Clouds 7 1020 52 10000 4.6 270 16:55 07.03.2020
1719 Clouds 8 1019 52 10000 2.6 240 16:36 07.03.2020
1720 Clouds 8 1019 52 10000 2.6 240 16:18 07.03.2020
1721 Clouds 7 1019 52 10000 3.6 250 15:41 07.03.2020
1722 Clouds 8 1019 49 10000 5.1 230 15:22 07.03.2020
1723 Clouds 7 1019 49 10000 6.2 260 14:59 07.03.2020
1724 Clouds 7 1019 49 10000 6.2 260 14:40 07.03.2020
1725 Clouds 7 1019 65 10000 4.6 240 14:22 07.03.2020
1726 Clouds 7 1019 63 10000 3.6 230 13:42 07.03.2020
1727 Clouds 7 1019 64 10000 4.6 230 13:21 07.03.2020
1728 Clouds 6 1019 75 10000 4.6 230 12:58 07.03.2020
1729 Clouds 6 1018 80 10000 4.1 280 12:37 07.03.2020
1730 Clouds 6 1019 70 10000 5.1 240 12:18 07.03.2020
1731 Clouds 5 1019 80 10000 3.6 240 11:42 07.03.2020
1732 Clouds 5 1018 80 10000 4.1 240 11:24 07.03.2020
1733 Clouds 5 1018 86 10000 4.1 230 10:57 07.03.2020
1734 Clouds 5 1017 93 9000 3.6 260 10:38 07.03.2020
1735 Clouds 4 1018 86 10000 3.1 210 10:18 07.03.2020
1736 Clouds 3 1018 93 10000 2.6 230 09:40 07.03.2020
1737 Clouds 3 1017 93 10000 2.6 230 09:20 07.03.2020
1738 Clouds 3 1016 100 10000 2.6 240 08:58 07.03.2020
1739 Clouds 2 1016 100 10000 2.6 240 08:40 07.03.2020
1740 Clouds 2 1016 100 10000 2.1 240 08:20 07.03.2020
1741 Clouds 2 1015 100 10000 2.1 230 07:47 07.03.2020
1742 Clouds 2 1015 93 9000 3.6 260 07:21 07.03.2020
1743 Clouds 2 1015 97 0 1.71 260 06:52 07.03.2020
1744 Clouds 2 1013 95 9000 1.5 290 06:28 07.03.2020
1745 Clouds 2 1013 95 9000 1.5 290 05:41 07.03.2020
1746 Drizzle 2 1012 100 10000 2.1 270 04:25 07.03.2020
1747 Clouds 2 1012 86 10000 3.6 290 02:46 07.03.2020
1748 Clouds 2 1011 93 10000 2.6 250 02:18 07.03.2020
1749 Rain 3 1010 100 10000 3.1 250 01:23 07.03.2020
1750 Clouds 3 1010 100 10000 4.1 280 00:37 07.03.2020
1751 Clouds 3 1010 100 10000 4.1 280 00:18 07.03.2020
1752 Clouds 3 1009 93 10000 3.1 270 23:41 06.03.2020
1753 Clouds 3 1009 100 10000 2.6 260 23:23 06.03.2020
1754 Rain 3 1008 100 10000 2.6 260 22:46 06.03.2020
1755 Clouds 3 1008 93 10000 3.6 260 22:21 06.03.2020
1756 Rain 3 1007 93 10000 2.1 290 21:50 06.03.2020
1757 Rain 3 1007 93 10000 2.6 280 21:21 06.03.2020
1758 Drizzle 4 1006 93 10000 2.1 280 20:56 06.03.2020
1759 Clouds 4 1006 86 10000 2.6 260 20:36 06.03.2020
1760 Clouds 4 1006 86 10000 2.6 260 20:18 06.03.2020
1761 Rain 4 1005 86 10000 4.1 260 19:43 06.03.2020
1762 Rain 4 1005 86 10000 4.1 260 19:24 06.03.2020
1763 Clouds 4 1003 86 10000 3.1 260 18:43 06.03.2020
1764 Clouds 5 1003 86 10000 3.1 260 18:21 06.03.2020
1765 Clouds 5 1002 86 10000 4.6 250 17:57 06.03.2020
1766 Rain 5 1002 86 10000 3.6 250 17:39 06.03.2020
1767 Rain 5 1002 86 10000 3.6 250 17:21 06.03.2020
1768 Rain 5 1000 86 10000 5.1 290 16:57 06.03.2020
1769 Rain 5 1000 86 10000 5.1 290 16:39 06.03.2020
1770 Clouds 5 1001 80 10000 4.6 280 16:19 06.03.2020
1771 Clouds 5 1000 80 10000 3.1 260 15:44 06.03.2020
1772 Drizzle 5 1000 93 10000 3.6 270 15:24 06.03.2020
1773 Drizzle 5 999 86 10000 4.1 270 14:45 06.03.2020
1774 Clouds 5 998 86 10000 5.7 270 14:24 06.03.2020
1775 Clouds 5 998 86 10000 5.7 260 13:59 06.03.2020
1776 Clouds 5 998 86 10000 5.7 260 13:40 06.03.2020
1777 Clouds 5 997 80 10000 4.1 270 13:21 06.03.2020
1778 Clouds 5 996 86 10000 4.6 260 12:55 06.03.2020
1779 Clouds 5 995 86 10000 7.7 300 12:36 06.03.2020
1780 Clouds 5 996 86 10000 6.2 270 12:18 06.03.2020
1781 Rain 5 996 86 10000 6.7 280 11:56 06.03.2020
1782 Rain 4 993 100 7000 7.7 280 11:37 06.03.2020
1783 Rain 4 995 93 10000 4.6 250 11:19 06.03.2020
1784 Rain 4 994 93 10000 5.7 240 10:38 06.03.2020
1785 Rain 4 994 93 10000 5.7 240 10:20 06.03.2020
1786 Rain 4 994 93 10000 6.7 270 09:54 06.03.2020
1787 Rain 3 992 93 10000 5.1 250 09:36 06.03.2020
1788 Rain 3 992 93 10000 5.1 250 09:18 06.03.2020
1789 Rain 3 991 93 10000 6.2 250 08:41 06.03.2020
1790 Rain 3 990 100 10000 5.7 240 08:23 06.03.2020
1791 Rain 3 991 93 10000 7.2 270 07:47 06.03.2020
1792 Rain 3 988 93 10000 6.7 250 07:26 06.03.2020
1793 Rain 4 988 93 10000 6.7 250 06:51 06.03.2020
1794 Drizzle 4 986 100 1600 5.1 250 06:33 06.03.2020
1795 Rain 4 988 100 2300 9.3 250 05:42 06.03.2020
1796 Rain 5 986 100 10000 4.6 230 05:21 06.03.2020
1797 Rain 5 986 100 8000 8.2 250 04:53 06.03.2020
1798 Rain 5 985 100 6000 5.7 200 01:56 06.03.2020
1799 Rain 5 985 93 10000 6.7 240 01:38 06.03.2020
1800 Clouds 6 985 100 10000 8.7 200 01:19 06.03.2020
1801 Rain 6 984 93 9000 5.1 210 00:32 06.03.2020
1802 Rain 6 985 100 10000 6.7 200 23:50 05.03.2020
1803 Rain 7 985 100 10000 5.7 180 23:29 05.03.2020
1804 Rain 7 985 100 10000 4.6 180 22:57 05.03.2020
1805 Rain 7 985 100 10000 5.7 170 22:38 05.03.2020
1806 Rain 7 985 100 10000 5.7 170 22:20 05.03.2020
1807 Rain 7 986 100 10000 3.6 180 21:56 05.03.2020
1808 Drizzle 7 986 100 9000 4.1 190 21:38 05.03.2020
1809 Drizzle 7 986 100 9000 4.1 190 21:20 05.03.2020
1810 Mist 7 986 100 6000 2.6 110 20:57 05.03.2020
1811 Rain 7 987 93 8000 4.6 190 20:38 05.03.2020
1812 Rain 7 986 100 3200 2.6 80 20:19 05.03.2020
1813 Rain 7 987 100 3200 2.1 140 19:56 05.03.2020
1814 Rain 7 987 100 8000 4.1 90 19:37 05.03.2020
1815 Rain 7 987 100 8000 4.1 90 19:18 05.03.2020
1816 Rain 6 987 100 8000 4.6 70 18:40 05.03.2020
1817 Rain 6 987 100 9000 4.1 100 18:20 05.03.2020
1818 Rain 6 987 100 9000 4.6 90 17:59 05.03.2020
1819 Rain 6 987 100 9000 4.6 90 17:40 05.03.2020
1820 Rain 6 988 100 9000 3.6 80 17:22 05.03.2020
1821 Rain 6 988 100 3000 1.5 150 16:55 05.03.2020
1822 Rain 6 988 100 8000 6.7 80 16:37 05.03.2020
1823 Rain 6 988 100 8000 6.7 80 16:19 05.03.2020
1824 Rain 6 988 100 9000 6.7 80 15:44 05.03.2020
1825 Rain 6 990 100 10000 7.7 80 15:22 05.03.2020
1826 Rain 6 989 100 4000 5.1 110 14:59 05.03.2020
1827 Rain 6 989 100 4000 5.1 110 14:40 05.03.2020
1828 Rain 6 991 100 5000 6.2 80 14:21 05.03.2020
1829 Rain 6 992 100 5000 5.7 70 13:56 05.03.2020
1830 Rain 7 993 100 5000 5.1 80 13:37 05.03.2020
1831 Rain 6 993 100 5000 5.1 80 13:19 05.03.2020
1832 Rain 6 993 100 3200 4.6 90 12:41 05.03.2020
1833 Rain 6 995 100 1600 3.6 80 12:20 05.03.2020
1834 Rain 6 995 100 800 3.6 90 11:57 05.03.2020
1835 Rain 6 995 100 800 3.6 90 11:57 05.03.2020
1836 Rain 6 995 93 900 3.6 130 11:37 05.03.2020
1837 Rain 6 996 100 400 2.1 70 11:19 05.03.2020
1838 Drizzle 6 997 100 400 1.5 70 10:57 05.03.2020
1839 Drizzle 6 997 100 400 1.5 70 10:57 05.03.2020
1840 Rain 6 996 93 4000 4.1 150 10:39 05.03.2020
1841 Rain 6 997 100 400 2.6 80 10:21 05.03.2020
1842 Rain 5 997 100 400 2.1 80 09:47 05.03.2020
1843 Fog 5 998 100 400 1.5 90 09:28 05.03.2020
1844 Fog 5 998 100 400 1.5 90 09:28 05.03.2020
1845 Rain 4 998 100 400 1.5 90 08:59 05.03.2020
1846 Rain 4 998 100 400 1.5 90 08:41 05.03.2020
1847 Rain 4 999 100 400 2.6 80 08:21 05.03.2020
1848 Fog 4 1000 100 400 2.1 80 07:41 05.03.2020
1849 Fog 4 1000 100 800 2.1 80 07:19 05.03.2020
1850 Rain 4 1000 100 3000 1.5 80 06:44 05.03.2020
1851 Rain 4 1000 100 1600 1.5 90 06:19 05.03.2020
1852 Rain 4 1002 100 3600 2.47 133 05:35 05.03.2020
1853 Rain 4 1002 100 3600 2.47 133 05:35 05.03.2020
1854 Mist 4 1003 100 9000 2.6 130 04:23 05.03.2020
1855 Clouds 4 1003 100 10000 3.88 156 03:58 05.03.2020
1856 Clouds 4 1004 100 10000 1.5 90 02:41 05.03.2020
1857 Clouds 4 1006 100 10000 1.5 70 01:28 05.03.2020
1858 Rain 4 1006 86 10000 3.1 160 00:50 05.03.2020
1859 Clouds 4 1007 93 10000 1.5 70 23:58 04.03.2020
1860 Clouds 4 1007 93 10000 1.5 70 23:40 04.03.2020
1861 Drizzle 4 1008 93 10000 3.44 159 23:21 04.03.2020
1862 Rain 4 1008 86 10000 2.6 120 22:56 04.03.2020
1863 Drizzle 4 1009 93 10000 3.1 170 22:37 04.03.2020
1864 Rain 4 1009 86 10000 2.6 140 22:19 04.03.2020
1865 Rain 4 1009 75 10000 2.1 180 21:55 04.03.2020
1866 Clouds 4 1009 93 10000 3.1 140 21:37 04.03.2020
1867 Clouds 4 1009 75 10000 1.5 150 21:18 04.03.2020
1868 Clouds 4 1009 80 10000 1.5 120 20:40 04.03.2020
1869 Clouds 4 1009 80 10000 1.5 120 20:40 04.03.2020
1870 Clouds 4 1009 88 10000 2.1 200 20:22 04.03.2020
1871 Clouds 4 1009 83 10000 2.1 190 19:58 04.03.2020
1872 Clouds 4 1009 83 10000 2.1 190 19:39 04.03.2020
1873 Clouds 4 1009 83 10000 2.1 190 19:21 04.03.2020
1874 Clouds 5 1009 83 10000 3.6 220 18:42 04.03.2020
1875 Clouds 5 1010 80 10000 2.22 195 18:24 04.03.2020
1876 Clouds 6 1010 80 10000 2.22 195 17:59 04.03.2020
1877 Clouds 6 1010 83 10000 4.1 220 17:39 04.03.2020
1878 Clouds 6 1010 75 10000 3.86 227 17:20 04.03.2020
1879 Clouds 7 1010 80 10000 2.6 190 16:56 04.03.2020
1880 Clouds 7 1010 67 10000 4.6 240 16:37 04.03.2020
1881 Clouds 7 1011 75 10000 3.6 190 16:19 04.03.2020
1882 Drizzle 7 1011 75 10000 3.6 210 15:45 04.03.2020
1883 Clouds 7 1011 80 10000 2.6 210 15:26 04.03.2020
1884 Clouds 7 1011 80 10000 2.6 210 15:26 04.03.2020
1885 Clouds 7 1012 86 10000 3.6 180 14:59 04.03.2020
1886 Clouds 7 1012 86 10000 3.6 180 14:59 04.03.2020
1887 Clouds 6 1012 86 10000 3.6 180 14:40 04.03.2020
1888 Clouds 6 1012 93 10000 5.1 200 14:20 04.03.2020
1889 Clouds 6 1012 86 10000 5.1 190 13:58 04.03.2020
1890 Clouds 5 1012 86 10000 5.1 190 13:39 04.03.2020
1891 -273 0 0 0 0 0 13:21 04.03.2020
1892 Clouds 4 1013 93 6000 4.1 200 12:56 04.03.2020
1893 Clouds 4 1013 93 6000 4.1 200 12:56 04.03.2020
1894 Clouds 4 1012 88 10000 3.6 260 12:37 04.03.2020
1895 Clouds 4 1013 86 10000 4.1 210 12:19 04.03.2020
1896 Clouds 4 1012 86 10000 5.1 190 11:42 04.03.2020
1897 Clouds 4 1012 86 10000 5.1 190 11:42 04.03.2020
1898 Clouds 4 1012 86 10000 5.1 200 11:24 04.03.2020
1899 Clouds 4 1013 93 10000 3.6 220 10:59 04.03.2020
1900 Clouds 4 1013 93 10000 3.6 220 10:41 04.03.2020
1901 Clouds 4 1012 86 10000 4.1 220 10:22 04.03.2020
1902 Clouds 3 1012 93 10000 4.6 210 09:44 04.03.2020
1903 Clouds 3 1012 93 10000 4.6 220 09:22 04.03.2020
1904 Clouds 3 1012 100 10000 4.1 220 08:59 04.03.2020
1905 Clouds 3 1012 100 10000 4.1 220 08:40 04.03.2020
1906 Clouds 2 1012 100 10000 2.6 230 08:22 04.03.2020
1907 Clouds 2 1011 93 10000 3.6 220 07:44 04.03.2020
1908 Clouds 2 1011 93 10000 4.1 220 07:25 04.03.2020
1909 Clouds 2 1011 100 10000 5.1 220 06:49 04.03.2020
1910 Clouds 2 1011 100 10000 4.1 230 06:26 04.03.2020
1911 Clouds 2 1011 93 10000 5.1 250 05:55 04.03.2020
1912 Rain 2 1010 93 10000 3.6 220 04:59 04.03.2020
1913 Clouds 2 1010 100 10000 4.1 230 03:52 04.03.2020
1914 Clouds 1 1009 98 5000 3.6 230 03:33 04.03.2020
1915 Clouds 1 1010 100 10000 2.6 220 02:58 04.03.2020
1916 Rain 1 1009 98 10000 3.6 230 02:27 04.03.2020
1917 Clear 1 1010 100 10000 4.1 250 01:56 04.03.2020
1918 Clouds 1 1009 95 10000 2.6 220 01:33 04.03.2020
1919 Clouds 1 1009 93 10000 3.1 240 00:41 04.03.2020
1920 Clouds 1 1009 95 10000 2.6 220 00:22 04.03.2020
1921 Clouds 1 1009 95 10000 2.1 230 23:43 03.03.2020
1922 Clouds 1 1009 95 10000 2.6 220 23:23 03.03.2020
1923 Clouds 1 1009 93 10000 4.1 260 22:56 03.03.2020
1924 Clouds 1 1008 86 10000 3.6 240 22:37 03.03.2020
1925 Clouds 1 1008 90 10000 2.1 230 22:19 03.03.2020
1926 Clouds 1 1008 90 10000 3.1 230 21:43 03.03.2020
1927 Clouds 1 1007 90 10000 2.6 230 21:22 03.03.2020
1928 Clouds 1 1007 90 10000 2.1 240 20:59 03.03.2020
1929 Clouds 1 1007 90 10000 2.1 240 20:40 03.03.2020
1930 Drizzle 1 1007 88 10000 2.6 240 20:19 03.03.2020
1931 Clouds 2 1007 85 10000 2.1 250 19:56 03.03.2020
1932 Clouds 2 1006 90 10000 1.5 230 19:37 03.03.2020
1933 Clouds 2 1006 90 10000 1.5 230 19:37 03.03.2020
1934 Clouds 2 1006 85 10000 1.5 230 19:19 03.03.2020
1935 Clouds 2 1006 90 10000 2.1 230 18:57 03.03.2020
1936 Clouds 2 1006 85 10000 2.1 230 18:39 03.03.2020
1937 Clouds 3 1005 86 10000 3.6 230 18:19 03.03.2020
1938 Rain 3 1005 90 10000 4.1 220 17:55 03.03.2020
1939 Rain 4 1004 93 10000 4.6 250 17:37 03.03.2020
1940 Clouds 4 1004 82 10000 4.6 230 17:19 03.03.2020
1941 Clouds 4 1004 86 10000 5.1 230 16:55 03.03.2020
1942 Clouds 4 1003 74 10000 3.1 250 16:36 03.03.2020
1943 Clouds 4 1004 78 10000 4.6 240 16:18 03.03.2020
1944 Clouds 4 1004 78 10000 4.6 240 16:18 03.03.2020
1945 Clouds 4 1004 80 10000 4.6 230 15:43 03.03.2020
1946 Clouds 4 1003 80 10000 4.6 260 15:21 03.03.2020
1947 Clouds 4 1003 86 10000 5.1 220 14:56 03.03.2020
1948 Clouds 5 1003 70 10000 5.7 210 14:37 03.03.2020
1949 Clouds 4 1003 70 10000 5.7 210 14:19 03.03.2020
1950 Clouds 4 1003 86 10000 2.6 240 13:55 03.03.2020
1951 Rain 4 1002 83 10000 5.7 260 13:37 03.03.2020
1952 Rain 4 1003 80 10000 5.1 210 13:18 03.03.2020
1953 Clouds 4 1003 86 10000 4.6 220 12:42 03.03.2020
1954 Clouds 4 1003 86 10000 5.7 220 12:23 03.03.2020
1955 Clouds 4 1003 86 10000 5.7 220 12:23 03.03.2020
1956 Rain 3 1003 86 10000 5.1 220 11:55 03.03.2020
1957 Clouds 3 1002 83 10000 4.1 240 11:37 03.03.2020
1958 Clouds 3 1003 86 10000 4.6 220 11:18 03.03.2020
1959 Clouds 3 1002 90 10000 4.6 240 10:55 03.03.2020
1960 Clouds 2 1002 90 10000 4.6 240 10:37 03.03.2020
1961 Clouds 2 1003 90 10000 4.1 220 10:18 03.03.2020
1962 Clouds 2 1003 90 10000 4.1 220 10:18 03.03.2020
1963 Clouds 2 1003 90 10000 3.6 200 09:43 03.03.2020
1964 Clouds 2 1003 90 10000 4.1 230 09:21 03.03.2020
1965 Clouds 2 1003 90 10000 3.6 210 08:43 03.03.2020
1966 Clouds 2 1002 100 10000 2.6 220 08:24 03.03.2020
1967 Clouds 2 1002 100 10000 2.6 220 07:58 03.03.2020
1968 Clouds 2 1002 100 10000 2.6 220 07:39 03.03.2020
1969 Clouds 2 1002 93 10000 3.1 220 07:19 03.03.2020
1970 Clouds 2 1001 93 10000 3.6 230 06:41 03.03.2020
1971 Clouds 2 1001 93 10000 3.6 220 06:22 03.03.2020
1972 Clouds 2 1001 93 10000 3.6 220 06:22 03.03.2020
1973 Clouds 2 1001 93 10000 2.6 220 05:46 03.03.2020
1974 Clouds 2 1000 93 10000 3.1 230 04:57 03.03.2020
1975 Clouds 2 1000 93 10000 5.1 270 03:52 03.03.2020
1976 Clouds 3 997 86 10000 5.7 260 01:40 03.03.2020
1977 Rain 3 996 86 10000 7.2 300 00:48 03.03.2020
1978 Rain 4 995 93 10000 4.6 260 00:26 03.03.2020
1979 Rain 4 995 93 8000 6.7 290 23:57 02.03.2020
1980 Rain 4 993 100 6000 4.6 290 23:38 02.03.2020
1981 Rain 4 994 100 10000 3.6 240 23:19 02.03.2020
1982 Rain 4 994 93 10000 4.6 290 22:54 02.03.2020
1983 Rain 4 993 100 10000 2.1 240 22:36 02.03.2020
1984 Rain 4 993 100 10000 2.1 240 22:18 02.03.2020
1985 Rain 4 992 100 10000 3.1 260 21:41 02.03.2020
1986 Rain 4 992 93 10000 3.1 260 21:23 02.03.2020
1987 Rain 4 991 100 10000 1.5 230 20:58 02.03.2020
1988 Rain 4 991 100 10000 1.5 230 20:39 02.03.2020
1989 Rain 4 991 93 10000 1.5 230 20:20 02.03.2020
1990 Rain 4 991 93 6000 3.1 260 19:56 02.03.2020
1991 Rain 5 991 100 10000 1.5 210 19:38 02.03.2020
1992 Rain 5 991 100 10000 1.5 210 19:20 02.03.2020
1993 Rain 5 990 100 10000 2.1 200 18:45 02.03.2020
1994 Rain 5 990 100 10000 4.47 187 18:20 02.03.2020
1995 Rain 5 989 100 10000 1.5 90 17:59 02.03.2020
1996 Rain 5 989 100 10000 1.5 90 17:59 02.03.2020
1997 Rain 5 989 93 10000 4.47 187 17:41 02.03.2020
1998 Rain 5 989 93 10000 4.47 187 17:21 02.03.2020
1999 Rain 5 989 93 10000 4.47 187 17:21 02.03.2020
2000 Rain 5 989 93 10000 4.47 187 17:21 02.03.2020
2001 Rain 5 989 93 10000 4.47 187 17:21 02.03.2020
2002 Rain 6 988 87 10000 1.59 159 16:55 02.03.2020
2003 Rain 6 988 86 10000 3.1 150 16:37 02.03.2020
2004 Rain 6 988 87 10000 1.59 159 16:19 02.03.2020
2005 Rain 6 988 93 6000 3.1 160 15:43 02.03.2020
2006 Rain 6 988 87 10000 1.5 140 15:20 02.03.2020
2007 Rain 6 988 87 10000 1.5 140 15:20 02.03.2020
2008 Rain 6 988 93 8000 3.1 160 14:56 02.03.2020
2009 Clouds 6 988 75 10000 2.6 130 14:36 02.03.2020
2010 Drizzle 7 988 70 10000 4.32 113 14:18 02.03.2020
2011 Clouds 7 988 70 10000 4.32 113 13:40 02.03.2020
2012 Drizzle 7 988 70 10000 2.6 130 13:19 02.03.2020
2013 Drizzle 7 988 70 10000 2.6 130 13:19 02.03.2020
2014 Clouds 7 988 70 10000 4.77 113 12:55 02.03.2020
2015 Clouds 7 989 75 10000 4.6 140 12:36 02.03.2020
2016 Clouds 7 989 65 10000 1.5 150 12:18 02.03.2020
2017 Clouds 7 989 75 10000 4.6 140 11:38 02.03.2020
2018 Clouds 6 990 75 10000 3.1 140 11:19 02.03.2020
2019 Clouds 5 990 87 10000 4.1 140 10:55 02.03.2020
2020 Clouds 5 990 93 10000 6.7 140 10:36 02.03.2020
2021 Clouds 5 991 93 10000 2.1 80 10:18 02.03.2020
2022 Clouds 4 991 86 10000 4.1 140 09:45 02.03.2020
2023 Clouds 4 991 100 10000 3.1 80 09:26 02.03.2020
2024 Clouds 3 991 93 10000 4.6 150 08:48 02.03.2020
2025 Clouds 3 992 93 10000 2.1 90 08:22 02.03.2020
2026 Clouds 3 991 93 10000 3.6 140 07:47 02.03.2020
2027 Clouds 3 992 93 10000 2.1 120 07:28 02.03.2020
2028 Clouds 3 993 93 10000 1.5 110 06:50 02.03.2020
2029 Clouds 3 993 93 10000 2.1 130 06:20 02.03.2020
2030 Clouds 3 993 93 10000 4.6 180 05:23 02.03.2020
2031 Clouds 3 995 93 10000 4.6 200 03:27 02.03.2020
2032 Clouds 3 996 93 10000 5.1 200 02:55 02.03.2020
2033 Clouds 3 996 93 10000 4.6 210 02:30 02.03.2020
2034 Clouds 3 996 93 10000 5.1 220 01:36 02.03.2020
2035 Clouds 3 996 93 10000 5.1 220 01:18 02.03.2020
2036 Rain 3 995 93 10000 5.1 230 00:22 02.03.2020
2037 Rain 2 995 93 10000 6.2 260 23:42 01.03.2020
2038 Rain 2 993 93 10000 6.7 260 23:22 01.03.2020
2039 Rain 2 991 86 10000 8.2 270 22:45 01.03.2020
2040 Clouds 2 992 95 2500 10.8 290 22:21 01.03.2020
2041 Clouds 3 990 93 10000 5.1 170 21:59 01.03.2020
2042 Clouds 3 990 93 10000 5.1 170 21:59 01.03.2020
2043 Clouds 3 990 93 10000 5.1 170 21:40 01.03.2020
2044 Clouds 4 990 93 10000 4.1 180 21:22 01.03.2020
2045 Rain 6 990 87 10000 4.1 160 20:56 01.03.2020
2046 Clouds 6 990 100 10000 3.1 160 20:37 01.03.2020
2047 Clouds 6 990 100 10000 3.1 160 20:19 01.03.2020
2048 Clouds 6 991 100 10000 3.1 110 19:42 01.03.2020
2049 Rain 6 991 100 10000 1.5 80 19:22 01.03.2020
2050 Rain 6 991 93 10000 5.03 176 18:58 01.03.2020
2051 Rain 6 991 93 10000 5.03 176 18:39 01.03.2020
2052 Rain 6 992 93 10000 2.1 130 18:19 01.03.2020
2053 Rain 6 992 93 5000 3.1 180 17:57 01.03.2020
2054 Rain 6 992 93 5000 3.1 180 17:38 01.03.2020
2055 Rain 6 993 81 10000 3.6 180 17:19 01.03.2020
2056 Rain 7 993 75 10000 7.2 190 16:55 01.03.2020
2057 Clouds 7 993 70 10000 6.2 180 16:36 01.03.2020
2058 Clouds 7 993 70 10000 6.2 180 16:36 01.03.2020
2059 Clouds 7 993 70 10000 6.2 180 16:18 01.03.2020
2060 Clouds 8 994 66 10000 5.7 190 15:55 01.03.2020
2061 Clouds 8 995 65 10000 7.2 220 15:37 01.03.2020
2062 Clouds 9 995 75 10000 4.6 210 15:18 01.03.2020
2063 Clouds 9 995 75 10000 3.6 210 14:55 01.03.2020
2064 Rain 8 996 81 10000 5.1 210 14:36 01.03.2020
2065 Rain 8 996 81 10000 5.1 210 14:18 01.03.2020
2066 Rain 7 997 81 10000 6.7 200 13:44 01.03.2020
2067 Clouds 7 997 70 10000 6.7 190 13:21 01.03.2020
2068 Clouds 7 997 70 10000 7.7 220 12:59 01.03.2020
2069 Clouds 7 997 70 10000 7.7 220 12:41 01.03.2020
2070 Clouds 7 997 65 10000 9.3 210 12:21 01.03.2020
2071 Clouds 7 997 70 10000 7.2 210 11:42 01.03.2020
2072 Clouds 6 997 81 10000 7.2 220 11:24 01.03.2020
2073 Clouds 6 997 81 10000 7.2 220 11:24 01.03.2020
2074 Rain 6 997 80 10000 7.2 220 10:57 01.03.2020
2075 Clouds 6 998 75 10000 7.7 220 10:38 01.03.2020
2076 Clouds 6 998 75 10000 7.7 220 10:20 01.03.2020
2077 Clouds 5 997 86 10000 7.2 220 09:55 01.03.2020
2078 Clouds 5 997 86 10000 5.7 220 09:37 01.03.2020
2079 Clouds 5 997 86 10000 5.7 220 09:18 01.03.2020
2080 Rain 5 997 100 10000 4.6 250 08:41 01.03.2020
2081 Clouds 5 997 80 10000 9.3 220 08:20 01.03.2020
2082 Rain 4 996 93 10000 4.6 230 07:42 01.03.2020
2083 Rain 4 997 93 10000 6.2 220 07:24 01.03.2020
2084 Rain 4 997 93 10000 6.2 220 07:24 01.03.2020
2085 Rain 4 997 93 10000 7.2 210 06:57 01.03.2020
2086 Rain 4 997 93 10000 9.3 200 06:37 01.03.2020
2087 Clouds 5 997 75 10000 8.7 210 04:27 01.03.2020
2088 Clouds 5 998 86 10000 7.2 210 02:55 01.03.2020
2089 Clouds 4 998 86 10000 7.2 210 01:53 01.03.2020
2090 Clouds 4 998 86 10000 7.2 220 01:28 01.03.2020
2091 Clouds 5 999 93 10000 5.1 220 00:45 01.03.2020
2092 Clouds 4 998 80 10000 8.2 210 00:22 01.03.2020
2093 Clouds 4 999 86 10000 5.7 220 23:54 29.02.2020
2094 Clouds 4 996 93 10000 6.7 210 23:33 29.02.2020
2095 Clouds 4 998 86 10000 6.7 220 22:45 29.02.2020
2096 Clouds 4 998 86 10000 4.1 210 22:25 29.02.2020
2097 Rain 3 998 86 10000 3.6 220 21:44 29.02.2020
2098 Clear 3 997 86 10000 4.1 220 21:26 29.02.2020
2099 Clouds 4 998 86 10000 5.1 230 20:58 29.02.2020
2100 Clouds 4 998 86 10000 5.1 230 20:40 29.02.2020
2101 Clouds 4 997 87 10000 5.1 220 20:19 29.02.2020
2102 Clouds 4 997 80 10000 5.1 230 19:41 29.02.2020
2103 Clouds 4 997 80 10000 6.2 240 19:22 29.02.2020
2104 Rain 5 996 93 10000 8.7 240 18:57 29.02.2020
2105 Clouds 4 995 87 10000 5.7 220 18:39 29.02.2020
2106 Clouds 5 995 87 10000 5.7 220 18:19 29.02.2020
2107 Clouds 6 994 75 10000 6.2 240 17:54 29.02.2020
2108 Rain 6 992 75 10000 7.7 260 17:36 29.02.2020
2109 Clouds 7 993 87 10000 6.7 230 17:18 29.02.2020
2110 Clouds 7 993 87 10000 6.7 240 16:42 29.02.2020
2111 Rain 7 992 87 9000 10.8 220 16:19 29.02.2020
2112 Rain 8 991 87 10000 13.4 210 15:43 29.02.2020
2113 Clouds 8 992 93 10000 8.7 210 15:24 29.02.2020
2114 Rain 9 992 87 10000 11.3 220 14:57 29.02.2020
2115 Rain 9 992 81 10000 12.3 210 14:38 29.02.2020
2116 Rain 10 992 81 10000 12.3 210 14:20 29.02.2020
2117 Rain 10 992 71 10000 12.3 200 13:44 29.02.2020
2118 Clouds 11 992 66 10000 9.3 190 13:25 29.02.2020
2119 Clouds 11 994 66 10000 9.8 200 12:55 29.02.2020
2120 Clouds 12 993 66 10000 7.7 200 12:36 29.02.2020
2121 Clear 12 994 62 10000 9.3 190 12:18 29.02.2020
2122 Clouds 11 994 71 10000 7.2 190 11:44 29.02.2020
2123 Clear 11 995 66 10000 6.2 180 11:25 29.02.2020
2124 Clouds 9 996 81 10000 5.1 170 10:50 29.02.2020
2125 Clear 9 996 70 10000 7.2 180 10:29 29.02.2020
2126 Clouds 8 996 87 10000 4.1 190 09:52 29.02.2020
2127 Clear 7 998 87 10000 2.1 150 09:28 29.02.2020
2128 Clouds 6 998 93 10000 2.1 140 08:58 29.02.2020
2129 Clouds 6 998 93 10000 4.6 160 08:39 29.02.2020
2130 Clouds 6 998 93 10000 3.1 170 08:20 29.02.2020
2131 Clouds 6 999 93 10000 4.1 180 07:47 29.02.2020
2132 Clouds 6 1000 93 10000 5.7 200 07:22 29.02.2020
2133 Clouds 6 1000 93 10000 7.2 200 06:54 29.02.2020
2134 Clouds 6 1001 93 10000 6.2 220 06:28 29.02.2020
2135 Clouds 6 1002 93 10000 4.6 220 05:49 29.02.2020
2136 Clouds 7 1001 93 10000 5.7 210 05:30 29.02.2020
2137 Clouds 7 1003 100 10000 7.2 200 03:55 29.02.2020
2138 Clouds 7 1003 100 10000 7.2 200 03:24 29.02.2020
2139 Rain 7 1005 93 10000 7.2 220 02:52 29.02.2020
2140 Drizzle 6 1006 93 10000 5.1 200 01:58 29.02.2020
2141 Clouds 5 1007 86 10000 4.1 200 00:51 29.02.2020
2142 Clouds 4 1007 93 10000 4.6 200 00:27 29.02.2020
2143 Rain 4 1008 93 10000 4.6 200 23:41 28.02.2020
2144 Clouds 4 1008 86 10000 5.1 200 23:22 28.02.2020
2145 Rain 4 1008 93 8000 5.1 200 22:43 28.02.2020
2146 Rain 3 1008 80 10000 5.1 190 22:22 28.02.2020
2147 Rain 3 1009 80 8000 7.2 200 21:42 28.02.2020
2148 Rain 4 1009 74 10000 5.7 200 21:22 28.02.2020
2149 Rain 4 1010 65 10000 6.7 200 20:59 28.02.2020
2150 Rain 4 1010 65 10000 6.7 200 20:39 28.02.2020
2151 Rain 4 1011 60 10000 6.2 190 20:20 28.02.2020
2152 Clouds 4 1011 60 10000 5.1 180 19:57 28.02.2020
2153 Clouds 4 1011 60 10000 5.1 180 19:39 28.02.2020
2154 Clouds 4 1011 60 10000 5.1 180 19:39 28.02.2020
2155 Clear 4 1011 64 10000 5.7 160 19:20 28.02.2020
2156 Rain 4 1012 65 10000 7.7 190 18:47 28.02.2020
2157 Rain 4 1012 65 10000 7.7 190 18:47 28.02.2020
2158 Rain 4 1012 65 10000 7.7 190 18:47 28.02.2020
2159 Rain 4 1012 64 10000 3.6 150 18:28 28.02.2020
2160 Clouds 4 1013 65 10000 5.1 170 17:59 28.02.2020
2161 Clouds 4 1013 65 10000 5.1 170 17:40 28.02.2020
2162 Clear 5 1014 76 10000 2.1 150 17:21 28.02.2020
2163 Clouds 5 1014 65 10000 4.6 180 16:44 28.02.2020
2164 Clouds 5 1015 69 10000 1.5 160 16:20 28.02.2020
2165 Rain 6 1015 65 10000 4.1 200 15:58 28.02.2020
2166 Rain 6 1015 65 10000 4.1 200 15:40 28.02.2020
2167 Rain 6 1016 69 10000 4.1 200 15:19 28.02.2020
2168 Clouds 5 1016 65 10000 5.1 210 14:57 28.02.2020
2169 Clouds 6 1016 65 10000 5.1 210 14:38 28.02.2020
2170 Clear 5 1016 69 10000 4.6 200 14:18 28.02.2020
2171 Clouds 5 1017 60 10000 5.7 210 13:41 28.02.2020
2172 Clear 5 1018 74 10000 3.1 210 13:20 28.02.2020
2173 Clear 5 1018 74 10000 3.1 210 13:20 28.02.2020
2174 Clouds 5 1018 80 10000 2.6 190 12:59 28.02.2020
2175 Clouds 4 1018 80 10000 2.6 190 12:40 28.02.2020
2176 Clouds 5 1019 80 10000 3.6 200 12:22 28.02.2020
2177 Clouds 4 1019 70 10000 3.6 200 11:42 28.02.2020
2178 Clouds 3 1018 86 10000 4.6 220 11:23 28.02.2020
2179 Clouds 2 1019 84 10000 3.1 210 10:57 28.02.2020
2180 Clouds 2 1019 84 10000 3.6 190 10:39 28.02.2020
2181 Clouds 2 1019 84 10000 3.1 210 10:20 28.02.2020
2182 Clouds 0 1019 92 10000 3.1 190 09:44 28.02.2020
2183 Clouds 0 1019 92 10000 2.6 220 09:21 28.02.2020
2184 Mist -1 1018 100 8000 1.5 220 08:56 28.02.2020
2185 Mist -1 1017 92 1500 2.1 210 08:37 28.02.2020
2186 Mist -2 1018 100 9000 2.1 230 08:18 28.02.2020
2187 Clouds -2 1017 100 10000 3.1 230 07:40 28.02.2020
2188 Clouds -2 1017 92 10000 4.1 230 07:20 28.02.2020
2189 Clear -2 1017 92 10000 4.1 260 06:44 28.02.2020
2190 Clouds -1 1017 92 10000 2.6 230 06:19 28.02.2020
2191 Clear -1 1014 92 2400 2.6 260 04:35 28.02.2020
2192 Clear 0 1015 95 9000 5.7 260 03:51 28.02.2020
2193 Clouds 0 1014 95 10000 2.1 230 02:46 28.02.2020
2194 Clouds 0 1013 95 10000 3.6 250 02:25 28.02.2020
2195 Clouds 1 1011 86 10000 4.6 270 00:59 28.02.2020
2196 Rain 1 1010 86 10000 6.2 280 00:28 28.02.2020
2197 Rain 1 1008 86 10000 6.7 280 23:42 27.02.2020
2198 Rain 1 1008 86 10000 6.2 270 23:20 27.02.2020
2199 Clouds 1 1007 86 10000 5.1 270 22:45 27.02.2020
2200 Rain 1 1006 86 10000 6.2 260 22:26 27.02.2020
2201 Rain 1 1006 92 10000 7.2 300 21:58 27.02.2020
2202 Rain 1 1006 92 10000 7.2 300 21:39 27.02.2020
2203 Clouds 1 1003 92 10000 5.7 260 21:19 27.02.2020
2204 Rain 1 1002 86 10000 4.6 290 20:56 27.02.2020
2205 Snow 1 1000 100 2500 7.2 300 20:38 27.02.2020
2206 Rain 1 1001 92 10000 2.1 260 20:20 27.02.2020
2207 Clouds 1 1000 90 10000 9.3 300 19:55 27.02.2020
2208 Snow 1 996 100 1500 5.1 320 19:37 27.02.2020
2209 Snow 1 997 90 10000 2.6 290 19:18 27.02.2020
2210 Snow 1 995 100 10000 4.6 300 18:40 27.02.2020
2211 Snow 1 993 90 9000 3.6 300 18:22 27.02.2020
2212 Snow 1 991 90 4000 2.6 340 17:58 27.02.2020
2213 Snow 1 991 90 10000 8.2 290 17:39 27.02.2020
2214 Snow 1 990 99 3200 3.6 20 17:19 27.02.2020
2215 Snow 1 989 99 1800 3.6 40 16:56 27.02.2020
2216 Snow 1 988 100 600 8.2 130 16:38 27.02.2020
2217 Snow 1 988 99 1200 4.1 50 16:18 27.02.2020
2218 Snow 1 987 99 1700 4.1 140 15:56 27.02.2020
2219 Snow 1 989 100 600 3.6 120 15:36 27.02.2020
2220 Snow 1 990 99 400 3.6 80 15:18 27.02.2020
2221 Snow 1 990 99 600 3.6 80 14:42 27.02.2020
2222 Snow 0 992 99 800 3.1 110 14:23 27.02.2020
2223 Snow 0 992 99 800 3.1 110 14:23 27.02.2020
2224 Snow 0 992 99 600 2.6 120 13:58 27.02.2020
2225 Snow 0 992 99 600 2.6 120 13:40 27.02.2020
2226 Snow 0 994 99 600 2.1 100 13:20 27.02.2020
2227 Snow 1 995 99 800 2.6 100 12:46 27.02.2020
2228 Snow 1 997 99 1400 3.1 110 12:25 27.02.2020
2229 Snow 1 998 99 1800 2.1 120 11:59 27.02.2020
2230 Snow 1 998 99 1200 5.1 160 11:39 27.02.2020
2231 Snow 1 999 93 1600 3.6 150 11:21 27.02.2020
2232 Snow 1 1000 93 1800 3.1 130 10:43 27.02.2020
2233 Snow 1 1001 93 1600 4.1 150 10:22 27.02.2020
2234 Snow 1 1002 93 1200 4.1 170 09:48 27.02.2020
2235 Clouds 1 1002 93 3600 3.1 180 09:29 27.02.2020
2236 Clouds 1 1003 93 10000 5.1 180 08:57 27.02.2020
2237 Snow 1 1004 93 3000 4.6 180 08:39 27.02.2020
2238 Clouds 1 1004 93 10000 6.2 180 08:21 27.02.2020
2239 Clouds 1 1004 89 10000 5.1 190 07:44 27.02.2020
2240 Clouds 1 1005 89 10000 3.6 190 07:25 27.02.2020
2241 Clouds 1 1005 89 10000 3.1 190 06:46 27.02.2020
2242 Clouds 1 1005 89 10000 4.6 230 05:35 27.02.2020
2243 Clouds 1 1006 93 10000 6.2 260 03:38 27.02.2020
2244 Clouds 1 1007 93 10000 3.6 240 02:21 27.02.2020
2245 Clouds 1 1007 86 10000 3.1 230 00:45 27.02.2020
2246 Clouds 1 1007 86 10000 3.1 220 00:26 27.02.2020
2247 Clouds 1 1008 96 10000 4.6 250 23:40 26.02.2020
2248 Clouds 1 1008 96 10000 4.6 250 23:40 26.02.2020
2249 Clouds 1 1007 86 10000 3.1 230 23:19 26.02.2020
2250 Clear 1 1008 80 10000 6.2 260 22:57 26.02.2020
2251 Snow 1 1006 92 9000 6.2 270 22:39 26.02.2020
2252 Clouds 1 1007 86 10000 4.1 220 22:19 26.02.2020
2253 Clouds 1 1008 92 10000 5.1 250 21:55 26.02.2020
2254 Clear 1 1005 92 10000 5.7 250 21:36 26.02.2020
2255 Clouds 1 1007 86 10000 4.6 230 21:18 26.02.2020
2256 Clouds 1 1007 92 10000 4.1 260 20:54 26.02.2020
2257 Clear 1 1005 92 10000 4.6 270 20:36 26.02.2020
2258 Clouds 1 1006 80 10000 3.6 230 20:18 26.02.2020
2259 Clouds 2 1007 85 10000 4.1 270 19:45 26.02.2020
2260 Clouds 2 1006 85 10000 2.6 240 19:20 26.02.2020
2261 Clouds 1 1006 85 10000 5.7 270 18:58 26.02.2020
2262 Clouds 1 1006 85 10000 5.7 270 18:58 26.02.2020
2263 Clouds 2 1006 85 10000 5.7 270 18:40 26.02.2020
2264 Clouds 2 1005 80 10000 2.6 260 18:22 26.02.2020
2265 Clouds 2 1005 80 10000 2.6 260 18:22 26.02.2020
2266 Clouds 2 1004 85 10000 3.1 250 17:42 26.02.2020
2267 Clouds 2 1004 85 10000 3.1 250 17:42 26.02.2020
2268 Clouds 3 1005 64 10000 5.7 270 17:24 26.02.2020
2269 Clouds 3 1002 86 6000 5.1 270 16:59 26.02.2020
2270 Clouds 3 1002 86 6000 5.1 270 16:41 26.02.2020
2271 Rain 3 1003 69 10000 7.2 260 16:22 26.02.2020
2272 Clouds 4 1003 74 10000 5.1 250 15:54 26.02.2020
2273 Clouds 4 1002 74 10000 7.2 250 15:36 26.02.2020
2274 Clouds 4 1002 74 10000 7.2 250 15:18 26.02.2020
2275 Rain 4 1002 74 10000 7.2 240 14:42 26.02.2020
2276 Clouds 4 1002 74 10000 5.7 250 14:22 26.02.2020
2277 Rain 3 1001 70 10000 7.2 260 13:43 26.02.2020
2278 Rain 3 1001 72 10000 6.2 250 13:22 26.02.2020
2279 Clouds 2 1000 72 4000 6.7 240 12:42 26.02.2020
2280 Snow 2 1000 72 3600 6.2 250 12:23 26.02.2020
2281 Snow 2 999 74 3600 6.7 240 11:59 26.02.2020
2282 Snow 2 999 74 3600 6.7 240 11:41 26.02.2020
2283 Rain 2 1000 72 10000 7.7 260 11:22 26.02.2020
2284 Rain 2 1000 72 10000 7.7 260 11:22 26.02.2020
2285 Clouds 2 1000 80 10000 7.7 260 10:56 26.02.2020
2286 Snow 2 997 80 700 6.2 250 10:38 26.02.2020
2287 Clouds 2 999 80 10000 8.7 260 10:20 26.02.2020
2288 Snow 1 999 80 3000 7.2 260 09:41 26.02.2020
2289 Clouds 1 998 86 10000 7.7 260 09:21 26.02.2020
2290 Clouds 1 997 80 10000 8.2 260 08:55 26.02.2020
2291 Clouds 1 994 80 10000 8.2 250 08:36 26.02.2020
2292 Clouds 1 996 86 10000 7.2 230 08:18 26.02.2020
2293 Clouds 1 996 86 10000 7.7 230 07:41 26.02.2020
2294 Rain 1 995 86 10000 7.7 230 07:23 26.02.2020
2295 Clouds 1 995 86 10000 8.2 220 06:49 26.02.2020
2296 Snow 1 996 86 10000 7.2 230 06:31 26.02.2020
2297 Clouds 1 996 97 10000 5.7 230 05:48 26.02.2020
2298 Clouds 1 996 93 10000 7.2 240 05:19 26.02.2020
2299 Clouds 1 996 86 10000 7.2 240 03:45 26.02.2020
2300 Snow 1 996 85 6000 5.7 240 02:20 26.02.2020
2301 Rain 2 997 85 10000 6.7 280 01:38 26.02.2020
2302 Clouds 2 995 93 10000 7.2 220 00:47 26.02.2020
2303 Rain 3 995 93 10000 6.2 200 00:21 26.02.2020
2304 Rain 3 996 93 10000 6.2 200 23:45 25.02.2020
2305 Clouds 3 996 93 10000 4.1 210 23:26 25.02.2020
2306 Clouds 3 997 84 10000 3.6 200 22:59 25.02.2020
2307 Clouds 3 997 84 10000 3.6 200 22:41 25.02.2020
2308 Clouds 3 997 84 10000 5.1 240 22:19 25.02.2020
2309 Clouds 3 999 93 10000 6.2 270 21:39 25.02.2020
2310 Clouds 3 998 86 10000 6.2 250 21:21 25.02.2020
2311 -273 0 0 0 0 0 21:21 25.02.2020
2312 Rain 4 998 86 10000 7.7 230 20:58 25.02.2020
2313 Clouds 4 999 86 10000 7.2 240 20:39 25.02.2020
2314 Clouds 4 998 86 10000 6.2 220 20:21 25.02.2020
2315 Clouds 4 998 93 10000 6.7 220 19:59 25.02.2020
2316 Clouds 5 998 93 10000 6.7 220 19:40 25.02.2020
2317 Clouds 5 998 93 10000 6.2 220 19:19 25.02.2020
2318 Rain 5 998 81 10000 10.3 220 18:42 25.02.2020
2319 Clouds 6 999 70 10000 5.1 210 18:21 25.02.2020
2320 Clouds 6 999 70 10000 5.1 210 18:21 25.02.2020
2321 Rain 6 1000 70 8000 6.2 220 17:58 25.02.2020
2322 Clouds 6 999 84 10000 7.7 230 17:38 25.02.2020
2323 Clouds 7 999 72 10000 7.7 230 17:19 25.02.2020
2324 Clouds 7 1001 65 10000 8.7 240 16:58 25.02.2020
2325 Clouds 8 1001 65 10000 8.7 240 16:40 25.02.2020
2326 Clouds 8 1000 75 10000 6.7 220 16:22 25.02.2020
2327 Clouds 8 1000 70 10000 6.7 230 15:57 25.02.2020
2328 Rain 8 1000 81 10000 5.7 260 15:38 25.02.2020
2329 Clouds 8 1001 75 10000 5.1 220 15:18 25.02.2020
2330 Rain 8 1001 81 10000 5.7 240 14:56 25.02.2020
2331 Clouds 8 1001 61 10000 8.2 230 14:37 25.02.2020
2332 Clouds 7 1001 61 10000 8.2 230 14:18 25.02.2020
2333 Clouds 7 1003 81 10000 8.7 270 13:55 25.02.2020
2334 Clouds 7 1002 74 10000 9.3 240 13:37 25.02.2020
2335 Clouds 8 1002 74 10000 9.3 240 13:18 25.02.2020
2336 Clouds 7 1002 65 10000 6.7 250 12:41 25.02.2020
2337 Clouds 7 1004 75 10000 8.2 260 12:21 25.02.2020
2338 Clouds 7 1002 70 10000 7.2 230 11:57 25.02.2020
2339 Clouds 7 1004 75 10000 6.2 260 11:39 25.02.2020
2340 Clouds 7 1003 70 10000 6.7 250 11:19 25.02.2020
2341 Clouds 7 1004 87 10000 7.7 250 10:59 25.02.2020
2342 Clouds 6 1004 87 10000 7.7 250 10:40 25.02.2020
2343 Clouds 6 1003 81 10000 5.7 250 10:21 25.02.2020
2344 Drizzle 6 1003 75 10000 9.3 240 09:42 25.02.2020
2345 Clouds 6 1003 81 10000 8.2 240 09:22 25.02.2020
2346 Clouds 6 1003 100 10000 5.7 240 08:54 25.02.2020
2347 Rain 6 1003 100 10000 5.1 250 08:36 25.02.2020
2348 Rain 6 1003 100 10000 5.1 250 08:18 25.02.2020
2349 Rain 7 1004 100 3000 5.7 230 07:39 25.02.2020
2350 Clouds 7 1003 100 10000 7.7 220 07:19 25.02.2020
2351 Clouds 7 1004 100 10000 7.2 220 06:37 25.02.2020
2352 Rain 7 1004 100 10000 7.7 220 05:29 25.02.2020
2353 Rain 7 1004 93 3200 6.2 240 03:35 25.02.2020
2354 Rain 8 1006 93 9000 7.7 240 01:36 25.02.2020
2355 Rain 8 1007 100 10000 6.2 220 00:48 25.02.2020
2356 Rain 8 1008 93 10000 6.7 220 00:29 25.02.2020
2357 Clouds 8 1008 93 10000 7.2 220 23:43 24.02.2020
2358 Clouds 8 1008 87 10000 7.7 220 23:21 24.02.2020
2359 Clouds 9 1008 87 10000 7.2 230 22:43 24.02.2020
2360 Clouds 9 1009 81 10000 8.2 220 22:21 24.02.2020
2361 Clouds 9 1010 81 10000 9.3 230 21:57 24.02.2020
2362 Clouds 9 1010 81 10000 9.3 230 21:39 24.02.2020
2363 Clouds 9 1009 87 10000 9.8 220 21:20 24.02.2020
2364 Clouds 9 1009 81 10000 8.7 230 20:58 24.02.2020
2365 Clouds 9 1009 81 10000 8.7 230 20:40 24.02.2020
2366 Clouds 9 1009 81 10000 9.8 220 20:19 24.02.2020
2367 Clouds 9 1011 81 10000 9.8 240 19:57 24.02.2020
2368 Clouds 9 1011 81 10000 9.8 240 19:39 24.02.2020
2369 Clouds 9 1010 81 10000 10.3 220 19:20 24.02.2020
2370 Clouds 9 1011 81 10000 10.8 230 18:55 24.02.2020
2371 Clouds 9 1010 87 10000 7.7 230 18:37 24.02.2020
2372 Clouds 9 1010 87 10000 7.7 230 18:18 24.02.2020
2373 Clouds 9 1010 87 10000 8.7 220 17:40 24.02.2020
2374 Rain 9 1011 93 10000 8.2 220 17:20 24.02.2020
2375 Rain 9 1011 93 10000 8.2 220 17:20 24.02.2020
2376 Clouds 9 1011 100 10000 9.8 210 16:58 24.02.2020
2377 Clouds 9 1013 87 10000 8.2 230 16:39 24.02.2020
2378 Rain 9 1012 100 10000 9.3 220 16:20 24.02.2020
2379 Rain 9 1012 100 10000 9.3 220 16:20 24.02.2020
2380 Clouds 9 1012 100 10000 9.3 210 15:58 24.02.2020
2381 Clouds 9 1012 100 10000 9.3 210 15:40 24.02.2020
2382 Clouds 9 1013 100 10000 8.7 220 15:21 24.02.2020
2383 Clouds 9 1013 100 10000 7.2 220 14:58 24.02.2020
2384 Clouds 9 1015 93 10000 9.3 220 14:39 24.02.2020
2385 Clouds 9 1014 100 10000 5.7 200 14:19 24.02.2020
2386 Mist 9 1015 100 3200 6.2 210 13:56 24.02.2020
2387 Clouds 9 1015 100 10000 6.2 220 13:37 24.02.2020
2388 Drizzle 9 1016 100 1800 6.2 200 13:19 24.02.2020
2389 Rain 8 1016 100 1400 6.2 200 12:55 24.02.2020
2390 Mist 8 1017 100 3200 7.2 210 12:37 24.02.2020
2391 Mist 8 1017 100 3200 7.2 210 12:18 24.02.2020
2392 Mist 7 1018 100 4000 4.1 200 11:41 24.02.2020
2393 Mist 7 1018 100 4000 4.1 200 11:41 24.02.2020
2394 Mist 6 1019 100 6000 3.1 190 11:23 24.02.2020
2395 Mist 5 1019 100 8000 2.6 170 10:44 24.02.2020
2396 Mist 5 1020 100 4000 1.5 170 10:25 24.02.2020
2397 Rain 5 1021 100 3600 3.23 175 09:41 24.02.2020
2398 Clouds 4 1021 93 10000 1.5 190 09:19 24.02.2020
2399 Rain 4 1022 93 8000 2.1 210 08:57 24.02.2020
2400 Rain 4 1022 93 9000 2.6 220 08:37 24.02.2020
2401 Rain 4 1022 93 9000 2.6 220 08:19 24.02.2020
2402 Clouds 4 1022 93 10000 3.6 220 07:41 24.02.2020
2403 Clouds 4 1023 100 10000 3.6 200 07:23 24.02.2020
2404 Rain 4 1023 93 10000 2.1 200 06:36 24.02.2020
2405 Rain 4 1023 93 10000 2.1 200 06:18 24.02.2020
2406 Rain 4 1024 93 10000 2.31 158 05:28 24.02.2020
2407 Clouds 5 1024 75 10000 2.1 280 03:45 24.02.2020
2408 Rain 5 1024 75 10000 2.6 270 02:52 24.02.2020
2409 Clouds 5 1024 75 10000 1.5 260 01:42 24.02.2020
2410 Clouds 6 1024 87 10000 2.1 290 00:52 24.02.2020
2411 Clouds 6 1023 70 10000 2.6 250 00:23 24.02.2020
2412 Clouds 6 1023 70 10000 2.6 260 23:59 23.02.2020
2413 Clouds 6 1023 70 10000 2.6 260 23:40 23.02.2020
2414 Clouds 7 1022 75 10000 5.1 280 23:18 23.02.2020
2415 Rain 7 1022 93 7000 7.2 330 22:56 23.02.2020
2416 Rain 8 1021 93 10000 6.7 330 22:37 23.02.2020
2417 Clouds 8 1022 75 10000 6.7 300 22:18 23.02.2020
2418 Rain 9 1021 93 10000 7.2 300 21:43 23.02.2020
2419 Rain 10 1020 87 10000 7.7 280 21:19 23.02.2020
2420 Rain 10 1019 93 10000 6.7 290 20:56 23.02.2020
2421 Clouds 10 1018 93 10000 8.2 250 20:38 23.02.2020
2422 Clouds 10 1018 93 10000 8.2 250 20:20 23.02.2020
2423 Drizzle 10 1019 93 5000 10.3 250 19:56 23.02.2020
2424 Rain 10 1016 93 6000 11.3 260 19:38 23.02.2020
2425 Rain 10 1016 93 6000 11.3 260 19:38 23.02.2020
2426 Rain 10 1017 100 10000 10.3 230 19:18 23.02.2020
2427 Rain 10 1016 100 10000 9.3 230 18:55 23.02.2020
2428 Rain 10 1015 93 2700 7.7 250 18:36 23.02.2020
2429 Rain 10 1015 93 2700 7.7 250 18:36 23.02.2020
2430 Rain 10 1016 100 10000 10.3 220 18:18 23.02.2020
2431 Rain 10 1016 100 10000 11.3 230 17:56 23.02.2020
2432 Clouds 10 1015 100 10000 11.3 220 17:37 23.02.2020
2433 Clouds 9 1015 100 10000 11.3 220 17:18 23.02.2020
2434 Rain 9 1015 100 10000 11.3 220 16:45 23.02.2020
2435 Rain 9 1015 93 10000 11.3 230 16:26 23.02.2020
2436 Clouds 9 1015 93 10000 12.3 230 15:58 23.02.2020
2437 Drizzle 9 1018 93 3000 11.3 240 15:38 23.02.2020
2438 Clouds 9 1015 100 10000 12.3 230 15:20 23.02.2020
2439 Drizzle 9 1018 93 3700 10.8 240 14:58 23.02.2020
2440 Drizzle 9 1018 93 3700 10.8 240 14:40 23.02.2020
2441 Clouds 9 1015 100 10000 11.3 220 14:21 23.02.2020
2442 Drizzle 9 1019 93 6000 10.3 240 13:57 23.02.2020
2443 Drizzle 9 1019 93 6000 10.3 240 13:38 23.02.2020
2444 Rain 9 1016 93 10000 11.3 220 13:20 23.02.2020
2445 Rain 9 1017 93 10000 10.8 230 12:42 23.02.2020
2446 Rain 9 1017 93 10000 10.8 220 12:22 23.02.2020
2447 Drizzle 9 1017 93 10000 9.8 230 11:56 23.02.2020
2448 Clouds 9 1017 100 10000 9.3 230 11:37 23.02.2020
2449 Clouds 8 1017 100 10000 9.3 230 11:18 23.02.2020
2450 Clouds 8 1017 100 10000 9.3 230 11:18 23.02.2020
2451 Clouds 8 1017 100 10000 10.3 220 10:54 23.02.2020
2452 Rain 8 1015 100 1400 12.3 230 10:36 23.02.2020
2453 Rain 8 1018 100 9000 9.3 230 10:18 23.02.2020
2454 Drizzle 8 1020 93 8000 8.7 220 09:40 23.02.2020
2455 Clouds 8 1018 100 10000 9.8 220 09:21 23.02.2020
2456 Rain 8 1018 100 10000 9.3 220 08:56 23.02.2020
2457 Rain 8 1018 93 9000 8.7 240 08:38 23.02.2020
2458 Rain 8 1018 100 10000 9.8 220 08:18 23.02.2020
2459 Rain 8 1019 100 10000 8.2 220 07:40 23.02.2020
2460 Clouds 8 1020 93 10000 7.7 210 06:52 23.02.2020
2461 Clouds 8 1023 93 10000 7.2 220 05:50 23.02.2020
2462 Rain 8 1021 93 10000 7.7 220 04:44 23.02.2020
2463 Rain 8 1023 93 10000 6.7 230 03:25 23.02.2020
2464 Rain 8 1024 93 10000 5.1 230 02:35 23.02.2020
2465 Rain 8 1024 100 10000 8.2 240 01:25 23.02.2020
2466 Rain 8 1024 100 10000 5.7 240 00:49 23.02.2020
2467 Rain 8 1024 93 10000 7.7 220 00:27 23.02.2020
2468 Rain 8 1024 93 10000 6.7 230 23:48 22.02.2020
2469 Clouds 8 1024 93 10000 7.7 220 23:30 22.02.2020
2470 Rain 8 1026 81 10000 7.2 240 22:59 22.02.2020
2471 Rain 8 1026 81 10000 7.2 240 22:40 22.02.2020
2472 Rain 8 1024 87 10000 6.2 230 22:18 22.02.2020
2473 Clouds 8 1026 87 10000 8.2 230 21:43 22.02.2020
2474 Clouds 8 1024 87 10000 8.2 230 21:24 22.02.2020
2475 Clouds 8 1026 87 10000 8.2 240 20:47 22.02.2020
2476 Clouds 8 1024 81 10000 8.7 230 20:25 22.02.2020
2477 Clouds 8 1026 81 10000 8.2 250 19:59 22.02.2020
2478 Clouds 8 1026 81 10000 8.2 250 19:41 22.02.2020
2479 Clouds 8 1024 81 10000 9.8 230 19:21 22.02.2020
2480 Clouds 8 1025 75 10000 8.2 240 18:54 22.02.2020
2481 Clouds 8 1022 87 3200 8.2 240 18:36 22.02.2020
2482 Clouds 8 1024 75 10000 6.2 230 18:18 22.02.2020
2483 Clouds 8 1024 75 10000 6.7 230 17:43 22.02.2020
2484 Clouds 8 1023 65 10000 7.7 230 17:25 22.02.2020
2485 Clouds 8 1024 66 10000 6.7 240 16:58 22.02.2020
2486 Clouds 8 1024 66 10000 6.7 240 16:39 22.02.2020
2487 Clouds 8 1023 65 10000 5.7 220 16:20 22.02.2020
2488 Clouds 8 1023 61 10000 6.7 220 15:45 22.02.2020
2489 Clouds 8 1023 61 10000 6.7 220 15:45 22.02.2020
2490 Clouds 9 1023 61 10000 8.7 220 15:27 22.02.2020
2491 Clouds 9 1023 57 10000 9.3 220 14:58 22.02.2020
2492 Clouds 9 1023 57 10000 9.3 220 14:39 22.02.2020
2493 Clouds 9 1023 65 10000 7.2 220 14:20 22.02.2020
2494 Clouds 9 1024 65 10000 8.2 210 13:42 22.02.2020
2495 Clouds 8 1023 65 10000 9.8 200 13:20 22.02.2020
2496 Clouds 9 1025 70 10000 6.7 220 12:57 22.02.2020
2497 Clouds 8 1023 68 10000 8.7 240 12:38 22.02.2020
2498 Clouds 8 1024 70 10000 8.2 200 12:20 22.02.2020
2499 Clouds 7 1025 70 10000 8.7 220 11:42 22.02.2020
2500 Clear 7 1024 75 10000 8.2 200 11:23 22.02.2020
2501 Clouds 6 1026 75 10000 6.2 220 10:42 22.02.2020
2502 Clouds 5 1025 80 10000 7.2 200 10:21 22.02.2020
2503 Clouds 4 1026 80 10000 7.2 210 09:59 22.02.2020
2504 Clouds 4 1026 80 10000 7.2 210 09:41 22.02.2020
2505 Clouds 4 1025 78 10000 7.2 210 09:22 22.02.2020
2506 Clouds 3 1026 78 10000 4.6 200 08:55 22.02.2020
2507 Clear 2 1025 78 10000 6.2 220 08:28 22.02.2020
2508 Clouds 2 1026 86 10000 3.1 200 07:59 22.02.2020
2509 Clouds 2 1026 86 10000 3.1 200 07:39 22.02.2020
2510 Clear 2 1024 90 10000 4.1 220 07:18 22.02.2020
2511 Clouds 2 1025 90 10000 5.7 210 06:43 22.02.2020
2512 Clouds 2 1025 91 10000 3.6 210 04:45 22.02.2020
2513 Clear 2 1025 91 10000 6.2 200 04:25 22.02.2020
2514 Clear 2 1027 91 10000 5.1 230 02:42 22.02.2020
2515 Clouds 2 1027 89 10000 5.7 220 01:49 22.02.2020
2516 Clear 3 1026 88 10000 5.1 210 01:29 22.02.2020
2517 Clouds 3 1027 88 10000 5.1 230 00:49 22.02.2020
2518 Clouds 3 1026 88 10000 5.1 220 00:31 22.02.2020
2519 Clouds 3 1028 88 10000 5.1 220 23:56 21.02.2020
2520 Clouds 3 1026 88 10000 8.2 260 23:37 21.02.2020
2521 Clear 3 1027 88 10000 5.7 230 23:18 21.02.2020
2522 Clouds 3 1028 88 10000 4.6 220 22:42 21.02.2020
2523 Clouds 4 1027 80 10000 5.7 230 22:24 21.02.2020
2524 Clouds 4 1028 80 10000 5.7 210 21:56 21.02.2020
2525 Clouds 4 1027 88 10000 7.2 250 21:37 21.02.2020
2526 Clouds 4 1027 88 10000 5.7 210 21:19 21.02.2020
2527 Clouds 4 1028 80 10000 5.1 210 20:42 21.02.2020
2528 Clouds 4 1027 86 10000 5.1 220 20:23 21.02.2020
2529 Clouds 4 1027 84 10000 5.1 220 19:40 21.02.2020
2530 Clouds 4 1027 84 10000 5.1 210 19:21 21.02.2020
2531 Clouds 5 1028 84 10000 4.6 230 18:44 21.02.2020
2532 Clouds 5 1027 84 10000 4.6 210 18:24 21.02.2020
2533 Clouds 5 1027 84 10000 5.1 210 17:58 21.02.2020
2534 Clouds 6 1027 69 10000 5.1 250 17:38 21.02.2020
2535 Clouds 6 1027 69 10000 5.1 250 17:38 21.02.2020
2536 Clouds 6 1027 71 10000 4.1 220 17:20 21.02.2020
2537 Clouds 6 1027 71 10000 4.6 220 16:56 21.02.2020
2538 Clouds 6 1027 65 10000 6.2 260 16:38 21.02.2020
2539 Clouds 7 1027 71 10000 5.7 230 16:20 21.02.2020
2540 Clouds 7 1027 71 10000 5.1 240 15:44 21.02.2020
2541 Clouds 7 1028 71 10000 6.7 220 15:19 21.02.2020
2542 Clouds 6 1028 71 10000 5.7 230 14:54 21.02.2020
2543 Clouds 6 1027 71 10000 6.2 240 14:36 21.02.2020
2544 Clouds 6 1028 75 10000 5.7 220 14:18 21.02.2020
2545 Clouds 6 1029 70 10000 6.2 250 13:42 21.02.2020
2546 Clouds 6 1029 80 10000 5.1 220 13:21 21.02.2020
2547 Clouds 5 1029 80 10000 5.1 220 12:47 21.02.2020
2548 Clouds 5 1029 80 10000 4.1 230 12:27 21.02.2020
2549 Clouds 4 1029 80 10000 5.1 240 11:59 21.02.2020
2550 Clouds 4 1029 80 10000 5.1 240 11:40 21.02.2020
2551 Clouds 4 1029 86 10000 6.2 240 11:21 21.02.2020
2552 Clouds 3 1029 86 10000 5.1 240 10:55 21.02.2020
2553 Clouds 3 1026 85 10000 5.1 240 10:36 21.02.2020
2554 Clouds 3 1028 93 10000 4.1 230 10:18 21.02.2020
2555 Clouds 2 1028 93 10000 4.1 240 09:42 21.02.2020
2556 Clouds 2 1028 85 10000 3.1 250 09:24 21.02.2020
2557 Clouds 1 1027 85 10000 2.6 220 08:58 21.02.2020
2558 Clouds 1 1027 85 10000 2.6 220 08:39 21.02.2020
2559 Clouds 1 1027 93 10000 2.1 220 08:21 21.02.2020
2560 Clouds 1 1026 93 10000 3.1 220 07:57 21.02.2020
2561 Clouds 1 1027 93 10000 4.1 260 07:39 21.02.2020
2562 Clouds 1 1026 93 10000 3.1 220 07:18 21.02.2020
2563 Clouds 1 1026 93 10000 5.1 250 06:42 21.02.2020
2564 Clear 1 1025 86 10000 3.1 240 06:24 21.02.2020
2565 Clear 1 1025 86 10000 3.1 240 06:24 21.02.2020
2566 Clouds 1 1025 93 10000 4.6 240 05:42 21.02.2020
2567 Clouds 2 1024 87 10000 5.1 240 04:32 21.02.2020
2568 Clear 2 1024 87 10000 6.2 260 03:57 21.02.2020
2569 Clouds 2 1023 87 10000 3.1 230 03:22 21.02.2020
2570 Clouds 3 1021 83 10000 2.6 250 01:51 21.02.2020
2571 Rain 3 1021 80 10000 5.1 270 01:23 21.02.2020
2572 Clouds 3 1020 80 10000 5.7 270 00:41 21.02.2020
2573 Rain 4 1019 86 10000 7.7 260 00:22 21.02.2020
2574 Clouds 4 1017 86 10000 7.2 250 23:44 20.02.2020
2575 Clouds 4 1017 86 10000 7.2 240 23:23 20.02.2020
2576 Clouds 4 1016 80 10000 8.2 260 22:56 20.02.2020
2577 Rain 5 1015 80 10000 8.7 270 22:37 20.02.2020
2578 Rain 5 1015 80 10000 8.7 270 22:19 20.02.2020
2579 Rain 5 1013 87 10000 8.7 220 21:55 20.02.2020
2580 Rain 6 1012 86 2500 8.7 230 21:37 20.02.2020
2581 Rain 6 1013 87 10000 9.3 210 21:19 20.02.2020
2582 Rain 6 1014 81 10000 7.7 220 20:54 20.02.2020
2583 Rain 6 1013 75 10000 12.3 210 20:36 20.02.2020
2584 Rain 7 1013 75 10000 12.3 210 20:18 20.02.2020
2585 Clouds 6 1015 75 10000 7.2 210 19:56 20.02.2020
2586 Clouds 7 1014 75 10000 9.3 220 19:38 20.02.2020
2587 Clouds 7 1015 75 10000 6.7 210 19:20 20.02.2020
2588 Clouds 7 1014 75 10000 7.2 220 18:39 20.02.2020
2589 Clouds 7 1014 75 10000 8.2 210 18:20 20.02.2020
2590 Clouds 7 1015 75 10000 7.2 220 17:42 20.02.2020
2591 Clouds 7 1015 75 10000 7.2 220 17:23 20.02.2020
2592 Clouds 7 1015 75 10000 7.2 220 17:22 20.02.2020
2593 Clouds 7 1015 75 10000 7.2 220 17:22 20.02.2020
2594 Clouds 7 1016 81 10000 7.2 210 16:59 20.02.2020
2595 Clouds 7 1014 86 10000 8.7 220 16:40 20.02.2020
2596 Clouds 7 1015 81 10000 9.3 200 16:21 20.02.2020
2597 Clouds 7 1016 81 10000 9.3 200 15:59 20.02.2020
2598 Clouds 7 1016 81 10000 9.3 200 15:41 20.02.2020
2599 Clouds 7 1016 81 10000 10.3 210 15:20 20.02.2020
2600 Clouds 7 1016 81 10000 10.3 210 14:55 20.02.2020
2601 Rain 7 1015 81 10000 7.7 230 14:37 20.02.2020
2602 Clouds 7 1017 87 10000 8.7 210 14:18 20.02.2020
2603 Rain 7 1018 93 6000 7.7 220 13:44 20.02.2020
2604 Rain 7 1017 75 10000 8.7 220 13:20 20.02.2020
2605 Clouds 7 1019 81 10000 5.7 220 12:58 20.02.2020
2606 Clouds 7 1018 87 10000 6.2 240 12:38 20.02.2020
2607 Clouds 7 1018 87 10000 9.3 210 12:19 20.02.2020
2608 Rain 7 1018 87 10000 10.3 210 11:43 20.02.2020
2609 Clouds 6 1018 81 10000 6.7 220 11:23 20.02.2020
2610 Clouds 6 1018 93 10000 7.2 210 10:58 20.02.2020
2611 Clouds 6 1019 87 10000 6.2 220 10:40 20.02.2020
2612 Clouds 6 1019 93 10000 5.1 210 10:21 20.02.2020
2613 Clouds 6 1019 93 10000 5.1 210 10:21 20.02.2020
2614 Rain 6 1019 93 10000 5.7 200 09:55 20.02.2020
2615 Drizzle 6 1018 100 8000 6.7 230 09:36 20.02.2020
2616 Clouds 6 1019 100 10000 5.7 200 09:18 20.02.2020
2617 Clouds 5 1019 100 10000 5.1 200 08:40 20.02.2020
2618 Rain 5 1019 100 10000 6.7 210 08:22 20.02.2020
2619 Mist 5 1019 100 6000 6.2 200 07:46 20.02.2020
2620 Clouds 5 1019 100 10000 6.2 200 07:26 20.02.2020
2621 Mist 5 1019 100 4400 5.1 190 06:56 20.02.2020
2622 Mist 5 1019 100 6000 6.7 200 06:31 20.02.2020
2623 Rain 5 1019 100 8000 6.7 200 05:47 20.02.2020
2624 Clouds 5 1019 100 10000 7.2 200 05:19 20.02.2020
2625 Clouds 5 1020 100 10000 6.7 200 04:29 20.02.2020
2626 Clouds 4 1020 100 10000 6.7 200 03:40 20.02.2020
2627 Clouds 4 1020 100 10000 5.1 200 02:45 20.02.2020
2628 Clouds 4 1021 93 10000 3.6 210 01:23 20.02.2020
2629 Clouds 4 1021 93 10000 6.2 250 00:37 20.02.2020
2630 Rain 4 1022 93 10000 4.1 210 23:55 19.02.2020
2631 Rain 4 1022 93 10000 5.1 210 23:24 19.02.2020
2632 Rain 4 1022 93 10000 4.6 200 22:59 19.02.2020
2633 Rain 4 1022 93 10000 4.6 200 22:41 19.02.2020
2634 Rain 4 1022 93 10000 4.6 210 22:22 19.02.2020
2635 Rain 4 1022 86 10000 5.7 220 21:57 19.02.2020
2636 Clouds 4 1023 86 10000 4.6 210 21:39 19.02.2020
2637 Clouds 4 1023 85 10000 6.7 220 21:19 19.02.2020
2638 Clouds 4 1023 85 10000 6.7 220 21:19 19.02.2020
2639 Clouds 4 1023 69 10000 3.6 210 20:56 19.02.2020
2640 Clouds 4 1023 69 10000 5.1 210 20:37 19.02.2020
2641 Clouds 4 1023 69 10000 5.1 210 20:18 19.02.2020
2642 Clouds 4 1023 74 10000 4.1 200 19:56 19.02.2020
2643 Clouds 4 1022 74 10000 3.6 250 19:37 19.02.2020
2644 Clouds 4 1023 74 10000 3.1 210 19:19 19.02.2020
2645 Clouds 4 1023 69 10000 3.6 210 18:57 19.02.2020
2646 Clouds 4 1023 69 10000 4.1 240 18:39 19.02.2020
2647 Clouds 4 1022 64 10000 3.1 220 18:20 19.02.2020
2648 Clouds 5 1023 60 10000 5.7 260 17:44 19.02.2020
2649 Clouds 5 1022 60 10000 5.1 230 17:20 19.02.2020
2650 Clouds 6 1022 56 10000 4.6 240 16:57 19.02.2020
2651 Clouds 6 1021 64 10000 6.2 280 16:38 19.02.2020
2652 Clouds 6 1022 56 10000 5.1 240 16:18 19.02.2020
2653 Clouds 6 1023 60 10000 6.2 270 15:43 19.02.2020
2654 Clouds 6 1022 56 10000 5.7 250 15:25 19.02.2020
2655 Clouds 6 1022 56 10000 5.1 250 14:58 19.02.2020
2656 Clouds 6 1022 56 10000 5.1 250 14:40 19.02.2020
2657 Clouds 6 1021 56 10000 6.2 250 14:21 19.02.2020
2658 Clouds 6 1021 60 10000 6.7 240 13:42 19.02.2020
2659 Clouds 5 1021 65 10000 7.7 240 13:22 19.02.2020
2660 Clouds 5 1021 65 10000 7.7 240 12:57 19.02.2020
2661 Clouds 5 1020 74 10000 6.2 280 12:37 19.02.2020
2662 Clouds 5 1021 72 10000 8.2 240 12:18 19.02.2020
2663 Clouds 5 1021 72 10000 7.7 270 11:39 19.02.2020
2664 Clouds 4 1020 79 10000 5.1 250 11:20 19.02.2020
2665 Clouds 4 1021 80 10000 7.2 280 10:58 19.02.2020
2666 Clouds 4 1019 93 10000 5.7 270 10:38 19.02.2020
2667 Clouds 4 1019 86 10000 3.6 250 10:20 19.02.2020
2668 Clouds 4 1019 86 10000 4.1 260 09:59 19.02.2020
2669 Rain 3 1020 86 10000 6.7 290 09:39 19.02.2020
2670 Rain 3 1019 79 10000 6.2 270 09:19 19.02.2020
2671 Rain 3 1018 93 10000 4.1 280 08:47 19.02.2020
2672 Rain 3 1018 93 10000 5.1 260 08:24 19.02.2020
2673 Rain 3 1017 93 10000 4.1 240 07:54 19.02.2020
2674 Snow 3 1015 87 1500 6.2 270 07:36 19.02.2020
2675 Rain 3 1016 93 10000 4.6 240 07:18 19.02.2020
2676 Rain 3 1016 93 10000 5.1 230 06:36 19.02.2020
2677 Clouds 4 1015 86 10000 6.2 220 04:59 19.02.2020
2678 Rain 4 1015 93 10000 8.7 210 03:52 19.02.2020
2679 Rain 5 1015 93 1700 9.3 220 02:35 19.02.2020
2680 Clouds 5 1017 80 10000 6.2 230 01:38 19.02.2020
2681 Clouds 5 1018 86 10000 7.7 200 01:20 19.02.2020
2682 Clouds 5 1020 86 10000 5.1 200 00:39 19.02.2020
2683 Rain 5 1019 86 10000 8.2 210 00:19 19.02.2020
2684 Clouds 5 1021 86 10000 6.2 220 23:39 18.02.2020
2685 Clouds 5 1020 80 10000 7.7 200 23:19 18.02.2020
2686 Clouds 5 1020 80 10000 7.7 200 23:19 18.02.2020
2687 Clouds 5 1021 86 10000 7.2 210 22:55 18.02.2020
2688 Drizzle 5 1021 86 10000 6.2 210 22:36 18.02.2020
2689 Drizzle 5 1021 86 10000 6.2 210 22:18 18.02.2020
2690 Clouds 5 1021 86 10000 7.7 210 21:54 18.02.2020
2691 Clouds 5 1021 86 10000 6.7 190 21:36 18.02.2020
2692 Clouds 5 1021 86 10000 6.7 190 21:36 18.02.2020
2693 Clouds 5 1021 86 10000 6.7 190 21:18 18.02.2020
2694 Clouds 5 1022 80 10000 4.6 200 20:40 18.02.2020
2695 Clouds 5 1022 86 10000 4.1 210 20:22 18.02.2020
2696 Clouds 5 1022 80 10000 4.1 220 19:59 18.02.2020
2697 Clouds 5 1022 80 10000 4.1 220 19:41 18.02.2020
2698 Rain 5 1023 80 10000 4.6 220 19:19 18.02.2020
2699 Clouds 5 1023 80 10000 5.7 210 18:55 18.02.2020
2700 Clouds 5 1023 86 10000 3.6 220 18:37 18.02.2020
2701 Clouds 6 1023 86 10000 3.6 220 18:18 18.02.2020
2702 Clouds 6 1024 86 10000 5.7 230 17:40 18.02.2020
2703 Clouds 6 1023 86 10000 5.1 220 17:19 18.02.2020
2704 Clouds 6 1023 93 10000 5.7 220 16:40 18.02.2020
2705 Clouds 6 1023 70 10000 6.7 220 16:22 18.02.2020
2706 Clouds 6 1023 70 10000 6.7 220 16:22 18.02.2020
2707 Clouds 6 1023 70 10000 6.7 220 15:56 18.02.2020
2708 Clouds 6 1023 80 10000 6.7 210 15:37 18.02.2020
2709 Clouds 6 1023 80 10000 6.7 210 15:18 18.02.2020
2710 Clouds 6 1024 70 10000 8.2 220 14:55 18.02.2020
2711 Clouds 6 1024 70 10000 5.7 220 14:37 18.02.2020
2712 Clouds 6 1024 70 10000 5.7 220 14:19 18.02.2020
2713 Clouds 6 1025 75 10000 7.2 230 13:41 18.02.2020
2714 Clouds 6 1025 75 10000 7.2 230 13:41 18.02.2020
2715 Clouds 6 1025 75 10000 6.7 220 13:21 18.02.2020
2716 Clouds 5 1025 75 10000 8.2 220 12:54 18.02.2020
2717 Rain 5 1023 86 10000 6.7 240 12:36 18.02.2020
2718 Clouds 5 1025 75 10000 5.7 220 12:18 18.02.2020
2719 Clouds 5 1026 80 10000 5.7 230 11:42 18.02.2020
2720 Clouds 5 1025 86 10000 5.7 230 11:23 18.02.2020
2721 Clouds 4 1026 86 10000 6.2 230 10:55 18.02.2020
2722 Clouds 4 1025 80 10000 7.2 220 10:36 18.02.2020
2723 Clouds 4 1025 80 10000 7.2 220 10:18 18.02.2020
2724 Clouds 4 1026 93 10000 7.2 230 09:55 18.02.2020
2725 Clouds 4 1025 80 10000 5.1 220 09:36 18.02.2020
2726 Clouds 4 1025 80 10000 5.1 220 09:18 18.02.2020
2727 Clouds 4 1024 80 10000 6.2 220 08:41 18.02.2020
2728 Clouds 4 1024 80 10000 8.2 210 08:20 18.02.2020
2729 Clouds 4 1023 80 10000 7.2 210 07:55 18.02.2020
2730 Clouds 4 1023 80 10000 5.1 220 07:30 18.02.2020
2731 Clouds 4 1023 80 10000 8.2 220 06:56 18.02.2020
2732 Rain 4 1022 86 10000 6.7 240 06:36 18.02.2020
2733 Clouds 4 1022 86 10000 6.2 220 05:56 18.02.2020
2734 Clouds 4 1022 86 10000 7.2 220 05:27 18.02.2020
2735 Clouds 4 1022 86 10000 4.6 220 03:59 18.02.2020
2736 Clouds 5 1022 80 10000 7.7 220 02:59 18.02.2020
2737 Clouds 5 1021 80 10000 6.2 220 01:58 18.02.2020
2738 Rain 5 1020 86 10000 7.2 230 00:54 18.02.2020
2739 Clouds 6 1020 81 10000 6.7 230 00:22 18.02.2020
2740 Clouds 6 1020 75 10000 8.7 250 23:55 17.02.2020
2741 Rain 6 1018 86 10000 8.7 260 23:37 17.02.2020
2742 Clouds 6 1019 75 10000 6.7 240 23:18 17.02.2020
2743 Clouds 6 1019 75 10000 8.2 240 22:41 17.02.2020
2744 Clouds 6 1019 87 10000 7.7 220 22:21 17.02.2020
2745 Clouds 6 1019 81 10000 8.2 240 21:58 17.02.2020
2746 Clouds 6 1017 81 10000 8.2 240 21:38 17.02.2020
2747 Clouds 6 1017 87 10000 7.2 220 21:18 17.02.2020
2748 Clouds 6 1018 81 10000 7.2 230 20:41 17.02.2020
2749 Clouds 6 1017 93 10000 3.1 230 20:21 17.02.2020
2750 -273 0 0 0 0 0 20:21 17.02.2020
2751 Clouds 6 1017 93 10000 3.1 220 19:58 17.02.2020
2752 Clouds 6 1017 93 10000 3.6 230 19:38 17.02.2020
2753 Clouds 6 1017 93 10000 3.6 230 19:20 17.02.2020
2754 Rain 5 1016 100 10000 5.1 260 18:38 17.02.2020
2755 Rain 5 1016 100 10000 5.1 260 18:38 17.02.2020
2756 Rain 6 1016 86 10000 4.1 230 18:20 17.02.2020
2757 Clouds 6 1016 86 10000 4.6 220 17:58 17.02.2020
2758 Rain 6 1015 93 5000 6.7 250 17:38 17.02.2020
2759 Rain 6 1015 93 5000 6.7 250 17:38 17.02.2020
2760 Thunderstorm 7 1016 86 8000 7.2 260 17:19 17.02.2020
2761 Rain 7 1015 75 10000 7.2 210 16:56 17.02.2020
2762 Clouds 8 1015 75 10000 7.7 240 16:38 17.02.2020
2763 Clouds 8 1015 66 10000 8.2 220 16:20 17.02.2020
2764 Clouds 8 1015 66 10000 8.7 210 15:45 17.02.2020
2765 Clouds 8 1015 75 10000 6.7 220 15:26 17.02.2020
2766 Clouds 8 1016 75 10000 9.3 250 14:56 17.02.2020
2767 Clouds 8 1015 87 10000 7.2 250 14:37 17.02.2020
2768 Clouds 8 1015 75 10000 6.2 210 14:19 17.02.2020
2769 Clouds 8 1016 87 10000 6.7 230 13:41 17.02.2020
2770 Clouds 8 1016 81 10000 5.1 200 13:20 17.02.2020
2771 Clouds 7 1016 81 10000 5.7 210 12:59 17.02.2020
2772 Clouds 7 1016 81 10000 5.7 210 12:40 17.02.2020
2773 Rain 7 1016 81 10000 5.7 210 12:22 17.02.2020
2774 Clouds 7 1016 81 10000 5.7 220 11:47 17.02.2020
2775 Clouds 7 1016 81 10000 5.7 220 11:27 17.02.2020
2776 Rain 6 1016 87 10000 6.2 220 10:58 17.02.2020
2777 Rain 6 1016 81 10000 4.1 230 10:39 17.02.2020
2778 Clouds 6 1015 93 10000 4.1 210 10:20 17.02.2020
2779 Clouds 6 1015 93 10000 4.1 200 09:58 17.02.2020
2780 Clouds 6 1015 86 10000 4.6 240 09:39 17.02.2020
2781 Clouds 6 1015 93 10000 4.6 180 09:19 17.02.2020
2782 Clouds 6 1015 93 10000 4.6 200 08:56 17.02.2020
2783 Clouds 6 1016 93 10000 5.1 200 08:38 17.02.2020
2784 Clouds 6 1016 93 10000 5.1 200 08:19 17.02.2020
2785 Clouds 6 1015 93 10000 4.1 210 07:40 17.02.2020
2786 Clouds 6 1015 93 10000 4.1 190 07:22 17.02.2020
2787 Clouds 6 1016 93 10000 4.1 200 06:49 17.02.2020
2788 Clouds 6 1015 93 10000 4.1 200 06:30 17.02.2020
2789 Clouds 6 1015 93 10000 4.6 220 05:40 17.02.2020
2790 Rain 6 1015 93 10000 4.6 230 04:58 17.02.2020
2791 Clouds 6 1014 87 10000 5.1 220 03:20 17.02.2020
2792 Rain 6 1011 93 5000 5.7 250 01:36 17.02.2020
2793 Rain 7 1012 93 10000 7.2 230 00:41 17.02.2020
2794 Clear 8 1011 87 10000 4.6 230 00:19 17.02.2020
2795 Rain 8 1011 93 10000 6.2 240 23:53 16.02.2020
2796 Rain 10 1010 87 9000 8.2 260 23:29 16.02.2020
2797 Clouds 11 1008 76 10000 10.3 220 22:57 16.02.2020
2798 Clouds 11 1007 62 10000 12.3 230 22:39 16.02.2020
2799 Clouds 13 1007 62 10000 14.4 200 22:20 16.02.2020
2800 Clouds 13 1008 62 10000 10.3 210 21:57 16.02.2020
2801 Clouds 13 1008 62 10000 10.3 210 21:39 16.02.2020
2802 Clouds 13 1007 62 10000 11.3 190 21:20 16.02.2020
2803 Clouds 14 1007 62 10000 9.8 190 20:57 16.02.2020
2804 Clouds 13 1007 62 10000 11.8 220 20:38 16.02.2020
2805 Clouds 13 1007 62 10000 10.3 190 20:20 16.02.2020
2806 Clouds 14 1008 58 10000 7.2 200 19:57 16.02.2020
2807 Clouds 14 1007 62 10000 9.3 230 19:37 16.02.2020
2808 Clouds 14 1007 62 10000 10.3 200 19:18 16.02.2020
2809 Clouds 14 1007 62 10000 10.3 200 19:18 16.02.2020
2810 Clouds 14 1008 58 10000 7.2 190 18:42 16.02.2020
2811 Clear 14 1007 58 10000 9.3 190 18:23 16.02.2020
2812 Clouds 14 1008 54 10000 8.7 190 17:55 16.02.2020
2813 Clouds 14 1005 47 10000 13.4 230 17:36 16.02.2020
2814 Clear 14 1007 54 10000 13.4 210 17:18 16.02.2020
2815 Clear 14 1007 54 10000 13.4 210 17:18 16.02.2020
2816 Clouds 14 1008 51 10000 10.8 210 16:54 16.02.2020
2817 Clouds 15 1006 50 10000 11.8 230 16:36 16.02.2020
2818 Clear 15 1007 51 10000 14.9 210 16:18 16.02.2020
2819 Clouds 15 1009 51 10000 11.8 220 15:41 16.02.2020
2820 Clouds 15 1007 54 10000 13.9 210 15:21 16.02.2020
2821 Clouds 14 1009 54 10000 10.8 220 14:44 16.02.2020
2822 Clouds 15 1008 54 10000 11.8 210 14:24 16.02.2020
2823 Clouds 15 1010 54 10000 9.3 220 13:59 16.02.2020
2824 Clouds 14 1010 54 10000 9.3 220 13:41 16.02.2020
2825 Clear 14 1009 58 10000 13.4 210 13:22 16.02.2020
2826 Clouds 14 1011 58 10000 7.2 210 12:39 16.02.2020
2827 Clear 13 1010 62 10000 11.3 200 12:20 16.02.2020
2828 Clouds 13 1012 71 10000 6.2 200 11:54 16.02.2020
2829 Clouds 12 1009 62 10000 10.8 220 11:36 16.02.2020
2830 Clouds 11 1011 71 10000 9.3 200 11:18 16.02.2020
2831 Rain 10 1012 81 10000 5.1 170 10:55 16.02.2020
2832 Rain 10 1012 81 10000 5.1 170 10:55 16.02.2020
2833 Rain 10 1009 81 10000 10.8 220 10:37 16.02.2020
2834 Clouds 9 1011 76 10000 10.3 200 10:18 16.02.2020
2835 Rain 9 1013 87 10000 5.7 180 09:39 16.02.2020
2836 Clear 9 1012 87 10000 11.8 200 09:21 16.02.2020
2837 Clouds 9 1012 93 10000 10.3 210 08:58 16.02.2020
2838 Clouds 9 1012 93 10000 10.3 210 08:40 16.02.2020
2839 Clouds 9 1012 93 10000 10.3 210 08:19 16.02.2020
2840 Clouds 9 1012 93 10000 10.3 210 08:19 16.02.2020
2841 Rain 9 1012 87 10000 9.3 200 07:44 16.02.2020
2842 Rain 9 1012 76 10000 10.8 200 07:25 16.02.2020
2843 Clouds 9 1013 66 10000 9.3 200 06:32 16.02.2020
2844 Clouds 10 1013 70 10000 8.2 220 04:38 16.02.2020
2845 Clear 10 1014 66 10000 7.7 210 03:24 16.02.2020
2846 Clouds 10 1014 66 10000 9.8 200 02:31 16.02.2020
2847 Clouds 9 1016 66 10000 6.7 220 01:42 16.02.2020
2848 Clouds 9 1015 70 10000 7.2 200 01:21 16.02.2020
2849 Clouds 9 1015 70 10000 6.7 200 00:52 16.02.2020
2850 Clouds 9 1015 75 10000 6.7 200 00:31 16.02.2020
2851 Clouds 9 1017 70 10000 6.2 220 23:46 15.02.2020
2852 Clouds 9 1016 75 10000 5.7 210 23:26 15.02.2020
2853 Clouds 8 1016 75 10000 5.1 200 22:59 15.02.2020
2854 Clouds 8 1016 75 10000 5.1 200 22:41 15.02.2020
2855 Clouds 8 1017 75 10000 5.7 220 22:21 15.02.2020
2856 Clouds 8 1017 75 10000 4.1 180 21:59 15.02.2020
2857 Clouds 8 1017 75 10000 4.1 180 21:40 15.02.2020
2858 Clouds 8 1017 70 10000 6.7 200 21:21 15.02.2020
2859 Clouds 8 1018 81 10000 4.6 190 20:40 15.02.2020
2860 Clouds 8 1017 70 10000 5.7 190 20:21 15.02.2020
2861 Clouds 8 1017 81 10000 5.1 180 19:44 15.02.2020
2862 Clear 8 1017 75 10000 2.6 200 19:24 15.02.2020
2863 Clouds 8 1017 75 10000 5.1 180 18:55 15.02.2020
2864 Clouds 8 1016 81 10000 4.6 200 18:37 15.02.2020
2865 Clear 8 1017 75 10000 4.6 190 18:18 15.02.2020
2866 Clouds 8 1017 76 10000 5.1 170 17:43 15.02.2020
2867 Clear 9 1018 70 10000 3.6 170 17:22 15.02.2020
2868 Clouds 10 1019 66 10000 5.1 180 16:59 15.02.2020
2869 Clouds 10 1019 66 10000 5.1 180 16:39 15.02.2020
2870 Clear 10 1018 66 10000 5.7 210 16:20 15.02.2020
2871 Clouds 10 1019 62 10000 5.7 190 15:49 15.02.2020
2872 Clouds 10 1019 71 10000 4.6 180 15:30 15.02.2020
2873 Clouds 10 1019 71 10000 7.7 210 14:55 15.02.2020
2874 Clouds 10 1019 70 10000 6.7 220 14:37 15.02.2020
2875 Clouds 10 1020 70 10000 6.2 180 14:18 15.02.2020
2876 -273 0 0 0 0 0 13:41 15.02.2020
2877 Clouds 10 1020 70 10000 7.2 200 13:22 15.02.2020
2878 Clouds 9 1021 75 10000 5.7 200 12:56 15.02.2020
2879 Clouds 9 1021 81 10000 5.7 230 12:38 15.02.2020
2880 Clouds 9 1021 81 10000 5.7 200 12:19 15.02.2020
2881 Clouds 7 1022 87 10000 3.6 170 11:45 15.02.2020
2882 Clouds 7 1021 81 10000 6.7 190 11:26 15.02.2020
2883 Clouds 6 1022 86 10000 3.6 170 10:47 15.02.2020
2884 Clouds 6 1022 86 10000 2.6 230 10:29 15.02.2020
2885 Clouds 5 1023 93 10000 3.1 210 09:56 15.02.2020
2886 Clouds 5 1021 86 10000 4.6 230 09:37 15.02.2020
2887 Clouds 4 1022 86 10000 3.1 220 09:19 15.02.2020
2888 Clouds 4 1022 93 10000 3.1 180 08:43 15.02.2020
2889 Clouds 3 1022 86 10000 3.1 200 08:23 15.02.2020
2890 Clouds 3 1022 93 10000 2.6 190 07:50 15.02.2020
2891 Clouds 3 1022 93 10000 3.6 200 07:30 15.02.2020
2892 Clouds 3 1023 93 10000 3.1 190 06:51 15.02.2020
2893 Clouds 3 1023 93 10000 2.1 260 06:31 15.02.2020
2894 Clouds 3 1023 93 10000 2.6 200 05:41 15.02.2020
2895 Clouds 3 1023 93 10000 1.5 210 04:45 15.02.2020
2896 Clouds 4 1023 93 10000 3.1 200 03:39 15.02.2020
2897 Clouds 4 1023 86 10000 2.1 210 02:50 15.02.2020
2898 Clouds 4 1023 86 10000 3.1 180 02:22 15.02.2020
2899 Clouds 5 1023 86 10000 3.6 180 01:40 15.02.2020
2900 Clouds 5 1024 87 10000 4.1 190 00:42 15.02.2020
2901 Clouds 5 1024 81 10000 5.1 200 00:21 15.02.2020
2902 Clouds 5 1024 81 10000 4.6 220 23:40 14.02.2020
2903 Clouds 5 1024 86 10000 3.6 220 23:20 14.02.2020
2904 Clouds 5 1025 86 10000 3.1 210 22:44 14.02.2020
2905 Clouds 5 1025 81 10000 4.1 220 22:24 14.02.2020
2906 Clouds 6 1025 81 10000 3.6 210 21:54 14.02.2020
2907 Clouds 5 1024 81 10000 3.1 220 21:36 14.02.2020
2908 Clouds 5 1024 81 10000 3.1 220 21:36 14.02.2020
2909 Clouds 6 1024 81 10000 3.1 220 21:18 14.02.2020
2910 Clouds 6 1025 75 10000 3.6 220 20:42 14.02.2020
2911 Clouds 6 1024 81 10000 2.1 220 20:19 14.02.2020
2912 Clouds 6 1024 81 10000 2.1 230 19:56 14.02.2020
2913 Clouds 6 1024 86 10000 2.6 230 19:38 14.02.2020
2914 Clouds 6 1024 81 10000 1.5 220 19:18 14.02.2020
2915 Clouds 6 1023 81 10000 2.1 220 18:55 14.02.2020
2916 Clouds 6 1023 80 10000 3.6 260 18:37 14.02.2020
2917 Clouds 7 1023 81 10000 2.6 200 18:18 14.02.2020
2918 Clouds 7 1023 75 10000 2.6 220 17:41 14.02.2020
2919 Clouds 7 1023 70 10000 3.1 230 17:19 14.02.2020
2920 Clouds 7 1023 70 10000 6.2 260 16:57 14.02.2020
2921 Clouds 7 1022 80 10000 4.1 270 16:38 14.02.2020
2922 Clouds 7 1022 75 10000 3.1 240 16:19 14.02.2020
2923 Clouds 7 1022 66 10000 6.2 250 15:54 14.02.2020
2924 Clouds 7 1021 75 10000 4.1 260 15:36 14.02.2020
2925 Clouds 7 1022 70 10000 4.6 240 15:18 14.02.2020
2926 Clouds 7 1022 70 10000 7.2 260 14:42 14.02.2020
2927 Clouds 7 1022 75 10000 5.1 240 14:22 14.02.2020
2928 Clouds 7 1022 81 10000 5.7 240 13:59 14.02.2020
2929 Clouds 7 1022 75 10000 4.6 260 13:39 14.02.2020
2930 Clouds 7 1022 81 10000 6.2 240 13:20 14.02.2020
2931 Clouds 7 1022 81 10000 6.2 240 13:20 14.02.2020
2932 Clouds 7 1022 81 10000 6.2 240 13:20 14.02.2020
2933 Clouds 7 1022 70 10000 6.2 270 12:57 14.02.2020
2934 Clouds 6 1022 70 10000 6.2 270 12:39 14.02.2020
2935 Clouds 6 1021 70 10000 5.1 250 12:20 14.02.2020
2936 Clouds 6 1021 70 10000 5.1 250 12:20 14.02.2020
2937 Clouds 6 1021 80 10000 4.1 250 11:58 14.02.2020
2938 Clouds 6 1021 80 10000 4.1 250 11:40 14.02.2020
2939 Clouds 6 1021 80 10000 3.6 240 11:20 14.02.2020
2940 Clouds 5 1020 87 10000 4.1 260 10:55 14.02.2020
2941 Clouds 5 1020 86 10000 4.1 240 10:36 14.02.2020
2942 Clouds 5 1020 86 10000 4.1 240 10:18 14.02.2020
2943 Drizzle 5 1019 93 10000 6.2 270 09:39 14.02.2020
2944 Clouds 5 1019 93 10000 5.1 260 09:19 14.02.2020
2945 Clouds 5 1018 93 10000 6.2 260 08:43 14.02.2020
2946 Clouds 5 1017 93 10000 5.7 270 08:25 14.02.2020
2947 Clouds 5 1016 86 10000 5.1 250 07:56 14.02.2020
2948 Rain 5 1015 100 10000 4.6 290 07:38 14.02.2020
2949 Clouds 5 1016 93 10000 6.7 270 07:18 14.02.2020
2950 Clouds 5 1015 86 10000 5.7 260 06:29 14.02.2020
2951 Clouds 5 1014 87 10000 6.2 250 05:47 14.02.2020
2952 Clouds 5 1013 86 10000 5.7 270 04:46 14.02.2020
2953 Clouds 5 1011 86 10000 3.6 250 03:29 14.02.2020
2954 Rain 5 1010 86 10000 4.1 230 02:30 14.02.2020
2955 Clouds 5 1008 86 10000 5.7 240 01:27 14.02.2020
2956 Rain 5 1008 86 10000 7.2 270 00:43 14.02.2020
2957 Rain 5 1008 86 10000 7.2 270 00:43 14.02.2020
2958 Rain 5 1008 86 10000 7.2 270 00:43 14.02.2020
2959 Clouds 5 1006 86 10000 4.6 240 00:23 14.02.2020
2960 Rain 5 1005 86 10000 8.2 270 23:46 13.02.2020
2961 Rain 5 1004 93 10000 7.2 250 23:22 13.02.2020
2962 Rain 5 1004 81 10000 10.3 270 22:56 13.02.2020
2963 Rain 5 1001 93 7000 5.7 250 22:37 13.02.2020
2964 Rain 5 1001 93 10000 8.2 240 22:18 13.02.2020
2965 Clouds 5 1002 81 10000 10.8 250 21:41 13.02.2020
2966 Rain 6 1000 93 10000 7.7 230 21:23 13.02.2020
2967 Rain 5 999 93 10000 7.7 210 20:58 13.02.2020
2968 Rain 5 1000 87 10000 11.3 250 20:39 13.02.2020
2969 Rain 5 1000 87 10000 11.3 250 20:39 13.02.2020
2970 Rain 6 999 93 10000 7.7 190 20:21 13.02.2020
2971 Rain 6 999 93 10000 5.1 170 19:56 13.02.2020
2972 Rain 5 999 86 10000 7.7 220 19:37 13.02.2020
2973 Rain 5 999 86 10000 7.7 220 19:37 13.02.2020
2974 Rain 5 999 86 10000 3.6 180 19:19 13.02.2020
2975 Clouds 5 999 86 10000 3.6 170 18:45 13.02.2020
2976 Rain 5 999 86 10000 3.6 190 18:25 13.02.2020
2977 Rain 5 999 86 10000 4.6 180 17:59 13.02.2020
2978 Rain 5 999 86 10000 4.6 180 17:40 13.02.2020
2979 Rain 5 999 86 10000 5.7 190 17:22 13.02.2020
2980 Clouds 6 1000 87 10000 5.7 190 16:59 13.02.2020
2981 Clouds 6 999 93 7000 5.1 230 16:40 13.02.2020
2982 Clouds 6 1000 87 10000 4.1 190 16:20 13.02.2020
2983 Clouds 6 1000 81 10000 4.6 210 15:56 13.02.2020
2984 Clouds 6 1000 86 10000 6.2 220 15:38 13.02.2020
2985 Clouds 6 1000 100 10000 5.7 190 15:19 13.02.2020
2986 Clouds 5 1000 93 10000 6.2 180 14:58 13.02.2020
2987 Clouds 5 1000 93 10000 6.2 180 14:58 13.02.2020
2988 Rain 5 1000 93 10000 4.1 180 14:39 13.02.2020
2989 Rain 5 1000 93 10000 4.1 180 14:39 13.02.2020
2990 Clouds 5 1002 93 10000 7.2 200 14:21 13.02.2020
2991 Rain 4 1002 93 10000 5.7 220 13:48 13.02.2020
2992 Rain 3 1002 86 10000 6.7 200 13:19 13.02.2020
2993 Clouds 3 1002 86 10000 6.2 180 12:56 13.02.2020
2994 Clouds 3 1002 86 10000 6.2 180 12:56 13.02.2020
2995 Snow 3 1002 87 3500 7.2 190 12:38 13.02.2020
2996 Snow 3 1002 87 3500 7.2 190 12:38 13.02.2020
2997 Rain 3 1003 87 10000 6.2 160 12:19 13.02.2020
2998 Clouds 3 1004 87 10000 7.7 170 11:47 13.02.2020
2999 Rain 3 1004 69 10000 7.2 170 11:21 13.02.2020
3000 Clouds 3 1006 74 10000 6.2 170 10:57 13.02.2020
3001 Rain 3 1006 81 10000 5.7 140 10:39 13.02.2020
3002 Clouds 3 1007 74 10000 4.6 160 10:20 13.02.2020
3003 Clouds 2 1007 81 10000 2.6 150 09:42 13.02.2020
3004 Clouds 2 1008 81 10000 3.6 140 09:23 13.02.2020
3005 Rain 2 1009 81 10000 4.1 170 08:45 13.02.2020
3006 Clear 2 1010 94 10000 4.1 150 08:19 13.02.2020
3007 Clear 2 1010 93 10000 4.1 150 08:19 13.02.2020
3008 Clear 2 1010 94 10000 4.1 150 08:19 13.02.2020
3009 Clouds 1 1011 93 10000 5.1 170 07:43 13.02.2020
3010 Clear 1 1012 93 10000 2.1 160 07:23 13.02.2020
3011 Clouds 1 1012 93 10000 2.6 160 06:53 13.02.2020
3012 Mist 1 1012 93 4500 4.6 210 06:33 13.02.2020
3013 Clouds 1 1014 93 10000 4.1 160 05:52 13.02.2020
3014 Clouds 0 1015 95 10000 2.6 210 04:48 13.02.2020
3015 Clouds 0 1015 95 10000 2.1 240 04:23 13.02.2020
3016 Clouds 0 1016 95 6000 3.1 170 03:41 13.02.2020
3017 Clouds 0 1017 95 8000 2.6 180 02:59 13.02.2020
3018 Clear 0 1017 94 10000 2.6 230 02:20 13.02.2020
3019 Clouds 0 1017 94 8000 2.6 170 01:54 13.02.2020
3020 Clear 0 1018 95 10000 4.1 210 01:25 13.02.2020
3021 Clouds 1 1017 95 10000 4.6 240 00:32 13.02.2020
3022 Clouds 1 1018 95 10000 2.6 220 23:57 12.02.2020
3023 Clouds 0 1017 95 10000 5.7 240 23:37 12.02.2020
3024 Clouds 1 1018 94 10000 3.6 220 23:18 12.02.2020
3025 Clouds 1 1019 94 10000 3.1 220 22:43 12.02.2020
3026 Clouds 1 1019 94 10000 3.1 220 22:43 12.02.2020
3027 Clouds 1 1018 94 10000 4.1 220 22:24 12.02.2020
3028 Clouds 1 1017 94 6000 5.7 240 21:56 12.02.2020
3029 Clouds 1 1017 94 6000 5.7 240 21:37 12.02.2020
3030 Clouds 1 1017 94 6000 5.7 240 21:37 12.02.2020
3031 Clouds 1 1017 94 6000 5.7 240 21:37 12.02.2020
3032 Clouds 1 1018 94 10000 4.6 210 21:18 12.02.2020
3033 Clouds 1 1019 94 10000 2.6 210 20:55 12.02.2020
3034 Clouds 1 1017 94 10000 4.1 240 20:36 12.02.2020
3035 Clear 1 1018 89 10000 3.1 200 20:18 12.02.2020
3036 Rain 1 1019 100 10000 3.6 220 19:43 12.02.2020
3037 Clear 2 1018 89 10000 4.6 220 19:22 12.02.2020
3038 Clouds 1 1017 89 10000 4.1 230 18:54 12.02.2020
3039 Clouds 2 1016 89 10000 3.6 250 18:36 12.02.2020
3040 Clouds 2 1017 86 10000 6.2 230 18:18 12.02.2020
3041 Clouds 2 1017 86 10000 5.1 230 17:41 12.02.2020
3042 Clouds 3 1017 86 10000 4.6 230 17:19 12.02.2020
3043 Rain 3 1017 86 10000 5.7 230 16:57 12.02.2020
3044 Clouds 3 1016 86 10000 5.7 240 16:37 12.02.2020
3045 Clouds 3 1016 86 10000 5.7 240 16:18 12.02.2020
3046 Clouds 3 1017 86 10000 5.1 240 15:40 12.02.2020
3047 Clouds 3 1017 93 10000 5.1 250 15:20 12.02.2020
3048 Rain 3 1017 93 10000 4.6 250 14:54 12.02.2020
3049 Rain 3 1015 82 6000 5.7 260 14:36 12.02.2020
3050 Rain 3 1016 93 10000 5.1 220 14:18 12.02.2020
3051 Rain 3 1016 86 10000 6.7 230 13:55 12.02.2020
3052 Clouds 3 1015 86 8000 7.2 260 13:37 12.02.2020
3053 Drizzle 3 1016 86 10000 8.2 220 13:18 12.02.2020
3054 Rain 3 1017 86 7000 7.7 250 12:55 12.02.2020
3055 Clouds 3 1016 86 10000 7.7 220 12:36 12.02.2020
3056 Clouds 3 1016 86 10000 7.7 220 12:18 12.02.2020
3057 Rain 3 1016 86 10000 8.7 220 11:42 12.02.2020
3058 Clouds 3 1016 86 10000 5.7 230 11:21 12.02.2020
3059 Rain 3 1016 96 10000 4.6 240 10:59 12.02.2020
3060 Rain 2 1016 96 10000 4.6 240 10:41 12.02.2020
3061 Snow 2 1016 96 10000 7.2 230 10:21 12.02.2020
3062 Rain 2 1015 96 10000 7.7 220 09:58 12.02.2020
3063 Rain 2 1015 96 10000 7.7 220 09:40 12.02.2020
3064 Clouds 2 1015 96 10000 7.7 230 09:20 12.02.2020
3065 Clouds 2 1015 96 10000 5.7 230 08:57 12.02.2020
3066 Clouds 2 1015 96 10000 6.7 230 08:37 12.02.2020
3067 Clouds 2 1015 87 10000 6.7 230 08:19 12.02.2020
3068 Snow 2 1015 87 10000 8.7 250 07:43 12.02.2020
3069 Clouds 2 1014 80 10000 8.7 230 07:23 12.02.2020
3070 Rain 2 1014 80 10000 9.3 230 06:53 12.02.2020
3071 Clouds 2 1014 80 10000 8.7 230 06:21 12.02.2020
3072 Clouds 2 1012 80 10000 7.7 250 05:37 12.02.2020
3073 Clouds 2 1015 80 10000 7.7 250 04:57 12.02.2020
3074 Clouds 2 1012 86 10000 9.3 250 04:39 12.02.2020
3075 Clouds 2 1012 74 10000 7.7 250 03:33 12.02.2020
3076 Clouds 2 1015 86 10000 7.7 250 02:58 12.02.2020
3077 Clouds 2 1014 80 10000 6.7 230 02:29 12.02.2020
3078 Clouds 2 1014 80 10000 7.7 230 01:51 12.02.2020
3079 Clouds 3 1014 74 10000 9.3 240 00:46 12.02.2020
3080 Clouds 3 1014 80 10000 6.7 230 00:26 12.02.2020
3081 Clouds 3 1013 80 10000 7.2 230 23:57 11.02.2020
3082 Clouds 3 1013 80 10000 7.2 230 23:57 11.02.2020
3083 Clouds 3 1013 80 10000 7.2 230 23:39 11.02.2020
3084 Clouds 3 1013 80 10000 7.2 230 23:20 11.02.2020
3085 Clouds 3 1014 83 10000 7.2 250 22:55 11.02.2020
3086 Snow 3 1011 69 10000 8.7 250 22:37 11.02.2020
3087 Clouds 3 1013 74 10000 7.7 230 22:19 11.02.2020
3088 Clouds 3 1013 74 10000 9.3 230 21:56 11.02.2020
3089 Snow 2 1010 64 10000 8.7 270 21:37 11.02.2020
3090 Clouds 2 1012 74 10000 7.7 240 21:18 11.02.2020
3091 Clouds 2 1012 74 10000 6.7 240 20:55 11.02.2020
3092 Snow 2 1009 64 10000 10.3 270 20:37 11.02.2020
3093 Clouds 2 1011 80 10000 8.2 240 20:18 11.02.2020
3094 Snow 2 1013 95 5000 4.6 300 19:42 11.02.2020
3095 Clouds 2 1010 80 10000 9.8 230 19:24 11.02.2020
3096 Clouds 2 1010 80 10000 7.7 230 18:57 11.02.2020
3097 Rain 2 1008 86 10000 9.8 260 18:39 11.02.2020
3098 Rain 3 1009 95 10000 11.3 230 18:20 11.02.2020
3099 Clouds 2 1009 80 10000 9.8 230 17:55 11.02.2020
3100 Clouds 2 1009 74 9000 6.2 260 17:36 11.02.2020
3101 Clouds 3 1009 74 9000 6.2 260 17:18 11.02.2020
3102 Rain 4 1008 60 10000 11.8 240 16:57 11.02.2020
3103 Rain 5 1008 74 10000 7.7 270 16:37 11.02.2020
3104 Rain 5 1008 77 10000 8.2 230 16:19 11.02.2020
3105 Clouds 5 1009 77 10000 10.3 240 15:45 11.02.2020
3106 Clouds 5 1009 86 10000 8.2 240 15:26 11.02.2020
3107 Rain 5 1008 60 10000 12.9 230 14:57 11.02.2020
3108 Rain 5 1007 60 10000 12.3 270 14:38 11.02.2020
3109 Clouds 5 1008 60 10000 11.3 240 14:18 11.02.2020
3110 Clouds 6 1008 60 10000 10.8 240 13:42 11.02.2020
3111 Rain 5 1008 60 10000 7.2 240 13:22 11.02.2020
3112 Clouds 5 1008 60 10000 10.8 240 12:59 11.02.2020
3113 Clouds 5 1008 60 10000 10.8 240 12:40 11.02.2020
3114 Rain 5 1008 65 10000 8.7 240 12:21 11.02.2020
3115 Rain 5 1008 60 10000 8.7 240 11:55 11.02.2020
3116 Clouds 5 1006 64 10000 9.3 250 11:36 11.02.2020
3117 Clouds 5 1006 64 10000 9.3 250 11:36 11.02.2020
3118 Clouds 5 1007 69 10000 8.7 230 11:18 11.02.2020
3119 Clouds 5 1009 69 10000 8.7 260 10:39 11.02.2020
3120 Clouds 4 1007 69 10000 7.2 230 10:20 11.02.2020
3121 Rain 4 1009 77 10000 9.3 250 09:57 11.02.2020
3122 Rain 4 1006 80 10000 9.8 260 09:39 11.02.2020
3123 Rain 4 1007 74 10000 9.3 230 09:20 11.02.2020
3124 Rain 4 1007 74 10000 11.8 230 08:48 11.02.2020
3125 Clouds 3 1006 77 10000 5.1 240 08:25 11.02.2020
3126 Mist 3 1006 95 8000 7.7 260 07:51 11.02.2020
3127 Rain 4 1006 95 10000 9.8 230 07:32 11.02.2020
3128 Rain 3 1006 74 10000 6.7 230 06:57 11.02.2020
3129 Clouds 4 1004 69 10000 9.8 260 06:38 11.02.2020
3130 Clouds 4 1005 64 10000 11.3 230 06:20 11.02.2020
3131 Clouds 4 1005 64 10000 11.3 230 06:20 11.02.2020
3132 Clouds 4 1005 64 10000 10.3 240 05:41 11.02.2020
3133 Clouds 4 1005 64 10000 9.8 240 05:20 11.02.2020
3134 Rain 4 1004 64 10000 9.8 240 03:32 11.02.2020
3135 Rain 4 1004 64 10000 9.8 240 03:32 11.02.2020
3136 Clouds 4 1003 69 10000 9.8 240 02:37 11.02.2020
3137 Rain 3 1004 69 10000 8.7 260 01:53 11.02.2020
3138 Rain 4 1002 69 10000 8.7 250 01:30 11.02.2020
3139 Rain 4 1000 71 10000 10.3 250 00:26 11.02.2020
3140 Clouds 5 999 75 10000 11.8 240 23:48 10.02.2020
3141 Clouds 5 999 75 10000 10.8 240 23:30 10.02.2020
3142 Clouds 5 999 70 10000 11.8 240 22:57 10.02.2020
3143 Rain 5 998 75 10000 11.8 270 22:37 10.02.2020
3144 Rain 5 999 70 10000 12.9 230 22:19 10.02.2020
3145 Clouds 5 999 86 10000 9.3 230 21:41 10.02.2020
3146 Rain 5 1000 81 10000 8.7 230 21:23 10.02.2020
3147 Clouds 6 1000 87 10000 9.3 240 20:56 10.02.2020
3148 Clouds 6 998 86 10000 10.8 240 20:38 10.02.2020
3149 Clouds 6 998 86 10000 10.8 240 20:38 10.02.2020
3150 Clouds 6 999 87 10000 9.8 230 20:20 10.02.2020
3151 Rain 5 1002 87 6000 9.8 240 19:58 10.02.2020
3152 Rain 5 1000 93 10000 7.7 220 19:37 10.02.2020
3153 Rain 5 1000 93 10000 7.7 220 19:18 10.02.2020
3154 Rain 6 1003 87 10000 7.7 220 18:58 10.02.2020
3155 Rain 6 1003 87 10000 7.7 220 18:58 10.02.2020
3156 Rain 5 1002 93 7000 5.7 230 18:39 10.02.2020
3157 Rain 5 1004 86 10000 8.2 230 18:20 10.02.2020
3158 Rain 5 1004 93 4000 4.6 230 17:56 10.02.2020
3159 Rain 5 1003 93 7000 5.7 230 17:37 10.02.2020
3160 Rain 5 1005 86 8000 5.1 230 17:19 10.02.2020
3161 Rain 5 1005 93 10000 5.1 220 16:58 10.02.2020
3162 Rain 5 1005 86 8000 7.2 240 16:38 10.02.2020
3163 Rain 5 1006 93 10000 6.2 220 16:18 10.02.2020
3164 Rain 6 1006 80 10000 8.7 230 15:42 10.02.2020
3165 Rain 6 1006 70 10000 11.3 230 15:23 10.02.2020
3166 Rain 7 1006 65 10000 13.4 230 14:59 10.02.2020
3167 Rain 6 1006 65 10000 13.4 230 14:41 10.02.2020
3168 Rain 7 1006 70 10000 10.8 230 14:20 10.02.2020
3169 Rain 7 1006 70 10000 10.8 230 14:20 10.02.2020
3170 Clouds 7 1006 75 10000 11.8 230 13:57 10.02.2020
3171 Rain 8 1008 61 10000 13.4 250 13:39 10.02.2020
3172 Clouds 8 1005 64 10000 13.4 240 13:21 10.02.2020
3173 Clouds 7 1007 65 10000 13.9 260 12:48 10.02.2020
3174 Clouds 7 1005 64 10000 9.8 250 12:26 10.02.2020
3175 Clouds 7 1004 64 10000 17.5 240 11:56 10.02.2020
3176 Rain 6 1003 65 4000 10.3 260 11:38 10.02.2020
3177 Clouds 6 1004 75 10000 7.2 260 11:19 10.02.2020
3178 Clouds 6 1003 65 10000 12.3 230 10:46 10.02.2020
3179 Clouds 6 1003 70 10000 10.3 240 10:27 10.02.2020
3180 Clouds 6 1002 65 10000 10.3 240 09:48 10.02.2020
3181 Rain 6 1001 75 10000 10.3 240 09:26 10.02.2020
3182 Drizzle 6 1000 65 10000 14.4 250 08:57 10.02.2020
3183 Rain 6 998 80 2500 11.8 260 08:37 10.02.2020
3184 Clouds 7 999 75 10000 11.8 240 08:19 10.02.2020
3185 Rain 7 998 70 10000 14.4 240 07:50 10.02.2020
3186 Clouds 7 997 75 10000 13.9 230 07:27 10.02.2020
3187 Rain 7 996 87 10000 13.4 230 06:22 10.02.2020
3188 Rain 8 995 81 10000 10.3 230 04:46 10.02.2020
3189 Rain 8 995 81 10000 11.3 240 03:45 10.02.2020
3190 Rain 9 995 87 10000 12.9 250 02:55 10.02.2020
3191 Rain 10 994 93 10000 15.4 220 01:59 10.02.2020
3192 Rain 10 994 93 8000 15.9 210 00:55 10.02.2020
3193 Rain 10 993 93 700 13.4 230 00:36 10.02.2020
3194 Rain 10 995 93 10000 17.5 200 23:58 09.02.2020
3195 Rain 10 995 93 10000 17.5 200 23:40 09.02.2020
3196 Rain 10 997 93 8000 12.9 210 23:22 09.02.2020
3197 Rain 10 998 93 10000 13.9 210 22:43 09.02.2020
3198 Rain 9 998 93 10000 15.4 200 22:22 09.02.2020
3199 Rain 10 1000 93 10000 13.4 210 21:54 09.02.2020
3200 Rain 10 998 93 550 11.8 220 21:36 09.02.2020
3201 Rain 10 1000 87 10000 12.3 200 21:18 09.02.2020
3202 Rain 10 1001 81 10000 11.3 200 20:43 09.02.2020
3203 Clouds 10 1002 81 10000 11.3 210 20:21 09.02.2020
3204 Rain 10 1001 81 10000 13.4 200 19:54 09.02.2020
3205 Clouds 10 1002 71 10000 14.9 200 19:36 09.02.2020
3206 Clouds 10 1002 71 10000 14.9 200 19:18 09.02.2020
3207 Clouds 11 1003 76 10000 12.3 200 18:41 09.02.2020
3208 Clouds 11 1004 81 10000 14.9 200 18:23 09.02.2020
3209 Clouds 10 1005 76 10000 11.3 210 17:44 09.02.2020
3210 Rain 11 1005 71 10000 13.9 210 17:23 09.02.2020
3211 Clouds 11 1008 66 10000 9.3 210 16:59 09.02.2020
3212 Clouds 11 1008 66 10000 9.3 210 16:40 09.02.2020
3213 Clouds 11 1006 66 10000 12.9 200 16:21 09.02.2020
3214 Clouds 11 1007 66 10000 11.3 200 15:57 09.02.2020
3215 Clouds 11 1009 62 10000 9.3 210 15:39 09.02.2020
3216 Clouds 11 1008 66 10000 11.8 200 15:20 09.02.2020
3217 Clouds 11 1009 66 10000 12.9 210 14:56 09.02.2020
3218 Clouds 10 1010 70 10000 9.8 220 14:37 09.02.2020
3219 Clouds 10 1011 70 10000 9.8 210 14:18 09.02.2020
3220 Clouds 10 1011 70 10000 11.3 210 13:42 09.02.2020
3221 Clouds 10 1012 70 10000 9.3 210 13:23 09.02.2020
3222 Clouds 10 1014 70 10000 9.8 220 12:54 09.02.2020
3223 Clouds 10 1014 70 10000 9.8 210 12:36 09.02.2020
3224 Clouds 9 1014 70 10000 9.8 210 12:18 09.02.2020
3225 Clouds 9 1014 75 10000 8.2 200 11:39 09.02.2020
3226 Clouds 9 1015 75 10000 10.3 200 11:19 09.02.2020
3227 Clouds 9 1015 75 10000 10.3 200 11:19 09.02.2020
3228 Clouds 8 1017 87 10000 5.7 190 10:54 09.02.2020
3229 Clouds 8 1016 75 10000 8.7 210 10:36 09.02.2020
3230 Clouds 8 1016 75 10000 8.7 210 10:18 09.02.2020
3231 Clouds 8 1017 87 10000 5.7 190 09:39 09.02.2020
3232 Clouds 7 1017 81 10000 8.2 210 09:20 09.02.2020
3233 Clouds 7 1017 81 10000 6.2 210 08:44 09.02.2020
3234 Clouds 7 1017 81 10000 6.2 200 08:25 09.02.2020
3235 Clouds 6 1018 87 10000 5.1 180 07:54 09.02.2020
3236 Clouds 6 1016 81 10000 8.2 220 07:34 09.02.2020
3237 Clouds 5 1018 87 10000 6.2 220 06:44 09.02.2020
3238 Clouds 5 1019 86 10000 3.6 220 05:56 09.02.2020
3239 Clouds 5 1018 86 10000 6.2 220 05:35 09.02.2020
3240 Clouds 5 1019 86 10000 4.1 190 04:54 09.02.2020
3241 Clear 5 1020 86 10000 3.6 190 03:51 09.02.2020
3242 Clouds 5 1020 86 10000 2.6 210 02:44 09.02.2020
3243 Clouds 5 1020 86 10000 3.68 172 02:24 09.02.2020
3244 Clouds 4 1019 86 10000 4.1 220 01:34 09.02.2020
3245 Clouds 4 1021 86 10000 1.5 190 00:41 09.02.2020
3246 Clouds 4 1021 86 10000 3.14 176 00:21 09.02.2020
3247 Clouds 4 1021 86 10000 2.6 200 23:42 08.02.2020
3248 Clouds 4 1021 86 10000 2.68 167 23:20 08.02.2020
3249 Clouds 4 1021 86 10000 2.68 167 23:20 08.02.2020
3250 Clouds 4 1022 86 10000 1.5 180 22:42 08.02.2020
3251 Clouds 4 1022 80 10000 2.68 167 22:21 08.02.2020
3252 Clouds 4 1022 86 10000 2.68 167 21:58 08.02.2020
3253 Clouds 4 1022 86 10000 2.68 167 21:40 08.02.2020
3254 Clouds 4 1022 86 10000 1.5 290 21:20 08.02.2020
3255 Clouds 4 1022 93 10000 2.6 210 20:56 08.02.2020
3256 Clouds 4 1022 93 10000 2.6 210 20:56 08.02.2020
3257 Clouds 4 1021 80 10000 3.1 210 20:38 08.02.2020
3258 Clouds 4 1022 86 10000 2.29 148 20:19 08.02.2020
3259 Clouds 4 1021 86 10000 3.1 160 19:55 08.02.2020
3260 Clouds 4 1021 80 10000 4.1 230 19:36 08.02.2020
3261 Clouds 4 1022 80 10000 2.29 148 19:18 08.02.2020
3262 Clouds 4 1022 86 10000 3.1 160 18:43 08.02.2020
3263 Clouds 4 1021 75 10000 2.29 148 18:23 08.02.2020
3264 Clouds 4 1021 80 10000 2.6 160 17:44 08.02.2020
3265 Clouds 5 1021 80 10000 2.29 148 17:22 08.02.2020
3266 Clouds 5 1021 86 10000 3.1 170 16:59 08.02.2020
3267 Clouds 5 1021 86 10000 3.1 170 16:40 08.02.2020
3268 Clouds 5 1021 75 10000 1.85 161 16:21 08.02.2020
3269 Clouds 5 1021 75 10000 1.85 161 16:21 08.02.2020
3270 Clouds 5 1021 86 10000 3.6 180 15:43 08.02.2020
3271 Clouds 5 1021 80 10000 1.85 161 15:19 08.02.2020
3272 Clouds 5 1022 80 10000 3.1 170 14:59 08.02.2020
3273 Clouds 5 1022 80 10000 3.1 170 14:41 08.02.2020
3274 Clouds 5 1022 83 10000 1.5 300 14:19 08.02.2020
3275 Clouds 4 1022 83 10000 2.6 170 13:43 08.02.2020
3276 Clouds 4 1022 74 10000 2.33 150 13:23 08.02.2020
3277 Clouds 4 1022 74 10000 2.16 145 12:57 08.02.2020
3278 Clouds 4 1022 74 10000 2.16 145 12:38 08.02.2020
3279 Clouds 4 1022 74 10000 2.16 145 12:38 08.02.2020
3280 Clouds 3 1022 74 10000 2.16 145 12:19 08.02.2020
3281 Clouds 3 1022 80 10000 3.1 160 11:43 08.02.2020
3282 Clouds 2 1022 80 10000 2.16 145 11:22 08.02.2020
3283 Clouds 2 1022 80 10000 2.1 160 10:59 08.02.2020
3284 Clouds 2 1022 80 10000 2.1 160 10:40 08.02.2020
3285 Clouds 1 1022 78 10000 2.05 132 10:20 08.02.2020
3286 Clouds 1 1022 86 9000 2.6 160 09:50 08.02.2020
3287 Clouds 1 1022 78 10000 2.05 132 09:26 08.02.2020
3288 Clouds 0 1022 78 10000 2.05 132 08:48 08.02.2020
3289 Clouds 0 1022 92 10000 2.05 132 08:29 08.02.2020
3290 Clouds 0 1022 73 10000 2.1 140 07:54 08.02.2020
3291 Clouds 0 1021 73 10000 2.6 260 07:35 08.02.2020
3292 Clouds 0 1022 73 10000 1.5 170 06:56 08.02.2020
3293 Clouds -1 1022 86 10000 1.5 70 06:23 08.02.2020
3294 Clouds -1 1021 73 10000 2.1 150 05:39 08.02.2020
3295 Clear -1 1021 86 10000 2.1 90 05:21 08.02.2020
3296 Clouds -1 1022 92 10000 1.92 132 04:31 08.02.2020
3297 Clouds -1 1022 75 10000 1.5 170 03:39 08.02.2020
3298 Clouds -1 1022 75 10000 2.6 160 02:43 08.02.2020
3299 Clouds -1 1021 86 10000 2.1 110 01:37 08.02.2020
3300 Clouds -1 1022 74 10000 2.1 150 00:59 08.02.2020
3301 Clouds -1 1022 77 10000 6.7 140 00:38 08.02.2020
3302 Clear -1 1022 86 10000 2.6 80 00:20 08.02.2020
3303 Clouds 0 1022 74 10000 2.6 140 23:42 07.02.2020
3304 Clear 0 1022 78 10000 3.1 70 23:20 07.02.2020
3305 Clear 0 1022 74 10000 2.6 130 22:56 07.02.2020
3306 Clear 0 1022 78 10000 2.1 140 22:37 07.02.2020
3307 Clear 1 1023 78 10000 1.5 70 22:19 07.02.2020
3308 Clear 1 1023 74 10000 3.6 140 21:42 07.02.2020
3309 Clear 1 1023 74 10000 3.6 80 21:22 07.02.2020
3310 Clear 1 1022 78 10000 5.1 130 20:54 07.02.2020
3311 Clear 1 1022 78 10000 2.1 110 20:36 07.02.2020
3312 Clear 1 1023 74 10000 3.6 80 20:18 07.02.2020
3313 Clear 2 1023 69 10000 2.6 100 19:40 07.02.2020
3314 Clear 2 1023 69 10000 4.6 80 19:19 07.02.2020
3315 Clear 2 1023 60 10000 3.1 120 18:55 07.02.2020
3316 Clear 3 1023 64 10000 4.6 130 18:37 07.02.2020
3317 Clear 3 1023 64 10000 4.6 80 18:18 07.02.2020
3318 Clear 4 1023 56 10000 3.6 130 17:42 07.02.2020
3319 Clear 5 1023 52 10000 3.6 80 17:21 07.02.2020
3320 Clear 6 1023 52 10000 2.6 140 16:54 07.02.2020
3321 Clear 6 1023 48 10000 4.1 100 16:25 07.02.2020
3322 Clouds 6 1030 100 10000 3.1 230 15:57 07.02.2020
3323 Clouds 6 1030 100 10000 3.1 230 15:39 07.02.2020
3324 Clear 6 1024 45 10000 3.1 110 15:20 07.02.2020
3325 Clear 6 1024 60 10000 2.6 120 14:43 07.02.2020
3326 Clear 6 1024 48 10000 3.6 110 14:24 07.02.2020
3327 Clear 6 1025 60 10000 3.6 130 13:58 07.02.2020
3328 Clear 6 1025 60 10000 3.6 130 13:39 07.02.2020
3329 Clear 6 1025 60 10000 3.6 130 13:39 07.02.2020
3330 Clear 5 1025 60 10000 3.6 90 13:21 07.02.2020
3331 Clear 5 1025 64 10000 3.1 110 12:55 07.02.2020
3332 Clear 5 1026 74 10000 3.6 100 12:37 07.02.2020
3333 Clear 4 1026 69 10000 3.1 80 12:19 07.02.2020
3334 Clear 3 1026 74 10000 3.6 110 11:42 07.02.2020
3335 Clear 2 1026 80 10000 3.1 90 11:20 07.02.2020
3336 Clear 1 1026 80 10000 2.1 100 10:42 07.02.2020
3337 Clear 1 1026 76 10000 2.6 80 10:24 07.02.2020
3338 Clear 0 1026 92 8000 2.6 80 09:58 07.02.2020
3339 Clear -1 1026 86 10000 4.1 90 09:37 07.02.2020
3340 Mist -1 1027 86 9000 1.5 90 09:19 07.02.2020
3341 Mist -2 1026 92 2000 3.6 60 08:43 07.02.2020
3342 Mist -2 1027 86 9000 1.7 101 08:21 07.02.2020
3343 Mist -2 1027 92 4000 3.1 80 07:46 07.02.2020
3344 Clear -2 1027 92 10000 1.7 101 07:28 07.02.2020
3345 Mist -2 1027 92 2000 3.1 60 06:47 07.02.2020
3346 Clear -2 1027 92 10000 2.6 80 06:26 07.02.2020
3347 Mist -2 1027 92 2500 3.1 60 05:56 07.02.2020
3348 Mist -2 1027 100 4000 3.6 60 04:43 07.02.2020
3349 Clear -1 1028 86 10000 2.6 70 03:19 07.02.2020
3350 Clear -1 1028 89 0 4.6 50 01:51 07.02.2020
3351 Clear -1 1028 92 10000 3.6 60 00:49 07.02.2020
3352 Clear -1 1029 92 10000 2.6 90 00:21 07.02.2020
3353 Clear -1 1028 100 10000 2.6 120 23:38 06.02.2020
3354 Clear -1 1029 86 10000 3.6 80 23:19 06.02.2020
3355 Clear -1 1028 92 10000 2.6 120 22:46 06.02.2020
3356 Clear -1 1029 92 10000 1.5 80 22:26 06.02.2020
3357 Clear 0 1028 90 10000 2.1 110 21:57 06.02.2020
3358 Clear 0 1028 92 10000 1.5 60 21:36 06.02.2020
3359 Clear 0 1029 90 10000 1.4 78 21:18 06.02.2020
3360 Clear 0 1029 90 10000 2.6 120 20:54 06.02.2020
3361 Clear 0 1029 90 10000 1.5 120 20:36 06.02.2020
3362 Clear 1 1029 80 10000 3.1 70 20:18 06.02.2020
3363 Clear 1 1030 81 10000 3.6 60 19:55 06.02.2020
3364 Clear 1 1029 81 10000 2.1 110 19:37 06.02.2020
3365 Clear 2 1030 86 10000 3.1 80 19:18 06.02.2020
3366 Clear 2 1030 81 10000 2.6 70 18:40 06.02.2020
3367 Clear 3 1030 80 10000 3.1 70 18:22 06.02.2020
3368 Clear 3 1030 65 10000 2.6 60 17:57 06.02.2020
3369 Clear 4 1030 65 10000 2.6 60 17:39 06.02.2020
3370 Clear 5 1030 69 10000 4.1 70 17:20 06.02.2020
3371 Clear 6 1029 64 10000 3.1 60 16:42 06.02.2020
3372 Clear 6 1030 64 10000 4.1 50 16:24 06.02.2020
3373 Clear 6 1029 64 10000 2.6 60 15:43 06.02.2020
3374 Clear 6 1030 64 10000 3.1 70 15:23 06.02.2020
3375 Clear 6 1030 64 10000 2.6 60 14:58 06.02.2020
3376 Clear 6 1030 64 10000 2.6 60 14:58 06.02.2020
3377 Clear 6 1030 64 10000 2.6 60 14:40 06.02.2020
3378 Clear 6 1030 64 10000 2.1 100 14:22 06.02.2020
3379 Clouds 5 1030 59 10000 3.1 60 13:43 06.02.2020
3380 Clouds 5 1031 59 10000 2.6 110 13:25 06.02.2020
3381 Clouds 5 1031 75 10000 3.1 70 12:45 06.02.2020
3382 Clear 4 1031 58 10000 2.1 70 12:20 06.02.2020
3383 Clouds 4 1031 80 10000 3.6 50 11:59 06.02.2020
3384 Clouds 3 1031 80 10000 3.6 50 11:40 06.02.2020
3385 Clear 3 1031 77 10000 0.83 34 11:21 06.02.2020
3386 Clouds 2 1031 77 10000 2.1 40 10:58 06.02.2020
3387 Clouds 2 1031 77 10000 2.1 40 10:39 06.02.2020
3388 Clear 1 1031 77 10000 0.83 34 10:21 06.02.2020
3389 Clouds 0 1031 86 10000 2.1 40 09:57 06.02.2020
3390 Clouds -1 1030 77 10000 0.5 0 09:38 06.02.2020
3391 Clear -1 1031 100 10000 0.83 34 09:19 06.02.2020
3392 Clouds -2 1031 92 10000 2.1 40 08:43 06.02.2020
3393 Clouds -2 1031 78 10000 1.5 50 08:23 06.02.2020
3394 Clouds -2 1031 83 10000 2.6 40 07:54 06.02.2020
3395 Clear -1 1032 92 10000 1.22 16 07:29 06.02.2020
3396 Clouds -1 1032 83 10000 1 50 06:47 06.02.2020
3397 Clear -1 1032 92 10000 1.22 16 06:19 06.02.2020
3398 Clear -1 1033 92 10000 1.5 340 05:32 06.02.2020
3399 Clouds -1 1033 86 10000 2.6 50 03:47 06.02.2020
3400 Clouds -1 1033 86 10000 2.6 50 02:58 06.02.2020
3401 Clouds -1 1034 86 10000 1 0 01:55 06.02.2020
3402 Clear -1 1034 86 10000 0.46 84 01:24 06.02.2020
3403 Clear -1 1035 86 10000 0.45 117 00:29 06.02.2020
3404 Clouds -1 1034 80 10000 2.6 30 23:57 05.02.2020
3405 Clouds -1 1034 81 10000 1 250 23:39 05.02.2020
3406 Clear -1 1035 80 10000 0.04 157 23:20 05.02.2020
3407 Clouds -1 1034 80 8000 1 0 22:41 05.02.2020
3408 Clear 0 1035 80 10000 0.04 157 22:23 05.02.2020
3409 Clouds 0 1035 69 10000 2.1 290 21:58 05.02.2020
3410 Clouds 0 1035 69 10000 2.1 290 21:40 05.02.2020
3411 Clear 0 1035 74 10000 0.04 157 21:22 05.02.2020
3412 Clouds 0 1035 69 10000 2.1 300 20:54 05.02.2020
3413 Clouds 1 1034 69 10000 1.5 270 20:36 05.02.2020
3414 Clear 1 1035 69 10000 1.5 310 20:18 05.02.2020
3415 Clear 1 1035 69 10000 1.5 310 19:54 05.02.2020
3416 Clouds 1 1034 64 10000 1.5 250 19:36 05.02.2020
3417 Clear 1 1035 64 10000 0.44 138 19:18 05.02.2020
3418 Clear 2 1035 60 10000 1.5 200 18:42 05.02.2020
3419 Clear 3 1035 55 10000 0.44 138 18:20 05.02.2020
3420 Clear 4 1035 52 10000 1.5 140 17:55 05.02.2020
3421 Clouds 4 1034 60 10000 1 240 17:36 05.02.2020
3422 Clear 5 1035 48 10000 0.88 27 17:18 05.02.2020
3423 Clear 6 1034 56 10000 1.5 0 16:42 05.02.2020
3424 Clear 6 1035 48 10000 0.88 27 16:24 05.02.2020
3425 Clear 7 1035 52 10000 1.5 40 15:57 05.02.2020
3426 Clear 7 1034 52 10000 2.1 10 15:38 05.02.2020
3427 Clear 7 1035 52 10000 2.1 80 15:18 05.02.2020
3428 Clear 7 1035 56 10000 1.5 50 14:42 05.02.2020
3429 Clear 7 1035 52 10000 2.6 350 14:23 05.02.2020
3430 Clouds 6 1035 56 10000 2.6 40 13:57 05.02.2020
3431 Clouds 6 1035 69 10000 3.1 340 13:38 05.02.2020
3432 Clear 6 1035 60 10000 1.5 30 13:19 05.02.2020
3433 Clouds 6 1035 60 10000 4.1 50 12:42 05.02.2020
3434 Clear 6 1035 65 10000 1.24 38 12:22 05.02.2020
3435 Clouds 5 1034 69 10000 5.7 10 11:54 05.02.2020
3436 Clouds 4 1034 74 10000 3.1 360 11:36 05.02.2020
3437 Clouds 4 1035 81 10000 1.5 360 11:18 05.02.2020
3438 Clouds 4 1034 81 10000 5.7 10 10:42 05.02.2020
3439 Clear 4 1034 74 10000 3.21 359 10:23 05.02.2020
3440 Clear 3 1034 74 10000 3.21 359 10:23 05.02.2020
3441 Clouds 2 1033 81 10000 3.6 20 09:44 05.02.2020
3442 Clear 2 1033 86 10000 1.5 40 09:23 05.02.2020
3443 Clouds 2 1032 80 10000 3.1 350 08:59 05.02.2020
3444 Clouds 1 1032 80 10000 3.1 350 08:41 05.02.2020
3445 Clear 1 1032 80 10000 2.6 310 08:22 05.02.2020
3446 Clouds 2 1032 93 10000 2.6 10 07:45 05.02.2020
3447 Clouds 2 1031 80 10000 2.6 340 07:26 05.02.2020
3448 Clouds 2 1031 80 10000 2.1 330 06:46 05.02.2020
3449 Clouds 3 1030 74 10000 2.1 330 06:23 05.02.2020
3450 Clouds 3 1030 93 10000 2.1 330 05:51 05.02.2020
3451 Clouds 3 1030 91 10000 1.5 310 05:18 05.02.2020
3452 Clouds 3 1030 91 10000 4.6 10 04:45 05.02.2020
3453 Clouds 3 1029 91 10000 3.6 350 03:48 05.02.2020
3454 Clouds 3 1027 91 10000 2.6 330 02:25 05.02.2020
3455 Clouds 3 1025 92 9000 4.1 340 01:36 05.02.2020
3456 Clouds 3 1025 86 10000 3.14 344 00:42 05.02.2020
3457 Clouds 4 1024 86 10000 1.5 250 23:57 04.02.2020
3458 Clouds 4 1024 93 6000 2.6 260 23:37 04.02.2020
3459 Clouds 4 1024 93 10000 2.1 240 23:18 04.02.2020
3460 Clouds 4 1024 93 10000 3.6 290 22:42 04.02.2020
3461 Clouds 4 1023 93 10000 2.1 230 22:22 04.02.2020
3462 Clouds 4 1022 93 10000 1.5 230 22:00 04.02.2020
3463 Clouds 4 1022 93 10000 1.5 230 21:41 04.02.2020
3464 Rain 4 1022 93 10000 1.5 260 21:19 04.02.2020
3465 Clouds 4 1021 86 10000 2.6 250 20:59 04.02.2020
3466 Mist 4 1020 100 1000 3.1 290 20:39 04.02.2020
3467 Rain 3 1020 86 10000 5.7 250 20:20 04.02.2020
3468 Rain 3 1020 93 10000 6.2 280 19:57 04.02.2020
3469 Rain 3 1019 96 6000 4.6 280 19:39 04.02.2020
3470 Rain 3 1019 96 6000 4.6 280 19:39 04.02.2020
3471 Rain 3 1019 93 10000 4.1 250 19:21 04.02.2020
3472 Clouds 3 1020 86 10000 7.2 280 18:55 04.02.2020
3473 Rain 3 1018 86 10000 5.1 260 18:37 04.02.2020
3474 Rain 3 1018 86 10000 5.1 260 18:18 04.02.2020
3475 Rain 3 1018 86 10000 5.1 260 18:18 04.02.2020
3476 Clouds 3 1018 86 10000 3.6 250 17:42 04.02.2020
3477 Clouds 4 1018 86 10000 3.6 250 17:21 04.02.2020
3478 Clouds 4 1018 86 10000 3.6 250 17:21 04.02.2020
3479 Rain 4 1017 76 10000 5.7 260 16:56 04.02.2020
3480 Rain 4 1017 86 10000 5.1 260 16:37 04.02.2020
3481 Rain 4 1017 86 10000 5.1 260 16:19 04.02.2020
3482 Rain 4 1016 76 10000 5.1 270 15:56 04.02.2020
3483 Rain 4 1015 76 7000 5.1 280 15:37 04.02.2020
3484 Rain 4 1016 76 10000 6.2 260 15:18 04.02.2020
3485 Clouds 4 1016 76 10000 5.1 270 14:42 04.02.2020
3486 Rain 4 1016 76 10000 3.6 310 14:23 04.02.2020
3487 Rain 4 1016 76 10000 3.6 310 14:23 04.02.2020
3488 Drizzle 4 1016 72 10000 4.1 290 13:57 04.02.2020
3489 Clouds 4 1016 65 10000 7.2 300 13:39 04.02.2020
3490 Clouds 4 1015 75 10000 4.1 260 13:20 04.02.2020
3491 Snow 4 1015 75 4000 5.1 270 12:44 04.02.2020
3492 Clouds 4 1015 75 10000 5.1 260 12:26 04.02.2020
3493 Clouds 4 1015 86 10000 6.2 250 11:58 04.02.2020
3494 Clouds 4 1015 75 10000 7.2 290 11:39 04.02.2020
3495 Rain 4 1014 79 10000 6.7 250 11:21 04.02.2020
3496 Rain 3 1014 79 10000 6.2 240 10:56 04.02.2020
3497 Clouds 3 1013 79 6000 5.7 250 10:36 04.02.2020
3498 Clouds 4 1014 79 10000 6.2 240 10:18 04.02.2020
3499 Clouds 3 1014 93 10000 5.7 240 09:41 04.02.2020
3500 Snow 3 1014 79 4000 7.7 250 09:23 04.02.2020
3501 Clouds 3 1013 79 10000 5.1 240 08:56 04.02.2020
3502 Clouds 3 1012 79 10000 7.7 280 08:38 04.02.2020
3503 Clouds 3 1013 85 10000 6.2 250 08:20 04.02.2020
3504 Clouds 3 1013 85 10000 4.1 230 07:43 04.02.2020
3505 Rain 3 1013 85 10000 6.7 260 07:22 04.02.2020
3506 Clouds 3 1012 85 10000 5.7 260 06:43 04.02.2020
3507 Clouds 3 1011 86 10000 5.7 300 05:58 04.02.2020
3508 Clouds 3 1009 86 10000 7.2 270 05:28 04.02.2020
3509 Rain 3 1008 86 10000 5.1 260 03:51 04.02.2020
3510 Clouds 3 1007 86 10000 3.6 260 03:31 04.02.2020
3511 Clouds 3 1006 93 10000 3.6 280 02:55 04.02.2020
3512 Rain 3 1006 93 10000 4.1 290 02:31 04.02.2020
3513 Rain 4 1007 93 10000 6.7 310 01:53 04.02.2020
3514 Rain 4 1004 93 5000 6.7 300 01:35 04.02.2020
3515 Rain 4 1004 93 5000 6.7 300 01:35 04.02.2020
3516 Rain 4 1005 86 10000 3.6 280 00:45 04.02.2020
3517 Rain 5 1005 86 10000 4.1 310 00:21 04.02.2020
3518 Rain 7 1004 93 8000 5.7 350 23:40 03.02.2020
3519 Rain 7 1004 93 10000 3.6 300 23:20 03.02.2020
3520 Rain 8 1005 93 5000 7.2 250 22:39 03.02.2020
3521 Rain 8 1006 100 10000 1.5 290 22:21 03.02.2020
3522 Rain 8 1007 100 6000 9.01 221 21:56 03.02.2020
3523 Rain 8 1008 100 10000 9.01 221 21:37 03.02.2020
3524 Rain 7 1008 100 10000 9.01 221 21:19 03.02.2020
3525 Rain 8 1009 93 10000 3.1 230 20:42 03.02.2020
3526 Rain 8 1011 93 10000 5.1 230 20:20 03.02.2020
3527 Rain 8 1012 93 10000 5.7 220 19:58 03.02.2020
3528 Rain 8 1012 93 10000 5.7 220 19:40 03.02.2020
3529 Rain 8 1012 87 10000 5.7 220 19:20 03.02.2020
3530 Rain 8 1014 93 8000 5.1 230 18:57 03.02.2020
3531 Rain 8 1013 87 10000 6.2 220 18:38 03.02.2020
3532 Rain 8 1013 87 10000 6.2 220 18:20 03.02.2020
3533 Rain 8 1013 87 10000 6.2 220 18:20 03.02.2020
3534 Rain 9 1014 81 10000 6.2 220 17:54 03.02.2020
3535 Clouds 9 1013 70 10000 6.2 250 17:36 03.02.2020
3536 Clouds 9 1014 76 10000 5.1 230 17:18 03.02.2020
3537 Clouds 9 1016 81 10000 7.2 240 16:39 03.02.2020
3538 Clouds 10 1015 76 10000 7.2 240 16:21 03.02.2020
3539 Clouds 10 1015 71 10000 5.7 240 15:56 03.02.2020
3540 Clouds 10 1014 76 10000 7.7 270 15:38 03.02.2020
3541 Clouds 10 1015 71 10000 5.1 240 15:19 03.02.2020
3542 Clouds 10 1015 71 10000 5.1 240 14:45 03.02.2020
3543 Clouds 10 1015 76 10000 5.1 240 14:27 03.02.2020
3544 Clouds 10 1017 76 10000 8.2 260 13:58 03.02.2020
3545 Clouds 10 1016 71 10000 7.2 240 13:40 03.02.2020
3546 Clouds 10 1016 71 10000 7.2 240 13:20 03.02.2020
3547 Clouds 10 1016 71 10000 6.7 240 12:56 03.02.2020
3548 Clouds 10 1015 76 10000 9.3 280 12:37 03.02.2020
3549 Clouds 10 1016 76 10000 6.7 240 12:19 03.02.2020
3550 Clouds 10 1017 87 10000 7.7 260 11:40 03.02.2020
3551 Clouds 9 1016 81 10000 6.2 230 11:20 03.02.2020
3552 Clouds 9 1016 81 10000 6.7 230 10:58 03.02.2020
3553 Clouds 9 1016 81 10000 6.7 230 10:40 03.02.2020
3554 Clouds 9 1016 87 10000 4.6 220 10:20 03.02.2020
3555 Clouds 9 1016 87 10000 7.7 260 09:42 03.02.2020
3556 Clouds 8 1015 87 10000 5.7 220 09:21 03.02.2020
3557 Clouds 8 1015 87 10000 3.6 220 08:42 03.02.2020
3558 Clouds 8 1015 87 10000 5.1 230 08:23 03.02.2020
3559 Clouds 8 1014 87 10000 5.1 230 07:59 03.02.2020
3560 Clouds 8 1014 87 10000 5.1 230 07:40 03.02.2020
3561 Clouds 8 1014 87 10000 6.2 230 07:21 03.02.2020
3562 Clouds 8 1014 87 10000 4.6 230 06:50 03.02.2020
3563 Clouds 8 1014 93 10000 5.7 230 06:28 03.02.2020
3564 Rain 8 1014 93 10000 7.7 230 05:37 03.02.2020
3565 Rain 8 1014 93 10000 7.7 230 05:18 03.02.2020
3566 Rain 8 1013 93 10000 5.7 220 03:42 03.02.2020
3567 Rain 8 1012 87 8000 4.6 240 02:35 03.02.2020
3568 Rain 8 1014 93 10000 3.1 240 01:42 03.02.2020
3569 Rain 9 1014 93 7000 4.6 270 00:47 03.02.2020
3570 Rain 9 1013 81 10000 4.6 250 00:25 03.02.2020
3571 Rain 9 1014 93 10000 4.1 260 23:39 02.02.2020
3572 Clear 9 1013 71 10000 6.2 250 23:21 02.02.2020
3573 Rain 9 1014 87 10000 4.6 260 22:58 02.02.2020
3574 Clouds 9 1012 81 10000 9.3 280 22:38 02.02.2020
3575 Clouds 9 1012 81 10000 9.3 280 22:38 02.02.2020
3576 Clouds 9 1013 76 10000 5.7 240 22:20 02.02.2020
3577 Clouds 10 1013 81 10000 5.7 250 21:56 02.02.2020
3578 Clouds 10 1012 81 10000 8.2 270 21:38 02.02.2020
3579 Clouds 10 1013 81 10000 6.2 240 21:20 02.02.2020
3580 Rain 10 1014 76 10000 9.8 280 20:56 02.02.2020
3581 Clouds 10 1013 81 10000 5.1 240 20:37 02.02.2020
3582 Clouds 11 1013 81 10000 5.1 240 20:19 02.02.2020
3583 Clouds 11 1013 81 10000 5.1 240 20:19 02.02.2020
3584 Rain 11 1013 76 10000 8.7 260 19:55 02.02.2020
3585 Rain 11 1011 76 10000 5.7 250 19:37 02.02.2020
3586 Clear 11 1012 71 10000 7.7 240 19:19 02.02.2020
3587 Clouds 11 1013 76 10000 8.2 280 18:54 02.02.2020
3588 Rain 11 1010 81 10000 6.7 270 18:36 02.02.2020
3589 Clouds 11 1011 81 10000 8.7 240 18:18 02.02.2020
3590 Clouds 12 1010 76 10000 8.2 240 17:54 02.02.2020
3591 Clouds 12 1010 81 10000 7.2 240 17:36 02.02.2020
3592 Clouds 12 1010 81 10000 7.2 240 17:18 02.02.2020
3593 Clouds 12 1011 82 10000 10.8 270 16:54 02.02.2020
3594 Clouds 12 1009 81 10000 10.3 240 16:36 02.02.2020
3595 Clouds 12 1009 81 10000 10.3 240 16:18 02.02.2020
3596 Clouds 12 1009 81 10000 10.3 240 16:18 02.02.2020
3597 Clouds 12 1008 87 10000 10.3 240 15:40 02.02.2020
3598 Clouds 12 1008 87 10000 9.8 240 15:20 02.02.2020
3599 Clouds 12 1008 93 10000 9.3 230 14:59 02.02.2020
3600 Clouds 12 1008 93 10000 9.3 230 14:41 02.02.2020
3601 Rain 12 1007 100 10000 9.3 230 14:18 02.02.2020
3602 Clouds 12 1007 100 10000 8.7 230 13:58 02.02.2020
3603 Mist 11 1007 100 5000 7.7 220 13:37 02.02.2020
3604 Mist 11 1007 100 5000 7.7 220 13:19 02.02.2020
3605 Clouds 11 1007 100 10000 7.7 220 12:46 02.02.2020
3606 Rain 11 1008 100 10000 7.2 220 12:23 02.02.2020
3607 Clouds 10 1008 100 10000 7.7 210 11:59 02.02.2020
3608 Clouds 10 1008 100 10000 7.7 210 11:41 02.02.2020
3609 Mist 10 1008 100 9000 7.2 220 11:19 02.02.2020
3610 Drizzle 10 1010 100 3000 5.1 220 10:56 02.02.2020
3611 Rain 9 1008 100 1100 6.2 220 10:37 02.02.2020
3612 Rain 9 1009 100 10000 7.7 200 10:19 02.02.2020
3613 Rain 9 1009 100 10000 6.7 190 09:56 02.02.2020
3614 Rain 9 1009 100 9000 5.7 190 09:38 02.02.2020
3615 Rain 8 1009 100 9000 5.7 190 09:19 02.02.2020
3616 Drizzle 8 1010 93 7000 5.1 200 08:43 02.02.2020
3617 Rain 7 1010 100 9000 1.5 70 08:24 02.02.2020
3618 Rain 7 1010 100 9000 1.5 70 08:24 02.02.2020
3619 Rain 7 1011 93 4400 1.5 80 07:47 02.02.2020
3620 Rain 7 1012 93 10000 4.41 228 07:28 02.02.2020
3621 Rain 7 1012 93 10000 4.41 228 06:44 02.02.2020
3622 Rain 7 1013 93 10000 4.41 228 06:26 02.02.2020
3623 Clouds 6 1013 86 10000 2.1 260 05:48 02.02.2020
3624 Clouds 6 1013 86 10000 3.1 230 04:48 02.02.2020
3625 Clouds 6 1014 80 10000 5.1 230 03:26 02.02.2020
3626 Rain 6 1012 75 10000 6.2 250 02:35 02.02.2020
3627 Rain 6 1015 81 10000 6.2 260 01:55 02.02.2020
3628 Clouds 6 1013 80 10000 6.7 240 01:26 02.02.2020
3629 Clouds 6 1014 81 10000 6.7 280 00:44 02.02.2020
3630 Clouds 6 1013 80 10000 6.2 240 00:23 02.02.2020
3631 Clouds 6 1013 81 10000 5.7 240 23:47 01.02.2020
3632 Clouds 6 1013 81 10000 5.7 240 23:47 01.02.2020
3633 Clouds 7 1013 81 10000 6.2 250 23:23 01.02.2020
3634 Clouds 7 1013 81 10000 6.7 280 22:59 01.02.2020
3635 Clouds 7 1013 81 10000 6.7 280 22:41 01.02.2020
3636 Clear 8 1011 81 10000 6.7 260 22:18 01.02.2020
3637 Clouds 8 1012 87 10000 10.3 280 21:39 01.02.2020
3638 Clouds 9 1011 87 10000 6.2 260 21:19 01.02.2020
3639 Clouds 9 1010 93 10000 6.2 260 20:42 01.02.2020
3640 Rain 9 1009 93 10000 6.2 230 20:21 01.02.2020
3641 Rain 9 1010 93 10000 7.2 270 19:58 01.02.2020
3642 Rain 9 1010 87 10000 8.2 230 19:40 01.02.2020
3643 Clouds 9 1008 93 10000 7.2 210 19:20 01.02.2020
3644 Clouds 9 1008 93 10000 6.2 220 18:59 01.02.2020
3645 Clouds 9 1008 93 10000 6.2 220 18:59 01.02.2020
3646 Clouds 9 1008 93 10000 6.2 220 18:41 01.02.2020
3647 Clouds 10 1008 93 10000 6.7 220 18:23 01.02.2020
3648 Rain 10 1008 87 10000 6.7 230 17:59 01.02.2020
3649 Clouds 10 1009 87 10000 8.2 250 17:40 01.02.2020
3650 Clouds 10 1008 93 10000 6.2 240 17:20 01.02.2020
3651 Clouds 10 1009 87 8000 7.2 260 16:58 01.02.2020
3652 Clouds 10 1007 87 10000 6.2 240 16:38 01.02.2020
3653 Clouds 10 1007 87 10000 6.2 240 16:20 01.02.2020
3654 Clouds 10 1007 93 10000 4.6 230 15:43 01.02.2020
3655 Rain 10 1006 93 10000 4.6 230 15:25 01.02.2020
3656 Clouds 10 1006 100 10000 4.6 240 14:58 01.02.2020
3657 Rain 10 1006 87 10000 6.2 250 14:39 01.02.2020
3658 Rain 10 1006 87 10000 6.2 250 14:20 01.02.2020
3659 Rain 10 1006 100 4000 6.2 250 13:45 01.02.2020
3660 Rain 10 1005 100 9000 7.2 220 13:21 01.02.2020
3661 Rain 11 1005 100 10000 6.2 220 12:44 01.02.2020
3662 Rain 10 1005 100 10000 7.2 220 12:26 01.02.2020
3663 Rain 10 1006 100 6000 7.2 220 11:57 01.02.2020
3664 Drizzle 10 1005 93 10000 6.7 230 11:38 01.02.2020
3665 Rain 10 1005 100 10000 7.7 210 11:19 01.02.2020
3666 Rain 10 1005 100 10000 8.2 210 10:56 01.02.2020
3667 Drizzle 10 1005 93 8000 6.7 230 10:38 01.02.2020
3668 Rain 10 1005 100 10000 7.2 210 10:20 01.02.2020
3669 Rain 10 1006 100 4000 6.7 220 09:42 01.02.2020
3670 Rain 10 1006 100 10000 7.7 210 09:23 01.02.2020
3671 Rain 10 1006 100 10000 8.2 200 09:00 01.02.2020
3672 Rain 10 1006 100 10000 8.2 200 08:40 01.02.2020
3673 Rain 10 1007 93 3000 5.7 210 07:48 01.02.2020
3674 Rain 10 1006 100 10000 7.2 200 07:26 01.02.2020
3675 Rain 10 1007 93 4000 6.2 220 06:54 01.02.2020
3676 Rain 10 1007 100 9000 8.7 200 06:32 01.02.2020
3677 Drizzle 10 1008 93 4000 6.7 220 05:51 01.02.2020
3678 Clouds 10 1009 100 10000 6.7 200 03:48 01.02.2020
3679 Clouds 10 1009 100 10000 6.2 210 03:21 01.02.2020
3680 Clouds 10 1011 100 10000 5.1 210 02:45 01.02.2020
3681 Clouds 10 1011 100 10000 5.1 200 02:25 01.02.2020
3682 Clouds 10 1011 100 10000 5.1 200 01:52 01.02.2020
3683 Rain 10 1011 100 10000 5.7 210 01:31 01.02.2020
3684 Clouds 10 1012 93 10000 6.2 220 00:30 01.02.2020
3685 Clouds 10 1013 87 10000 6.2 230 23:43 31.01.2020
3686 Clouds 10 1012 93 10000 4.6 220 23:20 31.01.2020
3687 Clouds 10 1012 93 10000 7.2 220 22:59 31.01.2020
3688 Clouds 10 1012 93 10000 7.2 220 22:41 31.01.2020
3689 Clouds 10 1012 93 10000 5.1 220 22:22 31.01.2020
3690 Clouds 10 1013 93 10000 5.1 220 21:57 31.01.2020
3691 Drizzle 10 1013 93 10000 6.2 240 21:39 31.01.2020
3692 Clouds 10 1013 93 10000 8.2 230 21:19 31.01.2020
3693 Clouds 10 1013 100 10000 5.1 210 20:56 31.01.2020
3694 Clouds 10 1013 100 10000 5.1 210 20:56 31.01.2020
3695 Clouds 10 1013 93 10000 3.6 200 20:38 31.01.2020
3696 Clouds 10 1013 93 10000 3.6 200 20:38 31.01.2020
3697 Clouds 10 1013 93 10000 3.6 200 20:20 31.01.2020
3698 Drizzle 10 1013 93 10000 5.7 230 19:56 31.01.2020
3699 Rain 10 1012 93 10000 6.7 240 19:37 31.01.2020
3700 Clouds 11 1013 93 10000 4.6 230 19:19 31.01.2020
3701 Clouds 10 1013 93 10000 3.6 220 18:43 31.01.2020
3702 Clouds 10 1013 87 10000 5.1 230 18:25 31.01.2020
3703 Clouds 10 1013 93 10000 3.6 230 17:56 31.01.2020
3704 Clouds 10 1012 87 10000 7.2 210 17:37 31.01.2020
3705 Clouds 11 1012 87 10000 7.2 210 17:19 31.01.2020
3706 Clouds 10 1013 87 10000 6.2 220 16:56 31.01.2020
3707 Clouds 11 1013 81 10000 5.7 220 16:37 31.01.2020
3708 Clouds 10 1013 81 10000 5.7 220 16:18 31.01.2020
3709 Drizzle 11 1014 93 10000 6.2 240 15:41 31.01.2020
3710 Clouds 11 1013 81 10000 5.1 230 15:21 31.01.2020
3711 Clouds 11 1014 87 10000 7.7 240 14:59 31.01.2020
3712 Clouds 11 1014 87 10000 7.7 240 14:40 31.01.2020
3713 Clouds 11 1013 81 10000 6.2 230 14:20 31.01.2020
3714 Clouds 11 1013 81 10000 5.7 240 13:45 31.01.2020
3715 Clouds 11 1013 81 10000 6.7 230 13:27 31.01.2020
3716 Clouds 11 1014 87 10000 7.7 250 12:54 31.01.2020
3717 Clouds 11 1011 87 10000 7.2 240 12:36 31.01.2020
3718 Clouds 11 1013 81 10000 4.6 230 12:18 31.01.2020
3719 Clouds 11 1013 81 10000 8.7 220 11:41 31.01.2020
3720 Clouds 11 1013 81 10000 8.7 220 11:23 31.01.2020
3721 Clouds 11 1013 87 10000 6.7 230 10:58 31.01.2020
3722 Clouds 11 1011 87 10000 8.7 260 10:38 31.01.2020
3723 Clouds 10 1012 87 10000 6.2 220 10:20 31.01.2020
3724 Clouds 10 1012 93 10000 7.2 220 09:55 31.01.2020
3725 Clouds 10 1012 93 10000 7.2 220 09:55 31.01.2020
3726 Clouds 10 1011 93 10000 6.2 240 09:37 31.01.2020
3727 Clouds 10 1012 93 10000 6.7 220 09:18 31.01.2020
3728 Drizzle 10 1012 93 6000 6.7 240 08:42 31.01.2020
3729 Clouds 10 1011 93 10000 6.7 220 08:23 31.01.2020
3730 Clouds 10 1011 93 10000 6.7 220 07:52 31.01.2020
3731 Clouds 10 1010 100 10000 6.2 230 07:20 31.01.2020
3732 Drizzle 10 1009 100 10000 8.2 260 06:38 31.01.2020
3733 Mist 10 1011 93 4000 7.2 250 05:58 31.01.2020
3734 Drizzle 10 1008 93 9000 6.2 240 05:33 31.01.2020
3735 Mist 10 1010 100 3000 7.7 250 04:47 31.01.2020
3736 Clouds 10 1007 100 10000 7.7 230 02:58 31.01.2020
3737 Rain 10 1006 93 3600 7.7 240 01:32 31.01.2020
3738 Rain 10 1007 100 10000 7.2 230 00:42 31.01.2020
3739 Rain 10 1007 100 10000 6.7 230 00:24 31.01.2020
3740 Rain 10 1007 100 10000 7.2 230 23:48 30.01.2020
3741 Clouds 10 1006 100 10000 5.7 230 23:24 30.01.2020
3742 Rain 10 1006 100 6000 6.2 220 22:56 30.01.2020
3743 Rain 10 1006 100 6000 6.2 220 22:56 30.01.2020
3744 Mist 9 1006 100 6000 6.2 220 22:36 30.01.2020
3745 Mist 9 1006 100 6000 6.2 220 22:18 30.01.2020
3746 Rain 9 1006 100 6000 4.6 220 21:43 30.01.2020
3747 Rain 8 1006 100 6000 4.1 220 21:20 30.01.2020
3748 Rain 8 1007 100 9000 6.2 210 20:59 30.01.2020
3749 Rain 8 1007 100 6000 5.7 210 20:39 30.01.2020
3750 Rain 7 1007 100 6000 5.7 210 20:21 30.01.2020
3751 Rain 7 1007 100 6000 5.7 210 20:21 30.01.2020
3752 Drizzle 7 1007 100 800 4.6 200 19:55 30.01.2020
3753 Rain 7 1006 100 2100 6.7 230 19:36 30.01.2020
3754 Clouds 7 1007 100 10000 5.7 210 19:18 30.01.2020
3755 Clouds 7 1007 100 10000 5.7 210 18:40 30.01.2020
3756 Clouds 7 1007 100 10000 6.2 200 18:21 30.01.2020
3757 Rain 7 1007 93 10000 5.7 200 17:56 30.01.2020
3758 Clouds 7 1006 81 10000 6.7 210 17:37 30.01.2020
3759 Rain 6 1007 93 10000 5.7 200 17:18 30.01.2020
3760 Clouds 6 1008 81 10000 6.2 190 16:56 30.01.2020
3761 Drizzle 6 1007 93 6000 7.7 210 16:38 30.01.2020
3762 Clouds 7 1008 75 10000 4.1 200 16:19 30.01.2020
3763 Clouds 7 1008 75 10000 3.1 200 15:43 30.01.2020
3764 Clouds 7 1009 75 10000 2.6 190 15:20 30.01.2020
3765 Clouds 7 1009 75 10000 4.6 220 14:50 30.01.2020
3766 Clouds 7 1009 75 10000 4.6 220 14:50 30.01.2020
3767 Clear 8 1010 75 10000 4.6 200 14:27 30.01.2020
3768 Clouds 7 1011 87 10000 5.1 180 13:57 30.01.2020
3769 Clouds 7 1010 81 10000 7.2 230 13:38 30.01.2020
3770 Clouds 7 1011 87 10000 6.2 210 13:19 30.01.2020
3771 Clouds 7 1012 93 10000 4.6 190 12:43 30.01.2020
3772 Clouds 6 1012 87 10000 5.7 210 12:24 30.01.2020
3773 Clouds 6 1013 87 10000 5.1 200 11:58 30.01.2020
3774 Clouds 6 1013 87 10000 5.1 200 11:40 30.01.2020
3775 Clouds 5 1013 93 10000 5.7 230 11:21 30.01.2020
3776 Clouds 5 1013 100 10000 5.1 210 10:43 30.01.2020
3777 Clouds 4 1013 93 10000 4.1 220 10:25 30.01.2020
3778 Clouds 4 1014 100 10000 3.6 190 09:58 30.01.2020
3779 Clouds 4 1014 100 10000 3.6 190 09:39 30.01.2020
3780 Clouds 4 1014 100 10000 4.6 210 09:19 30.01.2020
3781 Mist 3 1014 100 4500 3.6 200 08:42 30.01.2020
3782 Clouds 3 1014 93 10000 3.6 200 08:22 30.01.2020
3783 Clouds 3 1014 93 10000 3.6 200 07:53 30.01.2020
3784 Clouds 3 1012 93 10000 5.7 230 07:35 30.01.2020
3785 Clouds 3 1014 93 9000 3.6 220 06:49 30.01.2020
3786 Clouds 3 1014 93 10000 5.1 220 06:31 30.01.2020
3787 Clouds 3 1014 93 10000 4.6 220 05:47 30.01.2020
3788 Clouds 3 1014 93 10000 4.6 200 05:27 30.01.2020
3789 Clouds 3 1014 93 10000 5.1 210 04:23 30.01.2020
3790 Clouds 3 1016 100 10000 3.6 230 03:46 30.01.2020
3791 Clouds 3 1015 93 10000 4.1 220 02:54 30.01.2020
3792 Clouds 4 1015 86 10000 5.1 220 00:56 30.01.2020
3793 Clouds 4 1015 86 10000 4.6 220 00:26 30.01.2020
3794 Clouds 4 1015 86 10000 4.6 220 23:55 29.01.2020
3795 Clouds 4 1015 86 10000 4.6 220 23:37 29.01.2020
3796 Clouds 4 1015 86 10000 4.6 220 23:19 29.01.2020
3797 Clouds 3 1016 86 10000 3.6 230 22:54 29.01.2020
3798 Clouds 3 1013 93 8000 6.2 230 22:36 29.01.2020
3799 Clouds 3 1015 93 10000 4.1 230 22:18 29.01.2020
3800 Clouds 3 1015 93 10000 3.6 220 21:54 29.01.2020
3801 Clouds 3 1013 94 9000 4.1 240 21:36 29.01.2020
3802 Clouds 3 1015 93 10000 4.1 220 21:18 29.01.2020
3803 Clouds 3 1015 93 10000 4.1 220 20:40 29.01.2020
3804 Clouds 3 1015 100 10000 3.1 220 20:21 29.01.2020
3805 Clouds 3 1014 93 10000 3.1 220 19:58 29.01.2020
3806 Clouds 3 1013 89 10000 5.7 260 19:38 29.01.2020
3807 Rain 3 1014 86 10000 4.6 250 19:20 29.01.2020
3808 Clouds 3 1014 80 10000 6.2 250 18:58 29.01.2020
3809 Clouds 3 1012 74 10000 5.7 260 18:38 29.01.2020
3810 Clouds 4 1013 80 10000 5.7 260 18:18 29.01.2020
3811 Clouds 4 1013 80 10000 6.2 250 17:41 29.01.2020
3812 Clouds 4 1013 75 10000 6.2 260 17:23 29.01.2020
3813 Clouds 4 1012 75 10000 6.2 270 16:55 29.01.2020
3814 Clouds 4 1010 64 10000 5.7 270 16:37 29.01.2020
3815 Clouds 5 1011 65 10000 7.2 250 16:19 29.01.2020
3816 Clouds 5 1012 86 10000 6.7 270 15:39 29.01.2020
3817 Clouds 5 1010 69 32767 4.6 280 15:21 29.01.2020
3818 Clouds 4 1011 93 10000 6.7 260 14:57 29.01.2020
3819 Clouds 4 1008 80 10000 8.2 260 14:39 29.01.2020
3820 Clouds 4 1010 93 10000 7.2 270 14:18 29.01.2020
3821 Rain 4 1010 93 10000 5.7 270 13:40 29.01.2020
3822 Rain 4 1010 93 10000 6.2 260 13:22 29.01.2020
3823 Rain 4 1010 93 3500 7.7 250 12:56 29.01.2020
3824 Clouds 4 1008 85 10000 8.7 270 12:38 29.01.2020
3825 Clouds 4 1010 86 10000 7.7 250 12:20 29.01.2020
3826 Clouds 4 1010 86 10000 7.2 250 11:47 29.01.2020
3827 Clouds 3 1010 86 10000 7.2 250 11:24 29.01.2020
3828 Clouds 3 1009 86 10000 5.7 240 10:58 29.01.2020
3829 Clouds 3 1009 86 10000 5.7 240 10:40 29.01.2020
3830 Clouds 3 1009 96 10000 4.1 280 10:20 29.01.2020
3831 Clouds 2 1008 96 10000 6.2 220 09:40 29.01.2020
3832 Clouds 2 1008 96 10000 6.2 220 09:22 29.01.2020
3833 Snow 2 1006 86 4000 5.1 230 08:58 29.01.2020
3834 Snow 2 1006 86 4000 5.1 230 08:39 29.01.2020
3835 Clouds 2 1007 89 10000 6.7 220 08:20 29.01.2020
3836 Clouds 2 1007 89 10000 6.2 220 07:45 29.01.2020
3837 Clouds 2 1006 89 10000 6.2 220 07:25 29.01.2020
3838 Clouds 2 1007 89 10000 7.2 260 06:55 29.01.2020
3839 Clouds 2 1006 89 10000 6.2 220 06:37 29.01.2020
3840 Clouds 2 1006 89 10000 6.2 220 06:18 29.01.2020
3841 Clouds 2 1006 89 10000 5.7 220 05:46 29.01.2020
3842 Clouds 2 1005 93 10000 5.1 220 05:27 29.01.2020
3843 Snow 2 1003 86 8000 4.6 250 04:38 29.01.2020
3844 Rain 2 1004 100 10000 5.1 220 03:55 29.01.2020
3845 Snow 2 1001 86 3400 5.7 260 02:33 29.01.2020
3846 Clouds 2 1001 97 10000 5.7 220 00:57 29.01.2020
3847 Clouds 2 1001 97 10000 4.6 220 00:36 29.01.2020
3848 Clouds 2 1001 97 10000 4.6 220 00:18 29.01.2020
3849 Clouds 2 1001 97 10000 4.1 220 23:38 28.01.2020
3850 Clouds 2 1001 88 10000 4.1 220 23:19 28.01.2020
3851 Clouds 2 1001 88 10000 6.2 220 22:46 28.01.2020
3852 Clouds 2 1001 88 10000 6.7 210 22:27 28.01.2020
3853 Clouds 2 1001 88 10000 5.1 210 21:54 28.01.2020
3854 Clouds 2 1002 80 10000 4.6 220 21:36 28.01.2020
3855 Clouds 2 1002 80 10000 4.6 220 21:18 28.01.2020
3856 Clouds 2 1002 80 10000 5.7 220 20:45 28.01.2020
3857 Clouds 2 1003 80 10000 6.2 230 20:26 28.01.2020
3858 Clouds 2 1003 83 10000 6.7 240 19:55 28.01.2020
3859 Snow 2 1001 80 10000 7.2 240 19:37 28.01.2020
3860 Clouds 2 1002 80 10000 8.2 220 19:19 28.01.2020
3861 Clouds 2 1002 80 10000 8.2 220 19:19 28.01.2020
3862 Clouds 2 1002 80 10000 8.2 220 19:19 28.01.2020
3863 Clouds 2 1002 80 10000 6.7 230 18:41 28.01.2020
3864 Clouds 2 1002 74 10000 7.7 230 18:23 28.01.2020
3865 Clouds 2 1001 74 10000 7.2 230 17:59 28.01.2020
3866 Clouds 2 1001 74 10000 7.2 230 17:59 28.01.2020
3867 Clouds 2 1002 83 10000 6.2 260 17:40 28.01.2020
3868 Clouds 2 1001 80 10000 7.2 230 17:21 28.01.2020
3869 Clouds 2 1002 76 10000 9.3 260 16:59 28.01.2020
3870 Clouds 2 1002 76 10000 9.3 260 16:40 28.01.2020
3871 Clouds 2 1000 76 10000 6.7 230 16:22 28.01.2020
3872 Rain 2 1000 76 10000 7.2 240 15:48 28.01.2020
3873 Clouds 2 999 76 10000 8.2 240 15:20 28.01.2020
3874 Clouds 3 997 86 4000 9.3 260 14:59 28.01.2020
3875 Clouds 3 997 86 4000 9.3 260 14:41 28.01.2020
3876 Clouds 3 998 86 10000 9.8 230 14:18 28.01.2020
3877 Rain 3 998 86 10000 7.7 230 13:42 28.01.2020
3878 Clouds 3 998 86 10000 7.7 230 13:24 28.01.2020
3879 Clouds 3 997 80 10000 8.2 230 12:45 28.01.2020
3880 Clouds 3 997 80 10000 9.8 230 12:25 28.01.2020
3881 Clouds 3 995 80 10000 8.7 250 11:59 28.01.2020
3882 Clouds 3 995 80 10000 8.7 250 11:41 28.01.2020
3883 Clouds 3 996 86 10000 8.7 230 11:21 28.01.2020
3884 Rain 2 996 93 10000 8.7 230 10:44 28.01.2020
3885 Rain 3 995 93 10000 6.7 220 10:26 28.01.2020
3886 Clouds 2 995 93 10000 6.7 230 09:59 28.01.2020
3887 Clouds 3 995 93 10000 6.7 230 09:41 28.01.2020
3888 Rain 3 995 93 10000 6.7 230 09:20 28.01.2020
3889 Rain 3 995 93 10000 6.7 230 09:20 28.01.2020
3890 Rain 3 995 93 10000 6.7 230 09:20 28.01.2020
3891 Rain 4 993 93 10000 8.7 220 08:45 28.01.2020
3892 Rain 4 993 93 10000 6.7 210 08:26 28.01.2020
3893 Clouds 5 993 86 10000 6.7 210 07:56 28.01.2020
3894 Rain 5 994 93 10000 8.2 220 07:34 28.01.2020
3895 Rain 5 995 100 8000 5.7 220 06:48 28.01.2020
3896 Rain 5 995 100 10000 5.7 220 06:25 28.01.2020
3897 Rain 5 996 93 9000 6.7 250 05:40 28.01.2020
3898 Rain 5 996 93 10000 6.2 200 05:21 28.01.2020
3899 Clouds 6 997 93 10000 6.2 220 03:49 28.01.2020
3900 Rain 6 997 87 10000 7.2 210 02:49 28.01.2020
3901 Rain 6 997 93 10000 9.3 210 02:25 28.01.2020
3902 Clouds 6 998 93 10000 7.7 210 01:56 28.01.2020
3903 Rain 6 998 93 10000 7.2 210 01:22 28.01.2020
3904 Rain 6 999 93 8000 7.7 220 00:45 28.01.2020
3905 Rain 6 998 100 10000 9.3 190 00:23 28.01.2020
3906 Rain 6 998 100 10000 8.7 190 23:44 27.01.2020
3907 Rain 6 999 100 10000 8.7 190 23:20 27.01.2020
3908 Rain 6 999 100 10000 9.8 180 22:45 27.01.2020
3909 Rain 6 1000 100 10000 7.2 180 22:22 27.01.2020
3910 Rain 6 1001 100 3000 6.2 180 21:59 27.01.2020
3911 Rain 6 1001 100 3000 6.2 180 21:39 27.01.2020
3912 Rain 6 1002 100 10000 6.2 180 21:19 27.01.2020
3913 Rain 6 1002 100 10000 6.2 180 21:19 27.01.2020
3914 Rain 5 1002 100 10000 5.1 170 20:59 27.01.2020
3915 Clouds 5 1003 100 10000 5.7 190 20:38 27.01.2020
3916 Clouds 6 1003 100 10000 5.7 190 20:20 27.01.2020
3917 Clouds 6 1003 100 10000 7.7 200 19:58 27.01.2020
3918 Rain 6 1004 93 10000 5.1 200 19:40 27.01.2020
3919 Rain 6 1004 100 10000 8.2 190 19:21 27.01.2020
3920 Rain 6 1005 93 8000 5.7 200 18:55 27.01.2020
3921 Rain 6 1004 93 3000 7.7 210 18:37 27.01.2020
3922 Rain 6 1005 100 10000 6.2 190 18:19 27.01.2020
3923 Rain 6 1005 93 6000 4.6 200 17:39 27.01.2020
3924 Rain 6 1005 100 10000 6.7 190 17:19 27.01.2020
3925 Rain 6 1005 100 10000 6.7 190 16:57 27.01.2020
3926 Rain 6 1006 93 9000 6.7 220 16:39 27.01.2020
3927 Rain 6 1006 100 10000 6.2 190 16:21 27.01.2020
3928 Rain 6 1006 100 10000 5.7 190 15:55 27.01.2020
3929 Drizzle 6 1006 93 3500 6.2 220 15:36 27.01.2020
3930 Rain 6 1007 100 10000 6.2 190 15:18 27.01.2020
3931 Rain 6 1007 93 4000 5.1 200 14:41 27.01.2020
3932 Rain 6 1007 100 10000 7.7 190 14:22 27.01.2020
3933 Rain 6 1008 93 6000 5.7 190 13:55 27.01.2020
3934 Rain 6 1008 93 9000 6.7 220 13:37 27.01.2020
3935 Rain 6 1009 93 9000 5.7 230 13:18 27.01.2020
3936 Rain 6 1008 93 6000 7.7 220 12:43 27.01.2020
3937 Rain 6 1009 100 10000 6.7 200 12:23 27.01.2020
3938 Rain 6 1009 100 10000 8.2 190 11:58 27.01.2020
3939 Drizzle 6 1009 93 3500 8.2 210 11:40 27.01.2020
3940 Rain 6 1010 100 10000 6.2 190 11:19 27.01.2020
3941 Rain 6 1010 100 10000 7.7 190 10:42 27.01.2020
3942 Rain 6 1011 100 10000 5.7 200 10:24 27.01.2020
3943 Rain 6 1011 100 10000 5.7 180 09:54 27.01.2020
3944 Rain 6 1010 93 2500 8.2 210 09:36 27.01.2020
3945 Clouds 6 1011 100 10000 5.1 180 09:18 27.01.2020
3946 Rain 6 1011 93 4000 8.2 220 08:42 27.01.2020
3947 Rain 6 1012 100 10000 7.2 200 08:20 27.01.2020
3948 Clouds 6 1012 100 10000 5.7 190 07:53 27.01.2020
3949 Rain 6 1011 93 3000 6.7 220 07:33 27.01.2020
3950 Rain 6 1012 93 4500 4.6 180 06:52 27.01.2020
3951 Rain 6 1012 100 10000 6.7 200 06:24 27.01.2020
3952 Clouds 6 1013 100 10000 6.2 200 05:22 27.01.2020
3953 Clouds 5 1014 100 10000 4.6 190 03:47 27.01.2020
3954 Clouds 5 1013 100 2800 6.2 230 02:36 27.01.2020
3955 Clouds 5 1015 100 10000 2.1 220 01:29 27.01.2020
3956 Mist 5 1015 100 9000 2.6 200 00:57 27.01.2020
3957 Mist 4 1015 100 5000 3.05 174 00:36 27.01.2020
3958 Mist 4 1015 100 5000 3.05 174 00:18 27.01.2020
3959 Mist 4 1015 100 5000 3.05 174 00:18 27.01.2020
3960 Mist 4 1015 100 6000 3.05 174 23:41 26.01.2020
3961 Mist 4 1015 100 6000 2.51 169 23:19 26.01.2020
3962 Mist 4 1015 100 3200 2.51 169 22:55 26.01.2020
3963 Mist 4 1016 100 1000 2.51 169 22:36 26.01.2020
3964 Mist 4 1016 100 1000 2.51 169 22:18 26.01.2020
3965 Mist 4 1016 100 1000 2.51 169 22:18 26.01.2020
3966 Mist 4 1016 100 1800 3.6 170 21:55 26.01.2020
3967 Mist 4 1015 100 5000 3.6 170 21:37 26.01.2020
3968 Fog 3 1016 100 600 2.51 169 21:19 26.01.2020
3969 Mist 3 1016 93 2000 4.1 180 20:55 26.01.2020
3970 Fog 3 1016 100 400 2.51 169 20:36 26.01.2020
3971 Fog 4 1016 100 400 2.27 156 20:18 26.01.2020
3972 Fog 4 1016 100 600 2.27 156 19:56 26.01.2020
3973 Fog 3 1016 100 400 2.27 156 19:37 26.01.2020
3974 Fog 3 1016 100 400 2.27 156 19:18 26.01.2020
3975 Mist 3 1016 100 1000 1.5 210 18:41 26.01.2020
3976 Mist 3 1016 100 1600 2.1 200 18:22 26.01.2020
3977 Mist 4 1016 100 1600 2.27 156 17:58 26.01.2020
3978 Fog 4 1016 100 50 1.5 160 17:39 26.01.2020
3979 Mist 4 1016 100 3000 1.5 220 17:20 26.01.2020
3980 Mist 5 1016 100 1200 1.87 174 16:58 26.01.2020
3981 Mist 5 1016 100 1200 1.87 174 16:58 26.01.2020
3982 Fog 4 1016 100 100 2.6 200 16:39 26.01.2020
3983 Fog 4 1016 100 100 2.6 200 16:39 26.01.2020
3984 Fog 4 1016 100 200 1.87 174 16:20 26.01.2020
3985 Clouds 5 1015 100 100 3.6 230 15:58 26.01.2020
3986 Clouds 5 1015 100 100 3.6 230 15:39 26.01.2020
3987 Clouds 5 1016 100 100 3.6 220 15:18 26.01.2020
3988 Clouds 4 1016 100 100 3.6 220 14:41 26.01.2020
3989 Clouds 4 1016 100 150 4.1 230 14:21 26.01.2020
3990 Clouds 4 1016 100 150 4.1 230 13:57 26.01.2020
3991 Clouds 4 1016 100 150 4.1 230 13:37 26.01.2020
3992 Clouds 4 1016 93 400 4.1 240 13:18 26.01.2020
3993 Clouds 4 1017 93 5000 4.1 240 12:42 26.01.2020
3994 Clouds 3 1017 93 5000 4.1 240 12:24 26.01.2020
3995 Clouds 3 1017 93 5000 4.1 240 11:58 26.01.2020
3996 Clouds 3 1017 100 7000 3.1 230 11:39 26.01.2020
3997 Clouds 2 1018 90 10000 1.76 139 11:19 26.01.2020
3998 Clouds 2 1018 90 10000 1.76 139 10:59 26.01.2020
3999 Clouds 2 1018 90 10000 1.76 139 10:39 26.01.2020
4000 Clouds 2 1018 90 10000 1.76 139 10:21 26.01.2020
4001 Clouds 1 1018 90 10000 2.1 250 09:58 26.01.2020
4002 Clouds 1 1018 90 10000 2.1 250 09:40 26.01.2020
4003 Clouds 1 1018 90 10000 2.1 250 09:40 26.01.2020
4004 Clouds 1 1018 90 10000 1.5 260 09:21 26.01.2020
4005 Clouds 1 1017 90 10000 1.76 139 08:45 26.01.2020
4006 Clouds 1 1017 88 10000 1.77 138 08:23 26.01.2020
4007 Fog 1 1017 93 100 2.1 130 07:58 26.01.2020
4008 Fog 1 1017 93 100 2.1 130 07:40 26.01.2020
4009 Clouds 1 1017 100 10000 1.53 124 07:22 26.01.2020
4010 Clouds 1 1017 100 10000 1.53 124 06:32 26.01.2020
4011 Mist 1 1017 100 5000 1.5 80 05:35 26.01.2020
4012 Fog 1 1018 100 600 1.39 126 04:58 26.01.2020
4013 Fog 1 1019 100 400 1.39 126 02:59 26.01.2020
4014 Fog 1 1019 100 400 1.39 126 02:59 26.01.2020
4015 Fog 1 1019 100 400 1.13 123 01:59 26.01.2020
4016 Rain 1 1018 100 100 2.6 60 01:39 26.01.2020
4017 Fog 1 1019 100 400 1.18 129 01:19 26.01.2020
4018 Fog 1 1019 92 100 2.6 60 00:39 26.01.2020
4019 Fog 1 1019 92 400 1.18 129 00:20 26.01.2020
4020 Clear 1 1019 92 7000 2.1 260 23:38 25.01.2020
4021 Clear 1 1019 91 7000 2.1 260 23:19 25.01.2020
4022 Clear 1 1019 91 2800 1.5 260 22:43 25.01.2020
4023 Clear 1 1018 92 0 0.94 112 22:20 25.01.2020
4024 Clear 1 1020 94 0 0.94 112 21:59 25.01.2020
4025 Clear 1 1020 94 0 0.94 112 21:41 25.01.2020
4026 Clear 1 1018 92 0 0.94 112 21:22 25.01.2020
4027 Clear 0 1021 91 0 0.94 112 20:54 25.01.2020
4028 Clear 2 1018 91 0 0.94 112 20:36 25.01.2020
4029 Clouds 1 1021 91 0 0.97 121 20:18 25.01.2020
4030 Clouds 0 1018 75 0 0.97 121 19:41 25.01.2020
4031 Clouds 2 1022 95 0 0.97 121 19:19 25.01.2020
4032 Clouds 2 1022 95 0 0.97 121 18:56 25.01.2020
4033 Clouds 2 1019 91 50 1 230 18:38 25.01.2020
4034 Clouds 2 1019 91 50 1 230 18:20 25.01.2020
4035 Clouds 2 1019 91 50 1 230 17:39 25.01.2020
4036 Clouds 3 1019 85 100 1 250 17:19 25.01.2020
4037 Clouds 3 1019 85 100 1 250 17:19 25.01.2020
4038 Clouds 2 1019 85 100 1 250 16:57 25.01.2020
4039 Clouds 3 1019 85 100 1 250 16:38 25.01.2020
4040 Clouds 3 1018 89 0 0.72 175 16:19 25.01.2020
4041 Clouds 3 1021 95 0 0.45 11 15:46 25.01.2020
4042 Clouds 3 1019 89 0 0.72 175 15:25 25.01.2020
4043 Clouds 3 1019 89 0 0.72 175 14:57 25.01.2020
4044 Clouds 3 1019 89 0 0.72 175 14:39 25.01.2020
4045 Clouds 3 1022 95 0 1.09 191 14:18 25.01.2020
4046 Clouds 3 1022 95 0 1.09 191 13:42 25.01.2020
4047 Clouds 3 1021 77 100 2.1 250 13:23 25.01.2020
4048 Fog 2 1022 100 200 1.5 210 12:45 25.01.2020
4049 Fog 2 1022 100 200 1.5 210 12:26 25.01.2020
4050 Fog 1 1022 100 200 1.5 210 11:45 25.01.2020
4051 Fog 1 1022 78 200 2.6 270 11:22 25.01.2020
4052 Fog 1 1022 100 200 1 0 10:59 25.01.2020
4053 Fog 1 1022 100 200 1 0 10:40 25.01.2020
4054 Fog 1 1022 92 400 1.5 280 10:20 25.01.2020
4055 Fog 1 1022 92 400 1.14 158 09:54 25.01.2020
4056 Fog 0 1021 92 400 1.14 158 09:36 25.01.2020
4057 Fog 0 1021 92 400 1.14 158 09:18 25.01.2020
4058 Fog 0 1021 92 400 1.14 158 08:42 25.01.2020
4059 Mist 0 1021 100 1000 0.46 128 07:51 25.01.2020
4060 Fog 0 1021 93 700 0.5 0 06:57 25.01.2020
4061 Mist 0 1021 100 1000 0.46 128 06:29 25.01.2020
4062 Fog 0 1021 100 600 0.46 128 05:48 25.01.2020
4063 Drizzle 0 1021 100 400 0.46 128 05:28 25.01.2020
4064 Fog -1 1021 100 400 2.1 260 03:54 25.01.2020
4065 Fog -1 1021 100 400 0.4 55 03:23 25.01.2020
4066 Fog -1 1021 100 400 1.5 260 02:24 25.01.2020
4067 Fog -1 1021 100 400 1.5 250 01:53 25.01.2020
4068 Fog -1 1022 100 400 0.69 187 00:52 25.01.2020
4069 Fog -1 1022 100 400 1.5 210 00:27 25.01.2020
4070 Fog -1 1022 100 100 0.5 0 23:59 24.01.2020
4071 Fog -1 1022 100 100 0.5 0 23:41 24.01.2020
4072 Fog -1 1022 100 400 1.5 240 23:23 24.01.2020
4073 Fog -1 1022 100 100 0.5 0 22:46 24.01.2020
4074 Fog -1 1022 100 400 1.54 165 22:26 24.01.2020
4075 Fog -1 1022 100 400 1.5 230 21:57 24.01.2020
4076 Fog -1 1022 100 100 2.1 220 21:39 24.01.2020
4077 Fog 0 1022 100 400 1.5 250 21:18 24.01.2020
4078 Fog -1 1022 100 100 1 0 20:43 24.01.2020
4079 Fog 0 1022 100 400 2.1 190 20:22 24.01.2020
4080 Fog 0 1022 100 400 0.6 52 19:58 24.01.2020
4081 Fog 0 1022 100 400 0.6 52 19:58 24.01.2020
4082 Fog 0 1022 100 100 2.6 0 19:39 24.01.2020
4083 Fog 0 1022 100 600 1.5 210 19:21 24.01.2020
4084 Fog 0 1022 100 100 1.5 0 18:54 24.01.2020
4085 Clear 0 1021 100 100 2.1 240 18:36 24.01.2020
4086 Mist 0 1022 100 1000 2.1 230 18:18 24.01.2020
4087 Mist 0 1022 100 1600 0.6 52 17:42 24.01.2020
4088 Mist 0 1021 100 1200 0.89 226 17:21 24.01.2020
4089 Mist 1 1021 100 1400 0.89 226 16:43 24.01.2020
4090 Mist 1 1021 100 2200 2.1 200 16:22 24.01.2020
4091 Mist 1 1021 100 2200 2.1 200 16:22 24.01.2020
4092 Mist 1 1022 100 2800 2.1 220 15:57 24.01.2020
4093 Fog 1 1021 73 200 2.1 190 15:39 24.01.2020
4094 Mist 1 1021 100 4000 2.1 240 15:20 24.01.2020
4095 Mist 1 1022 100 4400 0.89 226 14:41 24.01.2020
4096 Mist 1 1022 100 5000 1.5 220 14:23 24.01.2020
4097 Mist 1 1022 100 5000 1.6 191 13:57 24.01.2020
4098 Fog 1 1022 100 250 1.5 90 13:39 24.01.2020
4099 Mist 0 1022 92 4000 1.5 220 13:19 24.01.2020
4100 Mist 0 1022 92 4000 1.5 220 13:19 24.01.2020
4101 Mist 0 1023 92 4400 2.1 200 12:41 24.01.2020
4102 Mist 0 1023 92 4400 1.6 180 12:19 24.01.2020
4103 Mist 0 1023 100 5000 1.6 180 11:44 24.01.2020
4104 Mist -1 1023 100 4400 1.5 170 11:19 24.01.2020
4105 Mist -1 1023 100 3200 1.25 131 10:43 24.01.2020
4106 Mist -1 1023 100 5000 1.5 230 10:23 24.01.2020
4107 Fog -1 1023 100 500 3.1 150 10:00 24.01.2020
4108 Fog -1 1023 100 500 3.1 150 09:40 24.01.2020
4109 Mist -1 1023 100 5000 2.6 200 09:22 24.01.2020
4110 Mist -2 1023 100 4400 1.25 131 08:41 24.01.2020
4111 Mist -2 1023 100 6000 0.97 109 08:20 24.01.2020
4112 Mist -2 1023 100 8000 0.97 109 07:58 24.01.2020
4113 Fog -2 1022 100 100 1.5 180 07:37 24.01.2020
4114 Mist -2 1023 100 6000 1.5 190 06:53 24.01.2020
4115 Mist -1 1023 100 8000 2.1 190 06:33 24.01.2020
4116 Mist -1 1023 100 6000 2.6 220 05:59 24.01.2020
4117 Mist -1 1023 100 6000 2.1 170 05:18 24.01.2020
4118 Mist -1 1024 92 1600 3.1 150 02:54 24.01.2020
4119 Mist -1 1025 92 9000 2.1 210 02:27 24.01.2020
4120 Clouds -1 1025 92 10000 2.1 230 01:53 24.01.2020
4121 Clear -1 1024 92 150 2.1 180 01:33 24.01.2020
4122 Clouds -1 1025 92 10000 1.33 93 00:33 24.01.2020
4123 Clouds -1 1025 92 10000 2.1 110 23:58 23.01.2020
4124 Clouds -1 1025 92 10000 2.1 110 23:40 23.01.2020
4125 Clouds -1 1025 92 10000 2.1 70 23:20 23.01.2020
4126 Clear -1 1025 92 0 3.6 140 22:55 23.01.2020
4127 Clear -1 1025 100 2500 1.5 110 22:36 23.01.2020
4128 Clouds -1 1025 100 10000 2.6 80 22:18 23.01.2020
4129 Clouds -1 1025 100 10000 2.1 90 21:54 23.01.2020
4130 Clear -1 1025 100 6000 2.6 110 21:36 23.01.2020
4131 Clouds 0 1025 100 10000 2.6 70 21:18 23.01.2020
4132 Clouds 0 1026 100 10000 2.1 80 20:40 23.01.2020
4133 Clouds 0 1026 100 10000 3.6 60 20:22 23.01.2020
4134 Mist 0 1026 80 3000 3.1 70 19:57 23.01.2020
4135 Mist 0 1026 80 3000 3.1 70 19:39 23.01.2020
4136 Clouds 0 1026 100 10000 4.6 60 19:20 23.01.2020
4137 Mist 0 1025 80 2500 3.6 60 18:56 23.01.2020
4138 Mist 1 1026 80 10000 5.1 80 18:37 23.01.2020
4139 Mist 1 1026 80 10000 5.1 80 18:19 23.01.2020
4140 Mist 1 1026 80 10000 4.6 70 17:45 23.01.2020
4141 Mist 1 1026 73 8000 5.7 70 17:21 23.01.2020
4142 Mist 1 1026 73 6000 5.1 60 16:59 23.01.2020
4143 Mist 1 1027 73 9000 5.1 60 16:39 23.01.2020
4144 Mist 1 1027 73 9000 5.1 60 16:19 23.01.2020
4145 Mist 1 1027 73 8000 5.1 60 15:58 23.01.2020
4146 Mist 1 1028 73 10000 3.6 80 15:39 23.01.2020
4147 Mist 1 1028 73 10000 3.6 80 15:19 23.01.2020
4148 Clouds 2 1027 73 8000 4.6 50 14:58 23.01.2020
4149 Clouds 1 1027 73 8000 4.6 50 14:40 23.01.2020
4150 Mist 1 1029 73 10000 4.6 70 14:22 23.01.2020
4151 Mist 1 1029 64 3000 5.1 50 13:55 23.01.2020
4152 Clouds 1 1029 64 10000 5.1 90 13:37 23.01.2020
4153 Clouds 1 1029 65 10000 5.1 90 13:18 23.01.2020
4154 Fog 1 1029 65 1300 4.6 60 12:42 23.01.2020
4155 Mist 1 1030 65 10000 5.1 70 12:24 23.01.2020
4156 Mist 1 1030 65 8000 4.6 70 11:56 23.01.2020
4157 Mist 1 1030 65 5000 5.1 70 11:37 23.01.2020
4158 Mist 1 1030 65 5000 5.1 70 11:37 23.01.2020
4159 Mist 1 1030 76 5000 5.1 70 11:18 23.01.2020
4160 Mist 1 1030 76 5000 5.1 70 11:18 23.01.2020
4161 Mist 1 1030 76 2500 4.6 70 10:43 23.01.2020
4162 Mist 0 1030 76 5000 5.7 80 10:19 23.01.2020
4163 Mist 0 1031 78 5000 5.1 70 09:43 23.01.2020
4164 Mist 0 1031 76 2600 5.7 70 09:25 23.01.2020
4165 Mist 0 1031 76 2000 5.7 60 08:58 23.01.2020
4166 Mist 0 1031 76 2000 5.7 60 08:40 23.01.2020
4167 Mist 0 1031 88 2600 5.1 70 08:21 23.01.2020
4168 Mist 0 1031 88 4000 4.6 70 07:44 23.01.2020
4169 Mist 0 1031 88 2200 5.1 60 07:24 23.01.2020
4170 Mist 0 1031 88 2200 5.7 60 06:51 23.01.2020
4171 Mist 1 1031 88 3200 5.7 70 06:22 23.01.2020
4172 Fog 0 1031 100 100 5.7 80 05:37 23.01.2020
4173 Clouds 1 1033 88 10000 4.6 70 04:24 23.01.2020
4174 Clouds 1 1034 100 10000 5.1 60 02:33 23.01.2020
4175 Mist 1 1035 90 4400 4.6 60 01:18 23.01.2020
4176 Fog 1 1034 100 300 5.1 60 00:27 23.01.2020
4177 Fog 1 1034 90 800 4.6 70 23:48 22.01.2020
4178 Mist 1 1034 90 1800 6.7 50 23:29 22.01.2020
4179 Mist 1 1034 82 2500 6.2 50 22:59 22.01.2020
4180 Mist 1 1034 82 2500 6.2 50 22:40 22.01.2020
4181 Mist 1 1034 82 9000 3.1 80 22:22 22.01.2020
4182 Clouds 1 1034 82 10000 3.1 80 21:40 22.01.2020
4183 Clouds 0 1034 82 10000 1.5 90 21:22 22.01.2020
4184 Clouds 0 1033 82 10000 7.2 50 20:57 22.01.2020
4185 Clouds 0 1033 82 10000 7.2 50 20:39 22.01.2020
4186 Clouds 0 1034 76 10000 2.1 100 20:21 22.01.2020
4187 Clear 0 1033 74 10000 5.1 60 19:57 22.01.2020
4188 Mist 0 1033 100 2000 3.1 80 19:38 22.01.2020
4189 Clear 0 1033 76 10000 4.1 60 19:19 22.01.2020
4190 Clear 0 1033 74 10000 4.1 60 18:57 22.01.2020
4191 Clear 0 1033 76 3200 2.6 60 18:38 22.01.2020
4192 Clear 1 1033 64 10000 4.6 50 18:19 22.01.2020
4193 Clear 1 1033 59 10000 4.6 50 17:54 22.01.2020
4194 Mist 1 1033 92 2000 2.6 60 17:36 22.01.2020
4195 Clear 2 1033 59 10000 3.1 70 17:18 22.01.2020
4196 Clear 3 1033 55 10000 5.1 40 16:43 22.01.2020
4197 Clear 3 1033 55 10000 5.7 40 16:23 22.01.2020
4198 Clear 4 1033 52 10000 3.6 50 15:58 22.01.2020
4199 Clear 4 1033 52 10000 3.6 50 15:40 22.01.2020
4200 Clear 5 1033 52 10000 4.6 50 15:22 22.01.2020
4201 Clear 5 1033 56 10000 4.1 60 14:57 22.01.2020
4202 Clear 4 1034 60 10000 4.6 60 14:37 22.01.2020
4203 Clear 4 1034 60 10000 4.6 60 14:18 22.01.2020
4204 Clear 4 1034 60 10000 4.6 50 13:54 22.01.2020
4205 Clear 3 1034 64 10000 4.1 60 13:36 22.01.2020
4206 Clear 3 1034 64 10000 4.1 60 13:18 22.01.2020
4207 Clear 3 1034 69 10000 3.6 50 12:55 22.01.2020
4208 Clear 3 1034 74 10000 2.6 60 12:37 22.01.2020
4209 Clear 2 1034 74 10000 2.6 60 12:18 22.01.2020
4210 Clear 1 1034 74 10000 3.1 50 11:56 22.01.2020
4211 Clear 1 1034 80 10000 2.6 50 11:37 22.01.2020
4212 Clear 0 1034 80 10000 2.6 50 11:18 22.01.2020
4213 Clear -1 1034 80 10000 3.1 60 10:43 22.01.2020
4214 Clear -2 1034 86 10000 0.45 148 10:20 22.01.2020
4215 Clear -3 1034 86 10000 4.1 60 09:43 22.01.2020
4216 Clear -4 1034 92 10000 2.1 130 09:25 22.01.2020
4217 Clear -4 1034 86 10000 4.1 40 08:58 22.01.2020
4218 Clear -4 1034 86 10000 4.1 40 08:40 22.01.2020
4219 Clear -4 1034 92 10000 3.1 80 08:21 22.01.2020
4220 Clouds -4 1034 86 10000 4.1 40 07:58 22.01.2020
4221 Clouds -4 1034 86 10000 4.1 40 07:40 22.01.2020
4222 Clear -4 1034 85 10000 2.1 80 07:21 22.01.2020
4223 Clear -4 1034 85 10000 1.83 33 06:31 22.01.2020
4224 Clouds -3 1034 84 10000 4.6 30 05:42 22.01.2020
4225 Clear -4 1035 92 10000 3.1 30 04:20 22.01.2020
4226 Clear -4 1035 86 10000 2.54 359 03:23 22.01.2020
4227 Clear -4 1035 86 10000 2.54 359 03:23 22.01.2020
4228 Clear -3 1035 86 10000 2.54 359 02:32 22.01.2020
4229 Clear -3 1036 78 10000 4.6 30 00:46 22.01.2020
4230 Clear -3 1036 86 10000 2.6 120 00:27 22.01.2020
4231 Clear -2 1036 78 10000 4.1 50 23:55 21.01.2020
4232 Clear -2 1036 80 10000 3.6 40 23:36 21.01.2020
4233 Clear -2 1037 86 10000 2.6 40 23:18 21.01.2020
4234 Clear -2 1036 86 10000 3.1 80 22:40 21.01.2020
4235 Clear -2 1037 80 10000 3.6 60 22:20 21.01.2020
4236 Clear -2 1037 80 10000 3.6 60 22:20 21.01.2020
4237 Clear -2 1036 86 10000 3.6 120 21:57 21.01.2020
4238 Clear -2 1036 86 10000 3.6 120 21:38 21.01.2020
4239 Clear -2 1037 80 10000 2.1 70 21:20 21.01.2020
4240 Clear -1 1037 74 10000 2.6 50 20:56 21.01.2020
4241 Clear -1 1037 86 10000 2.1 60 20:37 21.01.2020
4242 Clear -1 1037 80 10000 2.6 60 20:19 21.01.2020
4243 Clear -1 1037 74 10000 4.1 40 19:56 21.01.2020
4244 Clear -1 1037 86 10000 2.6 120 19:38 21.01.2020
4245 Clear 0 1037 86 10000 4.1 90 19:20 21.01.2020
4246 Clear 0 1037 74 10000 3.6 50 18:55 21.01.2020
4247 Clear 0 1037 86 10000 2.6 50 18:37 21.01.2020
4248 Clear 0 1038 74 10000 3.1 40 18:18 21.01.2020
4249 Clear 1 1038 69 10000 3.1 50 17:45 21.01.2020
4250 Clear 2 1038 69 10000 2.6 60 17:20 21.01.2020
4251 Clear 3 1038 64 10000 3.1 50 16:59 21.01.2020
4252 Clear 3 1038 64 10000 1 70 16:37 21.01.2020
4253 Clear 3 1038 64 10000 1 70 16:37 21.01.2020
4254 Clear 3 1038 64 10000 1 70 16:37 21.01.2020
4255 Clear 4 1038 64 10000 3.6 80 16:19 21.01.2020
4256 Clear 4 1038 69 10000 2.1 60 15:56 21.01.2020
4257 Clear 4 1038 64 10000 1.5 60 15:36 21.01.2020
4258 Clear 5 1039 65 10000 2.6 90 15:18 21.01.2020
4259 Clear 4 1038 64 10000 3.6 120 14:38 21.01.2020
4260 Clear 4 1039 64 10000 2.1 90 14:20 21.01.2020
4261 Clear 4 1039 69 10000 2.6 60 13:40 21.01.2020
4262 Clear 4 1040 64 10000 2.6 80 13:19 21.01.2020
4263 Clear 3 1040 69 10000 3.1 60 12:56 21.01.2020
4264 Clear 2 1039 80 10000 3.6 120 12:38 21.01.2020
4265 Clear 2 1040 69 10000 3.1 80 12:19 21.01.2020
4266 Clear 1 1040 80 10000 2.6 60 11:41 21.01.2020
4267 Clear 1 1041 69 10000 2.6 80 11:22 21.01.2020
4268 Clear 0 1040 78 10000 2.6 60 10:59 21.01.2020
4269 Clear 0 1040 92 10000 3.6 120 10:41 21.01.2020
4270 Clear -1 1041 78 10000 1.8 74 10:22 21.01.2020
4271 Clear -2 1040 86 10000 3.6 40 09:43 21.01.2020
4272 Clear -3 1041 86 10000 1.5 80 09:24 21.01.2020
4273 Clear -3 1040 86 10000 4.1 40 08:58 21.01.2020
4274 Clear -3 1040 86 10000 4.1 40 08:40 21.01.2020
4275 Clear -3 1040 86 10000 4.1 50 08:19 21.01.2020
4276 Clear -3 1040 86 10000 4.1 50 07:42 21.01.2020
4277 Clear -3 1040 86 10000 4.1 50 07:42 21.01.2020
4278 Clear -3 1040 86 10000 3.1 50 07:23 21.01.2020
4279 Clear -3 1040 86 10000 3.1 50 07:23 21.01.2020
4280 Clear -3 1040 80 10000 4.6 50 06:56 21.01.2020
4281 Clear -3 1040 86 10000 3.1 40 06:37 21.01.2020
4282 Clear -2 1040 86 10000 5.1 50 05:53 21.01.2020
4283 Clear -2 1040 86 10000 5.1 40 04:41 21.01.2020
4284 Clear -2 1041 86 10000 3.1 40 04:19 21.01.2020
4285 Clear -2 1042 86 10000 2.6 40 02:26 21.01.2020
4286 Clear -2 1042 86 10000 3.6 60 01:36 21.01.2020
4287 Clear -1 1042 89 10000 5.1 50 00:41 21.01.2020
4288 Clear -1 1043 86 10000 3.1 40 00:22 21.01.2020
4289 Clear -1 1042 89 10000 5.1 40 23:56 20.01.2020
4290 Clear -1 1043 86 10000 4.1 70 23:36 20.01.2020
4291 Clear -1 1043 86 10000 3.6 40 23:18 20.01.2020
4292 Clear -1 1043 74 10000 4.6 40 22:40 20.01.2020
4293 Clear -1 1043 86 10000 4.1 40 22:21 20.01.2020
4294 Clear -1 1043 91 10000 5.1 50 21:58 20.01.2020
4295 Clear -1 1043 86 10000 3.6 80 21:38 20.01.2020
4296 Clear 0 1043 91 10000 4.6 50 21:20 20.01.2020
4297 Clouds 0 1043 80 10000 5.7 50 20:59 20.01.2020
4298 Clouds 0 1043 80 10000 5.7 50 20:41 20.01.2020
4299 Clear 0 1044 91 10000 4.6 50 20:20 20.01.2020
4300 Clouds 0 1043 74 10000 5.7 50 19:58 20.01.2020
4301 Clouds 0 1043 74 10000 5.7 50 19:40 20.01.2020
4302 Clear 0 1044 91 10000 4.1 40 19:19 20.01.2020
4303 Clear 0 1043 80 10000 6.2 50 18:55 20.01.2020
4304 Clear 1 1043 91 10000 1.5 50 18:37 20.01.2020
4305 Clear 1 1044 91 10000 3.6 30 18:19 20.01.2020
4306 Clouds 1 1043 91 10000 2.1 40 17:38 20.01.2020
4307 Clouds 2 1044 80 10000 3.6 40 17:19 20.01.2020
4308 Clouds 3 1044 74 10000 2.1 50 16:46 20.01.2020
4309 Clouds 3 1044 74 10000 4.6 60 16:26 20.01.2020
4310 Clouds 4 1044 69 10000 6.2 40 15:59 20.01.2020
4311 Clouds 4 1044 69 10000 6.2 40 15:40 20.01.2020
4312 Clouds 4 1045 69 10000 4.6 40 15:22 20.01.2020
4313 Clouds 4 1044 69 10000 5.7 50 14:59 20.01.2020
4314 Clouds 4 1044 69 10000 5.7 50 14:40 20.01.2020
4315 Clouds 4 1045 69 10000 4.6 60 14:21 20.01.2020
4316 Clouds 4 1045 70 10000 5.7 40 13:56 20.01.2020
4317 Clouds 4 1045 74 10000 2.6 40 13:38 20.01.2020
4318 Clouds 4 1045 69 10000 4.1 60 13:18 20.01.2020
4319 Clouds 4 1045 69 10000 6.7 60 12:42 20.01.2020
4320 Clouds 4 1046 80 10000 4.1 60 12:23 20.01.2020
4321 Clouds 3 1046 71 10000 6.2 60 11:55 20.01.2020
4322 Clouds 3 1046 86 10000 4.6 50 11:36 20.01.2020
4323 Clouds 3 1046 86 10000 4.6 50 11:18 20.01.2020
4324 Clouds 2 1046 86 10000 4.6 50 10:46 20.01.2020
4325 Clouds 2 1046 83 10000 2.1 50 10:21 20.01.2020
4326 Clouds 1 1045 83 10000 1.5 40 09:42 20.01.2020
4327 Mist 1 1045 92 9000 1.5 60 09:24 20.01.2020
4328 Clouds 0 1045 83 10000 1.5 80 08:56 20.01.2020
4329 Fog 0 1044 86 5000 4.6 60 08:35 20.01.2020
4330 Clouds 0 1044 94 10000 3.6 50 07:59 20.01.2020
4331 Clouds 0 1044 94 10000 3.6 50 07:41 20.01.2020
4332 Clouds 0 1045 94 10000 2.6 50 07:21 20.01.2020
4333 Clouds 0 1044 86 7000 3.6 60 06:44 20.01.2020
4334 Clouds 0 1044 94 10000 2.6 10 06:22 20.01.2020
4335 Rain 1 1044 86 10000 2.6 20 05:38 20.01.2020
4336 Rain 0 1044 86 10000 2.6 20 05:19 20.01.2020
4337 Clouds 1 1044 86 10000 3.1 10 04:24 20.01.2020
4338 Clouds 1 1044 94 10000 3.1 20 01:59 20.01.2020
4339 Clouds 2 1044 94 10000 3.1 20 01:40 20.01.2020
4340 Clear 2 1044 95 10000 2.6 10 01:20 20.01.2020
4341 Clouds 2 1044 95 10000 3.1 30 00:43 20.01.2020
4342 Clouds 2 1044 80 10000 2.6 10 00:21 20.01.2020
4343 Clouds 2 1042 100 6000 4.6 10 23:38 19.01.2020
4344 Clouds 2 1043 92 10000 3.6 30 23:19 19.01.2020
4345 Clouds 2 1043 92 10000 3.6 30 22:56 19.01.2020
4346 Clouds 2 1042 100 5000 4.6 10 22:37 19.01.2020
4347 Clouds 2 1043 92 10000 1.5 10 22:19 19.01.2020
4348 Clouds 2 1042 86 10000 3.6 40 21:56 19.01.2020
4349 Clouds 2 1042 92 10000 2.1 20 21:38 19.01.2020
4350 Clouds 2 1042 92 10000 2.1 20 21:19 19.01.2020
4351 Clouds 2 1041 86 10000 4.1 30 20:57 19.01.2020
4352 Rain 2 1041 100 4500 4.6 20 20:38 19.01.2020
4353 Clouds 3 1041 85 10000 3.1 40 20:20 19.01.2020
4354 Clouds 3 1041 83 10000 4.6 30 19:56 19.01.2020
4355 Clouds 3 1041 83 10000 3.1 10 19:38 19.01.2020
4356 Clouds 3 1041 83 10000 3.1 10 19:19 19.01.2020
4357 Clouds 3 1040 83 10000 2.1 10 18:55 19.01.2020
4358 Rain 3 1040 83 10000 4.1 10 18:37 19.01.2020
4359 Rain 3 1040 83 10000 4.1 10 18:19 19.01.2020
4360 Clouds 3 1039 83 10000 4.1 360 17:58 19.01.2020
4361 Clouds 3 1039 83 10000 4.1 360 17:58 19.01.2020
4362 Clouds 3 1039 83 10000 4.1 360 17:39 19.01.2020
4363 Clouds 3 1039 75 10000 3.1 20 17:20 19.01.2020
4364 Clouds 3 1038 75 10000 2.6 10 16:57 19.01.2020
4365 Clouds 3 1037 75 10000 2.6 10 16:38 19.01.2020
4366 Clouds 4 1038 86 10000 2.1 20 16:19 19.01.2020
4367 Clouds 4 1038 80 10000 3.1 20 15:58 19.01.2020
4368 Rain 4 1037 80 10000 4.6 360 15:37 19.01.2020
4369 Rain 4 1037 93 10000 1.5 20 15:19 19.01.2020
4370 Clouds 4 1037 93 10000 2.6 10 14:57 19.01.2020
4371 Clouds 4 1037 86 10000 3.09 22 14:38 19.01.2020
4372 Clouds 4 1037 86 10000 3.09 22 14:38 19.01.2020
4373 Clouds 4 1037 86 10000 3.41 8 14:18 19.01.2020
4374 Clouds 4 1037 80 10000 3.41 8 13:57 19.01.2020
4375 Clouds 4 1037 86 10000 3.41 8 13:38 19.01.2020
4376 Clouds 4 1037 86 10000 3.41 8 13:19 19.01.2020
4377 Clouds 3 1036 93 10000 3.46 5 12:55 19.01.2020
4378 Clouds 3 1035 76 10000 2.6 350 12:37 19.01.2020
4379 Clouds 3 1036 93 10000 3.46 5 12:19 19.01.2020
4380 Clouds 2 1036 76 10000 3.46 5 11:42 19.01.2020
4381 Clouds 2 1036 88 10000 1.34 355 11:20 19.01.2020
4382 Clouds 1 1035 88 10000 1.34 355 10:56 19.01.2020
4383 Clouds 1 1035 88 10000 1.34 355 10:56 19.01.2020
4384 Clouds 1 1035 88 10000 1.34 355 10:56 19.01.2020
4385 Mist 1 1034 88 5000 2.1 290 10:38 19.01.2020
4386 Clouds 1 1035 88 10000 1.34 355 10:19 19.01.2020
4387 Clouds 0 1035 88 10000 1.5 280 09:56 19.01.2020
4388 Clouds 0 1035 88 10000 1.5 280 09:56 19.01.2020
4389 Clouds 0 1035 88 10000 1.5 280 09:56 19.01.2020
4390 Clouds 0 1033 86 10000 3.1 330 09:37 19.01.2020
4391 Clouds 0 1034 92 10000 1.5 250 09:18 19.01.2020
4392 Clouds 0 1034 92 10000 1.34 355 08:48 19.01.2020
4393 Clouds 0 1033 100 10000 1.34 355 08:28 19.01.2020
4394 Clouds 0 1033 94 10000 1 0 07:45 19.01.2020
4395 Clouds 0 1032 92 10000 1.5 280 07:26 19.01.2020
4396 Snow 0 1032 92 10000 1.5 290 06:54 19.01.2020
4397 Clouds 0 1032 92 10000 2.1 280 06:21 19.01.2020
4398 Clouds -1 1030 92 10000 1.5 270 03:28 19.01.2020
4399 Clouds -1 1030 92 10000 1.21 339 02:26 19.01.2020
4400 Snow -1 1029 92 7000 3.6 290 01:38 19.01.2020
4401 Clouds -1 1029 92 10000 2.6 240 01:18 19.01.2020
4402 Clouds -1 1029 92 10000 3.1 240 00:41 19.01.2020
4403 Clouds -1 1029 91 10000 2.6 320 00:19 19.01.2020
4404 Clouds -1 1029 91 10000 2.6 320 23:42 18.01.2020
4405 Clear -1 1028 92 10000 1.5 260 23:24 18.01.2020
4406 Clouds -1 1029 78 10000 1.5 270 22:58 18.01.2020
4407 Clouds -1 1029 78 10000 1.5 270 22:39 18.01.2020
4408 Clear 0 1028 78 10000 2.6 260 22:21 18.01.2020
4409 Clouds 0 1029 78 10000 2.1 270 21:57 18.01.2020
4410 Clouds 0 1027 78 10000 3.1 270 21:38 18.01.2020
4411 Clouds 0 1028 78 10000 2.6 260 21:20 18.01.2020
4412 Clouds 0 1028 78 10000 2.1 280 20:55 18.01.2020
4413 Clouds 0 1027 92 10000 2.1 260 20:36 18.01.2020
4414 Clouds 0 1028 84 10000 1.92 288 20:18 18.01.2020
4415 Clouds 1 1027 84 10000 1.5 240 19:42 18.01.2020
4416 Clear 1 1027 86 10000 1.92 288 19:24 18.01.2020
4417 Clouds 1 1027 93 10000 4.1 260 18:43 18.01.2020
4418 Clear 2 1026 84 10000 3.1 250 18:24 18.01.2020
4419 Clouds 2 1026 84 10000 2.1 250 17:58 18.01.2020
4420 Clouds 2 1027 86 10000 3.6 250 17:40 18.01.2020
4421 Clouds 3 1026 86 10000 3.1 230 17:20 18.01.2020
4422 Clouds 3 1026 86 10000 3.6 210 16:56 18.01.2020
4423 Clouds 4 1025 84 10000 4.6 260 16:37 18.01.2020
4424 Clouds 4 1025 80 10000 3.6 210 16:19 18.01.2020
4425 Clouds 4 1025 86 10000 3.6 230 15:44 18.01.2020
4426 Clouds 4 1025 80 10000 3.1 220 15:25 18.01.2020
4427 Clouds 4 1025 80 10000 4.1 220 14:59 18.01.2020
4428 Clouds 4 1026 93 10000 3.1 270 14:40 18.01.2020
4429 Clouds 4 1025 86 10000 3.6 240 14:19 18.01.2020
4430 Rain 4 1025 86 10000 4.1 230 13:56 18.01.2020
4431 Clouds 4 1025 93 10000 4.6 240 13:36 18.01.2020
4432 Clouds 4 1025 93 10000 4.6 240 13:18 18.01.2020
4433 Rain 4 1025 86 10000 4.1 230 12:41 18.01.2020
4434 Rain 3 1025 86 10000 5.1 230 12:21 18.01.2020
4435 Clouds 3 1025 86 10000 4.6 230 11:56 18.01.2020
4436 Clouds 3 1025 93 10000 5.1 220 11:38 18.01.2020
4437 Clouds 3 1025 93 10000 5.1 220 11:19 18.01.2020
4438 Clouds 3 1025 100 10000 4.1 220 10:42 18.01.2020
4439 Clouds 3 1025 100 10000 5.1 210 10:20 18.01.2020
4440 Clouds 3 1025 100 10000 5.1 210 10:20 18.01.2020
4441 Clouds 3 1024 100 10000 4.6 200 09:54 18.01.2020
4442 Clouds 3 1024 93 10000 4.6 190 09:36 18.01.2020
4443 Clouds 3 1024 93 10000 5.1 200 08:59 18.01.2020
4444 Clouds 3 1024 93 10000 5.1 200 08:41 18.01.2020
4445 Clouds 2 1024 93 10000 4.6 200 08:20 18.01.2020
4446 Clouds 2 1024 93 10000 3.6 210 07:52 18.01.2020
4447 Clouds 2 1023 93 10000 4.6 200 07:34 18.01.2020
4448 Clouds 2 1024 93 10000 3.6 220 06:48 18.01.2020
4449 Clouds 2 1023 93 10000 4.1 200 06:22 18.01.2020
4450 Clouds 2 1023 93 10000 3.6 200 05:31 18.01.2020
4451 Clouds 2 1023 100 10000 2.6 230 04:19 18.01.2020
4452 Clouds 3 1021 93 10000 2.6 230 02:33 18.01.2020
4453 Clouds 3 1021 93 10000 3.6 220 01:36 18.01.2020
4454 Clouds 3 1022 93 10000 4.6 260 00:39 18.01.2020
4455 Clouds 3 1022 93 10000 3.6 210 00:19 18.01.2020
4456 Clouds 3 1021 93 10000 2.6 200 23:58 17.01.2020
4457 Clouds 3 1021 93 10000 3.6 220 23:38 17.01.2020
4458 Clouds 3 1021 93 10000 3.6 220 23:18 17.01.2020
4459 Clouds 4 1021 93 10000 2.6 240 22:41 17.01.2020
4460 Clouds 4 1020 93 10000 2.1 210 22:19 17.01.2020
4461 Clouds 4 1021 93 10000 2.6 250 21:54 17.01.2020
4462 Clouds 4 1019 86 10000 4.1 260 21:36 17.01.2020
4463 Clouds 4 1020 93 10000 2.1 230 21:18 17.01.2020
4464 Clouds 5 1019 93 10000 3.6 240 20:41 17.01.2020
4465 Clouds 5 1019 93 10000 4.6 230 20:21 17.01.2020
4466 Clouds 6 1019 93 10000 4.6 230 19:58 17.01.2020
4467 Rain 6 1018 93 10000 4.6 260 19:39 17.01.2020
4468 Clouds 6 1018 93 10000 4.1 230 19:20 17.01.2020
4469 Rain 6 1018 100 10000 5.1 220 18:58 17.01.2020
4470 Rain 6 1018 81 10000 6.7 250 18:39 17.01.2020
4471 Clear 6 1017 100 10000 3.6 230 18:21 17.01.2020
4472 Clouds 7 1018 93 10000 3.6 230 17:40 17.01.2020
4473 Clouds 7 1017 100 10000 4.1 220 17:22 17.01.2020
4474 Clouds 7 1017 100 10000 5.1 220 16:57 17.01.2020
4475 Rain 7 1016 100 8000 4.1 220 16:39 17.01.2020
4476 Rain 7 1016 100 10000 4.6 210 16:19 17.01.2020
4477 Clouds 7 1016 100 10000 5.1 190 15:45 17.01.2020
4478 Rain 7 1016 100 10000 4.1 190 15:26 17.01.2020
4479 Rain 7 1016 100 10000 5.1 210 14:46 17.01.2020
4480 Rain 8 1016 93 10000 5.1 200 14:27 17.01.2020
4481 Rain 7 1017 93 6000 4.1 200 13:58 17.01.2020
4482 Rain 7 1016 93 10000 6.2 220 13:38 17.01.2020
4483 Rain 7 1016 93 10000 5.1 200 13:19 17.01.2020
4484 Rain 7 1017 87 10000 4.6 200 12:45 17.01.2020
4485 Clouds 7 1017 87 10000 4.6 190 12:22 17.01.2020
4486 Rain 7 1017 93 7000 3.6 190 11:41 17.01.2020
4487 Clouds 7 1017 87 10000 2.6 180 11:19 17.01.2020
4488 Clouds 6 1017 87 10000 3.6 190 10:45 17.01.2020
4489 Clouds 6 1018 87 10000 1.5 130 10:24 17.01.2020
4490 Clouds 6 1018 93 10000 3.82 181 09:59 17.01.2020
4491 Clouds 5 1018 93 10000 3.82 181 09:41 17.01.2020
4492 Clouds 5 1018 93 10000 3.82 181 09:20 17.01.2020
4493 Clouds 5 1018 93 10000 1.5 120 08:55 17.01.2020
4494 Clouds 5 1017 86 10000 4.1 210 08:36 17.01.2020
4495 Clouds 4 1018 86 10000 1.5 210 08:18 17.01.2020
4496 Clouds 4 1018 86 10000 3.1 170 07:42 17.01.2020
4497 Clouds 4 1018 86 10000 2.87 157 07:24 17.01.2020
4498 Clouds 4 1018 86 10000 2.87 157 06:43 17.01.2020
4499 Clear 4 1018 86 10000 2.87 157 06:20 17.01.2020
4500 Clouds 5 1019 81 10000 4.1 140 04:26 17.01.2020
4501 Clouds 5 1020 81 10000 4.6 190 02:55 17.01.2020
4502 Clouds 5 1020 86 10000 5.7 200 02:31 17.01.2020
4503 Clouds 5 1020 86 10000 5.7 200 01:33 17.01.2020
4504 Clouds 6 1021 81 10000 4.6 170 00:59 17.01.2020
4505 Clouds 6 1021 81 10000 4.6 170 00:59 17.01.2020
4506 Clouds 6 1021 81 10000 4.6 170 00:35 17.01.2020
4507 Clouds 6 1021 81 10000 6.2 160 23:59 16.01.2020
4508 Clear 6 1022 87 10000 2.1 120 23:41 16.01.2020
4509 Clear 6 1022 87 10000 2.1 120 23:22 16.01.2020
4510 Clear 6 1022 87 10000 2.6 170 22:41 16.01.2020
4511 Clear 6 1022 81 10000 1.5 120 22:21 16.01.2020
4512 Clear 7 1023 81 10000 3.6 160 21:57 16.01.2020
4513 Clear 6 1023 87 10000 5.1 150 21:38 16.01.2020
4514 Clear 6 1023 81 10000 2.1 120 21:19 16.01.2020
4515 Clear 7 1023 81 10000 4.1 160 20:57 16.01.2020
4516 Clear 7 1024 87 10000 6.2 150 20:38 16.01.2020
4517 Clear 7 1024 81 10000 1.5 110 20:19 16.01.2020
4518 Clear 7 1024 76 10000 3.6 160 19:56 16.01.2020
4519 Clear 7 1024 87 10000 5.7 160 19:37 16.01.2020
4520 Clear 7 1024 75 10000 2.1 90 19:19 16.01.2020
4521 Clear 7 1023 81 10000 3.6 150 18:55 16.01.2020
4522 Clear 8 1023 81 10000 3.1 150 18:37 16.01.2020
4523 Clear 8 1024 75 10000 1.5 100 18:18 16.01.2020
4524 Clear 8 1024 75 10000 1.5 100 18:18 16.01.2020
4525 Clear 8 1024 81 10000 3.6 160 17:42 16.01.2020
4526 Clear 9 1024 70 10000 2.1 130 17:23 16.01.2020
4527 Clear 10 1024 76 10000 4.1 170 16:57 16.01.2020
4528 Clear 10 1024 76 10000 4.6 160 16:39 16.01.2020
4529 Clear 10 1024 66 10000 2.6 170 16:19 16.01.2020
4530 Clouds 11 1024 71 10000 4.6 170 15:44 16.01.2020
4531 Clear 11 1024 66 10000 4.1 190 15:24 16.01.2020
4532 Clouds 11 1025 71 10000 4.6 170 14:59 16.01.2020
4533 Clouds 11 1025 71 10000 4.6 170 14:41 16.01.2020
4534 Clouds 11 1025 71 10000 4.1 180 14:22 16.01.2020
4535 Clouds 10 1025 81 10000 4.1 160 13:45 16.01.2020
4536 Clouds 10 1026 76 10000 5.1 180 13:26 16.01.2020
4537 Clouds 10 1026 87 10000 3.6 190 12:57 16.01.2020
4538 Clouds 9 1026 81 10000 5.7 190 12:38 16.01.2020
4539 Clouds 9 1026 93 10000 2.6 180 12:20 16.01.2020
4540 Clouds 8 1026 93 7000 4.1 190 11:41 16.01.2020
4541 Clouds 8 1027 100 10000 1.5 170 11:23 16.01.2020
4542 Clouds 7 1027 93 10000 3.6 170 10:55 16.01.2020
4543 Clouds 7 1027 93 10000 3.6 170 10:55 16.01.2020
4544 Mist 7 1026 93 3500 4.1 200 10:37 16.01.2020
4545 Clouds 7 1026 100 10000 1.5 150 10:19 16.01.2020
4546 Fog 6 1027 93 10000 2.6 160 09:43 16.01.2020
4547 Mist 5 1026 100 8000 1.5 140 09:24 16.01.2020
4548 Clouds 5 1026 93 10000 2.1 170 08:58 16.01.2020
4549 Clouds 5 1026 93 10000 2.1 170 08:40 16.01.2020
4550 Mist 6 1026 100 8000 2.04 199 08:19 16.01.2020
4551 Mist 6 1026 100 6000 2.04 199 07:42 16.01.2020
4552 Clouds 6 1026 100 10000 1.5 220 07:24 16.01.2020
4553 Clouds 6 1026 100 10000 2.04 199 06:54 16.01.2020
4554 Fog 6 1025 93 200 1.5 230 06:34 16.01.2020
4555 Clouds 7 1025 100 10000 1.5 180 05:51 16.01.2020
4556 Mist 7 1025 100 2000 1.5 160 04:51 16.01.2020
4557 Clouds 8 1025 100 10000 1.5 220 04:21 16.01.2020
4558 Clouds 8 1025 100 10000 1.84 203 03:27 16.01.2020
4559 Clouds 8 1024 100 10000 1.5 230 02:23 16.01.2020
4560 Drizzle 9 1023 100 10000 1.5 220 00:44 16.01.2020
4561 Rain 9 1022 93 10000 2.6 220 00:23 16.01.2020
4562 Rain 9 1022 87 10000 3.6 220 23:45 15.01.2020
4563 Clouds 9 1022 87 10000 3.1 230 23:22 15.01.2020
4564 Clouds 9 1021 87 10000 3.1 230 22:57 15.01.2020
4565 Rain 9 1021 87 10000 6.7 250 22:39 15.01.2020
4566 Clouds 9 1021 87 10000 4.6 230 22:19 15.01.2020
4567 Clouds 9 1020 87 10000 6.2 230 21:57 15.01.2020
4568 Rain 9 1020 81 10000 5.7 230 21:37 15.01.2020
4569 Rain 10 1020 81 10000 5.7 230 21:19 15.01.2020
4570 Rain 10 1019 71 10000 10.3 220 20:56 15.01.2020
4571 Drizzle 10 1019 66 10000 6.2 220 20:38 15.01.2020
4572 Clouds 10 1019 71 10000 5.7 220 20:20 15.01.2020
4573 Rain 10 1019 66 10000 6.7 220 19:55 15.01.2020
4574 Clouds 10 1018 76 10000 7.2 230 19:37 15.01.2020
4575 Clouds 10 1018 76 10000 7.2 230 19:37 15.01.2020
4576 Rain 10 1018 76 10000 5.7 210 19:18 15.01.2020
4577 Rain 10 1018 71 10000 6.7 210 18:56 15.01.2020
4578 Rain 10 1018 71 10000 6.7 210 18:56 15.01.2020
4579 Clouds 10 1017 66 10000 8.7 220 18:38 15.01.2020
4580 Clouds 10 1017 66 10000 8.7 220 18:38 15.01.2020
4581 Rain 10 1017 66 10000 7.7 200 18:19 15.01.2020
4582 Clouds 10 1017 62 10000 5.1 210 17:57 15.01.2020
4583 Clouds 10 1016 70 10000 7.7 210 17:38 15.01.2020
4584 Clouds 11 1016 62 10000 6.7 190 17:19 15.01.2020
4585 Clouds 11 1016 66 10000 6.7 220 16:41 15.01.2020
4586 Clouds 11 1015 62 10000 7.7 200 16:22 15.01.2020
4587 Clouds 11 1015 62 10000 9.8 200 15:59 15.01.2020
4588 Clouds 11 1015 62 10000 9.8 200 15:41 15.01.2020
4589 Clouds 12 1015 62 10000 9.8 200 15:20 15.01.2020
4590 Clouds 12 1015 62 10000 7.2 210 14:44 15.01.2020
4591 Clear 11 1015 62 10000 9.8 190 14:21 15.01.2020
4592 Clouds 11 1015 62 10000 7.7 200 13:56 15.01.2020
4593 Clouds 11 1015 61 10000 10.8 210 13:38 15.01.2020
4594 Clear 11 1015 66 10000 9.3 200 13:19 15.01.2020
4595 Clouds 11 1015 66 10000 6.7 200 12:41 15.01.2020
4596 Clear 10 1015 70 10000 8.2 200 12:20 15.01.2020
4597 Clouds 9 1016 70 10000 5.1 200 11:59 15.01.2020
4598 Clouds 9 1015 70 10000 7.7 220 11:38 15.01.2020
4599 Clouds 9 1015 70 10000 7.7 220 11:38 15.01.2020
4600 Clouds 9 1015 70 10000 7.2 200 11:19 15.01.2020
4601 Clouds 8 1015 81 10000 4.1 180 10:47 15.01.2020
4602 Clear 7 1015 75 10000 6.7 200 10:28 15.01.2020
4603 Clouds 7 1015 87 10000 4.6 180 09:57 15.01.2020
4604 Clouds 6 1015 81 10000 2.1 0 09:38 15.01.2020
4605 Clear 6 1014 81 10000 7.2 190 09:19 15.01.2020
4606 Clouds 6 1015 81 10000 3.6 190 08:44 15.01.2020
4607 Clear 6 1014 81 10000 5.1 180 08:24 15.01.2020
4608 Clouds 6 1015 81 10000 4.1 190 07:54 15.01.2020
4609 Clouds 6 1014 81 10000 5.7 210 07:33 15.01.2020
4610 Clouds 7 1014 87 10000 5.1 190 06:52 15.01.2020
4611 Clouds 7 1014 70 10000 4.6 180 06:28 15.01.2020
4612 Clouds 8 1014 81 10000 5.1 190 04:56 15.01.2020
4613 Clouds 8 1014 81 10000 4.1 210 03:20 15.01.2020
4614 Drizzle 9 1014 87 10000 4.6 210 01:48 15.01.2020
4615 Clouds 8 1014 75 10000 6.7 200 01:21 15.01.2020
4616 Clouds 9 1013 70 10000 8.7 220 00:37 15.01.2020
4617 Clouds 9 1014 70 10000 6.7 210 00:19 15.01.2020
4618 Clouds 9 1014 70 10000 5.7 210 23:46 14.01.2020
4619 Clouds 9 1013 70 10000 8.7 210 23:27 14.01.2020
4620 Clouds 9 1014 70 10000 5.7 200 22:57 14.01.2020
4621 Clouds 9 1013 70 10000 8.2 230 22:39 14.01.2020
4622 Clouds 9 1013 66 10000 7.2 210 22:18 14.01.2020
4623 Clouds 9 1013 66 10000 7.2 210 21:57 14.01.2020
4624 Clouds 9 1012 70 10000 8.2 220 21:38 14.01.2020
4625 Clouds 9 1013 66 10000 6.7 200 21:19 14.01.2020
4626 Clouds 9 1013 66 10000 7.7 210 20:54 14.01.2020
4627 Clouds 9 1012 70 10000 7.7 220 20:36 14.01.2020
4628 Clouds 8 1013 76 10000 5.1 210 20:18 14.01.2020
4629 Clouds 8 1013 76 10000 5.1 210 19:54 14.01.2020
4630 Clouds 8 1012 81 10000 8.2 210 19:36 14.01.2020
4631 Clouds 8 1012 81 10000 7.7 210 19:18 14.01.2020
4632 Clouds 8 1013 81 10000 7.7 200 18:40 14.01.2020
4633 Drizzle 8 1013 81 7000 6.2 210 18:20 14.01.2020
4634 Drizzle 8 1013 81 7000 6.2 210 17:56 14.01.2020
4635 Rain 8 1011 65 10000 8.7 220 17:36 14.01.2020
4636 Clouds 8 1012 61 10000 7.7 210 17:18 14.01.2020
4637 Clouds 8 1012 57 10000 8.2 210 16:42 14.01.2020
4638 Clouds 8 1012 65 10000 7.7 200 16:22 14.01.2020
4639 Clouds 8 1012 61 10000 6.7 200 15:56 14.01.2020
4640 Clouds 9 1011 57 10000 8.7 220 15:38 14.01.2020
4641 Clouds 9 1011 61 10000 7.2 200 15:19 14.01.2020
4642 Clouds 8 1012 57 10000 7.2 200 14:44 14.01.2020
4643 Clouds 8 1011 65 10000 10.3 210 14:21 14.01.2020
4644 Clouds 8 1011 61 10000 7.2 200 13:57 14.01.2020
4645 Clouds 8 1011 65 10000 7.7 220 13:38 14.01.2020
4646 Clouds 8 1011 61 10000 8.2 210 13:18 14.01.2020
4647 Clouds 8 1011 61 10000 8.7 210 12:42 14.01.2020
4648 Clouds 7 1012 65 10000 7.7 210 12:22 14.01.2020
4649 Clouds 7 1012 70 10000 7.7 200 11:56 14.01.2020
4650 Clouds 7 1012 70 10000 7.7 200 11:36 14.01.2020
4651 Clouds 7 1012 70 10000 7.7 200 11:18 14.01.2020
4652 Clouds 7 1011 70 10000 7.2 190 10:41 14.01.2020
4653 Clouds 7 1011 75 10000 6.2 200 10:20 14.01.2020
4654 Clouds 6 1011 75 10000 6.2 210 09:59 14.01.2020
4655 Clouds 6 1011 75 10000 6.2 210 09:40 14.01.2020
4656 Clouds 6 1011 75 10000 6.7 200 09:21 14.01.2020
4657 Clouds 6 1010 80 10000 9.3 210 08:57 14.01.2020
4658 Clouds 6 1010 80 10000 9.3 210 08:39 14.01.2020
4659 Clouds 6 1010 75 10000 7.7 200 08:20 14.01.2020
4660 Clouds 6 1010 81 10000 4.1 160 07:38 14.01.2020
4661 Clouds 6 1010 75 10000 5.7 190 06:59 14.01.2020
4662 Clouds 6 1010 75 10000 5.7 190 06:59 14.01.2020
4663 Clouds 6 1010 75 10000 5.7 190 06:40 14.01.2020
4664 Rain 6 1010 81 10000 5.7 190 05:56 14.01.2020
4665 Rain 6 1011 87 10000 6.7 190 04:24 14.01.2020
4666 Clouds 6 1011 93 10000 5.1 180 03:45 14.01.2020
4667 Clouds 6 1011 87 10000 3.6 180 02:30 14.01.2020
4668 Clouds 6 1012 93 10000 4.1 200 01:19 14.01.2020
4669 Clouds 6 1012 93 10000 5.7 180 00:47 14.01.2020
4670 Clouds 6 1012 93 10000 4.6 190 00:21 14.01.2020
4671 Clouds 6 1012 93 10000 4.6 190 00:21 14.01.2020
4672 Clouds 6 1013 93 10000 4.6 180 23:42 13.01.2020
4673 Clouds 6 1013 93 10000 5.7 180 23:19 13.01.2020
4674 Drizzle 6 1014 100 2500 4.6 180 22:57 13.01.2020
4675 Drizzle 6 1014 100 2500 4.6 180 22:39 13.01.2020
4676 Rain 6 1013 93 10000 4.1 190 22:19 13.01.2020
4677 Rain 6 1014 93 10000 3.1 180 21:55 13.01.2020
4678 Rain 6 1013 93 10000 4.1 180 21:36 13.01.2020
4679 Rain 5 1014 93 10000 4.16 162 21:18 13.01.2020
4680 Clouds 6 1014 100 10000 2.1 170 20:55 13.01.2020
4681 Clouds 6 1014 93 7000 4.1 170 20:37 13.01.2020
4682 Clouds 6 1014 93 7000 4.1 170 20:37 13.01.2020
4683 Rain 6 1015 100 10000 2.6 180 20:19 13.01.2020
4684 Rain 6 1015 100 10000 2.6 180 20:19 13.01.2020
4685 Mist 6 1015 93 4000 5.1 180 19:41 13.01.2020
4686 Clouds 6 1015 100 10000 2.1 130 19:21 13.01.2020
4687 Drizzle 6 1015 100 4000 5.1 170 18:58 13.01.2020
4688 Rain 6 1016 100 10000 6.2 150 18:38 13.01.2020
4689 Drizzle 6 1016 100 10000 2.1 150 18:19 13.01.2020
4690 Drizzle 6 1016 100 10000 2.1 150 18:19 13.01.2020
4691 Drizzle 6 1016 100 10000 2.1 150 18:19 13.01.2020
4692 Rain 6 1016 100 10000 2.6 150 17:58 13.01.2020
4693 Clouds 6 1016 100 6000 5.7 170 17:39 13.01.2020
4694 Rain 6 1016 100 10000 2.6 160 17:21 13.01.2020
4695 Drizzle 6 1017 100 8000 4.1 170 16:55 13.01.2020
4696 Drizzle 6 1016 93 6000 5.1 200 16:36 13.01.2020
4697 Drizzle 6 1016 93 6000 5.1 200 16:18 13.01.2020
4698 Clouds 6 1018 91 0 0.45 266 15:42 13.01.2020
4699 Clouds 6 1015 75 0 1.34 0 15:22 13.01.2020
4700 Clouds 6 1015 74 0 0.89 0 14:56 13.01.2020
4701 Clouds 6 1016 75 0 2.83 187 14:36 13.01.2020
4702 Clouds 6 1016 74 0 0.45 0 14:18 13.01.2020
4703 Clouds 6 1017 78 0 0.45 0 13:40 13.01.2020
4704 Clouds 6 1017 78 0 0.45 0 13:40 13.01.2020
4705 Clouds 6 1017 80 0 3.59 213 13:22 13.01.2020
4706 Clouds 6 1018 78 0 1.79 0 12:58 13.01.2020
4707 Clouds 6 1021 93 8000 4.6 210 12:40 13.01.2020
4708 Clouds 5 1021 93 8000 4.6 210 12:21 13.01.2020
4709 Clouds 5 1021 93 8000 4.6 210 11:56 13.01.2020
4710 Mist 5 1020 93 1200 3.6 190 11:36 13.01.2020
4711 Mist 5 1020 100 2400 4.1 180 11:18 13.01.2020
4712 Drizzle 5 1021 100 50 3.6 170 10:55 13.01.2020
4713 Mist 5 1021 100 2400 2.6 180 10:36 13.01.2020
4714 Mist 5 1021 100 2400 2.6 180 10:18 13.01.2020
4715 Drizzle 5 1021 100 50 3.6 180 09:40 13.01.2020
4716 Fog 5 1021 100 400 3.6 180 09:22 13.01.2020
4717 Fog 5 1021 100 800 3.1 180 08:44 13.01.2020
4718 Mist 5 1021 100 1000 3.1 190 08:21 13.01.2020
4719 Fog 5 1021 100 600 4.1 200 07:59 13.01.2020
4720 Fog 5 1021 100 600 4.1 200 07:40 13.01.2020
4721 Fog 5 1022 100 800 3.6 200 07:18 13.01.2020
4722 Mist 5 1022 100 3600 3.1 210 06:37 13.01.2020
4723 Drizzle 5 1022 93 3000 4.6 230 05:36 13.01.2020
4724 Clouds 5 1023 100 10000 3.1 180 04:25 13.01.2020
4725 Rain 5 1023 93 8000 3.6 220 03:34 13.01.2020
4726 Clouds 5 1024 100 10000 2.6 210 02:49 13.01.2020
4727 Clouds 5 1024 100 10000 4.1 190 02:29 13.01.2020
4728 Clouds 5 1024 100 10000 4.1 190 02:29 13.01.2020
4729 Clouds 5 1024 100 10000 4.6 200 01:33 13.01.2020
4730 Clouds 5 1024 100 10000 5.1 210 00:44 13.01.2020
4731 Clouds 5 1024 100 10000 5.7 200 00:25 13.01.2020
4732 Fog 5 1025 100 500 5.1 210 23:57 12.01.2020
4733 Clouds 5 1023 93 250 6.2 230 23:38 12.01.2020
4734 Clouds 5 1024 100 10000 4.1 210 23:20 12.01.2020
4735 Mist 5 1025 93 2500 4.1 220 22:43 12.01.2020
4736 Mist 5 1025 100 8000 5.1 220 22:24 12.01.2020
4737 Mist 5 1024 100 5000 6.2 220 21:59 12.01.2020
4738 Mist 5 1024 100 5000 6.2 220 21:40 12.01.2020
4739 Mist 5 1024 100 8000 5.7 220 21:20 12.01.2020
4740 Mist 4 1024 100 6000 6.2 210 20:59 12.01.2020
4741 Clouds 4 1024 100 10000 4.1 240 20:39 12.01.2020
4742 Clouds 5 1024 100 10000 6.2 210 20:21 12.01.2020
4743 Drizzle 4 1025 100 2500 4.1 210 19:57 12.01.2020
4744 Clouds 4 1024 100 10000 3.6 230 19:38 12.01.2020
4745 Clouds 4 1024 100 10000 5.1 210 19:19 12.01.2020
4746 Clouds 4 1024 100 10000 5.1 210 19:19 12.01.2020
4747 Clouds 4 1024 100 10000 3.6 210 18:58 12.01.2020
4748 Clouds 4 1025 100 6000 4.1 210 18:40 12.01.2020
4749 Clouds 4 1024 93 10000 5.7 210 18:21 12.01.2020
4750 Mist 4 1024 100 8000 5.7 210 17:59 12.01.2020
4751 Mist 4 1024 100 8000 5.7 210 17:41 12.01.2020
4752 Drizzle 4 1024 100 6000 6.2 210 17:19 12.01.2020
4753 Clouds 4 1023 100 10000 6.2 210 16:56 12.01.2020
4754 Clouds 4 1023 100 10000 6.2 210 16:56 12.01.2020
4755 Rain 4 1023 100 8000 5.7 210 16:37 12.01.2020
4756 Rain 4 1023 100 8000 5.7 210 16:19 12.01.2020
4757 Drizzle 4 1023 93 10000 6.2 220 15:43 12.01.2020
4758 Clouds 4 1023 93 10000 7.2 210 15:25 12.01.2020
4759 Clouds 4 1024 86 10000 4.1 210 14:59 12.01.2020
4760 Clouds 4 1024 86 10000 4.1 210 14:41 12.01.2020
4761 Clouds 4 1023 86 10000 5.7 210 14:21 12.01.2020
4762 Clouds 4 1023 86 10000 6.7 200 13:56 12.01.2020
4763 Clouds 4 1023 86 10000 6.7 240 13:38 12.01.2020
4764 Clouds 4 1024 86 10000 5.7 200 13:20 12.01.2020
4765 Clouds 3 1024 86 10000 7.2 200 12:43 12.01.2020
4766 Clouds 3 1024 86 10000 6.2 200 12:21 12.01.2020
4767 Clouds 3 1025 82 10000 5.1 220 11:59 12.01.2020
4768 Clouds 3 1026 82 10000 5.7 200 11:40 12.01.2020
4769 Clouds 3 1025 93 10000 6.2 210 11:21 12.01.2020
4770 Clouds 3 1025 90 10000 5.7 220 10:56 12.01.2020
4771 Clouds 3 1025 90 10000 5.1 210 10:37 12.01.2020
4772 Clouds 2 1025 90 10000 5.1 210 10:18 12.01.2020
4773 Clouds 2 1026 90 10000 3.6 210 09:41 12.01.2020
4774 Clouds 1 1025 90 10000 5.1 210 09:21 12.01.2020
4775 Clouds 1 1025 90 10000 4.6 210 08:47 12.01.2020
4776 Clouds 1 1025 90 10000 5.1 200 08:22 12.01.2020
4777 Clouds 1 1025 96 10000 5.1 210 07:47 12.01.2020
4778 Clouds 1 1026 96 10000 3.6 220 07:26 12.01.2020
4779 Clouds 1 1026 96 10000 3.6 220 07:26 12.01.2020
4780 Clouds 1 1026 96 9000 3.1 210 06:54 12.01.2020
4781 Clouds 1 1026 96 10000 3.1 210 06:36 12.01.2020
4782 Clouds 1 1026 96 10000 4.1 230 05:52 12.01.2020
4783 Clouds 1 1026 96 10000 4.1 230 04:54 12.01.2020
4784 Clouds 0 1027 96 10000 4.6 200 03:43 12.01.2020
4785 Clouds 1 1027 96 10000 4.1 210 02:46 12.01.2020
4786 Clouds 0 1027 96 10000 3.1 210 02:24 12.01.2020
4787 Clouds 0 1026 97 10000 5.1 230 01:34 12.01.2020
4788 Clouds 0 1028 96 10000 3.1 200 00:46 12.01.2020
4789 Clouds 1 1028 96 10000 3.1 220 00:22 12.01.2020
4790 Clouds 1 1028 96 10000 2.6 230 23:57 11.01.2020
4791 Clouds 1 1029 86 10000 2.6 240 23:39 11.01.2020
4792 Clouds 1 1029 86 10000 2.6 240 23:18 11.01.2020
4793 Clouds 1 1029 86 10000 2.1 220 22:56 11.01.2020
4794 Clouds 1 1028 86 10000 4.6 230 22:38 11.01.2020
4795 Clear 1 1029 86 10000 3.1 220 22:19 11.01.2020
4796 Clouds 2 1030 96 10000 3.1 200 21:44 11.01.2020
4797 Clouds 2 1029 80 10000 3.1 210 21:19 11.01.2020
4798 Clouds 2 1030 86 10000 3.1 200 20:59 11.01.2020
4799 Clouds 2 1029 96 10000 3.1 230 20:39 11.01.2020
4800 Clouds 3 1030 93 10000 3.1 210 20:19 11.01.2020
4801 Clouds 3 1030 80 10000 2.6 200 19:57 11.01.2020
4802 Clouds 3 1030 93 10000 3.6 230 19:38 11.01.2020
4803 Clouds 3 1030 93 10000 3.6 230 19:38 11.01.2020
4804 Clouds 3 1030 93 10000 3.6 200 19:20 11.01.2020
4805 Clouds 3 1031 80 10000 3.1 190 18:55 11.01.2020
4806 Clouds 3 1029 93 10000 5.7 230 18:37 11.01.2020
4807 Clouds 4 1030 93 10000 2.6 220 18:19 11.01.2020
4808 Clouds 4 1031 80 10000 3.1 210 17:57 11.01.2020
4809 Clouds 4 1030 93 10000 4.1 230 17:39 11.01.2020
4810 Clouds 4 1030 87 10000 5.1 200 17:18 11.01.2020
4811 Clouds 4 1031 87 10000 5.7 220 16:44 11.01.2020
4812 Clouds 5 1030 80 10000 4.1 210 16:25 11.01.2020
4813 Clouds 5 1030 80 10000 5.1 200 15:57 11.01.2020
4814 Clouds 5 1030 87 10000 3.6 230 15:39 11.01.2020
4815 Clouds 5 1030 80 10000 4.1 210 15:20 11.01.2020
4816 Clouds 5 1031 75 10000 4.1 200 14:46 11.01.2020
4817 Clouds 5 1031 75 10000 5.7 210 14:25 11.01.2020
4818 Clouds 5 1032 75 10000 4.1 200 13:58 11.01.2020
4819 Clouds 5 1031 83 10000 3.1 230 13:38 11.01.2020
4820 Clouds 5 1032 75 10000 4.1 210 13:20 11.01.2020
4821 Clouds 5 1032 86 10000 3.1 200 12:56 11.01.2020
4822 Clouds 5 1031 82 10000 4.1 230 12:37 11.01.2020
4823 Clouds 5 1033 86 10000 3.6 210 12:19 11.01.2020
4824 Clouds 4 1033 93 10000 2.6 200 11:45 11.01.2020
4825 Clouds 4 1033 86 10000 4.1 210 11:24 11.01.2020
4826 Clouds 4 1033 93 10000 2.1 240 10:50 11.01.2020
4827 Clouds 4 1033 86 10000 2.6 190 10:30 11.01.2020
4828 Clouds 3 1033 93 6000 1.5 180 09:55 11.01.2020
4829 Clouds 3 1032 86 10000 3.1 210 09:37 11.01.2020
4830 Clouds 3 1033 86 10000 1.5 240 09:18 11.01.2020
4831 Clouds 3 1033 93 6000 2.1 260 08:41 11.01.2020
4832 Clouds 3 1032 93 10000 0.57 278 08:20 11.01.2020
4833 Clouds 2 1032 93 10000 1.5 210 07:43 11.01.2020
4834 Clouds 2 1032 100 10000 0.2 271 07:24 11.01.2020
4835 Clouds 2 1033 93 10000 1.5 210 06:45 11.01.2020
4836 Clouds 2 1032 100 10000 1.5 260 05:33 11.01.2020
4837 Clear 3 1032 93 10000 1.5 220 04:45 11.01.2020
4838 Clouds 2 1032 93 10000 0.64 275 04:27 11.01.2020
4839 Clear 3 1031 86 10000 2.1 340 02:48 11.01.2020
4840 Clouds 3 1031 86 10000 3.1 330 01:57 11.01.2020
4841 Clouds 3 1030 93 10000 2.6 290 01:38 11.01.2020
4842 Clouds 3 1031 93 10000 2.6 250 01:18 11.01.2020
4843 Clouds 3 1030 93 10000 2.1 240 00:32 11.01.2020
4844 Clouds 3 1030 93 10000 3.1 320 23:59 10.01.2020
4845 Clouds 3 1030 93 10000 3.1 320 23:40 10.01.2020
4846 Clouds 4 1030 86 10000 1.72 289 23:21 10.01.2020
4847 Rain 4 1030 86 10000 1.72 289 22:56 10.01.2020
4848 Clouds 4 1028 93 10000 3.1 290 22:38 10.01.2020
4849 Clouds 4 1029 75 10000 1.72 289 22:19 10.01.2020
4850 Clouds 4 1029 75 10000 2.1 300 21:55 10.01.2020
4851 Clouds 4 1028 93 10000 2.1 270 21:36 10.01.2020
4852 Clouds 4 1028 86 10000 1.72 289 21:18 10.01.2020
4853 Rain 5 1028 93 10000 1.72 289 20:42 10.01.2020
4854 Rain 5 1028 93 10000 1.5 240 20:24 10.01.2020
4855 Clouds 5 1027 86 10000 2.6 260 19:56 10.01.2020
4856 Clouds 5 1026 86 10000 1.5 270 19:37 10.01.2020
4857 Clouds 5 1026 86 10000 1.5 270 19:19 10.01.2020
4858 Clouds 5 1025 86 10000 2.1 230 18:42 10.01.2020
4859 Clouds 5 1025 93 10000 3.1 260 18:19 10.01.2020
4860 Clouds 5 1024 86 10000 3.1 250 17:57 10.01.2020
4861 Clouds 6 1024 86 10000 3.1 250 17:39 10.01.2020
4862 Clouds 6 1024 86 10000 3.1 250 17:20 10.01.2020
4863 Clouds 6 1024 87 10000 5.1 300 16:56 10.01.2020
4864 Clouds 6 1022 87 10000 4.1 260 16:38 10.01.2020
4865 Clouds 6 1022 87 10000 4.1 260 16:19 10.01.2020
4866 Clouds 6 1022 87 10000 5.1 260 15:56 10.01.2020
4867 Clouds 7 1021 87 10000 5.7 270 15:36 10.01.2020
4868 Clouds 7 1021 87 10000 5.7 270 15:18 10.01.2020
4869 Clouds 7 1020 81 10000 4.6 270 14:55 10.01.2020
4870 Clouds 7 1020 81 10000 5.7 260 14:37 10.01.2020
4871 Clouds 7 1020 81 10000 5.7 260 14:18 10.01.2020
4872 Clouds 7 1019 87 10000 4.6 270 13:44 10.01.2020
4873 Clouds 7 1018 100 10000 3.6 240 13:26 10.01.2020
4874 Rain 7 1018 100 8000 4.1 240 12:59 10.01.2020
4875 Rain 8 1017 100 3000 4.6 250 12:39 10.01.2020
4876 Rain 8 1017 100 10000 4.6 220 12:21 10.01.2020
4877 Rain 8 1018 100 10000 4.6 220 11:56 10.01.2020
4878 Rain 8 1017 93 10000 5.7 230 11:38 10.01.2020
4879 Rain 7 1017 100 10000 5.7 210 11:19 10.01.2020
4880 Clouds 7 1017 100 10000 7.2 210 10:58 10.01.2020
4881 Clouds 7 1017 100 10000 7.2 210 10:58 10.01.2020
4882 Rain 7 1016 93 3000 6.2 230 10:37 10.01.2020
4883 Rain 7 1016 100 10000 8.2 200 10:18 10.01.2020
4884 Rain 7 1016 100 10000 8.2 200 10:18 10.01.2020
4885 Clouds 7 1016 93 6000 4.6 200 09:45 10.01.2020
4886 Clouds 7 1015 100 10000 6.7 200 09:25 10.01.2020
4887 Rain 7 1015 100 3500 4.6 200 08:56 10.01.2020
4888 Clouds 7 1014 93 9000 6.2 220 08:37 10.01.2020
4889 Clouds 7 1015 93 10000 7.7 200 08:18 10.01.2020
4890 Clouds 7 1014 93 10000 6.2 200 07:41 10.01.2020
4891 Clouds 7 1014 93 10000 7.2 190 07:19 10.01.2020
4892 Rain 7 1014 100 10000 6.7 190 06:37 10.01.2020
4893 Rain 7 1014 100 10000 6.7 190 06:19 10.01.2020
4894 Rain 7 1014 100 10000 5.7 200 05:19 10.01.2020
4895 Rain 7 1013 100 10000 8.2 190 03:32 10.01.2020
4896 Rain 7 1013 100 10000 8.2 200 02:53 10.01.2020
4897 Rain 8 1012 93 10000 6.2 230 02:33 10.01.2020
4898 Rain 8 1012 100 5000 5.1 220 01:33 10.01.2020
4899 Clouds 8 1013 100 10000 6.2 200 00:53 10.01.2020
4900 Rain 8 1013 100 10000 6.2 200 00:35 10.01.2020
4901 Rain 8 1013 100 10000 6.7 200 23:57 09.01.2020
4902 Rain 8 1013 100 10000 6.2 200 23:37 09.01.2020
4903 Rain 8 1013 100 10000 6.2 200 23:19 09.01.2020
4904 Rain 8 1013 100 10000 6.2 190 22:56 09.01.2020
4905 Rain 8 1013 100 10000 5.1 210 22:37 09.01.2020
4906 Rain 8 1013 100 10000 5.1 210 22:18 09.01.2020
4907 Drizzle 8 1013 100 10000 2.6 200 21:56 09.01.2020
4908 Rain 8 1012 93 10000 6.2 220 21:37 09.01.2020
4909 Rain 8 1013 100 10000 3.1 200 21:18 09.01.2020
4910 Clouds 8 1013 100 10000 3.6 200 20:55 09.01.2020
4911 Rain 8 1013 100 10000 4.6 190 20:37 09.01.2020
4912 Rain 9 1014 100 10000 5.1 190 20:19 09.01.2020
4913 Drizzle 9 1013 87 10000 5.7 220 19:54 09.01.2020
4914 Rain 9 1014 100 10000 5.7 200 19:36 09.01.2020
4915 Rain 9 1014 100 10000 5.7 190 19:18 09.01.2020
4916 Rain 9 1014 100 10000 4.6 220 18:54 09.01.2020
4917 Rain 9 1014 100 10000 4.6 190 18:36 09.01.2020
4918 Clouds 9 1014 100 10000 5.1 190 18:18 09.01.2020
4919 Rain 9 1014 100 10000 5.1 190 17:40 09.01.2020
4920 Rain 9 1014 100 10000 5.7 180 17:18 09.01.2020
4921 Clouds 10 1014 100 10000 5.1 180 16:47 09.01.2020
4922 Rain 10 1014 100 10000 5.7 180 16:22 09.01.2020
4923 Clouds 10 1014 100 10000 6.2 220 15:56 09.01.2020
4924 Drizzle 10 1015 93 2200 4.1 190 15:38 09.01.2020
4925 Clouds 10 1015 100 10000 5.7 200 15:18 09.01.2020
4926 Rain 10 1015 100 10000 6.2 200 14:41 09.01.2020
4927 Rain 10 1015 100 10000 7.2 200 14:21 09.01.2020
4928 Rain 10 1015 93 10000 6.7 230 13:57 09.01.2020
4929 Rain 10 1016 93 10000 5.7 200 13:39 09.01.2020
4930 Rain 10 1016 100 10000 6.7 210 13:20 09.01.2020
4931 Rain 10 1017 100 10000 5.7 200 12:58 09.01.2020
4932 Rain 10 1017 100 10000 7.2 210 12:38 09.01.2020
4933 Clouds 10 1017 100 10000 6.7 200 12:19 09.01.2020
4934 Clouds 10 1017 100 10000 7.2 230 11:55 09.01.2020
4935 Clouds 10 1018 100 6000 6.2 200 11:37 09.01.2020
4936 Clouds 10 1018 100 10000 7.2 200 11:19 09.01.2020
4937 Clouds 10 1018 100 10000 7.2 200 10:42 09.01.2020
4938 Clouds 10 1018 100 10000 6.2 210 10:22 09.01.2020
4939 Clouds 10 1018 100 8000 6.7 220 09:55 09.01.2020
4940 Drizzle 10 1019 100 2500 5.1 200 09:37 09.01.2020
4941 Rain 10 1018 100 10000 6.2 210 09:18 09.01.2020
4942 Drizzle 10 1018 100 8000 7.2 220 08:54 09.01.2020
4943 Drizzle 9 1019 100 3000 5.7 200 08:36 09.01.2020
4944 Rain 9 1018 100 9000 5.7 200 08:18 09.01.2020
4945 Clouds 9 1019 100 10000 4.6 200 07:42 09.01.2020
4946 Drizzle 9 1019 100 10000 7.2 210 07:23 09.01.2020
4947 Mist 9 1020 100 2400 5.7 200 06:38 09.01.2020
4948 Rain 9 1020 100 6000 5.1 200 06:19 09.01.2020
4949 Drizzle 9 1020 100 6000 4.1 190 05:44 09.01.2020
4950 Fog 9 1021 100 150 4.1 180 04:42 09.01.2020
4951 Rain 9 1022 100 200 3.6 180 03:30 09.01.2020
4952 Rain 9 1022 100 200 3.6 180 03:30 09.01.2020
4953 Drizzle 9 1022 100 10000 6.2 220 02:52 09.01.2020
4954 Drizzle 9 1023 100 10000 5.7 220 02:24 09.01.2020
4955 Drizzle 9 1024 100 150 3.6 200 01:38 09.01.2020
4956 Rain 9 1024 100 3200 3.1 190 00:42 09.01.2020
4957 Rain 9 1024 100 3200 3.1 190 00:42 09.01.2020
4958 Rain 9 1024 100 1600 3.1 190 00:21 09.01.2020
4959 Fog 8 1024 100 100 3.6 190 23:42 08.01.2020
4960 Rain 9 1024 100 800 2.1 200 23:24 08.01.2020
4961 Fog 9 1025 100 100 2.6 180 22:59 08.01.2020
4962 Rain 9 1024 100 800 3.6 220 22:39 08.01.2020
4963 Mist 9 1025 100 1400 4.1 210 22:20 08.01.2020
4964 Mist 9 1025 100 1400 4.1 210 22:20 08.01.2020
4965 Drizzle 9 1026 100 5000 4.6 210 21:57 08.01.2020
4966 Rain 9 1025 100 200 3.6 190 21:38 08.01.2020
4967 Rain 8 1025 100 800 3.1 210 21:20 08.01.2020
4968 Drizzle 8 1025 100 200 3.1 200 20:58 08.01.2020
4969 Rain 9 1025 100 800 3.1 220 20:38 08.01.2020
4970 Fog 8 1025 100 600 3.1 220 20:20 08.01.2020
4971 Fog 8 1025 100 600 3.1 210 19:56 08.01.2020
4972 Fog 8 1025 100 600 3.1 210 19:37 08.01.2020
4973 Fog 8 1026 100 400 3.1 220 19:19 08.01.2020
4974 Clouds 8 1025 100 5000 5.1 260 18:55 08.01.2020
4975 Fog 8 1026 100 400 2.6 230 18:37 08.01.2020
4976 Fog 8 1026 100 600 3.1 210 18:18 08.01.2020
4977 Fog 8 1025 100 400 3.1 220 17:48 08.01.2020
4978 Fog 8 1025 100 400 3.1 230 17:24 08.01.2020
4979 Clouds 8 1025 100 7000 4.6 240 16:58 08.01.2020
4980 Drizzle 8 1026 100 100 3.6 200 16:39 08.01.2020
4981 Fog 8 1025 100 400 4.1 200 16:19 08.01.2020
4982 Drizzle 8 1026 100 100 3.6 200 15:59 08.01.2020
4983 Drizzle 8 1026 100 100 4.1 200 15:40 08.01.2020
4984 Fog 8 1025 100 400 4.1 230 15:20 08.01.2020
4985 Mist 8 1025 100 4000 5.1 240 14:56 08.01.2020
4986 Drizzle 8 1026 100 500 4.1 200 14:38 08.01.2020
4987 Fog 7 1025 100 800 3.6 230 14:19 08.01.2020
4988 Mist 7 1026 100 1800 3.6 230 13:40 08.01.2020
4989 Rain 7 1026 100 6000 3.1 230 13:19 08.01.2020
4990 Mist 7 1026 100 3200 4.1 230 12:42 08.01.2020
4991 Mist 6 1026 100 3000 4.1 210 12:19 08.01.2020
4992 Clouds 6 1026 100 6000 3.1 250 11:55 08.01.2020
4993 Clouds 6 1026 100 6000 3.1 250 11:55 08.01.2020
4994 Rain 6 1027 100 1800 3.6 240 11:37 08.01.2020
4995 Clouds 6 1026 100 10000 3.6 220 11:19 08.01.2020
4996 Mist 6 1026 100 3000 4.1 220 10:55 08.01.2020
4997 Drizzle 5 1027 100 200 4.1 180 10:37 08.01.2020
4998 Rain 5 1026 100 4400 4.1 220 10:18 08.01.2020
4999 Rain 5 1026 100 1200 4.1 230 09:41 08.01.2020
5000 Mist 5 1026 100 2400 4.1 220 09:19 08.01.2020
5001 Rain 5 1025 100 8000 4.6 210 08:57 08.01.2020
5002 Drizzle 5 1026 100 150 4.1 180 08:37 08.01.2020
5003 Mist 5 1025 100 6000 4.1 200 08:19 08.01.2020
5004 Rain 4 1026 100 2200 3.6 220 07:49 08.01.2020
5005 Drizzle 4 1026 100 200 4.1 170 07:30 08.01.2020
5006 Rain 4 1025 100 1800 4.6 210 06:48 08.01.2020
5007 Mist 4 1025 100 2500 3.1 220 06:24 08.01.2020
5008 Clouds 4 1025 100 10000 4.6 250 05:53 08.01.2020
5009 Mist 4 1025 100 2200 2.6 200 04:57 08.01.2020
5010 Mist 3 1026 100 1600 3.6 200 04:26 08.01.2020
5011 Fog 3 1027 100 200 3.1 170 02:45 08.01.2020
5012 Fog 3 1027 100 200 3.1 170 02:45 08.01.2020
5013 Clouds 3 1026 100 10000 3.6 230 02:23 08.01.2020
5014 Clouds 3 1026 100 10000 3.1 210 01:50 08.01.2020
5015 Clouds 3 1026 93 10000 2.1 240 01:25 08.01.2020
5016 Clouds 3 1028 93 6000 2.6 200 00:40 08.01.2020
5017 Clouds 3 1028 100 10000 3.1 220 00:20 08.01.2020
5018 Clouds 3 1028 93 8000 3.1 180 23:44 07.01.2020
5019 Clouds 3 1028 93 10000 3.6 220 23:20 07.01.2020
5020 Clouds 3 1028 100 8000 3.1 210 22:40 07.01.2020
5021 Clouds 3 1028 100 10000 5.7 220 22:20 07.01.2020
5022 Clear 3 1027 100 10000 3.6 220 21:57 07.01.2020
5023 Clouds 4 1028 100 10000 4.1 210 21:39 07.01.2020
5024 Clouds 4 1028 100 10000 4.6 210 21:21 07.01.2020
5025 Clouds 4 1028 100 10000 4.1 230 20:57 07.01.2020
5026 Mist 4 1029 100 3500 3.1 210 20:38 07.01.2020
5027 Clouds 4 1028 100 10000 4.1 200 20:20 07.01.2020
5028 Clouds 4 1028 100 10000 4.1 200 19:55 07.01.2020
5029 Clouds 4 1028 100 10000 4.1 200 19:36 07.01.2020
5030 Clouds 4 1028 100 10000 3.6 190 19:18 07.01.2020
5031 Clouds 4 1030 93 10000 2.6 190 18:55 07.01.2020
5032 Clouds 4 1029 93 10000 3.6 200 18:37 07.01.2020
5033 Clouds 5 1028 100 10000 4.1 200 18:18 07.01.2020
5034 Clouds 5 1028 100 10000 4.1 200 18:18 07.01.2020
5035 Clouds 5 1028 100 10000 3.1 180 17:41 07.01.2020
5036 Clouds 5 1028 100 10000 3.6 200 17:22 07.01.2020
5037 Clouds 5 1028 93 10000 3.1 220 16:57 07.01.2020
5038 Clouds 5 1028 93 10000 3.1 190 16:38 07.01.2020
5039 Clouds 6 1028 100 10000 3.6 200 16:19 07.01.2020
5040 Clouds 6 1029 87 10000 3.1 220 15:59 07.01.2020
5041 Clouds 6 1029 87 10000 3.1 220 15:41 07.01.2020
5042 Clouds 6 1028 100 10000 3.1 0 15:23 07.01.2020
5043 Clouds 6 1028 100 10000 4.1 260 14:56 07.01.2020
5044 Clouds 6 1029 87 10000 4.1 240 14:37 07.01.2020
5045 Clouds 6 1028 100 10000 4.1 210 14:19 07.01.2020
5046 Clouds 6 1028 100 10000 3.6 220 13:40 07.01.2020
5047 Clouds 6 1028 100 10000 3.6 230 13:19 07.01.2020
5048 Clouds 6 1028 100 10000 6.2 260 12:54 07.01.2020
5049 Clouds 6 1029 100 10000 4.6 230 12:36 07.01.2020
5050 Clouds 5 1029 100 10000 5.1 240 12:18 07.01.2020
5051 Clouds 5 1028 100 10000 4.6 220 11:41 07.01.2020
5052 Clouds 5 1028 100 10000 5.1 220 11:21 07.01.2020
5053 Mist 5 1029 93 2500 3.1 200 10:43 07.01.2020
5054 Mist 5 1029 93 2500 3.1 200 10:43 07.01.2020
5055 Mist 5 1028 100 4000 3.1 240 10:24 07.01.2020
5056 Mist 4 1028 100 3000 2.1 200 09:59 07.01.2020
5057 Mist 4 1029 100 5000 3.6 240 09:38 07.01.2020
5058 Mist 4 1027 100 9000 3.1 240 09:20 07.01.2020
5059 Clouds 4 1027 100 10000 3.6 220 08:47 07.01.2020
5060 Mist 4 1028 100 2500 3.1 250 08:28 07.01.2020
5061 Mist 4 1027 100 3000 2.1 260 07:55 07.01.2020
5062 Mist 4 1026 100 2400 3.6 220 07:35 07.01.2020
5063 Fog 4 1024 100 300 5.7 270 06:54 07.01.2020
5064 Fog 3 1025 100 600 3.6 230 06:35 07.01.2020
5065 Fog 3 1025 100 700 4.6 270 05:59 07.01.2020
5066 Mist 3 1025 100 1600 4.1 230 05:40 07.01.2020
5067 Mist 2 1024 100 5000 3.1 230 03:45 07.01.2020
5068 Rain 2 1024 100 4000 3.1 230 02:47 07.01.2020
5069 Rain 2 1024 100 3300 4.6 250 01:59 07.01.2020
5070 Rain 2 1024 100 3600 4.6 250 01:36 07.01.2020
5071 Clouds 1 1022 95 6000 7.2 270 00:57 07.01.2020
5072 Mist 1 1023 95 1400 4.6 230 00:21 07.01.2020
5073 Clouds 1 1021 95 10000 4.6 230 23:57 06.01.2020
5074 Mist 1 1023 95 1600 5.7 230 23:37 06.01.2020
5075 Mist 0 1022 93 1200 4.1 210 23:19 06.01.2020
5076 Mist 0 1023 93 1400 3.6 200 22:44 06.01.2020
5077 Mist 0 1023 93 1400 3.6 200 22:44 06.01.2020
5078 Mist 0 1023 93 1000 3.6 210 22:24 06.01.2020
5079 Mist 0 1024 93 4000 2.1 240 21:58 06.01.2020
5080 Fog 0 1024 93 100 3.6 210 21:39 06.01.2020
5081 Mist 0 1024 93 1000 4.1 210 21:20 06.01.2020
5082 Fog 0 1024 93 800 2.1 230 20:57 06.01.2020
5083 Fog 0 1024 93 800 2.1 230 20:39 06.01.2020
5084 Mist 0 1024 91 1400 3.6 240 20:20 06.01.2020
5085 Fog 0 1023 100 200 4.6 150 19:57 06.01.2020
5086 Mist 0 1024 91 2600 4.1 210 19:39 06.01.2020
5087 Mist 0 1024 91 3200 4.1 230 19:20 06.01.2020
5088 Mist 0 1024 91 5000 3.1 210 18:48 06.01.2020
5089 Fog 0 1023 100 200 4.6 140 18:25 06.01.2020
5090 Fog 0 1024 91 100 4.1 170 17:59 06.01.2020
5091 Mist 0 1023 91 1800 2.1 220 17:39 06.01.2020
5092 Mist 0 1023 91 1800 2.1 220 17:39 06.01.2020
5093 Fog 0 1024 86 400 1.5 140 17:19 06.01.2020
5094 Fog 0 1023 86 200 5.7 140 16:55 06.01.2020
5095 Mist 1 1023 86 2000 4.1 210 16:36 06.01.2020
5096 Clear 1 1024 100 10000 2.1 220 16:18 06.01.2020
5097 Clear 1 1024 100 10000 2.1 220 16:18 06.01.2020
5098 Clouds 1 1024 100 10000 2.6 220 15:42 06.01.2020
5099 Mist 2 1025 100 1600 2.15 157 15:21 06.01.2020
5100 Fog 2 1025 100 300 2.6 160 14:59 06.01.2020
5101 Mist 2 1025 100 1200 1.5 270 14:41 06.01.2020
5102 Mist 2 1025 100 1200 2.1 280 14:22 06.01.2020
5103 Mist 2 1025 100 1200 2.1 280 14:21 06.01.2020
5104 Fog 2 1026 100 100 2.1 170 13:58 06.01.2020
5105 Fog 2 1026 100 100 2.1 170 13:38 06.01.2020
5106 Fog 2 1026 100 600 1.5 260 13:20 06.01.2020
5107 Fog 2 1025 79 400 4.1 150 12:55 06.01.2020
5108 Fog 2 1027 100 800 2.5 154 12:37 06.01.2020
5109 Fog 2 1027 100 800 2.5 154 12:37 06.01.2020
5110 Fog 1 1027 100 600 2.5 154 12:18 06.01.2020
5111 Fog 1 1027 100 200 2.5 154 11:41 06.01.2020
5112 Fog 1 1027 100 400 5.1 140 11:23 06.01.2020
5113 Fog 0 1028 100 200 3.1 170 10:59 06.01.2020
5114 Clouds 0 1028 100 8000 2.1 160 10:40 06.01.2020
5115 Fog 0 1028 90 0 1.5 80 10:20 06.01.2020
5116 Fog 0 1028 90 0 1.5 80 10:20 06.01.2020
5117 Fog -1 1028 90 8000 1.5 100 09:39 06.01.2020
5118 Fog -1 1028 90 0 2.6 70 09:21 06.01.2020
5119 Fog -1 1028 100 10000 3.6 140 08:52 06.01.2020
5120 Fog -1 1029 90 200 2.1 70 08:34 06.01.2020
5121 Clouds -1 1029 93 10000 2.1 60 07:57 06.01.2020
5122 Clouds -1 1029 86 10000 1.5 80 07:38 06.01.2020
5123 Clouds -1 1029 93 10000 1.5 60 06:51 06.01.2020
5124 Clouds -1 1029 93 10000 1.5 60 06:32 06.01.2020
5125 Clouds 0 1029 93 10000 1.5 50 05:48 06.01.2020
5126 Clouds 0 1030 93 10000 1 70 04:58 06.01.2020
5127 Clouds 1 1030 93 10000 1 0 04:22 06.01.2020
5128 Clouds 1 1031 93 10000 2.1 350 03:30 06.01.2020
5129 Clouds 2 1031 69 10000 0.82 53 02:27 06.01.2020
5130 Clouds 2 1031 100 10000 0.5 0 01:53 06.01.2020
5131 Clear 2 1031 93 10000 1.5 240 01:30 06.01.2020
5132 Clouds 2 1032 80 10000 1.5 210 00:45 06.01.2020
5133 Clouds 2 1032 86 10000 0.86 52 00:26 06.01.2020
5134 Clouds 3 1032 86 10000 1 230 23:57 05.01.2020
5135 Clouds 3 1033 80 10000 0.5 0 23:38 05.01.2020
5136 Clouds 3 1033 94 10000 0.72 57 23:19 05.01.2020
5137 Clouds 3 1033 86 10000 2.1 240 22:40 05.01.2020
5138 Clouds 3 1033 94 10000 2.6 250 22:20 05.01.2020
5139 Clouds 3 1033 94 10000 2.6 250 22:20 05.01.2020
5140 Clouds 3 1032 86 10000 1.5 190 21:57 05.01.2020
5141 Clouds 3 1033 80 10000 1.5 180 21:39 05.01.2020
5142 Clouds 3 1033 80 10000 1.5 240 21:20 05.01.2020
5143 Clouds 4 1033 86 10000 2.1 220 20:56 05.01.2020
5144 Clouds 4 1034 86 10000 1 0 20:38 05.01.2020
5145 Clouds 4 1034 93 10000 1.5 230 20:19 05.01.2020
5146 Clouds 4 1034 93 8000 1 0 19:58 05.01.2020
5147 Clouds 4 1034 93 8000 1 0 19:39 05.01.2020
5148 Clouds 4 1034 93 10000 2.1 210 19:20 05.01.2020
5149 Clouds 4 1034 93 10000 2.1 230 18:56 05.01.2020
5150 Clouds 4 1034 93 9000 2.1 230 18:37 05.01.2020
5151 Clouds 4 1034 86 10000 2.1 210 18:19 05.01.2020
5152 Clouds 4 1034 93 9000 2.1 200 17:58 05.01.2020
5153 Clouds 4 1034 86 10000 2.1 220 17:39 05.01.2020
5154 Clouds 5 1034 86 10000 2.1 190 17:20 05.01.2020
5155 Clouds 5 1034 93 10000 2.1 250 16:56 05.01.2020
5156 Clouds 5 1035 93 10000 1.5 190 16:38 05.01.2020
5157 Clouds 5 1034 80 10000 2.6 210 16:19 05.01.2020
5158 Clouds 5 1034 93 10000 2.1 210 15:39 05.01.2020
5159 Clouds 5 1034 93 10000 2.1 210 15:39 05.01.2020
5160 Clouds 5 1034 86 10000 2.6 200 15:20 05.01.2020
5161 Clouds 5 1034 93 10000 2.1 290 14:56 05.01.2020
5162 Clouds 5 1034 86 10000 2.6 200 14:38 05.01.2020
5163 Clouds 5 1034 93 10000 2.1 220 14:20 05.01.2020
5164 Clouds 5 1034 100 10000 2.1 260 13:56 05.01.2020
5165 Clouds 5 1035 75 10000 1 0 13:38 05.01.2020
5166 Clouds 5 1035 93 10000 0.77 246 13:19 05.01.2020
5167 Clouds 5 1034 100 10000 2.1 270 12:56 05.01.2020
5168 Clouds 5 1035 93 10000 0.77 246 12:37 05.01.2020
5169 Clouds 5 1035 100 10000 0.77 246 12:19 05.01.2020
5170 Clouds 4 1036 100 10000 1.5 250 11:44 05.01.2020
5171 Clouds 4 1035 100 10000 1.5 240 11:20 05.01.2020
5172 Clouds 4 1035 93 9000 2.1 290 11:00 05.01.2020
5173 Clouds 4 1035 93 7000 2.1 280 10:40 05.01.2020
5174 Mist 4 1035 100 9000 1.5 240 10:20 05.01.2020
5175 Mist 4 1035 100 4000 2.1 280 09:42 05.01.2020
5176 Clouds 3 1034 100 10000 2.6 260 09:22 05.01.2020
5177 Clouds 3 1034 100 10000 3.6 250 08:56 05.01.2020
5178 Clouds 3 1035 100 10000 0.26 226 08:38 05.01.2020
5179 Clouds 3 1035 100 10000 1.5 250 08:20 05.01.2020
5180 Clouds 4 1035 100 6000 2.6 290 07:39 05.01.2020
5181 Clouds 4 1035 93 10000 2.6 230 07:21 05.01.2020
5182 Clouds 4 1034 100 8000 3.6 270 06:54 05.01.2020
5183 Clouds 4 1035 100 6000 2.6 280 05:41 05.01.2020
5184 Mist 4 1034 100 5000 2.6 280 04:56 05.01.2020
5185 Clouds 4 1035 93 10000 1.5 250 04:19 05.01.2020
5186 Clouds 4 1035 93 10000 1.5 250 04:19 05.01.2020
5187 Clouds 4 1035 100 10000 3.1 240 03:38 05.01.2020
5188 Clouds 4 1035 93 10000 3.1 280 02:35 05.01.2020
5189 Clouds 4 1033 100 7000 4.1 280 01:52 05.01.2020
5190 Clouds 4 1034 93 10000 3.6 220 01:20 05.01.2020
5191 Clouds 4 1034 93 10000 3.6 270 00:57 05.01.2020
5192 Clouds 4 1034 93 10000 3.1 250 00:39 05.01.2020
5193 Clouds 4 1034 93 10000 3.1 220 00:20 05.01.2020
5194 Clouds 4 1034 93 10000 2.6 230 23:57 04.01.2020
5195 Clouds 4 1034 93 10000 2.6 230 23:38 04.01.2020
5196 Clouds 4 1034 93 10000 3.1 230 23:18 04.01.2020
5197 Clouds 4 1034 93 10000 2.6 260 22:39 04.01.2020
5198 Clouds 4 1033 100 10000 3.1 220 22:20 04.01.2020
5199 Clouds 4 1032 100 10000 5.1 270 21:56 04.01.2020
5200 Clouds 4 1033 93 10000 3.6 260 21:37 04.01.2020
5201 Clouds 4 1033 93 10000 2.6 220 21:19 04.01.2020
5202 Clouds 4 1033 93 10000 2.6 220 21:19 04.01.2020
5203 Clouds 4 1033 93 10000 2.6 220 21:19 04.01.2020
5204 Clouds 4 1031 93 10000 5.7 270 20:56 04.01.2020
5205 Clouds 4 1033 86 10000 3.1 260 20:37 04.01.2020
5206 Clouds 4 1032 93 10000 2.6 250 20:19 04.01.2020
5207 Clouds 4 1032 86 10000 4.1 260 19:42 04.01.2020
5208 Clouds 4 1032 86 10000 4.1 260 19:42 04.01.2020
5209 Clouds 4 1031 100 10000 5.7 260 19:24 04.01.2020
5210 Clouds 4 1031 100 10000 6.7 270 18:58 04.01.2020
5211 Clouds 4 1032 86 10000 4.6 260 18:39 04.01.2020
5212 Clouds 4 1031 93 10000 4.6 240 18:21 04.01.2020
5213 Clouds 4 1032 86 10000 4.1 260 17:58 04.01.2020
5214 Clouds 4 1032 93 10000 4.6 260 17:40 04.01.2020
5215 Clouds 4 1030 86 10000 5.7 240 17:22 04.01.2020
5216 Clouds 4 1029 100 10000 6.7 260 16:54 04.01.2020
5217 Clouds 4 1032 86 10000 5.7 260 16:36 04.01.2020
5218 Clouds 4 1030 86 10000 5.1 230 16:18 04.01.2020
5219 Clouds 4 1030 86 10000 4.6 230 15:42 04.01.2020
5220 Clouds 4 1030 86 10000 4.6 230 15:42 04.01.2020
5221 Clouds 4 1030 80 10000 5.1 240 15:20 04.01.2020
5222 Clouds 4 1030 80 10000 5.1 240 15:20 04.01.2020
5223 Clouds 4 1032 93 10000 7.2 270 14:58 04.01.2020
5224 Clouds 4 1031 86 10000 7.2 270 14:40 04.01.2020
5225 Clouds 4 1030 80 10000 4.1 240 14:20 04.01.2020
5226 Clouds 4 1031 86 10000 7.7 260 13:58 04.01.2020
5227 Clouds 4 1031 86 10000 6.7 260 13:37 04.01.2020
5228 Clouds 4 1030 86 10000 4.6 240 13:19 04.01.2020
5229 Clouds 4 1029 100 10000 6.2 270 12:56 04.01.2020
5230 Clouds 4 1032 86 10000 6.2 280 12:38 04.01.2020
5231 Clouds 4 1031 86 10000 4.1 240 12:18 04.01.2020
5232 Clouds 3 1029 100 10000 5.1 270 11:55 04.01.2020
5233 Clouds 3 1031 86 10000 6.7 260 11:36 04.01.2020
5234 Clouds 3 1030 93 10000 4.6 220 11:18 04.01.2020
5235 Clouds 3 1031 93 7000 6.2 260 10:40 04.01.2020
5236 Clouds 3 1030 93 10000 4.6 230 10:21 04.01.2020
5237 Clouds 2 1031 93 8000 4.6 260 09:44 04.01.2020
5238 Clouds 2 1029 93 10000 5.7 260 09:25 04.01.2020
5239 Clouds 2 1031 93 8000 2.1 230 08:49 04.01.2020
5240 Clouds 2 1031 93 8000 2.1 230 08:29 04.01.2020
5241 Clouds 2 1029 100 10000 5.7 260 07:57 04.01.2020
5242 Clouds 2 1030 93 10000 4.6 240 07:38 04.01.2020
5243 Clouds 2 1030 93 9000 3.1 270 06:44 04.01.2020
5244 Clouds 2 1030 100 8000 3.6 270 05:59 04.01.2020
5245 Clouds 2 1029 100 10000 1.5 190 04:52 04.01.2020
5246 Clouds 2 1029 100 10000 1.5 190 04:31 04.01.2020
5247 Clouds 3 1029 86 10000 1.5 300 03:30 04.01.2020
5248 Clouds 2 1028 100 10000 2.1 260 02:52 04.01.2020
5249 Clear 3 1028 87 10000 2.99 337 02:18 04.01.2020
5250 Clouds 3 1028 93 10000 4.1 340 01:51 04.01.2020
5251 Rain 4 1028 93 10000 4.1 340 01:30 04.01.2020
5252 Clouds 5 1028 86 10000 4.1 330 00:29 04.01.2020
5253 Clouds 5 1027 93 10000 4.6 340 23:59 03.01.2020
5254 Clouds 5 1027 86 10000 3.1 290 23:38 03.01.2020
5255 Clouds 6 1026 93 10000 4.1 310 23:20 03.01.2020
5256 Clouds 6 1026 100 10000 3.6 320 22:41 03.01.2020
5257 Rain 7 1025 100 10000 3.6 330 22:20 03.01.2020
5258 Clouds 7 1025 93 10000 4.6 300 21:58 03.01.2020
5259 Clouds 7 1024 100 10000 4.1 280 21:38 03.01.2020
5260 Rain 8 1023 100 6000 4.6 280 21:19 03.01.2020
5261 Rain 8 1024 93 3000 6.2 250 20:58 03.01.2020
5262 Rain 8 1023 100 10000 4.6 230 20:40 03.01.2020
5263 Rain 8 1023 100 10000 6.2 230 20:18 03.01.2020
5264 Clouds 8 1022 100 10000 5.1 230 19:55 03.01.2020
5265 Clouds 8 1022 100 10000 5.1 230 19:55 03.01.2020
5266 Clouds 8 1022 100 10000 5.1 230 19:37 03.01.2020
5267 Rain 8 1022 100 10000 5.7 220 19:18 03.01.2020
5268 Rain 7 1022 100 10000 6.7 220 18:43 03.01.2020
5269 Rain 7 1021 100 8000 8.7 250 18:24 03.01.2020
5270 Rain 7 1021 100 8000 8.7 250 17:55 03.01.2020
5271 Clouds 7 1022 100 7000 5.1 230 17:37 03.01.2020
5272 Rain 7 1021 100 10000 6.2 220 17:18 03.01.2020
5273 Clouds 7 1020 100 10000 7.7 220 16:42 03.01.2020
5274 Drizzle 7 1020 100 10000 7.2 250 16:23 03.01.2020
5275 Clouds 7 1020 100 10000 7.7 240 15:57 03.01.2020
5276 Clouds 7 1020 100 10000 6.7 220 15:38 03.01.2020
5277 Rain 7 1020 100 10000 6.7 220 15:18 03.01.2020
5278 Drizzle 7 1020 100 10000 5.7 220 14:38 03.01.2020
5279 Drizzle 7 1020 100 10000 5.7 220 14:38 03.01.2020
5280 Clouds 7 1020 100 10000 6.2 220 14:19 03.01.2020
5281 Drizzle 7 1021 100 3500 5.7 230 13:44 03.01.2020
5282 Drizzle 7 1020 100 10000 7.2 240 13:24 03.01.2020
5283 Drizzle 6 1021 100 3000 6.2 230 13:00 03.01.2020
5284 Rain 6 1020 100 10000 5.7 210 12:39 03.01.2020
5285 Rain 6 1020 100 10000 5.1 220 12:21 03.01.2020
5286 Rain 6 1021 100 10000 5.1 210 11:48 03.01.2020
5287 Drizzle 6 1021 100 2500 4.6 210 11:29 03.01.2020
5288 Drizzle 5 1021 93 2500 5.7 210 10:47 03.01.2020
5289 Clouds 5 1020 93 10000 5.7 230 10:28 03.01.2020
5290 Drizzle 5 1021 93 4000 5.7 210 09:59 03.01.2020
5291 Drizzle 5 1021 100 5000 4.1 200 09:41 03.01.2020
5292 Clouds 5 1020 93 10000 5.7 230 09:22 03.01.2020
5293 Clouds 5 1020 93 10000 6.2 230 08:57 03.01.2020
5294 Clouds 5 1021 100 10000 4.1 190 08:39 03.01.2020
5295 Clouds 5 1020 100 10000 7.7 210 08:20 03.01.2020
5296 Clouds 5 1020 100 10000 8.2 210 07:42 03.01.2020
5297 Clouds 5 1020 100 10000 7.2 210 07:19 03.01.2020
5298 Clouds 5 1020 100 10000 5.7 220 06:56 03.01.2020
5299 Clouds 5 1021 100 8000 5.1 200 06:37 03.01.2020
5300 Clouds 5 1021 93 6000 5.1 200 05:48 03.01.2020
5301 Mist 5 1022 100 5000 4.6 200 04:42 03.01.2020
5302 Drizzle 5 1022 93 2300 5.7 200 03:34 03.01.2020
5303 Fog 5 1023 100 750 4.1 200 02:47 03.01.2020
5304 Fog 5 1023 100 300 4.6 200 01:47 03.01.2020
5305 Drizzle 4 1023 100 9000 5.7 220 00:57 03.01.2020
5306 Fog 4 1024 100 300 5.1 190 00:33 03.01.2020
5307 Fog 4 1024 100 500 4.6 190 23:58 02.01.2020
5308 Mist 4 1023 100 6000 4.6 210 23:39 02.01.2020
5309 Mist 4 1023 100 6000 5.1 200 23:20 02.01.2020
5310 Rain 4 1024 100 300 5.1 190 22:58 02.01.2020
5311 Drizzle 4 1024 100 1800 3.6 190 22:39 02.01.2020
5312 Fog 3 1024 100 1200 4.1 210 22:19 02.01.2020
5313 Mist 3 1024 100 1400 3.1 210 21:55 02.01.2020
5314 Mist 3 1024 100 1400 3.1 210 21:37 02.01.2020
5315 Rain 3 1024 100 3200 1.5 210 21:18 02.01.2020
5316 Mist 3 1024 100 2000 3.1 160 20:56 02.01.2020
5317 Rain 3 1024 100 1000 2.1 210 20:36 02.01.2020
5318 Fog 3 1025 100 600 2.1 230 20:18 02.01.2020
5319 Mist 3 1024 100 2000 3.1 160 19:54 02.01.2020
5320 Fog 3 1025 100 100 3.1 170 19:36 02.01.2020
5321 Fog 3 1025 100 100 3.1 170 19:36 02.01.2020
5322 Fog 3 1025 100 800 1.5 210 19:18 02.01.2020
5323 Fog 2 1025 100 100 4.1 170 18:43 02.01.2020
5324 Fog 3 1024 100 800 5.1 150 18:24 02.01.2020
5325 Drizzle 2 1025 100 100 3.6 170 17:58 02.01.2020
5326 Mist 2 1025 100 1000 2.46 182 17:39 02.01.2020
5327 Fog 2 1025 100 800 2.19 154 17:21 02.01.2020
5328 Drizzle 2 1025 100 100 3.1 170 16:59 02.01.2020
5329 Fog 2 1025 100 600 2.19 154 16:41 02.01.2020
5330 Fog 2 1025 100 600 2.19 154 16:20 02.01.2020
5331 Fog 2 1025 100 100 3.1 170 15:58 02.01.2020
5332 Mist 2 1025 100 1600 2.19 154 15:40 02.01.2020
5333 Mist 2 1025 100 1200 2.19 154 15:22 02.01.2020
5334 Mist 2 1025 100 3000 2.19 154 14:57 02.01.2020
5335 Fog 2 1025 100 100 3.1 170 14:37 02.01.2020
5336 Mist 2 1026 100 1800 2.51 150 14:18 02.01.2020
5337 Mist 2 1026 100 1800 2.51 150 13:51 02.01.2020
5338 Fog 1 1026 86 100 3.1 170 13:32 02.01.2020
5339 Fog 1 1026 86 700 5.1 140 12:58 02.01.2020
5340 Mist 1 1027 86 1400 2.81 152 12:39 02.01.2020
5341 Fog 1 1027 86 600 2.81 152 12:20 02.01.2020
5342 Fog 1 1027 86 600 2.81 152 11:41 02.01.2020
5343 Mist 0 1028 100 800 2.07 149 11:20 02.01.2020
5344 Fog 0 1028 100 150 3.1 160 10:45 02.01.2020
5345 Fog 0 1027 100 800 4.6 140 10:27 02.01.2020
5346 Fog 0 1027 100 600 3.6 140 09:56 02.01.2020
5347 Fog 0 1028 100 1000 1.5 220 09:35 02.01.2020
5348 Mist -1 1027 100 1500 1.5 240 08:58 02.01.2020
5349 Fog -1 1028 100 600 2.1 220 08:39 02.01.2020
5350 Mist -1 1028 92 1000 2.1 230 08:19 02.01.2020
5351 Mist -1 1028 100 1600 2.1 240 07:47 02.01.2020
5352 Fog -1 1027 100 800 3.1 250 07:26 02.01.2020
5353 Mist -1 1028 100 2800 2.6 240 06:41 02.01.2020
5354 Mist -1 1028 100 5000 4.1 220 05:40 02.01.2020
5355 Mist -1 1028 100 3200 3.6 230 04:34 02.01.2020
5356 Fog -1 1029 100 200 3.1 190 03:29 02.01.2020
5357 Mist -1 1029 100 4000 1.5 200 02:21 02.01.2020
5358 Mist -1 1029 100 3600 1.5 119 01:49 02.01.2020
5359 Fog -1 1028 100 200 1 0 01:25 02.01.2020
5360 Mist -1 1029 100 3200 2.6 190 00:45 02.01.2020
5361 Mist -1 1030 100 3200 2.1 190 00:26 02.01.2020
5362 Mist -1 1030 100 3600 2.1 180 23:43 01.01.2020
5363 Fog -1 1029 100 300 2.1 270 23:23 01.01.2020
5364 Mist -1 1030 92 1000 1.67 114 22:39 01.01.2020
5365 Mist -1 1030 92 1000 1.67 114 22:39 01.01.2020
5366 Mist -1 1030 100 1600 1.67 114 22:20 01.01.2020
5367 Fog -1 1030 100 800 3.1 180 21:58 01.01.2020
5368 Fog -1 1030 100 1200 2.1 210 21:39 01.01.2020
5369 Fog -1 1030 100 800 2.1 190 21:20 01.01.2020
5370 Fog -1 1030 100 800 2.1 190 21:20 01.01.2020
5371 Mist -1 1030 100 1100 3.1 170 20:58 01.01.2020
5372 Fog 0 1030 100 600 1.5 220 20:38 01.01.2020
5373 Fog -1 1031 100 800 1.39 111 20:20 01.01.2020
5374 Fog -1 1031 100 800 1.39 111 20:20 01.01.2020
5375 Fog -1 1030 100 300 4.6 150 19:57 01.01.2020
5376 Fog 0 1030 100 400 1.5 230 19:38 01.01.2020
5377 Fog 0 1030 100 400 1.39 111 19:20 01.01.2020
5378 Fog 0 1030 100 500 5.7 160 18:57 01.01.2020
5379 Mist 0 1030 100 2000 3.1 140 18:38 01.01.2020
5380 Fog 0 1030 100 400 1.39 111 18:20 01.01.2020
5381 Mist 0 1030 100 1500 6.7 150 17:57 01.01.2020
5382 Fog 0 1030 96 750 2.6 150 17:39 01.01.2020
5383 Fog 1 1030 94 200 1.79 121 17:19 01.01.2020
5384 Mist 1 1030 94 3000 5.7 150 16:57 01.01.2020
5385 Fog 1 1030 94 400 1.5 240 16:38 01.01.2020
5386 Mist 1 1030 94 5000 1.5 240 16:19 01.01.2020
5387 Mist 1 1030 94 4000 6.2 150 15:56 01.01.2020
5388 Clouds 1 1030 94 10000 1.5 230 15:37 01.01.2020
5389 Clouds 1 1030 94 10000 1.5 250 15:19 01.01.2020
5390 Mist 1 1030 94 3000 6.7 140 14:55 01.01.2020
5391 Clouds 1 1031 94 10000 1.79 121 14:37 01.01.2020
5392 Clouds 1 1031 100 10000 1.5 30 14:19 01.01.2020
5393 Mist 1 1030 81 2000 7.7 140 13:55 01.01.2020
5394 Mist 1 1030 81 2000 7.7 140 13:55 01.01.2020
5395 Fog 1 1031 81 150 2.1 120 13:36 01.01.2020
5396 Mist 1 1031 78 9000 3.1 90 13:18 01.01.2020
5397 Mist 1 1032 78 5000 2.6 90 12:40 01.01.2020
5398 Mist 1 1032 78 1400 3.1 60 12:19 01.01.2020
5399 Fog 1 1031 78 500 9.3 140 11:57 01.01.2020
5400 Mist 1 1032 78 1000 3.6 60 11:39 01.01.2020
5401 Fog 1 1033 88 600 2.6 60 11:20 01.01.2020
5402 Fog 1 1031 88 200 8.7 140 10:55 01.01.2020
5403 Mist 0 1032 88 1600 3.1 60 10:37 01.01.2020
5404 Mist 0 1032 88 6000 2.6 80 10:18 01.01.2020
5405 Mist 0 1032 88 4400 2.6 80 09:40 01.01.2020
5406 Mist 0 1032 88 2600 3.6 60 09:20 01.01.2020
5407 Fog 0 1031 100 400 6.7 140 08:57 01.01.2020
5408 Fog 0 1031 100 400 6.7 140 08:57 01.01.2020
5409 Fog 0 1031 100 100 4.1 60 08:38 01.01.2020
5410 Clouds 0 1031 92 10000 2.1 30 08:19 01.01.2020
5411 Fog 0 1031 92 100 3.1 60 07:57 01.01.2020
5412 Fog 0 1031 92 100 3.6 60 07:39 01.01.2020
5413 Fog 0 1031 92 800 5.7 150 06:55 01.01.2020
5414 Fog 0 1031 100 200 3.1 50 06:36 01.01.2020
5415 Fog 1 1031 100 550 3.1 50 05:48 01.01.2020
5416 Mist 1 1032 100 2500 2.1 60 04:28 01.01.2020
5417 Clouds 1 1033 93 10000 3.1 60 03:39 01.01.2020
5418 Clear 1 1033 92 10000 2.6 50 03:21 01.01.2020
5419 Clear 1 1032 93 6000 2.6 60 02:42 01.01.2020
5420 Fog 1 1032 93 800 5.1 130 02:23 01.01.2020
5421 Clouds 1 1033 93 0 3.1 50 01:42 01.01.2020
5422 Mist 2 1032 91 4000 6.2 130 01:23 01.01.2020
5423 Clouds 1 1033 93 10000 3.1 90 00:45 01.01.2020
5424 Clear 2 1034 91 10000 2.6 80 00:26 01.01.2020
5425 Clouds 2 1033 93 10000 3.1 60 23:58 31.12.2019
5426 Clouds 2 1033 93 10000 2.6 90 23:38 31.12.2019
5427 Clear 2 1034 90 10000 3.6 80 23:18 31.12.2019
5428 Clouds 2 1033 90 10000 6.2 110 22:56 31.12.2019
5429 Clouds 2 1033 90 10000 3.1 90 22:37 31.12.2019
5430 Clouds 2 1033 86 10000 2.6 80 22:18 31.12.2019
5431 Clouds 2 1033 90 10000 3.1 60 21:43 31.12.2019
5432 Clouds 2 1033 100 10000 5.7 130 21:25 31.12.2019
5433 Clouds 2 1033 90 10000 4.1 130 20:57 31.12.2019
5434 Clouds 2 1034 86 10000 4.1 70 20:39 31.12.2019
5435 Clouds 2 1034 86 10000 5.7 60 20:21 31.12.2019
5436 Clouds 2 1033 78 10000 4.1 60 19:58 31.12.2019
5437 Clouds 2 1033 78 10000 4.1 50 19:40 31.12.2019
5438 Clouds 2 1034 80 10000 3.1 80 19:22 31.12.2019
5439 Clouds 2 1033 86 10000 2.6 90 18:57 31.12.2019
5440 Clouds 2 1033 78 10000 2.6 70 18:39 31.12.2019
5441 Clouds 2 1033 78 10000 3.6 60 18:19 31.12.2019
5442 Clouds 2 1033 86 10000 3.1 70 17:56 31.12.2019
5443 Clouds 2 1032 78 10000 4.1 50 17:37 31.12.2019
5444 Clouds 3 1033 64 10000 3.1 80 17:19 31.12.2019
5445 Clouds 3 1033 64 10000 3.1 80 17:19 31.12.2019
5446 Clouds 3 1032 86 10000 2.6 60 16:56 31.12.2019
5447 Clouds 3 1032 86 10000 4.6 40 16:37 31.12.2019
5448 Clouds 3 1033 64 10000 2.6 70 16:19 31.12.2019
5449 Clouds 3 1032 86 10000 2.6 60 15:56 31.12.2019
5450 Clouds 4 1032 74 10000 2.1 70 15:38 31.12.2019
5451 Clouds 4 1032 74 10000 2.1 70 15:20 31.12.2019
5452 Clouds 4 1032 86 10000 2.1 90 14:57 31.12.2019
5453 Clouds 4 1032 69 9000 3.1 60 14:38 31.12.2019
5454 Clouds 4 1032 69 9000 3.1 60 14:38 31.12.2019
5455 Clouds 4 1033 74 10000 3.6 70 14:19 31.12.2019
5456 Clouds 4 1032 86 10000 1.5 70 13:57 31.12.2019
5457 Clouds 4 1032 69 8000 3.6 50 13:39 31.12.2019
5458 Clouds 4 1033 80 10000 0.4 174 13:20 31.12.2019
5459 Clouds 4 1032 93 10000 2.1 60 12:56 31.12.2019
5460 Clouds 3 1033 80 10000 0.4 174 12:38 31.12.2019
5461 Clear 3 1033 86 10000 1.5 60 12:20 31.12.2019
5462 Clouds 3 1032 60 10000 1 0 11:56 31.12.2019
5463 Clouds 3 1033 80 8000 1 0 11:38 31.12.2019
5464 Clouds 0 1033 57 10000 0.87 6 11:20 31.12.2019
5465 Clouds 0 1032 55 10000 2.1 230 10:57 31.12.2019
5466 Clouds 0 1032 55 10000 2.1 230 10:57 31.12.2019
5467 Clouds -1 1032 92 7000 0.5 0 10:38 31.12.2019
5468 Clouds -1 1032 92 7000 0.5 0 10:38 31.12.2019
5469 Clouds -1 1033 86 10000 0.87 6 10:20 31.12.2019
5470 Clouds -1 1032 92 7000 3.1 40 09:58 31.12.2019
5471 Clouds -2 1032 92 6000 2.6 50 09:39 31.12.2019
5472 Clear -2 1032 92 10000 0.87 6 09:20 31.12.2019
5473 Clouds -2 1031 80 10000 2.1 240 08:57 31.12.2019
5474 Mist -2 1031 100 3500 2.6 80 08:37 31.12.2019
5475 Clear -2 1031 92 10000 1.5 140 08:19 31.12.2019
5476 Mist -2 1030 92 3500 2.6 250 07:43 31.12.2019
5477 Clear -2 1030 92 10000 2.1 310 07:20 31.12.2019
5478 Mist -2 1030 92 4000 2.1 210 06:50 31.12.2019
5479 Clouds -3 1031 92 10000 1 0 05:57 31.12.2019
5480 Clouds -2 1030 61 10000 2.6 260 04:28 31.12.2019
5481 Clouds -2 1031 74 10000 3.1 270 03:28 31.12.2019
5482 Clouds -2 1029 55 10000 4.1 280 02:55 31.12.2019
5483 Clear -2 1030 86 10000 1.5 290 02:19 31.12.2019
5484 Clear -2 1030 86 9000 3.1 260 01:48 31.12.2019
5485 Clear -2 1029 64 10000 3.6 270 01:27 31.12.2019
5486 Clear -2 1031 86 10000 2.6 260 00:46 31.12.2019
5487 Clear -2 1029 64 10000 4.6 260 00:22 31.12.2019
5488 Clear -2 1029 63 10000 4.6 260 23:57 30.12.2019
5489 Clear -2 1031 92 10000 0.5 0 23:38 30.12.2019
5490 Clear -2 1030 86 10000 1.5 260 23:20 30.12.2019
5491 Clear -2 1031 92 10000 0.5 0 22:58 30.12.2019
5492 Clear -2 1031 58 10000 2.6 230 22:39 30.12.2019
5493 Clear -1 1030 80 10000 2.1 270 22:20 30.12.2019
5494 Clear -1 1031 92 10000 1.5 300 21:57 30.12.2019
5495 Clear -1 1031 58 10000 1.5 210 21:38 30.12.2019
5496 Clear -1 1030 80 10000 1.5 270 21:19 30.12.2019
5497 Clear -1 1031 58 10000 0.5 270 20:57 30.12.2019
5498 Clear -1 1031 86 10000 2.1 250 20:39 30.12.2019
5499 Clear -1 1030 59 10000 1.5 330 20:20 30.12.2019
5500 Clear 0 1030 80 10000 1.5 200 19:58 30.12.2019
5501 Clear 0 1031 74 10000 1 0 19:38 30.12.2019
5502 Clear 0 1030 59 10000 1.5 170 19:19 30.12.2019
5503 Clear 0 1030 55 10000 1.5 260 18:57 30.12.2019
5504 Clear 0 1031 69 10000 1 0 18:38 30.12.2019
5505 Clear 1 1031 64 10000 1.5 240 18:20 30.12.2019
5506 Clear 1 1030 51 10000 3.6 270 17:56 30.12.2019
5507 Clear 1 1031 69 10000 1.5 270 17:38 30.12.2019
5508 Clouds 2 1031 59 10000 2.1 280 17:19 30.12.2019
5509 Clear 3 1030 51 10000 1.5 300 16:58 30.12.2019
5510 Clear 3 1031 60 10000 1.5 230 16:37 30.12.2019
5511 Clear 4 1031 48 10000 1.04 200 16:18 30.12.2019
5512 Clear 4 1030 41 10000 1 0 15:55 30.12.2019
5513 Clear 5 1031 52 10000 1.5 200 15:37 30.12.2019
5514 Clear 5 1031 48 10000 1.5 260 15:18 30.12.2019
5515 Clear 5 1032 52 10000 2.1 200 14:43 30.12.2019
5516 Clear 5 1032 52 10000 2.1 200 14:43 30.12.2019
5517 Clear 5 1031 52 10000 2.6 270 14:20 30.12.2019
5518 Clouds 5 1032 56 10000 2.6 240 13:58 30.12.2019
5519 Clouds 5 1032 55 10000 3.1 250 13:40 30.12.2019
5520 Clear 5 1032 55 10000 1.5 290 13:21 30.12.2019
5521 Clear 5 1032 55 10000 1.5 290 13:21 30.12.2019
5522 Clear 5 1031 60 10000 4.6 150 12:56 30.12.2019
5523 Clear 4 1033 55 10000 2.1 200 12:37 30.12.2019
5524 Clear 4 1033 59 10000 1.4 162 12:18 30.12.2019
5525 Clear 4 1033 51 10000 1.5 190 11:45 30.12.2019
5526 Clear 2 1033 74 10000 1.28 138 11:20 30.12.2019
5527 Clear 1 1033 69 10000 5.1 150 10:58 30.12.2019
5528 Clear 1 1033 51 10000 1 0 10:40 30.12.2019
5529 Clear 0 1033 80 10000 1.28 138 10:19 30.12.2019
5530 Clear -1 1033 46 10000 1 0 09:42 30.12.2019
5531 Clear -2 1033 86 10000 1.28 138 09:21 30.12.2019
5532 Clear -2 1032 86 10000 6.7 150 08:57 30.12.2019
5533 Clear -2 1033 46 10000 0.5 0 08:38 30.12.2019
5534 Clear -2 1033 46 10000 0.5 0 08:38 30.12.2019
5535 Clear -2 1033 79 10000 0.78 101 08:19 30.12.2019
5536 Clear -2 1032 59 10000 1.5 70 07:46 30.12.2019
5537 Clear -2 1032 74 10000 6.2 150 07:23 30.12.2019
5538 Clear -2 1033 48 10000 2.1 40 06:32 30.12.2019
5539 Clear -2 1034 74 10000 1 40 04:31 30.12.2019
5540 Clear -1 1034 59 10000 1.5 70 03:50 30.12.2019
5541 Clear -1 1034 64 10000 1.5 80 02:47 30.12.2019
5542 Clear -1 1034 86 10000 5.1 150 02:26 30.12.2019
5543 Clouds -1 1034 64 10000 1.5 60 01:39 30.12.2019
5544 Clear -1 1035 79 10000 1.14 85 01:18 30.12.2019
5545 Clouds -1 1035 48 10000 2.1 60 00:42 30.12.2019
5546 Clouds -1 1035 80 10000 1 350 23:58 29.12.2019
5547 Clouds -1 1035 86 10000 1.5 350 23:37 29.12.2019
5548 Clear -1 1035 80 10000 0.99 92 23:19 29.12.2019
5549 Clouds -1 1035 69 10000 2.6 90 22:41 29.12.2019
5550 Clear -1 1035 51 10000 2.1 90 22:22 29.12.2019
5551 Clouds 0 1035 74 10000 8.2 140 21:56 29.12.2019
5552 Clouds 0 1035 74 10000 1.5 50 21:38 29.12.2019
5553 Clouds 0 1036 51 10000 0.99 92 21:19 29.12.2019
5554 Clouds 0 1036 51 10000 0.99 92 21:19 29.12.2019
5555 Clouds 0 1035 74 10000 8.2 140 20:56 29.12.2019
5556 Clouds 0 1035 74 10000 2.6 60 20:38 29.12.2019
5557 Clouds 0 1036 58 10000 3.6 90 20:18 29.12.2019
5558 Clouds 0 1035 80 10000 8.2 140 19:58 29.12.2019
5559 Clouds 0 1035 80 10000 3.1 50 19:39 29.12.2019
5560 Clear 0 1036 58 10000 3.6 80 19:20 29.12.2019
5561 Clouds 1 1035 58 10000 7.2 140 18:55 29.12.2019
5562 Clouds 1 1035 74 10000 3.6 40 18:37 29.12.2019
5563 Clouds 1 1036 74 10000 2.6 60 18:19 29.12.2019
5564 Clouds 1 1036 74 10000 2.6 60 18:19 29.12.2019
5565 Clouds 1 1035 58 10000 7.7 140 17:56 29.12.2019
5566 Clouds 1 1035 74 10000 3.1 60 17:38 29.12.2019
5567 Clouds 1 1035 74 10000 3.1 60 17:38 29.12.2019
5568 Clouds 1 1036 74 10000 4.6 80 17:19 29.12.2019
5569 Clouds 2 1035 63 10000 5.7 150 16:56 29.12.2019
5570 Clouds 2 1035 59 10000 2.6 60 16:37 29.12.2019
5571 Clouds 3 1036 69 10000 2.1 80 16:19 29.12.2019
5572 Clouds 3 1035 69 10000 7.2 150 15:56 29.12.2019
5573 Clouds 3 1035 55 10000 3.1 60 15:38 29.12.2019
5574 Clouds 3 1035 69 10000 2.1 90 15:19 29.12.2019
5575 Clouds 4 1035 74 10000 7.7 140 14:55 29.12.2019
5576 Clouds 3 1035 60 10000 2.6 60 14:37 29.12.2019
5577 Clouds 4 1036 69 10000 2.6 70 14:18 29.12.2019
5578 Clear 3 1035 69 10000 6.2 140 13:55 29.12.2019
5579 Clear 3 1035 69 10000 6.2 140 13:55 29.12.2019
5580 Clear 3 1036 69 10000 1.5 90 13:37 29.12.2019
5581 Clouds 3 1036 69 10000 3.6 90 13:19 29.12.2019
5582 Clouds 3 1036 69 10000 2.6 50 12:45 29.12.2019
5583 Clouds 2 1036 49 10000 4.6 150 12:26 29.12.2019
5584 Clouds 2 1036 49 10000 8.2 140 11:57 29.12.2019
5585 Clouds 2 1037 64 10000 2.6 50 11:38 29.12.2019
5586 Clouds 1 1037 63 10000 3.6 60 11:20 29.12.2019
5587 Clouds -1 1037 63 10000 3.1 50 10:43 29.12.2019
5588 Clouds -1 1036 86 10000 8.2 150 10:25 29.12.2019
5589 Clouds -2 1037 86 10000 8.7 140 09:58 29.12.2019
5590 Clouds -2 1037 86 10000 4.1 50 09:39 29.12.2019
5591 Clouds -3 1037 86 10000 3.6 40 09:21 29.12.2019
5592 Clouds -3 1037 86 10000 3.1 60 08:48 29.12.2019
5593 Clouds -3 1037 86 10000 3.1 60 08:28 29.12.2019
5594 Clouds -3 1036 79 10000 3.6 60 07:57 29.12.2019
5595 Clouds -3 1037 92 10000 3.6 30 07:29 29.12.2019
5596 Clouds -3 1036 92 10000 9.3 140 06:57 29.12.2019
5597 Clouds -3 1036 92 10000 9.3 140 06:27 29.12.2019
5598 Clouds -3 1036 92 10000 8.7 150 05:54 29.12.2019
5599 Clouds -2 1037 86 7000 3.6 50 04:42 29.12.2019
5600 Clear -2 1037 86 10000 2.6 80 04:21 29.12.2019
5601 Clear -2 1038 86 10000 4.1 70 03:21 29.12.2019
5602 Clear -2 1037 86 10000 2.1 50 02:22 29.12.2019
5603 Clear -2 1037 86 10000 2.1 50 02:22 29.12.2019
5604 Clouds -2 1037 92 10000 2.6 30 01:42 29.12.2019
5605 Clouds -2 1036 92 10000 8.2 140 01:23 29.12.2019
5606 Clouds -1 1037 92 8000 2.6 60 00:44 29.12.2019
5607 Clouds -1 1037 92 10000 7.2 140 00:24 29.12.2019
5608 Clouds -1 1038 92 8000 2.6 60 23:45 28.12.2019
5609 Clear -1 1038 92 10000 2.1 80 23:19 28.12.2019
5610 Clear -1 1038 92 10000 2.1 80 23:19 28.12.2019
5611 Clear -1 1038 92 10000 2.1 80 23:19 28.12.2019
5612 Clouds -1 1038 92 10000 8.7 140 22:59 28.12.2019
5613 Clouds -1 1038 86 8000 2.6 60 22:37 28.12.2019
5614 Clear -1 1039 86 10000 3.6 60 22:18 28.12.2019
5615 Clouds -1 1037 92 10000 9.3 140 21:55 28.12.2019
5616 Clouds -1 1038 92 10000 3.1 70 21:37 28.12.2019
5617 Clear -1 1039 86 10000 3.6 80 21:19 28.12.2019
5618 Clouds -1 1038 84 9000 3.6 40 20:42 28.12.2019
5619 Clouds -1 1038 92 10000 6.7 140 20:23 28.12.2019
5620 Clouds 0 1038 89 9000 3.1 60 19:59 28.12.2019
5621 Clouds 0 1038 89 9000 2.6 70 19:41 28.12.2019
5622 Clear 0 1039 86 10000 4.1 80 19:23 28.12.2019
5623 Clouds 0 1038 89 10000 3.1 70 18:59 28.12.2019
5624 Clouds -1 1038 89 10000 2.6 80 18:40 28.12.2019
5625 Clouds 0 1039 86 10000 2.6 60 18:20 28.12.2019
5626 Clouds 0 1038 92 10000 6.7 140 17:58 28.12.2019
5627 Clouds 0 1038 89 10000 3.1 60 17:39 28.12.2019
5628 Clear 1 1039 83 10000 2.6 60 17:20 28.12.2019
5629 Clouds 1 1038 80 10000 3.1 50 16:48 28.12.2019
5630 Clear 2 1038 80 10000 2.6 80 16:26 28.12.2019
5631 Clouds 3 1038 80 10000 3.1 70 15:57 28.12.2019
5632 -273 0 0 0 0 0 15:39 28.12.2019
5633 Clear 3 1037 74 10000 3.1 70 15:21 28.12.2019
5634 Clouds 3 1037 74 10000 2.6 100 14:46 28.12.2019
5635 Clouds 3 1037 83 10000 5.1 140 14:24 28.12.2019
5636 Clouds 3 1037 79 10000 3.6 110 13:58 28.12.2019
5637 Clouds 3 1037 79 10000 3.6 110 13:58 28.12.2019
5638 Clouds 3 1038 79 10000 3.1 70 13:39 28.12.2019
5639 Clear 3 1039 79 10000 1.5 70 13:19 28.12.2019
5640 Clouds 2 1038 77 10000 5.7 140 12:55 28.12.2019
5641 Clouds 2 1038 77 10000 3.1 50 12:36 28.12.2019
5642 Clear 2 1039 77 10000 3.1 90 12:18 28.12.2019
5643 Clouds 2 1038 77 10000 3.1 60 11:40 28.12.2019
5644 Clear 2 1039 87 10000 3.1 90 11:21 28.12.2019
5645 Clouds 1 1038 86 10000 3.6 50 10:55 28.12.2019
5646 Clear 1 1038 80 10000 3.1 50 10:36 28.12.2019
5647 Clear 0 1039 92 10000 3.1 70 10:18 28.12.2019
5648 Clear 0 1038 87 10000 3.6 40 09:45 28.12.2019
5649 Fog 0 1037 100 100 4.1 140 09:23 28.12.2019
5650 Clear -1 1038 92 10000 3.1 30 08:58 28.12.2019
5651 Fog 0 1038 100 400 2.6 90 08:39 28.12.2019
5652 Clear 0 1038 92 10000 1.95 12 08:20 28.12.2019
5653 Clouds 0 1037 86 10000 1.5 360 07:43 28.12.2019
5654 Clouds 1 1037 92 10000 2.1 60 06:59 28.12.2019
5655 Clouds 1 1036 80 10000 2.6 70 05:45 28.12.2019
5656 Clouds 2 1036 92 10000 2.6 90 03:48 28.12.2019
5657 Clouds 3 1036 86 10000 2.1 70 02:50 28.12.2019
5658 Clouds 3 1036 92 10000 1.54 70 02:20 28.12.2019
5659 Clouds 3 1035 92 10000 1.5 120 01:54 28.12.2019
5660 Clouds 3 1036 93 10000 1.66 75 01:22 28.12.2019
5661 Clouds 4 1035 93 10000 2.6 80 00:45 28.12.2019
5662 Clouds 3 1035 93 10000 1.5 80 00:27 28.12.2019
5663 Clouds 4 1034 93 10000 2.6 110 23:58 27.12.2019
5664 Clouds 4 1034 93 10000 4.1 70 23:38 27.12.2019
5665 Clouds 4 1035 86 10000 1.15 94 23:18 27.12.2019
5666 Clouds 4 1034 100 10000 1.5 100 22:55 27.12.2019
5667 Clouds 4 1034 93 7000 3.1 50 22:37 27.12.2019
5668 Clouds 4 1034 93 10000 3.1 50 22:19 27.12.2019
5669 Mist 4 1033 93 5000 3.1 40 21:43 27.12.2019
5670 Clouds 4 1033 100 10000 1.5 110 21:24 27.12.2019
5671 Clouds 4 1033 100 10000 1.5 80 20:57 27.12.2019
5672 Clouds 4 1033 93 8000 3.6 50 20:38 27.12.2019
5673 Clouds 4 1033 100 10000 1.43 36 20:20 27.12.2019
5674 Clouds 5 1032 93 10000 3.6 40 19:41 27.12.2019
5675 Clouds 5 1032 100 10000 2.6 40 19:20 27.12.2019
5676 Clouds 5 1032 100 10000 2.6 40 19:20 27.12.2019
5677 Clouds 5 1031 93 10000 4.6 50 18:57 27.12.2019
5678 Clouds 5 1031 93 10000 4.1 50 18:37 27.12.2019
5679 Clouds 5 1031 100 10000 3.1 20 18:19 27.12.2019
5680 Mist 5 1030 100 3500 3.1 50 17:55 27.12.2019
5681 Clouds 5 1030 93 10000 3.6 40 17:37 27.12.2019
5682 Clouds 5 1030 100 10000 2.6 30 17:18 27.12.2019
5683 Clouds 5 1030 100 10000 3.1 20 16:44 27.12.2019
5684 Mist 5 1029 100 2500 3.1 50 16:26 27.12.2019
5685 Clouds 5 1029 100 10000 3.1 60 15:59 27.12.2019
5686 Clouds 5 1029 100 10000 2.6 360 15:40 27.12.2019
5687 Clouds 6 1028 100 10000 4.1 40 15:20 27.12.2019
5688 Clouds 6 1027 100 10000 3.6 50 14:56 27.12.2019
5689 Clouds 6 1027 93 10000 5.1 60 14:38 27.12.2019
5690 Clouds 6 1026 100 10000 2.6 60 14:20 27.12.2019
5691 Clouds 6 1026 100 10000 2.6 60 14:20 27.12.2019
5692 Clouds 6 1026 100 10000 4.6 60 13:48 27.12.2019
5693 Clouds 6 1026 100 10000 4.1 60 13:25 27.12.2019
5694 Clouds 6 1026 100 10000 4.1 60 13:25 27.12.2019
5695 Fog 6 1026 100 400 4.6 50 12:58 27.12.2019
5696 Clouds 6 1025 93 10000 6.2 30 12:39 27.12.2019
5697 Clouds 6 1026 100 10000 2.1 10 12:21 27.12.2019
5698 Clouds 6 1025 93 8000 3.6 40 11:43 27.12.2019
5699 Mist 6 1025 100 2500 2.6 50 11:24 27.12.2019
5700 Fog 6 1024 100 800 3.1 120 10:55 27.12.2019
5701 Mist 6 1023 100 4000 5.1 40 10:37 27.12.2019
5702 Clouds 5 1023 100 10000 3.1 40 10:19 27.12.2019
5703 Mist 5 1021 100 3000 5.7 40 09:42 27.12.2019
5704 Rain 5 1021 100 8000 4.1 30 09:21 27.12.2019
5705 Fog 5 1020 100 900 6.2 50 08:58 27.12.2019
5706 Fog 5 1019 100 500 5.1 40 08:36 27.12.2019
5707 Clouds 5 1020 100 10000 2.6 50 07:51 27.12.2019
5708 Clouds 5 1020 100 10000 2.6 50 07:32 27.12.2019
5709 Rain 5 1019 100 6000 3.1 50 06:37 27.12.2019
5710 Rain 5 1018 100 1000 2.1 90 05:38 27.12.2019
5711 Rain 5 1019 100 1800 1.5 70 03:44 27.12.2019
5712 Fog 4 1019 100 600 3.6 140 02:23 27.12.2019
5713 Mist 4 1019 100 1600 2.72 218 01:42 27.12.2019
5714 Rain 4 1020 100 8000 2.72 218 01:20 27.12.2019
5715 Mist 4 1020 100 8000 3.31 195 00:44 27.12.2019
5716 Drizzle 4 1020 100 4000 3.1 180 00:24 27.12.2019
5717 Rain 3 1021 100 4400 2.6 210 23:42 26.12.2019
5718 Mist 3 1020 100 4500 3.1 180 23:23 26.12.2019
5719 Clouds 3 1021 100 9000 2.1 170 22:58 26.12.2019
5720 Drizzle 3 1021 100 9000 3.1 210 22:37 26.12.2019
5721 Clouds 3 1021 100 10000 3.1 200 22:18 26.12.2019
5722 Drizzle 3 1021 100 1500 4.1 200 21:39 26.12.2019
5723 Rain 3 1021 100 10000 2.6 180 21:21 26.12.2019
5724 Rain 3 1022 100 10000 4.1 220 20:54 26.12.2019
5725 Rain 3 1022 100 10000 4.1 220 20:36 26.12.2019
5726 Clouds 3 1022 100 10000 5.1 220 20:18 26.12.2019
5727 Clouds 3 1022 100 10000 5.1 220 20:18 26.12.2019
5728 Clouds 3 1021 100 8000 4.1 140 19:54 26.12.2019
5729 Mist 2 1022 100 4000 4.1 190 19:36 26.12.2019
5730 Clouds 2 1021 100 10000 2.6 210 19:18 26.12.2019
5731 Clouds 2 1021 100 10000 2.6 210 19:18 26.12.2019
5732 Clouds 2 1021 100 10000 3.6 140 18:55 26.12.2019
5733 Clouds 3 1022 100 10000 2.1 230 18:36 26.12.2019
5734 Clouds 3 1022 100 10000 2.1 200 18:18 26.12.2019
5735 Clouds 3 1022 100 10000 2.39 161 17:41 26.12.2019
5736 Clouds 3 1022 100 10000 2.1 230 17:21 26.12.2019
5737 Mist 3 1022 100 6000 2.6 220 16:49 26.12.2019
5738 Clouds 3 1021 100 8000 3.6 140 16:26 26.12.2019
5739 Clouds 3 1022 100 8000 4.1 160 15:57 26.12.2019
5740 Clouds 3 1022 93 7000 2.6 180 15:38 26.12.2019
5741 Clouds 3 1022 100 10000 2.2 186 15:19 26.12.2019
5742 Clouds 3 1021 100 10000 1.5 80 14:41 26.12.2019
5743 Clouds 3 1021 100 9000 4.6 140 14:23 26.12.2019
5744 Clouds 3 1022 100 7000 4.1 150 13:55 26.12.2019
5745 Clouds 3 1022 93 7000 3.1 110 13:36 26.12.2019
5746 Mist 3 1023 93 2400 1.5 80 13:18 26.12.2019
5747 Mist 3 1023 100 1600 2.34 132 12:45 26.12.2019
5748 Mist 3 1023 100 5000 4.6 150 12:25 26.12.2019
5749 Clouds 3 1023 93 7000 1.5 120 11:59 26.12.2019
5750 Clouds 2 1024 93 9000 2.1 110 11:40 26.12.2019
5751 Clouds 2 1024 93 9000 2.1 110 11:40 26.12.2019
5752 Fog 2 1024 100 400 2.6 80 11:21 26.12.2019
5753 Fog 2 1024 88 5000 2.6 90 10:50 26.12.2019
5754 Mist 1 1024 100 1500 3.1 150 10:27 26.12.2019
5755 Fog 1 1024 100 5000 2.6 70 09:59 26.12.2019
5756 Fog 1 1024 88 4000 3.1 60 09:41 26.12.2019
5757 Fog 1 1024 88 200 2.6 140 09:22 26.12.2019
5758 Fog 1 1024 100 200 2.1 60 08:40 26.12.2019
5759 Fog 1 1024 100 600 3.1 60 08:21 26.12.2019
5760 Fog 1 1024 92 400 2.6 80 07:46 26.12.2019
5761 Fog 1 1023 100 400 3.6 150 07:26 26.12.2019
5762 Fog 0 1024 92 600 2.6 80 06:43 26.12.2019
5763 Mist 0 1024 100 2000 1 0 06:25 26.12.2019
5764 Mist 0 1024 92 1600 2.6 90 05:43 26.12.2019
5765 Clear 1 1025 93 0 2.6 40 04:38 26.12.2019
5766 Clear 1 1025 100 6000 2.6 40 03:46 26.12.2019
5767 Mist 1 1025 92 2000 1.5 300 02:49 26.12.2019
5768 Mist 1 1025 92 2000 1.5 300 02:31 26.12.2019
5769 Mist 1 1025 92 2000 1.5 300 02:31 26.12.2019
5770 Mist 1 1025 92 1600 0.76 50 01:45 26.12.2019
5771 Clouds 2 1024 100 10000 1.5 250 01:26 26.12.2019
5772 Clouds 3 1025 86 10000 1 340 00:47 26.12.2019
5773 Clouds 3 1024 100 10000 1.5 270 00:24 26.12.2019
5774 Clouds 3 1024 100 10000 1.5 270 00:24 26.12.2019
5775 Clouds 3 1024 100 9000 3.6 290 23:58 25.12.2019
5776 Clouds 3 1025 93 10000 1.5 340 23:38 25.12.2019
5777 Clouds 4 1025 93 10000 0.61 275 23:20 25.12.2019
5778 Clouds 4 1025 100 9000 4.1 260 22:57 25.12.2019
5779 Clouds 4 1025 93 10000 2.1 310 22:38 25.12.2019
5780 Clouds 4 1025 93 10000 2.1 270 22:19 25.12.2019
5781 Clouds 4 1024 100 10000 3.1 250 21:57 25.12.2019
5782 Clouds 4 1025 93 10000 2.6 240 21:39 25.12.2019
5783 Clouds 4 1025 93 10000 2.6 240 21:19 25.12.2019
5784 Clouds 4 1025 86 10000 3.1 270 20:41 25.12.2019
5785 Clouds 5 1024 100 10000 3.6 270 20:23 25.12.2019
5786 Clouds 5 1024 100 10000 3.6 270 20:22 25.12.2019
5787 Clouds 5 1025 86 10000 2.6 280 19:59 25.12.2019
5788 Clouds 5 1025 86 10000 2.1 270 19:41 25.12.2019
5789 Clouds 5 1024 100 10000 3.1 260 19:22 25.12.2019
5790 Clouds 5 1024 100 10000 3.1 260 19:22 25.12.2019
5791 Rain 5 1024 100 10000 2.6 290 18:56 25.12.2019
5792 Clouds 5 1025 86 10000 3.1 280 18:36 25.12.2019
5793 Clouds 5 1024 86 10000 2.1 240 18:18 25.12.2019
5794 Clouds 5 1024 80 10000 3.6 260 17:40 25.12.2019
5795 Clouds 5 1024 86 10000 3.6 270 17:19 25.12.2019
5796 Drizzle 6 1023 86 10000 4.1 310 16:56 25.12.2019
5797 Clouds 6 1023 86 10000 3.6 260 16:37 25.12.2019
5798 Clouds 6 1023 87 10000 2.6 260 16:18 25.12.2019
5799 Clouds 6 1023 87 10000 2.6 260 16:18 25.12.2019
5800 Clouds 6 1022 93 10000 4.1 310 15:56 25.12.2019
5801 Clouds 6 1023 81 10000 4.1 300 15:38 25.12.2019
5802 Clouds 6 1022 81 10000 3.1 290 15:19 25.12.2019
5803 Clouds 6 1022 81 10000 3.1 290 15:19 25.12.2019
5804 Drizzle 6 1020 93 10000 6.7 310 14:56 25.12.2019
5805 Clouds 6 1021 87 10000 4.1 280 14:37 25.12.2019
5806 Drizzle 6 1021 87 10000 4.1 260 14:19 25.12.2019
5807 Rain 6 1021 81 10000 3.6 260 13:44 25.12.2019
5808 Rain 6 1021 87 10000 3.6 270 13:21 25.12.2019
5809 Rain 6 1019 86 9000 7.7 290 12:56 25.12.2019
5810 Clouds 6 1021 81 10000 4.6 290 12:38 25.12.2019
5811 Clouds 6 1020 81 10000 5.7 270 12:19 25.12.2019
5812 Clouds 6 1020 81 10000 4.1 270 11:43 25.12.2019
5813 Clouds 6 1019 81 10000 5.7 270 11:22 25.12.2019
5814 Clouds 6 1020 75 10000 6.7 300 10:59 25.12.2019
5815 Clouds 6 1019 81 10000 4.6 260 10:36 25.12.2019
5816 Clouds 6 1018 81 10000 5.1 270 10:18 25.12.2019
5817 Clouds 6 1018 81 10000 7.2 310 09:44 25.12.2019
5818 Clouds 6 1016 93 10000 5.1 290 09:26 25.12.2019
5819 Clouds 6 1017 93 10000 5.7 300 08:47 25.12.2019
5820 Clouds 6 1017 93 10000 5.7 300 08:28 25.12.2019
5821 Rain 7 1015 93 10000 3.6 250 07:48 25.12.2019
5822 Rain 7 1016 93 10000 6.2 300 07:29 25.12.2019
5823 Rain 7 1014 100 10000 2.6 250 06:49 25.12.2019
5824 Clouds 7 1014 100 10000 3.6 240 06:22 25.12.2019
5825 Clouds 7 1014 93 10000 4.1 240 05:18 25.12.2019
5826 Clouds 8 1014 100 10000 4.6 230 04:38 25.12.2019
5827 Rain 8 1014 100 10000 4.6 230 04:18 25.12.2019
5828 Rain 7 1014 100 10000 5.7 230 03:40 25.12.2019
5829 Clouds 8 1013 100 10000 4.6 230 02:39 25.12.2019
5830 Rain 8 1013 93 10000 4.6 240 02:20 25.12.2019
5831 Rain 7 1012 100 8000 5.7 270 01:25 25.12.2019
5832 Rain 7 1012 100 9000 4.6 260 00:53 25.12.2019
5833 Rain 7 1014 87 6000 7.7 250 00:30 25.12.2019
5834 Rain 7 1012 93 10000 7.2 260 23:57 24.12.2019
5835 Clouds 7 1013 93 10000 5.1 230 23:38 24.12.2019
5836 Clouds 7 1013 93 10000 5.1 230 23:20 24.12.2019
5837 Clouds 7 1013 93 10000 5.7 230 22:41 24.12.2019
5838 Rain 7 1013 93 10000 4.6 230 22:21 24.12.2019
5839 Rain 7 1014 81 10000 5.1 250 21:44 24.12.2019
5840 Clouds 7 1012 87 10000 8.2 270 21:23 24.12.2019
5841 Rain 7 1014 81 10000 6.7 250 20:59 24.12.2019
5842 Clouds 7 1013 81 10000 6.2 240 20:40 24.12.2019
5843 Rain 7 1012 87 10000 7.7 230 20:19 24.12.2019
5844 Clouds 7 1012 87 10000 5.1 230 19:45 24.12.2019
5845 Clouds 8 1012 87 10000 6.2 240 19:21 24.12.2019
5846 Rain 8 1013 87 10000 8.7 250 18:58 24.12.2019
5847 Rain 8 1012 87 10000 7.2 240 18:40 24.12.2019
5848 Rain 8 1012 93 8000 6.7 270 18:18 24.12.2019
5849 Rain 8 1011 81 10000 7.2 220 17:42 24.12.2019
5850 Clouds 8 1011 81 10000 6.7 230 17:21 24.12.2019
5851 Clouds 8 1010 81 10000 7.2 260 16:57 24.12.2019
5852 Clouds 9 1012 76 10000 7.7 250 16:38 24.12.2019
5853 Clouds 9 1011 75 10000 7.7 230 16:20 24.12.2019
5854 Clouds 9 1010 81 10000 6.7 270 15:56 24.12.2019
5855 Clouds 9 1012 76 10000 7.7 260 15:36 24.12.2019
5856 Clouds 9 1010 70 10000 6.2 250 15:18 24.12.2019
5857 Clouds 9 1009 81 10000 8.7 270 14:57 24.12.2019
5858 Clouds 9 1011 76 10000 9.3 270 14:39 24.12.2019
5859 Clouds 9 1009 75 10000 8.7 250 14:21 24.12.2019
5860 Clouds 9 1009 87 10000 9.8 260 13:55 24.12.2019
5861 Clouds 9 1009 87 10000 7.7 230 13:37 24.12.2019
5862 Clouds 8 1009 87 10000 7.7 230 13:19 24.12.2019
5863 Clouds 8 1008 87 10000 9.3 260 12:55 24.12.2019
5864 Clouds 8 1009 100 10000 6.7 220 12:37 24.12.2019
5865 Rain 8 1009 100 10000 6.2 220 12:19 24.12.2019
5866 Rain 8 1009 100 10000 6.2 220 12:19 24.12.2019
5867 Clouds 7 1009 100 6000 7.2 250 11:56 24.12.2019
5868 Rain 7 1010 100 10000 7.2 220 11:37 24.12.2019
5869 Rain 7 1010 100 10000 7.2 220 11:37 24.12.2019
5870 Rain 6 1009 100 5000 6.7 210 11:19 24.12.2019
5871 Clouds 6 1009 100 10000 6.2 210 10:56 24.12.2019
5872 Clouds 6 1009 100 10000 6.2 210 10:56 24.12.2019
5873 Drizzle 6 1010 93 10000 5.1 220 10:37 24.12.2019
5874 Clouds 5 1010 93 10000 6.2 210 10:19 24.12.2019
5875 Rain 5 1012 93 10000 5.1 200 09:55 24.12.2019
5876 Rain 5 1011 93 2500 5.7 190 09:37 24.12.2019
5877 Rain 5 1011 93 10000 6.2 190 09:19 24.12.2019
5878 Mist 5 1011 93 9000 5.1 180 08:45 24.12.2019
5879 Clouds 5 1012 93 10000 5.7 210 08:24 24.12.2019
5880 Drizzle 5 1013 100 4000 5.1 180 07:46 24.12.2019
5881 Clouds 5 1013 93 10000 5.1 200 07:27 24.12.2019
5882 Drizzle 5 1013 93 6000 4.6 180 06:59 24.12.2019
5883 Clouds 5 1014 86 10000 3.6 180 06:39 24.12.2019
5884 Clouds 5 1014 93 10000 4.1 190 06:19 24.12.2019
5885 Clouds 5 1014 93 10000 3.6 190 05:46 24.12.2019
5886 Clouds 5 1015 93 10000 2.6 190 05:18 24.12.2019
5887 Clouds 5 1016 93 10000 7.2 240 03:55 24.12.2019
5888 Clouds 5 1016 93 10000 4.1 190 03:33 24.12.2019
5889 Clouds 5 1016 93 10000 6.7 250 02:25 24.12.2019
5890 Clouds 5 1016 93 10000 5.7 250 01:53 24.12.2019
5891 Clouds 5 1016 93 10000 6.7 260 01:23 24.12.2019
5892 Clouds 6 1016 93 10000 7.2 270 00:55 24.12.2019
5893 Clouds 6 1017 93 10000 4.6 230 00:37 24.12.2019
5894 Clouds 6 1016 93 10000 6.2 220 00:19 24.12.2019
5895 Rain 6 1016 86 10000 4.6 230 23:41 23.12.2019
5896 Clouds 6 1015 100 10000 7.2 260 23:23 23.12.2019
5897 Clouds 6 1015 93 10000 7.7 270 22:56 23.12.2019
5898 Clouds 6 1016 93 10000 6.2 240 22:37 23.12.2019
5899 Clouds 6 1015 86 10000 7.2 230 22:19 23.12.2019
5900 Clouds 6 1014 93 10000 8.2 270 21:56 23.12.2019
5901 Clouds 6 1016 93 10000 6.2 260 21:36 23.12.2019
5902 Clouds 6 1015 87 10000 6.2 230 21:18 23.12.2019
5903 Clouds 6 1016 93 10000 5.7 250 20:58 23.12.2019
5904 Clouds 6 1015 87 10000 5.7 240 20:40 23.12.2019
5905 Clouds 6 1014 86 10000 5.1 230 20:18 23.12.2019
5906 Clouds 6 1013 93 10000 5.7 260 19:57 23.12.2019
5907 Clouds 6 1014 86 10000 4.6 230 19:38 23.12.2019
5908 Rain 6 1014 87 10000 3.6 240 19:20 23.12.2019
5909 Clouds 6 1014 93 10000 6.2 250 18:58 23.12.2019
5910 Clouds 6 1014 93 10000 6.2 250 18:58 23.12.2019
5911 Clouds 6 1013 93 10000 4.6 230 18:39 23.12.2019
5912 Clouds 6 1013 93 10000 3.6 230 18:20 23.12.2019
5913 Clouds 6 1012 93 10000 4.6 280 17:58 23.12.2019
5914 Clouds 6 1013 87 10000 4.6 230 17:40 23.12.2019
5915 Clouds 6 1012 87 10000 4.1 230 17:19 23.12.2019
5916 Clouds 6 1011 93 10000 6.7 280 16:57 23.12.2019
5917 Clouds 6 1012 87 10000 5.7 250 16:39 23.12.2019
5918 Clouds 7 1011 87 10000 4.1 250 16:19 23.12.2019
5919 Clouds 7 1010 100 10000 7.7 270 15:57 23.12.2019
5920 Rain 7 1011 87 10000 4.6 250 15:37 23.12.2019
5921 Clouds 7 1011 87 10000 5.7 240 15:19 23.12.2019
5922 Clouds 7 1009 100 10000 7.2 260 14:56 23.12.2019
5923 Rain 7 1010 81 10000 5.7 240 14:38 23.12.2019
5924 Rain 7 1009 81 10000 5.7 240 14:19 23.12.2019
5925 Drizzle 7 1008 100 10000 4.1 280 13:56 23.12.2019
5926 Rain 7 1010 87 4000 8.2 260 13:38 23.12.2019
5927 Rain 7 1008 87 10000 5.7 240 13:20 23.12.2019
5928 Clouds 6 1008 87 10000 6.2 270 12:55 23.12.2019
5929 Clouds 7 1008 93 10000 4.6 230 12:36 23.12.2019
5930 Clouds 7 1008 81 10000 5.7 220 12:18 23.12.2019
5931 Clouds 7 1008 81 10000 5.7 220 12:18 23.12.2019
5932 Clouds 6 1008 93 10000 5.7 260 11:42 23.12.2019
5933 Clouds 6 1008 93 10000 5.7 260 11:42 23.12.2019
5934 Clouds 6 1007 93 10000 5.1 270 11:24 23.12.2019
5935 Clouds 6 1007 93 10000 6.2 280 10:56 23.12.2019
5936 Clouds 6 1007 87 10000 4.6 220 10:38 23.12.2019
5937 Clouds 6 1006 87 10000 4.1 220 10:20 23.12.2019
5938 Clouds 6 1007 93 10000 5.1 250 09:58 23.12.2019
5939 Clouds 6 1006 87 10000 4.6 220 09:39 23.12.2019
5940 Clouds 6 1006 87 10000 4.6 220 09:39 23.12.2019
5941 Clouds 6 1005 87 10000 3.6 230 09:19 23.12.2019
5942 Clouds 6 1004 93 10000 5.7 270 08:55 23.12.2019
5943 Clouds 6 1004 87 10000 5.1 230 08:37 23.12.2019
5944 Drizzle 6 1004 87 10000 5.1 230 08:18 23.12.2019
5945 Clouds 6 1003 87 10000 4.6 230 07:43 23.12.2019
5946 Clouds 6 1003 100 10000 4.1 230 07:19 23.12.2019
5947 Drizzle 6 1002 100 10000 4.6 230 06:50 23.12.2019
5948 Rain 6 1001 100 10000 7.2 260 06:23 23.12.2019
5949 Rain 6 1001 93 10000 5.7 220 05:49 23.12.2019
5950 Rain 6 1001 93 10000 4.6 220 05:22 23.12.2019
5951 Clouds 6 1000 93 10000 6.2 230 04:20 23.12.2019
5952 Rain 6 999 93 10000 7.2 260 02:55 23.12.2019
5953 Rain 6 1000 93 7000 6.2 250 02:28 23.12.2019
5954 Rain 5 998 100 10000 8.2 260 01:56 23.12.2019
5955 Rain 5 999 87 10000 6.7 250 01:38 23.12.2019
5956 Rain 5 998 87 10000 6.2 220 01:19 23.12.2019
5957 Clouds 6 998 87 10000 7.2 260 00:41 23.12.2019
5958 Rain 6 998 87 10000 7.2 260 00:19 23.12.2019
5959 Rain 6 997 87 10000 7.2 260 23:39 22.12.2019
5960 Rain 6 997 87 10000 7.2 260 23:39 22.12.2019
5961 Clouds 6 996 93 10000 5.7 230 23:21 22.12.2019
5962 Clouds 6 995 93 10000 7.7 260 22:58 22.12.2019
5963 Rain 6 995 87 10000 5.7 230 22:39 22.12.2019
5964 Clouds 6 995 87 10000 6.2 230 22:19 22.12.2019
5965 Clouds 6 994 93 10000 7.7 260 21:57 22.12.2019
5966 Clouds 6 995 87 10000 7.2 260 21:39 22.12.2019
5967 Clouds 6 994 81 10000 8.2 230 21:21 22.12.2019
5968 Clouds 6 993 93 10000 9.3 270 20:58 22.12.2019
5969 Clouds 6 994 93 10000 5.7 250 20:38 22.12.2019
5970 Clouds 6 993 87 10000 6.2 230 20:18 22.12.2019
5971 Clouds 6 992 93 10000 8.2 260 19:56 22.12.2019
5972 Clouds 6 992 87 10000 6.2 230 19:37 22.12.2019
5973 Clouds 6 992 81 10000 6.7 240 19:19 22.12.2019
5974 Rain 6 992 87 10000 9.3 260 18:41 22.12.2019
5975 Rain 6 990 87 10000 8.7 230 18:23 22.12.2019
5976 Rain 6 989 100 10000 8.2 260 17:56 22.12.2019
5977 Clouds 6 990 87 10000 7.7 230 17:37 22.12.2019
5978 Rain 7 989 87 10000 7.7 240 17:19 22.12.2019
5979 Rain 7 989 87 10000 7.7 240 17:19 22.12.2019
5980 Rain 7 988 100 9000 8.7 260 16:57 22.12.2019
5981 Clouds 7 989 81 10000 11.8 260 16:38 22.12.2019
5982 Rain 7 987 93 10000 6.7 230 16:20 22.12.2019
5983 Rain 6 987 100 8000 7.7 250 15:56 22.12.2019
5984 Rain 7 987 93 10000 6.7 220 15:37 22.12.2019
5985 Rain 7 986 87 10000 8.2 230 15:19 22.12.2019
5986 Rain 7 986 87 10000 9.8 230 14:55 22.12.2019
5987 Rain 7 986 87 10000 9.8 230 14:36 22.12.2019
5988 Rain 7 985 87 10000 9.3 210 14:18 22.12.2019
5989 Clouds 7 985 93 10000 4.6 240 13:55 22.12.2019
5990 Rain 7 985 93 10000 6.7 200 13:36 22.12.2019
5991 Clouds 7 985 93 10000 6.7 200 13:18 22.12.2019
5992 Clouds 7 985 93 10000 6.2 240 12:55 22.12.2019
5993 Clouds 7 985 93 10000 6.2 240 12:55 22.12.2019
5994 Rain 8 986 93 4000 4.6 220 12:37 22.12.2019
5995 Clouds 8 985 93 10000 7.2 210 12:18 22.12.2019
5996 Clouds 8 985 93 10000 6.7 220 11:56 22.12.2019
5997 Clouds 8 985 100 10000 7.2 200 11:37 22.12.2019
5998 Rain 8 984 100 10000 6.7 190 11:18 22.12.2019
5999 Clouds 7 985 93 9000 6.2 210 10:55 22.12.2019
6000 Rain 7 985 100 4000 4.6 200 10:36 22.12.2019
6001 Rain 7 984 93 10000 5.1 180 10:18 22.12.2019
6002 Clouds 7 984 100 9000 5.1 180 09:56 22.12.2019
6003 Clouds 7 983 93 10000 5.1 180 09:37 22.12.2019
6004 Clouds 7 983 93 10000 5.7 180 09:19 22.12.2019
6005 Clouds 7 983 87 10000 4.6 180 08:39 22.12.2019
6006 Rain 7 983 87 10000 3.6 170 08:21 22.12.2019
6007 Rain 7 982 87 10000 6.7 180 07:40 22.12.2019
6008 Rain 7 982 93 10000 6.2 180 07:21 22.12.2019
6009 Clouds 7 982 93 10000 3.6 180 06:42 22.12.2019
6010 Rain 7 982 93 10000 4.1 150 06:22 22.12.2019
6011 Rain 7 982 93 10000 5.1 170 05:29 22.12.2019
6012 Clouds 7 983 93 10000 6.2 180 04:46 22.12.2019
6013 Clouds 7 983 100 10000 3.6 160 04:24 22.12.2019
6014 Rain 7 983 100 10000 4.1 180 02:43 22.12.2019
6015 Rain 7 983 100 10000 4.1 180 02:43 22.12.2019
6016 Rain 7 983 100 10000 4.1 180 02:43 22.12.2019
6017 Rain 7 983 100 10000 4.1 180 02:43 22.12.2019
6018 Rain 6 983 93 10000 5.1 180 01:59 22.12.2019
6019 Rain 6 983 93 10000 5.7 190 01:31 22.12.2019
6020 Clouds 6 983 93 10000 3.6 140 00:54 22.12.2019
6021 Clouds 6 983 93 10000 3.6 140 00:36 22.12.2019
6022 Rain 5 984 86 10000 3.1 150 00:18 22.12.2019
6023 Rain 5 984 75 10000 4.6 150 23:40 21.12.2019
6024 Clouds 5 984 80 10000 2.6 110 23:21 21.12.2019
6025 Clouds 5 985 93 10000 8.2 140 22:56 21.12.2019
6026 Rain 5 984 81 10000 4.6 160 22:37 21.12.2019
6027 Clouds 5 985 86 10000 2.6 110 22:18 21.12.2019
6028 Rain 5 986 93 10000 6.2 150 21:54 21.12.2019
6029 Rain 5 985 81 10000 4.6 140 21:36 21.12.2019
6030 Clouds 5 986 86 10000 1.5 120 21:18 21.12.2019
6031 Clouds 5 986 100 10000 4.6 140 20:55 21.12.2019
6032 Clouds 5 986 86 10000 4.6 140 20:37 21.12.2019
6033 Clouds 5 987 81 10000 3.1 140 20:18 21.12.2019
6034 Clouds 5 988 86 10000 4.1 160 19:54 21.12.2019
6035 Clouds 6 988 81 10000 3.6 160 19:36 21.12.2019
6036 Clouds 6 988 81 10000 2.6 130 19:18 21.12.2019
6037 Clouds 6 989 87 10000 5.1 160 18:40 21.12.2019
6038 Clouds 6 990 81 10000 3.14 144 18:22 21.12.2019
6039 Clouds 6 990 86 10000 5.1 200 17:56 21.12.2019
6040 Clouds 6 989 87 10000 4.1 160 17:37 21.12.2019
6041 Clouds 6 990 81 10000 2.1 160 17:19 21.12.2019
6042 Clouds 6 990 93 10000 4.6 210 16:55 21.12.2019
6043 Clouds 6 990 87 10000 4.6 180 16:36 21.12.2019
6044 Clouds 6 990 81 10000 5.1 200 16:18 21.12.2019
6045 Clouds 6 990 100 10000 3.6 180 15:55 21.12.2019
6046 Clouds 6 990 87 10000 3.6 180 15:37 21.12.2019
6047 Clouds 6 991 87 10000 6.7 200 15:18 21.12.2019
6048 Clouds 6 991 87 10000 6.7 190 14:41 21.12.2019
6049 Rain 6 991 100 10000 5.1 220 14:23 21.12.2019
6050 Rain 6 992 100 10000 4.6 210 13:58 21.12.2019
6051 Rain 6 992 100 7000 4.6 200 13:39 21.12.2019
6052 Clouds 6 992 87 10000 4.1 170 13:19 21.12.2019
6053 Clouds 6 992 87 10000 4.6 190 12:56 21.12.2019
6054 Clouds 6 993 87 10000 4.1 200 12:38 21.12.2019
6055 Clouds 6 993 87 10000 4.1 200 12:38 21.12.2019
6056 Clouds 6 993 87 10000 4.1 200 12:38 21.12.2019
6057 Clouds 6 993 87 10000 6.2 200 12:20 21.12.2019
6058 Clouds 5 993 87 10000 4.6 170 11:55 21.12.2019
6059 Clouds 5 993 100 7000 3.6 180 11:37 21.12.2019
6060 Clouds 5 993 87 10000 3.1 170 11:19 21.12.2019
6061 Mist 5 993 100 2200 4.1 170 10:41 21.12.2019
6062 Clouds 5 993 93 10000 2.1 140 10:22 21.12.2019
6063 Mist 4 993 93 2000 3.6 180 09:58 21.12.2019
6064 Clouds 4 994 93 10000 2.1 170 09:40 21.12.2019
6065 Clouds 4 993 93 10000 2.1 130 09:20 21.12.2019
6066 Mist 4 993 93 2000 3.6 180 08:52 21.12.2019
6067 Clouds 4 993 100 10000 4.1 160 08:27 21.12.2019
6068 Clouds 4 993 100 7000 3.1 160 07:59 21.12.2019
6069 Clouds 4 993 100 10000 4.1 170 07:41 21.12.2019
6070 Clouds 4 993 93 10000 2.6 170 07:21 21.12.2019
6071 Clouds 4 993 93 9000 3.1 140 06:42 21.12.2019
6072 Clouds 4 993 100 10000 4.6 140 06:24 21.12.2019
6073 Clouds 5 993 100 10000 2.6 170 05:43 21.12.2019
6074 Clouds 5 993 93 10000 4.6 190 04:56 21.12.2019
6075 Clouds 5 994 93 10000 5.7 200 03:56 21.12.2019
6076 Clouds 6 994 87 10000 6.2 190 02:40 21.12.2019
6077 Clouds 6 993 93 10000 6.2 220 01:55 21.12.2019
6078 Clouds 6 993 93 10000 5.7 220 01:27 21.12.2019
6079 Clouds 6 993 93 10000 4.6 200 00:51 21.12.2019
6080 Clouds 6 993 93 10000 4.6 200 00:31 21.12.2019
6081 Clouds 6 993 87 10000 5.7 230 23:56 20.12.2019
6082 Clouds 6 993 87 10000 3.1 200 23:37 20.12.2019
6083 Clouds 6 993 87 10000 5.7 200 23:18 20.12.2019
6084 Clouds 6 992 87 10000 5.1 210 22:40 20.12.2019
6085 Clouds 6 992 81 10000 7.2 210 22:21 20.12.2019
6086 Clouds 7 992 93 10000 5.7 220 21:57 20.12.2019
6087 Clouds 6 992 87 10000 5.7 210 21:39 20.12.2019
6088 Clouds 7 992 87 10000 4.6 200 21:19 20.12.2019
6089 Clouds 7 992 87 10000 5.1 220 20:39 20.12.2019
6090 Clouds 7 991 87 10000 6.7 220 20:20 20.12.2019
6091 Clouds 7 992 87 10000 5.1 230 19:58 20.12.2019
6092 Clouds 7 991 87 10000 6.7 210 19:40 20.12.2019
6093 Clouds 7 991 87 10000 6.7 210 19:40 20.12.2019
6094 Clouds 8 991 87 10000 6.7 220 19:19 20.12.2019
6095 Clouds 8 991 93 10000 6.7 240 18:54 20.12.2019
6096 Clouds 8 990 87 10000 5.1 220 18:36 20.12.2019
6097 Clouds 8 990 87 10000 7.7 220 18:18 20.12.2019
6098 Clouds 8 990 93 10000 8.2 200 17:42 20.12.2019
6099 Clouds 8 990 93 10000 8.2 200 17:42 20.12.2019
6100 Clouds 9 990 93 10000 8.2 200 17:21 20.12.2019
6101 Clouds 9 989 100 10000 6.7 200 16:59 20.12.2019
6102 Clouds 9 988 100 10000 5.1 180 16:40 20.12.2019
6103 Clouds 9 988 100 10000 5.1 180 16:20 20.12.2019
6104 Clouds 9 988 100 10000 5.1 180 16:20 20.12.2019
6105 Rain 10 987 93 10000 6.2 190 15:57 20.12.2019
6106 Rain 10 987 93 2500 5.1 170 15:39 20.12.2019
6107 Rain 9 987 93 10000 5.1 180 15:19 20.12.2019
6108 Rain 9 987 93 10000 5.7 180 14:58 20.12.2019
6109 Clouds 9 987 87 10000 5.1 170 14:39 20.12.2019
6110 Clouds 9 987 87 10000 5.1 170 14:21 20.12.2019
6111 Rain 9 987 93 8000 6.2 170 13:55 20.12.2019
6112 Rain 9 988 93 7000 5.7 150 13:36 20.12.2019
6113 Clouds 9 988 87 10000 5.7 150 13:18 20.12.2019
6114 Clouds 9 988 93 10000 4.6 140 12:41 20.12.2019
6115 Rain 8 988 93 10000 5.1 140 12:19 20.12.2019
6116 Rain 8 989 93 10000 5.7 150 11:59 20.12.2019
6117 Rain 8 990 93 4000 4.6 140 11:40 20.12.2019
6118 Rain 7 990 93 10000 3.1 90 11:21 20.12.2019
6119 Rain 7 990 93 8000 6.2 140 10:59 20.12.2019
6120 Rain 7 990 93 8000 6.2 140 10:41 20.12.2019
6121 Rain 7 991 87 10000 2.1 110 10:21 20.12.2019
6122 Rain 7 992 81 10000 2.1 120 09:58 20.12.2019
6123 Rain 6 991 93 4500 3.6 140 09:40 20.12.2019
6124 Rain 7 991 75 10000 3.1 100 09:20 20.12.2019
6125 Rain 6 991 81 10000 2.6 180 08:44 20.12.2019
6126 Clouds 6 991 75 10000 3.1 70 08:26 20.12.2019
6127 Rain 7 992 81 10000 2.6 170 07:59 20.12.2019
6128 Rain 7 992 81 10000 2.6 170 07:41 20.12.2019
6129 Clouds 7 992 81 10000 4.1 70 07:20 20.12.2019
6130 Clouds 6 992 81 10000 3.1 80 06:52 20.12.2019
6131 Clear 6 993 81 10000 4.1 70 06:33 20.12.2019
6132 Clouds 6 993 75 10000 3.1 120 05:56 20.12.2019
6133 Clouds 7 994 86 10000 4.1 140 05:38 20.12.2019
6134 Clouds 8 996 81 10000 4.1 150 04:34 20.12.2019
6135 Clear 8 998 81 10000 3.1 70 03:32 20.12.2019
6136 Clouds 7 998 66 10000 5.1 140 02:45 20.12.2019
6137 Clouds 7 998 66 10000 5.1 140 02:45 20.12.2019
6138 Clouds 8 1000 70 10000 4.6 140 01:55 20.12.2019
6139 Clouds 8 1000 81 10000 3.6 140 01:35 20.12.2019
6140 Clouds 8 1001 71 10000 5.1 160 00:53 20.12.2019
6141 Clouds 8 1002 86 10000 3.6 120 00:34 20.12.2019
6142 Clouds 9 1002 71 10000 4.6 140 23:57 19.12.2019
6143 Clouds 9 1003 75 10000 3.1 120 23:39 19.12.2019
6144 Clouds 9 1003 70 10000 2.1 60 23:19 19.12.2019
6145 Fog 9 1004 100 400 7.2 130 22:39 19.12.2019
6146 Clear 9 1004 70 10000 3.6 110 22:21 19.12.2019
6147 Clouds 9 1004 71 10000 4.1 150 21:56 19.12.2019
6148 Clouds 10 1005 81 10000 3.1 130 21:38 19.12.2019
6149 Clear 10 1005 61 10000 3.6 140 21:19 19.12.2019
6150 Clouds 10 1005 71 10000 4.6 150 20:56 19.12.2019
6151 Clouds 10 1005 87 10000 4.1 130 20:37 19.12.2019
6152 Clouds 10 1005 66 10000 2.1 90 20:19 19.12.2019
6153 Clouds 10 1005 66 10000 5.1 170 19:58 19.12.2019
6154 Clouds 10 1005 66 10000 5.1 170 19:58 19.12.2019
6155 Clouds 10 1006 87 10000 3.6 130 19:39 19.12.2019
6156 Clouds 10 1006 66 10000 2.6 90 19:19 19.12.2019
6157 Clouds 10 1006 66 10000 2.6 90 19:19 19.12.2019
6158 Clouds 10 1006 66 10000 2.6 90 19:19 19.12.2019
6159 Clouds 10 1006 66 10000 4.1 150 18:57 19.12.2019
6160 Clouds 10 1006 66 10000 4.1 150 18:57 19.12.2019
6161 Mist 9 1007 100 1200 8.7 150 18:39 19.12.2019
6162 Clear 9 1007 62 10000 2.1 110 18:19 19.12.2019
6163 Clouds 10 1007 66 10000 4.6 160 17:56 19.12.2019
6164 Clouds 10 1007 87 10000 3.1 120 17:37 19.12.2019
6165 Clear 11 1007 62 10000 4.1 160 17:18 19.12.2019
6166 Clear 11 1007 62 10000 4.1 160 17:18 19.12.2019
6167 Clear 11 1008 66 10000 5.1 180 16:56 19.12.2019
6168 Clouds 11 1008 71 10000 3.6 140 16:37 19.12.2019
6169 Clear 12 1008 54 10000 6.2 150 16:19 19.12.2019
6170 Clear 12 1008 62 10000 6.2 170 15:57 19.12.2019
6171 Clear 12 1008 62 10000 6.2 170 15:57 19.12.2019
6172 Clouds 12 1008 58 10000 6.2 190 15:37 19.12.2019
6173 Clouds 12 1008 58 10000 6.2 190 15:37 19.12.2019
6174 Clear 12 1008 54 10000 5.7 180 15:19 19.12.2019
6175 Clear 12 1008 54 10000 5.7 180 15:19 19.12.2019
6176 Clear 12 1008 66 10000 6.7 170 14:54 19.12.2019
6177 Clouds 12 1009 58 10000 6.2 190 14:36 19.12.2019
6178 Clear 12 1009 58 10000 6.7 170 14:18 19.12.2019
6179 Clouds 12 1009 71 10000 3.1 140 13:38 19.12.2019
6180 Clear 12 1010 62 10000 3.1 140 13:20 19.12.2019
6181 Clear 12 1010 66 10000 5.1 150 12:58 19.12.2019
6182 Clear 12 1010 66 10000 5.1 150 12:58 19.12.2019
6183 Clouds 11 1011 71 10000 3.6 140 12:39 19.12.2019
6184 Clear 11 1011 66 10000 2.1 110 12:19 19.12.2019
6185 Clear 11 1011 66 10000 2.1 110 12:19 19.12.2019
6186 Clear 11 1011 66 10000 2.1 110 12:19 19.12.2019
6187 Clear 11 1011 71 10000 4.1 150 11:58 19.12.2019
6188 Clear 10 1011 71 10000 4.1 150 11:40 19.12.2019
6189 Clear 9 1012 76 10000 3.1 90 11:18 19.12.2019
6190 Clear 9 1012 76 10000 3.1 150 10:58 19.12.2019
6191 Clouds 8 1012 71 10000 3.6 140 10:38 19.12.2019
6192 Clear 7 1012 81 10000 3.1 90 10:20 19.12.2019
6193 Clear 7 1012 81 10000 3.1 140 09:56 19.12.2019
6194 Clouds 7 1012 81 10000 3.6 140 09:37 19.12.2019
6195 Clouds 7 1012 81 10000 3.6 140 09:37 19.12.2019
6196 Clear 7 1012 76 10000 3.6 120 09:19 19.12.2019
6197 Clear 6 1012 87 10000 3.6 140 08:55 19.12.2019
6198 Clear 6 1012 87 10000 3.6 140 08:55 19.12.2019
6199 Clouds 6 1012 76 10000 4.6 180 08:37 19.12.2019
6200 Clear 6 1013 87 10000 3.6 110 08:18 19.12.2019
6201 Clear 6 1013 87 10000 3.6 110 08:18 19.12.2019
6202 Clear 7 1013 87 10000 2.6 130 07:42 19.12.2019
6203 Clear 7 1013 87 10000 2.6 130 07:41 19.12.2019
6204 Clear 7 1013 87 10000 1.5 40 07:23 19.12.2019
6205 Clear 7 1013 87 10000 3.1 150 06:59 19.12.2019
6206 Clouds 7 1014 81 10000 2.1 140 06:41 19.12.2019
6207 Clouds 7 1014 81 10000 2.1 140 06:21 19.12.2019
6208 Clear 7 1014 93 10000 3.1 170 05:42 19.12.2019
6209 Clouds 7 1014 87 10000 3.6 130 05:19 19.12.2019
6210 Clouds 7 1014 87 10000 3.1 170 03:54 19.12.2019
6211 Mist 6 1015 100 8000 4.1 100 02:29 19.12.2019
6212 Clear 6 1015 100 10000 5.1 80 01:26 19.12.2019
6213 Clouds 6 1015 93 6000 2.1 120 00:59 19.12.2019
6214 Clouds 6 1015 100 300 3.6 130 00:39 19.12.2019
6215 Clear 7 1016 100 10000 4.1 80 00:19 19.12.2019
6216 Mist 7 1016 100 1600 3.6 80 23:45 18.12.2019
6217 Mist 7 1016 100 1600 3.6 80 23:45 18.12.2019
6218 Mist 7 1016 100 9000 4.6 90 23:19 18.12.2019
6219 Mist 7 1016 100 5000 4.1 80 22:58 18.12.2019
6220 Fog 7 1017 100 300 7.2 150 22:40 18.12.2019
6221 Clear 7 1016 100 10000 3.6 80 22:22 18.12.2019
6222 Clear 6 1016 93 8000 3.1 100 21:59 18.12.2019
6223 Clouds 7 1017 100 6000 7.2 150 21:40 18.12.2019
6224 Clear 7 1017 100 10000 3.6 90 21:20 18.12.2019
6225 Clear 7 1016 93 7000 4.1 120 20:57 18.12.2019
6226 Clear 7 1017 93 8000 3.6 160 20:39 18.12.2019
6227 Clear 7 1017 93 10000 3.6 100 20:20 18.12.2019
6228 Clouds 7 1016 93 10000 3.1 120 19:57 18.12.2019
6229 Clouds 7 1016 93 6000 2.1 120 19:39 18.12.2019
6230 Clear 7 1017 93 10000 3.1 80 19:19 18.12.2019
6231 Clouds 7 1016 93 10000 4.1 130 18:56 18.12.2019
6232 Clouds 7 1017 93 10000 3.6 90 18:38 18.12.2019
6233 Clouds 7 1017 93 10000 3.6 90 18:20 18.12.2019
6234 Clouds 7 1016 93 10000 3.1 130 17:55 18.12.2019
6235 Clouds 7 1017 100 10000 3.6 90 17:37 18.12.2019
6236 Clouds 7 1017 100 10000 3.6 90 17:19 18.12.2019
6237 Clouds 7 1016 87 10000 2.6 120 16:43 18.12.2019
6238 Clouds 7 1017 93 10000 4.1 140 16:24 18.12.2019
6239 Clouds 8 1016 87 10000 3.6 130 15:59 18.12.2019
6240 Clouds 8 1017 87 10000 2.1 120 15:40 18.12.2019
6241 Clear 8 1017 81 10000 1.5 100 15:21 18.12.2019
6242 Clouds 8 1017 87 10000 3.6 140 14:59 18.12.2019
6243 Clouds 8 1017 81 10000 2.3 110 14:40 18.12.2019
6244 Haze 8 1017 81 9000 2.23 180 14:20 18.12.2019
6245 Clouds 8 1017 81 10000 1.5 210 13:56 18.12.2019
6246 Clouds 8 1017 81 10000 2.23 180 13:37 18.12.2019
6247 Clouds 8 1017 87 10000 2.1 210 13:19 18.12.2019
6248 Clouds 8 1017 87 10000 1.5 260 12:57 18.12.2019
6249 Clouds 7 1017 93 7000 2.1 200 12:37 18.12.2019
6250 Clouds 7 1017 87 10000 1.5 230 12:19 18.12.2019
6251 Clouds 7 1017 93 10000 2.6 220 11:55 18.12.2019
6252 Clouds 7 1017 93 10000 2.1 240 11:37 18.12.2019
6253 Clouds 7 1017 93 10000 2.1 240 11:37 18.12.2019
6254 Clouds 7 1017 93 10000 1.5 200 11:18 18.12.2019
6255 Clouds 6 1018 93 10000 2.6 210 10:55 18.12.2019
6256 Mist 6 1017 93 2500 1.5 190 10:37 18.12.2019
6257 Clouds 6 1017 93 10000 2.1 210 10:19 18.12.2019
6258 Clouds 6 1016 100 10000 3.1 230 09:43 18.12.2019
6259 Clouds 6 1016 100 10000 3.6 220 09:18 18.12.2019
6260 Clouds 6 1016 100 10000 3.1 250 08:41 18.12.2019
6261 Clouds 6 1015 93 10000 2.6 200 08:22 18.12.2019
6262 Clouds 6 1015 100 8000 2.6 230 07:43 18.12.2019
6263 Clouds 6 1014 93 10000 2.6 200 07:23 18.12.2019
6264 Clouds 7 1014 100 10000 2.6 280 06:56 18.12.2019
6265 Clouds 7 1013 100 10000 3.1 250 06:27 18.12.2019
6266 Rain 7 1014 93 10000 3.1 280 05:57 18.12.2019
6267 Rain 7 1014 100 10000 3.6 250 04:59 18.12.2019
6268 Rain 8 1012 93 10000 4.6 270 03:31 18.12.2019
6269 Rain 8 1011 100 10000 3.6 250 02:38 18.12.2019
6270 Rain 9 1010 100 10000 6.2 220 02:19 18.12.2019
6271 Rain 9 1010 100 6000 5.1 200 01:42 18.12.2019
6272 Clouds 9 1009 93 10000 6.2 200 01:23 18.12.2019
6273 Clouds 9 1009 93 10000 5.7 200 00:42 18.12.2019
6274 Clouds 9 1008 93 10000 5.1 190 00:23 18.12.2019
6275 Rain 9 1008 93 10000 5.1 240 23:58 17.12.2019
6276 Clouds 9 1008 93 10000 3.6 200 23:39 17.12.2019
6277 Rain 9 1008 93 10000 4.6 210 23:20 17.12.2019
6278 Rain 10 1008 93 10000 7.2 250 22:56 17.12.2019
6279 Rain 10 1008 100 3000 5.1 220 22:38 17.12.2019
6280 Rain 10 1007 93 10000 6.2 220 22:19 17.12.2019
6281 Rain 10 1007 71 10000 8.7 230 21:56 17.12.2019
6282 Rain 10 1007 71 10000 8.7 230 21:56 17.12.2019
6283 Rain 10 1007 71 10000 8.7 230 21:56 17.12.2019
6284 Rain 10 1006 93 10000 7.2 220 21:38 17.12.2019
6285 Rain 10 1005 87 10000 3.6 160 21:19 17.12.2019
6286 Rain 11 1005 87 10000 6.2 160 20:58 17.12.2019
6287 Rain 11 1005 87 10000 3.1 160 20:39 17.12.2019
6288 Rain 11 1005 87 10000 3.6 180 20:18 17.12.2019
6289 Rain 11 1005 87 10000 5.1 220 19:56 17.12.2019
6290 Rain 11 1005 87 10000 4.6 180 19:38 17.12.2019
6291 Clouds 11 1005 87 10000 6.7 190 19:19 17.12.2019
6292 Rain 11 1006 87 10000 6.2 230 18:56 17.12.2019
6293 Rain 11 1005 87 10000 7.7 190 18:37 17.12.2019
6294 Rain 12 1005 76 10000 7.7 190 18:19 17.12.2019
6295 Clouds 12 1005 66 10000 7.7 180 17:42 17.12.2019
6296 Clouds 12 1005 62 10000 6.2 180 17:21 17.12.2019
6297 Clouds 13 1005 62 10000 8.2 190 16:57 17.12.2019
6298 Clouds 12 1004 62 10000 5.1 190 16:38 17.12.2019
6299 Clouds 13 1004 58 10000 4.6 190 16:19 17.12.2019
6300 Clouds 13 1004 58 10000 4.6 190 15:59 17.12.2019
6301 Clouds 13 1004 62 10000 4.6 200 15:38 17.12.2019
6302 Clear 13 1004 62 10000 3.1 190 15:19 17.12.2019
6303 Clouds 13 1005 54 10000 9.8 210 14:56 17.12.2019
6304 Clouds 13 1005 54 10000 9.8 210 14:56 17.12.2019
6305 Rain 13 1004 62 10000 5.7 190 14:38 17.12.2019
6306 Clear 13 1004 62 10000 3.6 230 14:19 17.12.2019
6307 Clouds 14 1005 54 10000 9.3 210 13:56 17.12.2019
6308 Clouds 13 1004 62 10000 5.7 180 13:38 17.12.2019
6309 Clear 13 1004 62 10000 3.1 200 13:19 17.12.2019
6310 Clear 13 1004 62 10000 3.1 200 13:19 17.12.2019
6311 Clouds 13 1005 54 10000 6.2 230 12:58 17.12.2019
6312 Clouds 13 1004 66 10000 4.6 170 12:38 17.12.2019
6313 Clear 13 1005 66 10000 4.1 200 12:18 17.12.2019
6314 Clear 13 1005 66 10000 4.1 200 12:18 17.12.2019
6315 Clouds 12 1005 54 10000 5.7 220 11:56 17.12.2019
6316 Clouds 12 1005 71 10000 3.1 170 11:37 17.12.2019
6317 Clear 11 1005 71 10000 3.6 180 11:18 17.12.2019
6318 Clouds 11 1004 71 10000 3.6 180 10:57 17.12.2019
6319 Clouds 10 1004 71 10000 3.6 180 10:38 17.12.2019
6320 Clear 10 1004 66 10000 1.5 160 10:19 17.12.2019
6321 Clouds 9 1005 87 10000 3.6 140 09:55 17.12.2019
6322 Clouds 9 1004 71 10000 4.1 170 09:37 17.12.2019
6323 Clear 9 1004 76 10000 3.52 154 09:18 17.12.2019
6324 Clouds 9 1004 87 10000 5.1 150 08:54 17.12.2019
6325 Clouds 9 1003 76 10000 3.6 180 08:36 17.12.2019
6326 Clouds 9 1003 76 10000 3.84 156 08:18 17.12.2019
6327 Clouds 9 1003 76 10000 4.1 180 07:42 17.12.2019
6328 Clouds 9 1003 76 10000 4.1 200 07:22 17.12.2019
6329 Clouds 9 1002 76 10000 4.1 170 06:50 17.12.2019
6330 Clouds 9 1003 66 10000 3.1 170 06:32 17.12.2019
6331 Clouds 9 1002 76 10000 4.1 180 05:50 17.12.2019
6332 Clouds 9 1003 62 10000 5.7 210 05:31 17.12.2019
6333 Clouds 9 1002 76 10000 5.1 200 04:19 17.12.2019
6334 Rain 8 1003 76 10000 8.2 190 02:27 17.12.2019
6335 Clouds 8 1002 76 10000 3.1 160 01:34 17.12.2019
6336 Clouds 8 1002 100 10000 5.7 140 00:56 17.12.2019
6337 Clouds 8 1002 81 10000 3.1 150 00:36 17.12.2019
6338 Clouds 8 1002 93 10000 2.6 110 00:18 17.12.2019
6339 Clouds 8 1002 81 10000 2.1 120 23:40 16.12.2019
6340 Clouds 8 1002 87 10000 3.1 100 23:19 16.12.2019
6341 Clouds 7 1003 81 10000 4.1 140 22:55 16.12.2019
6342 Clouds 7 1003 81 10000 4.1 140 22:37 16.12.2019
6343 Clouds 7 1003 93 10000 3.1 100 22:19 16.12.2019
6344 Clouds 7 1003 100 10000 7.2 150 21:54 16.12.2019
6345 Clouds 7 1003 87 10000 3.6 130 21:36 16.12.2019
6346 Clear 7 1004 100 10000 3.1 90 21:18 16.12.2019
6347 Clouds 7 1004 100 10000 7.2 160 20:56 16.12.2019
6348 Clouds 7 1004 87 10000 4.1 130 20:37 16.12.2019
6349 Clear 7 1004 100 10000 3.6 100 20:19 16.12.2019
6350 Clouds 7 1004 100 10000 5.7 150 19:55 16.12.2019
6351 Clouds 8 1004 93 10000 3.1 130 19:36 16.12.2019
6352 Clouds 7 1004 100 10000 3.1 110 19:18 16.12.2019
6353 Clouds 8 1005 93 10000 5.7 150 18:55 16.12.2019
6354 Clouds 8 1004 87 10000 3.1 130 18:37 16.12.2019
6355 Clouds 8 1004 100 10000 2.6 90 18:19 16.12.2019
6356 Clouds 8 1005 100 10000 4.6 140 17:56 16.12.2019
6357 Clouds 8 1004 87 10000 3.1 130 17:37 16.12.2019
6358 Clouds 8 1005 93 10000 2.1 110 17:19 16.12.2019
6359 Clouds 8 1005 93 10000 2.6 130 16:55 16.12.2019
6360 Clouds 8 1005 93 10000 2.6 130 16:37 16.12.2019
6361 Clouds 9 1005 87 10000 1.5 160 16:18 16.12.2019
6362 Clouds 9 1005 100 10000 3.1 140 15:55 16.12.2019
6363 Clouds 9 1005 93 10000 2.1 150 15:37 16.12.2019
6364 Clouds 10 1005 93 10000 3.1 200 15:19 16.12.2019
6365 Clouds 10 1005 93 10000 3.1 170 14:54 16.12.2019
6366 Clouds 10 1005 93 10000 3.6 170 14:36 16.12.2019
6367 Clouds 10 1005 87 10000 3.1 180 14:18 16.12.2019
6368 Clouds 10 1005 87 10000 2.6 190 13:55 16.12.2019
6369 Clouds 10 1005 87 10000 2.6 190 13:36 16.12.2019
6370 Clouds 9 1006 100 10000 4.6 180 13:18 16.12.2019
6371 Clouds 9 1006 93 8000 3.1 170 12:54 16.12.2019
6372 Clouds 9 1006 93 8000 3.1 170 12:36 16.12.2019
6373 Clouds 9 1006 100 10000 3.1 180 12:18 16.12.2019
6374 Clouds 9 1007 100 7000 2.6 150 11:55 16.12.2019
6375 Clouds 8 1007 100 7000 2.6 150 11:37 16.12.2019
6376 Mist 8 1007 100 10000 3.1 190 11:19 16.12.2019
6377 Mist 8 1007 100 4000 2.6 170 10:40 16.12.2019
6378 Clouds 8 1007 100 10000 2.1 200 10:21 16.12.2019
6379 Clouds 8 1007 100 10000 3.1 180 09:56 16.12.2019
6380 Mist 8 1007 100 3200 3.6 180 09:38 16.12.2019
6381 Rain 7 1007 100 3200 2.1 130 09:20 16.12.2019
6382 Drizzle 7 1007 100 1000 1.5 90 08:40 16.12.2019
6383 Fog 7 1006 100 800 2.1 90 08:19 16.12.2019
6384 Fog 7 1006 100 800 2.1 90 08:19 16.12.2019
6385 Mist 7 1007 100 3200 2.1 130 07:52 16.12.2019
6386 Mist 7 1007 100 1800 2.6 170 07:31 16.12.2019
6387 Clouds 7 1007 100 10000 2.74 159 06:57 16.12.2019
6388 Clouds 7 1007 100 10000 2.74 159 06:39 16.12.2019
6389 Clouds 7 1007 100 10000 2.74 159 06:18 16.12.2019
6390 Rain 7 1007 100 10000 2.74 159 05:41 16.12.2019
6391 Mist 7 1007 93 2800 2.95 170 05:22 16.12.2019
6392 Clouds 7 1008 93 10000 3.6 180 03:28 16.12.2019
6393 Rain 7 1008 93 10000 1.5 120 01:51 16.12.2019
6394 Rain 7 1008 93 400 3.6 180 01:33 16.12.2019
6395 Rain 6 1008 93 10000 1.5 110 00:39 16.12.2019
6396 Rain 6 1008 93 10000 2.1 160 00:20 16.12.2019
6397 Clouds 6 1008 100 10000 4.6 140 23:57 15.12.2019
6398 Clouds 6 1008 93 10000 2.96 180 23:37 15.12.2019
6399 Clouds 6 1008 93 10000 2.69 168 23:19 15.12.2019
6400 Clouds 6 1008 93 10000 2.6 180 22:54 15.12.2019
6401 Clouds 6 1008 93 10000 2.6 180 22:36 15.12.2019
6402 Clouds 6 1008 87 10000 2.6 190 22:18 15.12.2019
6403 Clouds 6 1008 87 10000 3.6 230 21:55 15.12.2019
6404 Clouds 6 1008 93 10000 2.6 200 21:36 15.12.2019
6405 Clouds 6 1008 93 10000 3.6 190 21:18 15.12.2019
6406 Clouds 6 1008 93 10000 4.6 220 20:54 15.12.2019
6407 Clouds 6 1008 93 10000 3.1 200 20:36 15.12.2019
6408 Clouds 5 1008 93 10000 2.6 190 20:18 15.12.2019
6409 Clouds 5 1008 86 10000 3.6 230 19:54 15.12.2019
6410 Clouds 5 1008 93 10000 2.6 200 19:36 15.12.2019
6411 Clouds 5 1007 86 10000 2.1 210 19:18 15.12.2019
6412 Clouds 5 1007 87 10000 2.6 190 18:54 15.12.2019
6413 Clouds 5 1007 87 10000 2.6 190 18:36 15.12.2019
6414 Clear 6 1007 80 10000 2.1 240 18:18 15.12.2019
6415 Clouds 6 1007 81 10000 3.6 220 17:55 15.12.2019
6416 Clouds 6 1007 81 10000 3.6 220 17:36 15.12.2019
6417 Clear 6 1006 75 10000 3.6 220 17:18 15.12.2019
6418 Clouds 7 1006 75 10000 4.1 230 16:42 15.12.2019
6419 Clouds 7 1006 75 10000 3.6 220 16:22 15.12.2019
6420 Clouds 7 1005 81 10000 6.7 250 15:57 15.12.2019
6421 Clouds 7 1006 70 10000 5.7 220 15:39 15.12.2019
6422 Clouds 7 1005 70 10000 5.7 230 15:19 15.12.2019
6423 Clouds 7 1005 81 10000 6.7 260 14:56 15.12.2019
6424 Clouds 7 1005 75 10000 5.7 230 14:37 15.12.2019
6425 Clouds 7 1005 75 10000 6.7 220 14:19 15.12.2019
6426 Clouds 7 1006 87 10000 5.7 240 13:59 15.12.2019
6427 Clouds 7 1005 81 10000 8.2 250 13:39 15.12.2019
6428 Clouds 7 1004 81 10000 4.6 230 13:20 15.12.2019
6429 Clouds 7 1003 87 10000 9.3 260 12:57 15.12.2019
6430 Clouds 7 1004 87 10000 6.7 250 12:39 15.12.2019
6431 Clear 8 1003 81 10000 5.1 220 12:21 15.12.2019
6432 Clouds 7 1003 87 10000 7.7 260 11:59 15.12.2019
6433 Clouds 7 1003 81 10000 7.7 250 11:38 15.12.2019
6434 Clouds 7 1003 87 10000 6.2 230 11:19 15.12.2019
6435 Clouds 7 1003 87 10000 6.2 230 11:19 15.12.2019
6436 Clouds 7 1002 81 10000 5.1 230 10:55 15.12.2019
6437 Clouds 7 1002 81 10000 5.1 230 10:37 15.12.2019
6438 Clouds 7 1002 81 10000 5.1 230 10:37 15.12.2019
6439 Clouds 7 1001 87 10000 5.1 230 10:19 15.12.2019
6440 Clouds 7 1001 81 10000 5.1 240 09:57 15.12.2019
6441 Clouds 7 1001 81 10000 5.1 240 09:37 15.12.2019
6442 Rain 7 1000 87 10000 6.7 250 09:19 15.12.2019
6443 Rain 8 999 87 10000 11.3 260 08:42 15.12.2019
6444 Clouds 9 998 81 10000 9.8 210 08:23 15.12.2019
6445 Rain 9 998 87 10000 9.8 240 07:57 15.12.2019
6446 Clouds 9 999 87 10000 8.7 230 07:38 15.12.2019
6447 Clouds 9 997 93 10000 10.8 210 07:19 15.12.2019
6448 Clouds 9 997 93 10000 10.8 210 06:24 15.12.2019
6449 Clouds 9 997 93 10000 9.8 210 05:42 15.12.2019
6450 Rain 8 997 93 10000 9.8 210 05:20 15.12.2019
6451 Rain 8 997 93 10000 8.7 190 04:19 15.12.2019
6452 Rain 7 999 100 6000 4.1 190 02:50 15.12.2019
6453 Rain 7 999 100 6000 4.1 190 02:31 15.12.2019
6454 Rain 6 999 93 10000 4.6 170 01:40 15.12.2019
6455 Rain 6 999 93 10000 3.6 170 01:18 15.12.2019
6456 Clouds 6 1000 93 10000 2.6 180 00:49 15.12.2019
6457 Rain 6 1001 93 10000 4.6 210 00:31 15.12.2019
6458 Clouds 5 1001 93 10000 4.1 190 23:41 14.12.2019
6459 Clouds 5 1002 93 10000 4.1 200 23:23 14.12.2019
6460 Clouds 5 1002 86 10000 4.1 220 22:59 14.12.2019
6461 Clouds 5 1002 86 10000 4.6 190 22:41 14.12.2019
6462 Clear 5 1002 86 10000 5.1 220 22:22 14.12.2019
6463 Clouds 5 1002 86 10000 5.7 250 21:58 14.12.2019
6464 Clouds 5 1002 93 10000 4.6 220 21:40 14.12.2019
6465 Clouds 5 1002 86 10000 5.1 230 21:20 14.12.2019
6466 Clouds 5 1001 86 10000 9.3 250 20:59 14.12.2019
6467 Clouds 6 1002 87 10000 5.1 230 20:41 14.12.2019
6468 Clear 6 1001 80 10000 6.7 230 20:20 14.12.2019
6469 Clouds 6 1000 86 10000 9.3 260 19:59 14.12.2019
6470 Clouds 6 1002 81 10000 6.7 240 19:39 14.12.2019
6471 Clouds 6 1000 86 10000 6.2 240 19:21 14.12.2019
6472 Clouds 6 999 86 10000 10.3 250 18:57 14.12.2019
6473 Clouds 6 999 86 10000 8.2 230 18:38 14.12.2019
6474 Clouds 6 999 86 10000 8.2 230 18:20 14.12.2019
6475 Rain 6 999 86 10000 7.7 240 17:57 14.12.2019
6476 Rain 6 999 86 10000 7.7 240 17:38 14.12.2019
6477 Rain 6 998 81 10000 7.7 220 17:20 14.12.2019
6478 Rain 6 998 86 10000 10.3 220 16:41 14.12.2019
6479 Clouds 6 997 86 10000 9.8 220 16:19 14.12.2019
6480 Rain 6 997 80 10000 9.3 240 15:55 14.12.2019
6481 Rain 6 997 75 10000 13.4 220 15:37 14.12.2019
6482 Clouds 6 997 75 10000 7.2 220 15:19 14.12.2019
6483 Rain 6 996 86 10000 8.7 240 14:56 14.12.2019
6484 Rain 7 997 86 10000 10.3 220 14:37 14.12.2019
6485 Rain 7 997 75 10000 8.7 220 14:18 14.12.2019
6486 Clouds 6 997 70 10000 10.8 230 13:44 14.12.2019
6487 Clouds 6 996 70 10000 9.8 240 13:19 14.12.2019
6488 Clouds 6 996 70 10000 8.7 240 12:58 14.12.2019
6489 Clouds 6 996 70 10000 8.7 240 12:38 14.12.2019
6490 Clouds 6 996 70 10000 8.7 240 12:38 14.12.2019
6491 Clouds 6 995 75 10000 12.3 230 12:20 14.12.2019
6492 Clouds 6 995 86 10000 7.2 250 11:58 14.12.2019
6493 Clouds 6 995 86 10000 7.2 250 11:39 14.12.2019
6494 Rain 5 995 93 9000 9.8 250 11:19 14.12.2019
6495 Drizzle 5 993 93 10000 8.7 260 10:56 14.12.2019
6496 Rain 5 994 86 10000 9.3 250 10:38 14.12.2019
6497 Rain 5 993 93 10000 7.7 230 10:20 14.12.2019
6498 Rain 5 992 86 10000 10.3 270 09:55 14.12.2019
6499 Clouds 5 992 80 10000 6.7 240 09:36 14.12.2019
6500 Clouds 5 991 80 10000 7.7 240 09:18 14.12.2019
6501 Clouds 5 991 81 10000 8.2 270 08:41 14.12.2019
6502 Clouds 6 988 86 10000 10.3 260 08:19 14.12.2019
6503 Rain 6 986 81 10000 11.8 260 07:43 14.12.2019
6504 Rain 6 984 100 10000 9.8 220 07:23 14.12.2019
6505 Rain 7 987 93 8000 9.8 240 06:55 14.12.2019
6506 Rain 6 985 93 5000 10.3 250 06:36 14.12.2019
6507 Drizzle 6 983 100 10000 6.2 210 05:56 14.12.2019
6508 Drizzle 6 983 100 10000 6.2 210 05:56 14.12.2019
6509 Rain 4 984 100 7000 5.7 190 04:42 14.12.2019
6510 Rain 3 987 100 10000 6.2 190 02:31 14.12.2019
6511 Rain 3 987 93 10000 7.2 200 01:49 14.12.2019
6512 Rain 4 988 93 10000 6.7 200 01:31 14.12.2019
6513 Clouds 4 989 93 10000 5.7 210 00:45 14.12.2019
6514 Clouds 4 988 93 10000 5.1 230 00:27 14.12.2019
6515 Clouds 3 989 93 10000 5.7 220 23:54 13.12.2019
6516 Clouds 3 989 93 10000 5.7 220 23:36 13.12.2019
6517 Clouds 4 989 86 10000 6.7 220 23:18 13.12.2019
6518 Clouds 4 990 86 10000 5.7 230 22:40 13.12.2019
6519 Clouds 4 988 86 10000 5.1 220 22:19 13.12.2019
6520 Clouds 4 988 93 10000 8.7 270 21:56 13.12.2019
6521 Clouds 4 988 86 10000 5.1 220 21:37 13.12.2019
6522 Clouds 4 988 86 10000 5.7 230 21:19 13.12.2019
6523 Clouds 4 988 86 10000 6.2 230 20:41 13.12.2019
6524 Clouds 4 987 86 10000 6.2 240 20:22 13.12.2019
6525 Clouds 4 987 86 10000 6.2 240 19:59 13.12.2019
6526 Clouds 4 988 93 10000 7.2 260 19:41 13.12.2019
6527 Clouds 4 986 93 10000 7.7 240 19:22 13.12.2019
6528 Clouds 4 985 93 10000 5.1 230 18:59 13.12.2019
6529 Rain 4 984 100 10000 9.8 270 18:40 13.12.2019
6530 Rain 4 984 93 10000 5.1 240 18:19 13.12.2019
6531 Clouds 4 985 93 10000 9.3 270 17:55 13.12.2019
6532 Rain 4 982 93 9000 6.7 270 17:37 13.12.2019
6533 Rain 4 983 93 10000 6.2 250 17:18 13.12.2019
6534 Rain 4 982 93 10000 7.2 240 16:54 13.12.2019
6535 Rain 4 981 86 10000 7.7 240 16:36 13.12.2019
6536 Rain 4 981 86 10000 7.7 240 16:18 13.12.2019
6537 Rain 4 979 86 10000 8.7 240 15:38 13.12.2019
6538 Rain 4 979 86 10000 8.7 240 15:20 13.12.2019
6539 Rain 4 979 93 7000 9.3 250 14:41 13.12.2019
6540 Rain 4 978 93 10000 7.2 230 14:21 13.12.2019
6541 Rain 4 979 93 10000 9.3 240 13:58 13.12.2019
6542 Rain 4 977 100 10000 9.3 250 13:40 13.12.2019
6543 Rain 4 977 93 10000 9.3 220 13:21 13.12.2019
6544 Rain 5 977 93 10000 7.7 220 12:44 13.12.2019
6545 Clouds 5 976 86 10000 6.2 230 12:24 13.12.2019
6546 Drizzle 4 977 93 10000 9.3 250 11:59 13.12.2019
6547 Drizzle 4 977 93 10000 9.3 250 11:41 13.12.2019
6548 Clouds 4 976 93 10000 5.7 230 11:23 13.12.2019
6549 Rain 4 975 81 8000 7.7 250 10:56 13.12.2019
6550 Drizzle 4 975 93 8000 5.1 230 10:38 13.12.2019
6551 Drizzle 4 975 93 8000 5.1 230 10:19 13.12.2019
6552 Rain 4 974 93 10000 1.5 140 09:41 13.12.2019
6553 Rain 4 974 93 10000 1.5 140 09:20 13.12.2019
6554 Rain 4 974 93 10000 2.1 140 08:44 13.12.2019
6555 Rain 3 974 100 10000 2.6 120 08:26 13.12.2019
6556 Rain 3 974 100 8000 6.2 180 07:48 13.12.2019
6557 Rain 3 975 93 10000 2.6 160 07:25 13.12.2019
6558 Rain 3 975 93 10000 3.1 160 06:55 13.12.2019
6559 Rain 3 976 100 10000 3.6 140 06:29 13.12.2019
6560 Drizzle 3 977 93 10000 4.1 130 05:51 13.12.2019
6561 Clouds 3 977 100 10000 3.1 110 05:30 13.12.2019
6562 Mist 2 978 100 6000 1.5 90 04:53 13.12.2019
6563 Drizzle 1 980 96 10000 3.1 130 03:50 13.12.2019
6564 Rain 1 982 100 1100 4.6 150 02:35 13.12.2019
6565 Snow 1 983 97 9000 2.1 110 01:50 13.12.2019
6566 Rain 1 984 97 10000 2.6 130 01:24 13.12.2019
6567 Snow 1 985 97 6000 3.1 120 00:46 13.12.2019
6568 Snow 1 986 86 10000 3.6 140 00:24 13.12.2019
6569 Snow 1 987 97 2000 5.7 160 23:42 12.12.2019
6570 Clouds 1 988 74 10000 3.6 140 23:24 12.12.2019
6571 Snow 1 989 80 8000 5.7 160 22:56 12.12.2019
6572 Clouds 1 989 81 10000 4.1 150 22:38 12.12.2019
6573 Clouds 1 989 81 10000 4.1 150 22:38 12.12.2019
6574 Clouds 2 990 86 10000 2.6 130 22:19 12.12.2019
6575 Clouds 2 991 86 10000 2.6 130 21:55 12.12.2019
6576 Clouds 2 991 80 10000 6.2 170 21:37 12.12.2019
6577 Clouds 2 992 80 10000 5.1 140 21:19 12.12.2019
6578 Clouds 2 993 80 10000 6.2 170 20:58 12.12.2019
6579 Clouds 2 993 86 10000 6.2 180 20:40 12.12.2019
6580 Clouds 2 994 80 10000 3.6 140 20:21 12.12.2019
6581 Clouds 2 994 92 10000 5.7 160 19:56 12.12.2019
6582 Clouds 2 994 86 10000 7.7 190 19:37 12.12.2019
6583 Clouds 2 995 80 10000 3.6 140 19:18 12.12.2019
6584 Clouds 2 995 80 10000 4.1 150 18:56 12.12.2019
6585 Clouds 2 995 86 10000 6.7 190 18:37 12.12.2019
6586 Clouds 2 995 86 10000 6.7 190 18:37 12.12.2019
6587 Clouds 2 996 92 10000 4.1 140 18:19 12.12.2019
6588 Clouds 2 997 92 10000 2.6 160 17:56 12.12.2019
6589 Clouds 2 996 86 10000 5.7 190 17:38 12.12.2019
6590 Clouds 2 997 81 10000 3.1 170 17:19 12.12.2019
6591 Clouds 2 998 81 10000 5.1 180 16:55 12.12.2019
6592 Clouds 2 998 93 10000 2.6 170 16:36 12.12.2019
6593 Clouds 2 998 93 10000 2.6 170 16:18 12.12.2019
6594 Clouds 3 999 81 10000 4.1 190 15:42 12.12.2019
6595 Rain 3 1000 81 10000 7.2 200 15:20 12.12.2019
6596 Drizzle 3 1001 93 10000 5.1 200 14:59 12.12.2019
6597 Clouds 3 999 81 10000 7.2 210 14:38 12.12.2019
6598 Clouds 3 1001 86 10000 5.7 200 14:19 12.12.2019
6599 Clouds 3 1001 86 10000 4.6 180 13:57 12.12.2019
6600 Rain 3 1001 86 10000 4.1 210 13:38 12.12.2019
6601 Rain 3 1001 86 10000 4.1 210 13:20 12.12.2019
6602 Clouds 3 1002 86 10000 4.1 210 12:57 12.12.2019
6603 Clouds 3 1002 86 10000 6.2 220 12:38 12.12.2019
6604 Clouds 3 1002 86 10000 6.2 220 12:20 12.12.2019
6605 Clouds 3 1003 93 10000 4.6 230 11:55 12.12.2019
6606 Clouds 3 1003 93 10000 4.1 230 11:37 12.12.2019
6607 Clouds 3 1003 93 10000 4.1 230 11:19 12.12.2019
6608 Clouds 3 1003 93 10000 3.1 220 10:55 12.12.2019
6609 Clouds 3 1003 93 10000 4.1 220 10:37 12.12.2019
6610 Clouds 3 1003 93 10000 4.1 220 10:18 12.12.2019
6611 Clouds 3 1004 93 10000 3.6 240 09:42 12.12.2019
6612 Clouds 3 1003 93 10000 3.1 230 09:24 12.12.2019
6613 Clouds 3 1003 93 10000 3.1 240 08:58 12.12.2019
6614 Clouds 3 1004 100 10000 4.6 250 08:40 12.12.2019
6615 Clouds 3 1003 93 10000 3.6 220 08:22 12.12.2019
6616 Rain 3 1003 93 10000 3.6 230 07:47 12.12.2019
6617 Rain 3 1003 93 10000 3.6 230 07:25 12.12.2019
6618 Rain 3 1003 100 10000 3.6 220 06:54 12.12.2019
6619 Rain 3 1003 100 10000 4.1 200 06:34 12.12.2019
6620 Rain 3 1003 93 6000 4.6 240 05:41 12.12.2019
6621 Clouds 3 1003 100 10000 5.1 190 04:54 12.12.2019
6622 Rain 3 1003 100 10000 4.1 190 03:49 12.12.2019
6623 Clouds 3 1004 100 10000 3.6 190 02:40 12.12.2019
6624 Clouds 4 1004 100 10000 3.6 190 02:21 12.12.2019
6625 Clouds 4 1004 100 10000 4.1 200 01:46 12.12.2019
6626 Rain 4 1004 100 10000 4.1 190 01:28 12.12.2019
6627 Clouds 4 1005 93 6000 3.6 190 00:47 12.12.2019
6628 Clouds 4 1005 100 10000 3.1 200 00:20 12.12.2019
6629 Clouds 4 1005 100 10000 3.6 200 23:45 11.12.2019
6630 Clouds 4 1005 100 10000 4.1 200 23:21 11.12.2019
6631 Clouds 4 1005 100 10000 3.1 220 22:58 11.12.2019
6632 Clouds 4 1005 100 10000 3.1 220 22:39 11.12.2019
6633 Clouds 4 1006 100 10000 2.6 230 22:20 11.12.2019
6634 Clouds 4 1006 100 10000 2.6 230 21:59 11.12.2019
6635 Clouds 4 1006 100 10000 3.6 220 21:39 11.12.2019
6636 Clouds 4 1006 100 10000 3.6 220 21:20 11.12.2019
6637 Clouds 4 1006 100 10000 4.1 220 20:58 11.12.2019
6638 Mist 4 1005 100 3000 4.6 250 20:39 11.12.2019
6639 Clouds 4 1006 100 10000 4.1 220 20:19 11.12.2019
6640 Clouds 4 1006 100 10000 4.1 220 20:19 11.12.2019
6641 Clouds 4 1006 100 10000 4.1 220 19:59 11.12.2019
6642 Mist 4 1006 100 9000 4.1 230 19:40 11.12.2019
6643 Mist 4 1006 100 9000 4.1 230 19:21 11.12.2019
6644 Mist 4 1006 100 3200 3.1 230 18:58 11.12.2019
6645 Mist 4 1006 100 1200 3.1 230 18:39 11.12.2019
6646 Mist 4 1006 100 1200 3.1 230 18:19 11.12.2019
6647 Rain 4 1006 93 3000 3.6 240 17:56 11.12.2019
6648 Rain 3 1006 100 4400 3.6 220 17:37 11.12.2019
6649 Rain 3 1006 100 4400 3.6 220 17:18 11.12.2019
6650 Mist 4 1006 100 5000 4.1 210 16:55 11.12.2019
6651 Rain 4 1005 100 5000 3.1 190 16:37 11.12.2019
6652 Rain 4 1005 100 5000 3.1 190 16:18 11.12.2019
6653 Rain 4 1006 100 3200 4.1 210 15:56 11.12.2019
6654 Rain 4 1006 100 4400 4.1 220 15:37 11.12.2019
6655 Rain 4 1006 100 4400 4.1 220 15:18 11.12.2019
6656 Drizzle 4 1007 100 500 3.1 200 14:54 11.12.2019
6657 Rain 3 1006 93 10000 4.1 200 14:36 11.12.2019
6658 Rain 3 1006 93 10000 4.1 200 14:36 11.12.2019
6659 Rain 3 1006 93 10000 4.1 200 14:18 11.12.2019
6660 Rain 3 1007 100 500 3.1 180 13:42 11.12.2019
6661 Rain 3 1007 100 500 3.1 180 13:42 11.12.2019
6662 Rain 3 1007 100 5000 2.6 190 13:22 11.12.2019
6663 Rain 3 1008 100 5000 3.6 200 12:58 11.12.2019
6664 Clouds 3 1008 93 3200 3.1 210 12:39 11.12.2019
6665 Clouds 3 1008 93 3200 3.1 210 12:21 11.12.2019
6666 Rain 3 1009 100 3200 3.1 220 11:58 11.12.2019
6667 Rain 3 1009 100 3200 4.1 190 11:39 11.12.2019
6668 Rain 3 1009 100 3200 4.1 190 11:39 11.12.2019
6669 Rain 2 1009 100 3200 4.1 190 11:19 11.12.2019
6670 Rain 2 1009 100 3200 4.1 190 11:19 11.12.2019
6671 Mist 2 1010 93 3200 4.1 200 10:59 11.12.2019
6672 Mist 2 1010 93 8000 4.1 190 10:39 11.12.2019
6673 Mist 2 1010 93 8000 4.1 190 10:21 11.12.2019
6674 Mist 2 1010 93 6000 4.1 200 09:56 11.12.2019
6675 Rain 2 1011 100 8000 3.1 210 09:38 11.12.2019
6676 Rain 2 1011 100 8000 3.1 210 09:19 11.12.2019
6677 Mist 2 1011 100 9000 3.6 200 08:55 11.12.2019
6678 Rain 2 1010 96 4500 5.1 230 08:36 11.12.2019
6679 Rain 2 1010 89 6000 5.7 230 08:18 11.12.2019
6680 Rain 2 1012 100 6000 3.6 180 07:43 11.12.2019
6681 -273 0 0 0 0 0 07:23 11.12.2019
6682 Rain 2 1012 100 4500 4.1 180 06:46 11.12.2019
6683 Rain 2 1012 89 10000 3.1 210 06:24 11.12.2019
6684 Rain 2 1013 89 4000 3.6 180 05:55 11.12.2019
6685 Rain 2 1012 89 10000 6.2 220 05:35 11.12.2019
6686 Rain 2 1014 83 10000 3.6 220 04:51 11.12.2019
6687 Rain 2 1015 80 10000 4.1 210 03:26 11.12.2019
6688 Clouds 2 1014 69 10000 8.2 220 02:35 11.12.2019
6689 Clouds 2 1017 80 10000 4.6 210 01:22 11.12.2019
6690 Clouds 2 1017 81 10000 4.6 180 00:43 11.12.2019
6691 Clouds 2 1018 80 10000 4.1 200 00:19 11.12.2019
6692 Clouds 2 1018 81 10000 4.1 170 23:46 10.12.2019
6693 Clouds 2 1018 80 10000 4.6 190 23:26 10.12.2019
6694 Clouds 2 1019 90 10000 4.1 180 22:57 10.12.2019
6695 Clouds 2 1018 86 10000 4.1 200 22:39 10.12.2019
6696 Clouds 2 1019 90 10000 5.7 200 22:21 10.12.2019
6697 Clouds 2 1020 93 10000 4.6 180 21:54 10.12.2019
6698 Clouds 2 1020 90 10000 4.1 200 21:36 10.12.2019
6699 Clouds 2 1020 90 10000 4.1 200 21:18 10.12.2019
6700 Clouds 2 1021 90 8000 3.6 180 20:56 10.12.2019
6701 Clouds 2 1021 90 8000 3.6 180 20:56 10.12.2019
6702 Clouds 2 1020 90 10000 4.1 200 20:37 10.12.2019
6703 Clouds 2 1020 94 10000 4.1 200 20:18 10.12.2019
6704 Clouds 1 1021 94 10000 3.6 200 19:54 10.12.2019
6705 Clouds 1 1021 94 10000 3.1 190 19:36 10.12.2019
6706 Clouds 1 1021 94 10000 3.1 190 19:18 10.12.2019
6707 Clouds 1 1022 94 10000 3.6 180 18:39 10.12.2019
6708 Clouds 1 1022 94 10000 3.6 180 18:39 10.12.2019
6709 Clouds 1 1022 94 10000 3.6 180 18:20 10.12.2019
6710 Clouds 1 1023 94 10000 3.1 170 17:57 10.12.2019
6711 Clouds 1 1022 94 10000 2.1 220 17:39 10.12.2019
6712 Clouds 2 1023 90 10000 5.1 200 17:19 10.12.2019
6713 Clouds 2 1024 100 8000 3.1 180 16:43 10.12.2019
6714 Clouds 2 1024 90 10000 7.2 210 16:20 10.12.2019
6715 Clouds 2 1024 90 10000 6.2 200 15:59 10.12.2019
6716 Clouds 2 1023 86<